<?xml version="1.0" encoding="UTF-8" standalone="no" ?>
<gpx xmlns="http://www.topografix.com/GPX/1/1" xmlns:xsi="http://www.w3.org/2001/XMLSchema-instance" xsi:schemaLocation="http://www.topografix.com/GPX/1/1 http://www.topografix.com/GPX/1/1/gpx.xsd" version="1.1" creator="VisuGPX - https://www.visugpx.com">
  <metadata>
    <name>VTT - Plateau Mourre d\'Agnis</name>
    <desc><![CDATA[Superbe sortie VTT sur le plateau du Mourre d\'Agnis avec sa foret de pins et arrivé au sommet du Mourre à 919m, une vue sublime sur les Alpes ;)
DFCI, beaux singles, cool !!!
Vérifier bien le tracé pour éviter de faire une partie pour rien car propriété privée.]]></desc>
  </metadata>
  <trk>
    <name><![CDATA[03-JAN-13 15:39:26]]></name>
    <trkseg>
      <trkpt lat="43.28839" lon="5.9226">
        <ele>434.17</ele>
        <time>2013-01-03T10:18:55Z</time>
      </trkpt>
      <trkpt lat="43.28839" lon="5.9226">
        <ele>434.17</ele>
        <time>2013-01-03T10:18:56Z</time>
      </trkpt>
      <trkpt lat="43.2884" lon="5.92261">
        <ele>435.13</ele>
        <time>2013-01-03T10:19:00Z</time>
      </trkpt>
      <trkpt lat="43.28848" lon="5.92266">
        <ele>437.06</ele>
        <time>2013-01-03T10:19:09Z</time>
      </trkpt>
      <trkpt lat="43.28866" lon="5.92297">
        <ele>439.94</ele>
        <time>2013-01-03T10:19:24Z</time>
      </trkpt>
      <trkpt lat="43.28874" lon="5.92334">
        <ele>442.34</ele>
        <time>2013-01-03T10:19:39Z</time>
      </trkpt>
      <trkpt lat="43.28878" lon="5.92377">
        <ele>444.75</ele>
        <time>2013-01-03T10:19:54Z</time>
      </trkpt>
      <trkpt lat="43.28886" lon="5.92415">
        <ele>448.11</ele>
        <time>2013-01-03T10:20:08Z</time>
      </trkpt>
      <trkpt lat="43.28906" lon="5.92445">
        <ele>450.52</ele>
        <time>2013-01-03T10:20:22Z</time>
      </trkpt>
      <trkpt lat="43.2894" lon="5.92459">
        <ele>451.96</ele>
        <time>2013-01-03T10:20:38Z</time>
      </trkpt>
      <trkpt lat="43.2897" lon="5.92477">
        <ele>454.36</ele>
        <time>2013-01-03T10:20:52Z</time>
      </trkpt>
      <trkpt lat="43.28998" lon="5.92503">
        <ele>456.28</ele>
        <time>2013-01-03T10:21:07Z</time>
      </trkpt>
      <trkpt lat="43.29017" lon="5.92543">
        <ele>458.21</ele>
        <time>2013-01-03T10:21:22Z</time>
      </trkpt>
      <trkpt lat="43.29032" lon="5.92581">
        <ele>460.13</ele>
        <time>2013-01-03T10:21:36Z</time>
      </trkpt>
      <trkpt lat="43.29053" lon="5.92632">
        <ele>461.09</ele>
        <time>2013-01-03T10:21:52Z</time>
      </trkpt>
      <trkpt lat="43.29072" lon="5.92671">
        <ele>463.01</ele>
        <time>2013-01-03T10:22:05Z</time>
      </trkpt>
      <trkpt lat="43.29096" lon="5.92723">
        <ele>463.97</ele>
        <time>2013-01-03T10:22:22Z</time>
      </trkpt>
      <trkpt lat="43.29124" lon="5.92776">
        <ele>464.45</ele>
        <time>2013-01-03T10:22:38Z</time>
      </trkpt>
      <trkpt lat="43.29144" lon="5.92822">
        <ele>465.42</ele>
        <time>2013-01-03T10:22:52Z</time>
      </trkpt>
      <trkpt lat="43.29149" lon="5.92881">
        <ele>465.9</ele>
        <time>2013-01-03T10:23:07Z</time>
      </trkpt>
      <trkpt lat="43.29133" lon="5.92933">
        <ele>466.86</ele>
        <time>2013-01-03T10:23:22Z</time>
      </trkpt>
      <trkpt lat="43.29106" lon="5.92947">
        <ele>465.9</ele>
        <time>2013-01-03T10:23:31Z</time>
      </trkpt>
      <trkpt lat="43.29056" lon="5.92968">
        <ele>462.53</ele>
        <time>2013-01-03T10:23:41Z</time>
      </trkpt>
      <trkpt lat="43.2905" lon="5.92971">
        <ele>462.05</ele>
        <time>2013-01-03T10:23:42Z</time>
      </trkpt>
      <trkpt lat="43.29045" lon="5.92976">
        <ele>461.57</ele>
        <time>2013-01-03T10:23:43Z</time>
      </trkpt>
      <trkpt lat="43.29033" lon="5.92985">
        <ele>460.13</ele>
        <time>2013-01-03T10:23:45Z</time>
      </trkpt>
      <trkpt lat="43.29027" lon="5.92989">
        <ele>459.65</ele>
        <time>2013-01-03T10:23:46Z</time>
      </trkpt>
      <trkpt lat="43.29015" lon="5.92999">
        <ele>459.65</ele>
        <time>2013-01-03T10:23:48Z</time>
      </trkpt>
      <trkpt lat="43.29011" lon="5.93006">
        <ele>459.65</ele>
        <time>2013-01-03T10:23:49Z</time>
      </trkpt>
      <trkpt lat="43.29007" lon="5.93013">
        <ele>460.13</ele>
        <time>2013-01-03T10:23:50Z</time>
      </trkpt>
      <trkpt lat="43.29005" lon="5.93019">
        <ele>460.13</ele>
        <time>2013-01-03T10:23:51Z</time>
      </trkpt>
      <trkpt lat="43.29003" lon="5.93025">
        <ele>460.61</ele>
        <time>2013-01-03T10:23:52Z</time>
      </trkpt>
      <trkpt lat="43.29001" lon="5.9303">
        <ele>461.57</ele>
        <time>2013-01-03T10:23:53Z</time>
      </trkpt>
      <trkpt lat="43.28994" lon="5.93056">
        <ele>463.97</ele>
        <time>2013-01-03T10:24:03Z</time>
      </trkpt>
      <trkpt lat="43.28995" lon="5.93058">
        <ele>463.97</ele>
        <time>2013-01-03T10:24:04Z</time>
      </trkpt>
      <trkpt lat="43.28997" lon="5.93059">
        <ele>463.97</ele>
        <time>2013-01-03T10:24:05Z</time>
      </trkpt>
      <trkpt lat="43.28999" lon="5.93058">
        <ele>463.97</ele>
        <time>2013-01-03T10:24:06Z</time>
      </trkpt>
      <trkpt lat="43.29" lon="5.93056">
        <ele>463.97</ele>
        <time>2013-01-03T10:24:07Z</time>
      </trkpt>
      <trkpt lat="43.29002" lon="5.93054">
        <ele>464.45</ele>
        <time>2013-01-03T10:24:08Z</time>
      </trkpt>
      <trkpt lat="43.29004" lon="5.93052">
        <ele>464.45</ele>
        <time>2013-01-03T10:24:09Z</time>
      </trkpt>
      <trkpt lat="43.29006" lon="5.93051">
        <ele>464.45</ele>
        <time>2013-01-03T10:24:10Z</time>
      </trkpt>
      <trkpt lat="43.29008" lon="5.9305">
        <ele>464.93</ele>
        <time>2013-01-03T10:24:11Z</time>
      </trkpt>
      <trkpt lat="43.2901" lon="5.93049">
        <ele>465.42</ele>
        <time>2013-01-03T10:24:12Z</time>
      </trkpt>
      <trkpt lat="43.29035" lon="5.93049">
        <ele>468.78</ele>
        <time>2013-01-03T10:24:24Z</time>
      </trkpt>
      <trkpt lat="43.29056" lon="5.93056">
        <ele>472.14</ele>
        <time>2013-01-03T10:24:35Z</time>
      </trkpt>
      <trkpt lat="43.29082" lon="5.93064">
        <ele>473.59</ele>
        <time>2013-01-03T10:24:48Z</time>
      </trkpt>
      <trkpt lat="43.29104" lon="5.93062">
        <ele>475.99</ele>
        <time>2013-01-03T10:24:58Z</time>
      </trkpt>
      <trkpt lat="43.29106" lon="5.93061">
        <ele>476.47</ele>
        <time>2013-01-03T10:24:59Z</time>
      </trkpt>
      <trkpt lat="43.29109" lon="5.93061">
        <ele>476.47</ele>
        <time>2013-01-03T10:25:00Z</time>
      </trkpt>
      <trkpt lat="43.29111" lon="5.9306">
        <ele>476.95</ele>
        <time>2013-01-03T10:25:01Z</time>
      </trkpt>
      <trkpt lat="43.29113" lon="5.9306">
        <ele>476.95</ele>
        <time>2013-01-03T10:25:02Z</time>
      </trkpt>
      <trkpt lat="43.29115" lon="5.9306">
        <ele>476.95</ele>
        <time>2013-01-03T10:25:03Z</time>
      </trkpt>
      <trkpt lat="43.29117" lon="5.93061">
        <ele>476.95</ele>
        <time>2013-01-03T10:25:04Z</time>
      </trkpt>
      <trkpt lat="43.29119" lon="5.93062">
        <ele>476.95</ele>
        <time>2013-01-03T10:25:05Z</time>
      </trkpt>
      <trkpt lat="43.2912" lon="5.93065">
        <ele>476.95</ele>
        <time>2013-01-03T10:25:06Z</time>
      </trkpt>
      <trkpt lat="43.29122" lon="5.93067">
        <ele>477.43</ele>
        <time>2013-01-03T10:25:07Z</time>
      </trkpt>
      <trkpt lat="43.29123" lon="5.9307">
        <ele>476.95</ele>
        <time>2013-01-03T10:25:08Z</time>
      </trkpt>
      <trkpt lat="43.29134" lon="5.93094">
        <ele>478.87</ele>
        <time>2013-01-03T10:25:19Z</time>
      </trkpt>
      <trkpt lat="43.29149" lon="5.93117">
        <ele>480.32</ele>
        <time>2013-01-03T10:25:31Z</time>
      </trkpt>
      <trkpt lat="43.29151" lon="5.93118">
        <ele>480.32</ele>
        <time>2013-01-03T10:25:32Z</time>
      </trkpt>
      <trkpt lat="43.29153" lon="5.93119">
        <ele>480.32</ele>
        <time>2013-01-03T10:25:33Z</time>
      </trkpt>
      <trkpt lat="43.29154" lon="5.9312">
        <ele>480.32</ele>
        <time>2013-01-03T10:25:34Z</time>
      </trkpt>
      <trkpt lat="43.29157" lon="5.93121">
        <ele>480.8</ele>
        <time>2013-01-03T10:25:35Z</time>
      </trkpt>
      <trkpt lat="43.29159" lon="5.93121">
        <ele>481.28</ele>
        <time>2013-01-03T10:25:36Z</time>
      </trkpt>
      <trkpt lat="43.2916" lon="5.93122">
        <ele>481.28</ele>
        <time>2013-01-03T10:25:37Z</time>
      </trkpt>
      <trkpt lat="43.29162" lon="5.93122">
        <ele>481.76</ele>
        <time>2013-01-03T10:25:38Z</time>
      </trkpt>
      <trkpt lat="43.29164" lon="5.93122">
        <ele>481.76</ele>
        <time>2013-01-03T10:25:39Z</time>
      </trkpt>
      <trkpt lat="43.29165" lon="5.93121">
        <ele>481.76</ele>
        <time>2013-01-03T10:25:40Z</time>
      </trkpt>
      <trkpt lat="43.29167" lon="5.93121">
        <ele>482.24</ele>
        <time>2013-01-03T10:25:41Z</time>
      </trkpt>
      <trkpt lat="43.29168" lon="5.9312">
        <ele>482.24</ele>
        <time>2013-01-03T10:25:42Z</time>
      </trkpt>
      <trkpt lat="43.2917" lon="5.9312">
        <ele>482.72</ele>
        <time>2013-01-03T10:25:43Z</time>
      </trkpt>
      <trkpt lat="43.29188" lon="5.93126">
        <ele>485.6</ele>
        <time>2013-01-03T10:25:54Z</time>
      </trkpt>
      <trkpt lat="43.29196" lon="5.93129">
        <ele>487.05</ele>
        <time>2013-01-03T10:25:59Z</time>
      </trkpt>
      <trkpt lat="43.29198" lon="5.93129">
        <ele>487.53</ele>
        <time>2013-01-03T10:26:00Z</time>
      </trkpt>
      <trkpt lat="43.29203" lon="5.9313">
        <ele>488.01</ele>
        <time>2013-01-03T10:26:03Z</time>
      </trkpt>
      <trkpt lat="43.29204" lon="5.93131">
        <ele>488.49</ele>
        <time>2013-01-03T10:26:04Z</time>
      </trkpt>
      <trkpt lat="43.29206" lon="5.93132">
        <ele>488.97</ele>
        <time>2013-01-03T10:26:05Z</time>
      </trkpt>
      <trkpt lat="43.29207" lon="5.93133">
        <ele>488.97</ele>
        <time>2013-01-03T10:26:06Z</time>
      </trkpt>
      <trkpt lat="43.29209" lon="5.93135">
        <ele>488.97</ele>
        <time>2013-01-03T10:26:07Z</time>
      </trkpt>
      <trkpt lat="43.2921" lon="5.93136">
        <ele>489.45</ele>
        <time>2013-01-03T10:26:08Z</time>
      </trkpt>
      <trkpt lat="43.29215" lon="5.93149">
        <ele>490.41</ele>
        <time>2013-01-03T10:26:14Z</time>
      </trkpt>
      <trkpt lat="43.29215" lon="5.93151">
        <ele>490.41</ele>
        <time>2013-01-03T10:26:15Z</time>
      </trkpt>
      <trkpt lat="43.29216" lon="5.93153">
        <ele>490.41</ele>
        <time>2013-01-03T10:26:16Z</time>
      </trkpt>
      <trkpt lat="43.29218" lon="5.93155">
        <ele>490.41</ele>
        <time>2013-01-03T10:26:17Z</time>
      </trkpt>
      <trkpt lat="43.29219" lon="5.93156">
        <ele>490.41</ele>
        <time>2013-01-03T10:26:18Z</time>
      </trkpt>
      <trkpt lat="43.29221" lon="5.93158">
        <ele>490.41</ele>
        <time>2013-01-03T10:26:19Z</time>
      </trkpt>
      <trkpt lat="43.29223" lon="5.93158">
        <ele>490.41</ele>
        <time>2013-01-03T10:26:20Z</time>
      </trkpt>
      <trkpt lat="43.29225" lon="5.93159">
        <ele>490.41</ele>
        <time>2013-01-03T10:26:21Z</time>
      </trkpt>
      <trkpt lat="43.29227" lon="5.93159">
        <ele>489.93</ele>
        <time>2013-01-03T10:26:22Z</time>
      </trkpt>
      <trkpt lat="43.29229" lon="5.9316">
        <ele>489.93</ele>
        <time>2013-01-03T10:26:23Z</time>
      </trkpt>
      <trkpt lat="43.2926" lon="5.93149">
        <ele>490.41</ele>
        <time>2013-01-03T10:26:36Z</time>
      </trkpt>
      <trkpt lat="43.29284" lon="5.93144">
        <ele>491.37</ele>
        <time>2013-01-03T10:26:48Z</time>
      </trkpt>
      <trkpt lat="43.29286" lon="5.93143">
        <ele>491.85</ele>
        <time>2013-01-03T10:26:49Z</time>
      </trkpt>
      <trkpt lat="43.29288" lon="5.93143">
        <ele>491.85</ele>
        <time>2013-01-03T10:26:50Z</time>
      </trkpt>
      <trkpt lat="43.29289" lon="5.93143">
        <ele>491.85</ele>
        <time>2013-01-03T10:26:51Z</time>
      </trkpt>
      <trkpt lat="43.29317" lon="5.93144">
        <ele>495.22</ele>
        <time>2013-01-03T10:27:05Z</time>
      </trkpt>
      <trkpt lat="43.29333" lon="5.93148">
        <ele>498.1</ele>
        <time>2013-01-03T10:27:15Z</time>
      </trkpt>
      <trkpt lat="43.29336" lon="5.93151">
        <ele>498.58</ele>
        <time>2013-01-03T10:27:17Z</time>
      </trkpt>
      <trkpt lat="43.29337" lon="5.93152">
        <ele>498.58</ele>
        <time>2013-01-03T10:27:18Z</time>
      </trkpt>
      <trkpt lat="43.29339" lon="5.93154">
        <ele>498.58</ele>
        <time>2013-01-03T10:27:19Z</time>
      </trkpt>
      <trkpt lat="43.29341" lon="5.93155">
        <ele>499.06</ele>
        <time>2013-01-03T10:27:20Z</time>
      </trkpt>
      <trkpt lat="43.29343" lon="5.93155">
        <ele>499.06</ele>
        <time>2013-01-03T10:27:21Z</time>
      </trkpt>
      <trkpt lat="43.29345" lon="5.93156">
        <ele>499.06</ele>
        <time>2013-01-03T10:27:22Z</time>
      </trkpt>
      <trkpt lat="43.29347" lon="5.93156">
        <ele>499.54</ele>
        <time>2013-01-03T10:27:23Z</time>
      </trkpt>
      <trkpt lat="43.29349" lon="5.93156">
        <ele>499.54</ele>
        <time>2013-01-03T10:27:24Z</time>
      </trkpt>
      <trkpt lat="43.29375" lon="5.93152">
        <ele>501.46</ele>
        <time>2013-01-03T10:27:37Z</time>
      </trkpt>
      <trkpt lat="43.29398" lon="5.93152">
        <ele>502.43</ele>
        <time>2013-01-03T10:27:48Z</time>
      </trkpt>
      <trkpt lat="43.294" lon="5.93151">
        <ele>502.91</ele>
        <time>2013-01-03T10:27:49Z</time>
      </trkpt>
      <trkpt lat="43.29401" lon="5.93149">
        <ele>502.91</ele>
        <time>2013-01-03T10:27:50Z</time>
      </trkpt>
      <trkpt lat="43.29402" lon="5.93147">
        <ele>503.39</ele>
        <time>2013-01-03T10:27:51Z</time>
      </trkpt>
      <trkpt lat="43.29404" lon="5.93146">
        <ele>503.39</ele>
        <time>2013-01-03T10:27:52Z</time>
      </trkpt>
      <trkpt lat="43.29405" lon="5.93144">
        <ele>503.39</ele>
        <time>2013-01-03T10:27:53Z</time>
      </trkpt>
      <trkpt lat="43.29407" lon="5.93143">
        <ele>503.39</ele>
        <time>2013-01-03T10:27:54Z</time>
      </trkpt>
      <trkpt lat="43.29409" lon="5.93143">
        <ele>503.87</ele>
        <time>2013-01-03T10:27:55Z</time>
      </trkpt>
      <trkpt lat="43.29411" lon="5.93143">
        <ele>503.87</ele>
        <time>2013-01-03T10:27:56Z</time>
      </trkpt>
      <trkpt lat="43.29413" lon="5.93142">
        <ele>503.87</ele>
        <time>2013-01-03T10:27:57Z</time>
      </trkpt>
      <trkpt lat="43.29414" lon="5.93142">
        <ele>503.87</ele>
        <time>2013-01-03T10:27:58Z</time>
      </trkpt>
      <trkpt lat="43.29415" lon="5.93143">
        <ele>504.35</ele>
        <time>2013-01-03T10:27:59Z</time>
      </trkpt>
      <trkpt lat="43.29418" lon="5.93145">
        <ele>503.87</ele>
        <time>2013-01-03T10:28:00Z</time>
      </trkpt>
      <trkpt lat="43.29421" lon="5.93147">
        <ele>503.87</ele>
        <time>2013-01-03T10:28:01Z</time>
      </trkpt>
      <trkpt lat="43.29429" lon="5.93153">
        <ele>502.43</ele>
        <time>2013-01-03T10:28:03Z</time>
      </trkpt>
      <trkpt lat="43.29433" lon="5.93155">
        <ele>501.95</ele>
        <time>2013-01-03T10:28:04Z</time>
      </trkpt>
      <trkpt lat="43.29438" lon="5.93155">
        <ele>501.95</ele>
        <time>2013-01-03T10:28:05Z</time>
      </trkpt>
      <trkpt lat="43.29442" lon="5.93155">
        <ele>501.46</ele>
        <time>2013-01-03T10:28:06Z</time>
      </trkpt>
      <trkpt lat="43.29447" lon="5.93153">
        <ele>501.46</ele>
        <time>2013-01-03T10:28:07Z</time>
      </trkpt>
      <trkpt lat="43.29476" lon="5.93146">
        <ele>502.43</ele>
        <time>2013-01-03T10:28:16Z</time>
      </trkpt>
      <trkpt lat="43.29505" lon="5.93137">
        <ele>505.31</ele>
        <time>2013-01-03T10:28:30Z</time>
      </trkpt>
      <trkpt lat="43.29513" lon="5.93133">
        <ele>506.75</ele>
        <time>2013-01-03T10:28:35Z</time>
      </trkpt>
      <trkpt lat="43.29515" lon="5.93132">
        <ele>507.23</ele>
        <time>2013-01-03T10:28:36Z</time>
      </trkpt>
      <trkpt lat="43.29517" lon="5.93131">
        <ele>507.71</ele>
        <time>2013-01-03T10:28:37Z</time>
      </trkpt>
      <trkpt lat="43.29518" lon="5.93129">
        <ele>507.71</ele>
        <time>2013-01-03T10:28:38Z</time>
      </trkpt>
      <trkpt lat="43.2952" lon="5.93129">
        <ele>507.71</ele>
        <time>2013-01-03T10:28:39Z</time>
      </trkpt>
      <trkpt lat="43.29522" lon="5.93128">
        <ele>508.19</ele>
        <time>2013-01-03T10:28:40Z</time>
      </trkpt>
      <trkpt lat="43.29538" lon="5.93113">
        <ele>511.08</ele>
        <time>2013-01-03T10:28:51Z</time>
      </trkpt>
      <trkpt lat="43.29539" lon="5.93111">
        <ele>511.08</ele>
        <time>2013-01-03T10:28:52Z</time>
      </trkpt>
      <trkpt lat="43.29544" lon="5.93107">
        <ele>512.04</ele>
        <time>2013-01-03T10:28:56Z</time>
      </trkpt>
      <trkpt lat="43.29545" lon="5.93108">
        <ele>512.04</ele>
        <time>2013-01-03T10:28:57Z</time>
      </trkpt>
      <trkpt lat="43.29549" lon="5.93106">
        <ele>513.48</ele>
        <time>2013-01-03T10:29:01Z</time>
      </trkpt>
      <trkpt lat="43.29565" lon="5.93102">
        <ele>515.88</ele>
        <time>2013-01-03T10:29:14Z</time>
      </trkpt>
      <trkpt lat="43.29572" lon="5.93097">
        <ele>516.37</ele>
        <time>2013-01-03T10:29:25Z</time>
      </trkpt>
      <trkpt lat="43.29575" lon="5.93096">
        <ele>517.33</ele>
        <time>2013-01-03T10:29:34Z</time>
      </trkpt>
      <trkpt lat="43.2958" lon="5.93094">
        <ele>517.81</ele>
        <time>2013-01-03T10:29:40Z</time>
      </trkpt>
      <trkpt lat="43.29584" lon="5.93094">
        <ele>518.29</ele>
        <time>2013-01-03T10:29:44Z</time>
      </trkpt>
      <trkpt lat="43.29587" lon="5.93094">
        <ele>518.77</ele>
        <time>2013-01-03T10:29:46Z</time>
      </trkpt>
      <trkpt lat="43.29588" lon="5.93094">
        <ele>518.77</ele>
        <time>2013-01-03T10:29:47Z</time>
      </trkpt>
      <trkpt lat="43.29589" lon="5.93093">
        <ele>519.25</ele>
        <time>2013-01-03T10:29:48Z</time>
      </trkpt>
      <trkpt lat="43.2959" lon="5.93092">
        <ele>519.25</ele>
        <time>2013-01-03T10:29:49Z</time>
      </trkpt>
      <trkpt lat="43.29591" lon="5.93091">
        <ele>519.73</ele>
        <time>2013-01-03T10:29:50Z</time>
      </trkpt>
      <trkpt lat="43.29592" lon="5.93091">
        <ele>519.73</ele>
        <time>2013-01-03T10:29:51Z</time>
      </trkpt>
      <trkpt lat="43.29594" lon="5.93091">
        <ele>520.21</ele>
        <time>2013-01-03T10:29:52Z</time>
      </trkpt>
      <trkpt lat="43.29595" lon="5.9309">
        <ele>520.21</ele>
        <time>2013-01-03T10:29:53Z</time>
      </trkpt>
      <trkpt lat="43.29595" lon="5.93089">
        <ele>520.69</ele>
        <time>2013-01-03T10:29:54Z</time>
      </trkpt>
      <trkpt lat="43.29596" lon="5.93089">
        <ele>520.69</ele>
        <time>2013-01-03T10:29:55Z</time>
      </trkpt>
      <trkpt lat="43.29597" lon="5.93089">
        <ele>520.69</ele>
        <time>2013-01-03T10:29:56Z</time>
      </trkpt>
      <trkpt lat="43.29598" lon="5.93089">
        <ele>520.69</ele>
        <time>2013-01-03T10:30:03Z</time>
      </trkpt>
      <trkpt lat="43.296" lon="5.93089">
        <ele>520.69</ele>
        <time>2013-01-03T10:30:04Z</time>
      </trkpt>
      <trkpt lat="43.29601" lon="5.93089">
        <ele>521.17</ele>
        <time>2013-01-03T10:30:05Z</time>
      </trkpt>
      <trkpt lat="43.29603" lon="5.93089">
        <ele>521.17</ele>
        <time>2013-01-03T10:30:06Z</time>
      </trkpt>
      <trkpt lat="43.29604" lon="5.93089">
        <ele>521.17</ele>
        <time>2013-01-03T10:30:07Z</time>
      </trkpt>
      <trkpt lat="43.29606" lon="5.9309">
        <ele>521.65</ele>
        <time>2013-01-03T10:30:08Z</time>
      </trkpt>
      <trkpt lat="43.29608" lon="5.93092">
        <ele>521.65</ele>
        <time>2013-01-03T10:30:09Z</time>
      </trkpt>
      <trkpt lat="43.29609" lon="5.93093">
        <ele>521.65</ele>
        <time>2013-01-03T10:30:10Z</time>
      </trkpt>
      <trkpt lat="43.29611" lon="5.93094">
        <ele>522.13</ele>
        <time>2013-01-03T10:30:11Z</time>
      </trkpt>
      <trkpt lat="43.29612" lon="5.93096">
        <ele>522.13</ele>
        <time>2013-01-03T10:30:12Z</time>
      </trkpt>
      <trkpt lat="43.29613" lon="5.93097">
        <ele>522.61</ele>
        <time>2013-01-03T10:30:13Z</time>
      </trkpt>
      <trkpt lat="43.29631" lon="5.93106">
        <ele>525.02</ele>
        <time>2013-01-03T10:30:26Z</time>
      </trkpt>
      <trkpt lat="43.29636" lon="5.93105">
        <ele>525.02</ele>
        <time>2013-01-03T10:30:31Z</time>
      </trkpt>
      <trkpt lat="43.29639" lon="5.93102">
        <ele>525.02</ele>
        <time>2013-01-03T10:30:33Z</time>
      </trkpt>
      <trkpt lat="43.29641" lon="5.93102">
        <ele>525.02</ele>
        <time>2013-01-03T10:30:34Z</time>
      </trkpt>
      <trkpt lat="43.29642" lon="5.93102">
        <ele>525.5</ele>
        <time>2013-01-03T10:30:35Z</time>
      </trkpt>
      <trkpt lat="43.29644" lon="5.93101">
        <ele>525.5</ele>
        <time>2013-01-03T10:30:36Z</time>
      </trkpt>
      <trkpt lat="43.29645" lon="5.931">
        <ele>525.5</ele>
        <time>2013-01-03T10:30:37Z</time>
      </trkpt>
      <trkpt lat="43.29647" lon="5.93099">
        <ele>525.5</ele>
        <time>2013-01-03T10:30:38Z</time>
      </trkpt>
      <trkpt lat="43.29648" lon="5.93099">
        <ele>525.98</ele>
        <time>2013-01-03T10:30:39Z</time>
      </trkpt>
      <trkpt lat="43.2965" lon="5.93098">
        <ele>525.98</ele>
        <time>2013-01-03T10:30:40Z</time>
      </trkpt>
      <trkpt lat="43.29652" lon="5.93098">
        <ele>525.98</ele>
        <time>2013-01-03T10:30:41Z</time>
      </trkpt>
      <trkpt lat="43.29654" lon="5.93097">
        <ele>525.98</ele>
        <time>2013-01-03T10:30:42Z</time>
      </trkpt>
      <trkpt lat="43.29656" lon="5.93096">
        <ele>526.46</ele>
        <time>2013-01-03T10:30:43Z</time>
      </trkpt>
      <trkpt lat="43.29664" lon="5.93087">
        <ele>527.42</ele>
        <time>2013-01-03T10:30:49Z</time>
      </trkpt>
      <trkpt lat="43.29666" lon="5.93086">
        <ele>526.94</ele>
        <time>2013-01-03T10:30:50Z</time>
      </trkpt>
      <trkpt lat="43.29679" lon="5.93082">
        <ele>528.38</ele>
        <time>2013-01-03T10:30:58Z</time>
      </trkpt>
      <trkpt lat="43.2968" lon="5.93082">
        <ele>528.38</ele>
        <time>2013-01-03T10:30:59Z</time>
      </trkpt>
      <trkpt lat="43.29682" lon="5.93081">
        <ele>528.38</ele>
        <time>2013-01-03T10:31:00Z</time>
      </trkpt>
      <trkpt lat="43.29683" lon="5.93079">
        <ele>528.38</ele>
        <time>2013-01-03T10:31:01Z</time>
      </trkpt>
      <trkpt lat="43.29685" lon="5.93078">
        <ele>528.86</ele>
        <time>2013-01-03T10:31:02Z</time>
      </trkpt>
      <trkpt lat="43.29686" lon="5.93077">
        <ele>528.38</ele>
        <time>2013-01-03T10:31:03Z</time>
      </trkpt>
      <trkpt lat="43.29688" lon="5.93076">
        <ele>528.86</ele>
        <time>2013-01-03T10:31:04Z</time>
      </trkpt>
      <trkpt lat="43.2969" lon="5.93076">
        <ele>528.86</ele>
        <time>2013-01-03T10:31:05Z</time>
      </trkpt>
      <trkpt lat="43.29693" lon="5.93074">
        <ele>528.86</ele>
        <time>2013-01-03T10:31:07Z</time>
      </trkpt>
      <trkpt lat="43.29695" lon="5.93073">
        <ele>529.34</ele>
        <time>2013-01-03T10:31:08Z</time>
      </trkpt>
      <trkpt lat="43.29696" lon="5.93072">
        <ele>529.34</ele>
        <time>2013-01-03T10:31:09Z</time>
      </trkpt>
      <trkpt lat="43.29697" lon="5.93071">
        <ele>529.82</ele>
        <time>2013-01-03T10:31:10Z</time>
      </trkpt>
      <trkpt lat="43.29699" lon="5.93069">
        <ele>529.82</ele>
        <time>2013-01-03T10:31:11Z</time>
      </trkpt>
      <trkpt lat="43.29716" lon="5.93062">
        <ele>532.23</ele>
        <time>2013-01-03T10:31:22Z</time>
      </trkpt>
      <trkpt lat="43.29733" lon="5.93053">
        <ele>534.15</ele>
        <time>2013-01-03T10:31:34Z</time>
      </trkpt>
      <trkpt lat="43.29753" lon="5.93044">
        <ele>537.51</ele>
        <time>2013-01-03T10:31:46Z</time>
      </trkpt>
      <trkpt lat="43.29759" lon="5.93043">
        <ele>538.48</ele>
        <time>2013-01-03T10:31:50Z</time>
      </trkpt>
      <trkpt lat="43.29761" lon="5.93043">
        <ele>538.48</ele>
        <time>2013-01-03T10:31:51Z</time>
      </trkpt>
      <trkpt lat="43.29763" lon="5.93043">
        <ele>538.48</ele>
        <time>2013-01-03T10:31:52Z</time>
      </trkpt>
      <trkpt lat="43.29764" lon="5.93043">
        <ele>538.96</ele>
        <time>2013-01-03T10:31:53Z</time>
      </trkpt>
      <trkpt lat="43.29766" lon="5.93043">
        <ele>538.96</ele>
        <time>2013-01-03T10:31:54Z</time>
      </trkpt>
      <trkpt lat="43.29768" lon="5.93044">
        <ele>538.96</ele>
        <time>2013-01-03T10:31:55Z</time>
      </trkpt>
      <trkpt lat="43.29769" lon="5.93044">
        <ele>539.44</ele>
        <time>2013-01-03T10:31:56Z</time>
      </trkpt>
      <trkpt lat="43.2977" lon="5.93043">
        <ele>539.44</ele>
        <time>2013-01-03T10:31:57Z</time>
      </trkpt>
      <trkpt lat="43.29773" lon="5.93039">
        <ele>539.92</ele>
        <time>2013-01-03T10:32:08Z</time>
      </trkpt>
      <trkpt lat="43.29773" lon="5.93039">
        <ele>539.92</ele>
        <time>2013-01-03T10:32:23Z</time>
      </trkpt>
      <trkpt lat="43.29774" lon="5.93039">
        <ele>539.44</ele>
        <time>2013-01-03T10:32:44Z</time>
      </trkpt>
      <trkpt lat="43.29776" lon="5.93039">
        <ele>539.44</ele>
        <time>2013-01-03T10:32:45Z</time>
      </trkpt>
      <trkpt lat="43.29777" lon="5.93038">
        <ele>539.92</ele>
        <time>2013-01-03T10:32:46Z</time>
      </trkpt>
      <trkpt lat="43.29779" lon="5.93038">
        <ele>539.92</ele>
        <time>2013-01-03T10:32:47Z</time>
      </trkpt>
      <trkpt lat="43.2978" lon="5.93038">
        <ele>540.4</ele>
        <time>2013-01-03T10:32:48Z</time>
      </trkpt>
      <trkpt lat="43.29782" lon="5.93037">
        <ele>540.4</ele>
        <time>2013-01-03T10:32:49Z</time>
      </trkpt>
      <trkpt lat="43.29783" lon="5.93037">
        <ele>540.88</ele>
        <time>2013-01-03T10:32:50Z</time>
      </trkpt>
      <trkpt lat="43.29794" lon="5.9303">
        <ele>542.32</ele>
        <time>2013-01-03T10:32:58Z</time>
      </trkpt>
      <trkpt lat="43.29795" lon="5.93029">
        <ele>542.32</ele>
        <time>2013-01-03T10:32:59Z</time>
      </trkpt>
      <trkpt lat="43.29797" lon="5.93029">
        <ele>542.32</ele>
        <time>2013-01-03T10:33:00Z</time>
      </trkpt>
      <trkpt lat="43.29798" lon="5.93028">
        <ele>542.8</ele>
        <time>2013-01-03T10:33:01Z</time>
      </trkpt>
      <trkpt lat="43.298" lon="5.93028">
        <ele>542.8</ele>
        <time>2013-01-03T10:33:02Z</time>
      </trkpt>
      <trkpt lat="43.29802" lon="5.93028">
        <ele>543.28</ele>
        <time>2013-01-03T10:33:03Z</time>
      </trkpt>
      <trkpt lat="43.29803" lon="5.93028">
        <ele>543.28</ele>
        <time>2013-01-03T10:33:04Z</time>
      </trkpt>
      <trkpt lat="43.29805" lon="5.93027">
        <ele>543.28</ele>
        <time>2013-01-03T10:33:05Z</time>
      </trkpt>
      <trkpt lat="43.29807" lon="5.93027">
        <ele>543.28</ele>
        <time>2013-01-03T10:33:06Z</time>
      </trkpt>
      <trkpt lat="43.29808" lon="5.93027">
        <ele>543.76</ele>
        <time>2013-01-03T10:33:07Z</time>
      </trkpt>
      <trkpt lat="43.2981" lon="5.93027">
        <ele>543.76</ele>
        <time>2013-01-03T10:33:08Z</time>
      </trkpt>
      <trkpt lat="43.29812" lon="5.93027">
        <ele>543.76</ele>
        <time>2013-01-03T10:33:09Z</time>
      </trkpt>
      <trkpt lat="43.29814" lon="5.93028">
        <ele>544.24</ele>
        <time>2013-01-03T10:33:10Z</time>
      </trkpt>
      <trkpt lat="43.29816" lon="5.93028">
        <ele>544.24</ele>
        <time>2013-01-03T10:33:11Z</time>
      </trkpt>
      <trkpt lat="43.29817" lon="5.93028">
        <ele>544.72</ele>
        <time>2013-01-03T10:33:12Z</time>
      </trkpt>
      <trkpt lat="43.29819" lon="5.93029">
        <ele>545.2</ele>
        <time>2013-01-03T10:33:13Z</time>
      </trkpt>
      <trkpt lat="43.2982" lon="5.93028">
        <ele>545.2</ele>
        <time>2013-01-03T10:33:14Z</time>
      </trkpt>
      <trkpt lat="43.29821" lon="5.93027">
        <ele>545.2</ele>
        <time>2013-01-03T10:33:15Z</time>
      </trkpt>
      <trkpt lat="43.29822" lon="5.93026">
        <ele>545.69</ele>
        <time>2013-01-03T10:33:16Z</time>
      </trkpt>
      <trkpt lat="43.29824" lon="5.93025">
        <ele>545.2</ele>
        <time>2013-01-03T10:33:17Z</time>
      </trkpt>
      <trkpt lat="43.29825" lon="5.93024">
        <ele>545.2</ele>
        <time>2013-01-03T10:33:18Z</time>
      </trkpt>
      <trkpt lat="43.29828" lon="5.93023">
        <ele>544.72</ele>
        <time>2013-01-03T10:33:19Z</time>
      </trkpt>
      <trkpt lat="43.2983" lon="5.93022">
        <ele>545.2</ele>
        <time>2013-01-03T10:33:20Z</time>
      </trkpt>
      <trkpt lat="43.29856" lon="5.93009">
        <ele>546.17</ele>
        <time>2013-01-03T10:33:33Z</time>
      </trkpt>
      <trkpt lat="43.29859" lon="5.93005">
        <ele>546.65</ele>
        <time>2013-01-03T10:33:35Z</time>
      </trkpt>
      <trkpt lat="43.2986" lon="5.93003">
        <ele>547.13</ele>
        <time>2013-01-03T10:33:36Z</time>
      </trkpt>
      <trkpt lat="43.29862" lon="5.93001">
        <ele>547.13</ele>
        <time>2013-01-03T10:33:37Z</time>
      </trkpt>
      <trkpt lat="43.29863" lon="5.92999">
        <ele>547.61</ele>
        <time>2013-01-03T10:33:38Z</time>
      </trkpt>
      <trkpt lat="43.29863" lon="5.92996">
        <ele>547.13</ele>
        <time>2013-01-03T10:33:39Z</time>
      </trkpt>
      <trkpt lat="43.29863" lon="5.92993">
        <ele>547.13</ele>
        <time>2013-01-03T10:33:40Z</time>
      </trkpt>
      <trkpt lat="43.29864" lon="5.9299">
        <ele>547.13</ele>
        <time>2013-01-03T10:33:41Z</time>
      </trkpt>
      <trkpt lat="43.29867" lon="5.9298">
        <ele>548.09</ele>
        <time>2013-01-03T10:33:45Z</time>
      </trkpt>
      <trkpt lat="43.29877" lon="5.92958">
        <ele>550.49</ele>
        <time>2013-01-03T10:33:56Z</time>
      </trkpt>
      <trkpt lat="43.29886" lon="5.92947">
        <ele>552.41</ele>
        <time>2013-01-03T10:34:03Z</time>
      </trkpt>
      <trkpt lat="43.29887" lon="5.92946">
        <ele>552.9</ele>
        <time>2013-01-03T10:34:04Z</time>
      </trkpt>
      <trkpt lat="43.29894" lon="5.92942">
        <ele>553.86</ele>
        <time>2013-01-03T10:34:08Z</time>
      </trkpt>
      <trkpt lat="43.29895" lon="5.92942">
        <ele>554.34</ele>
        <time>2013-01-03T10:34:09Z</time>
      </trkpt>
      <trkpt lat="43.29909" lon="5.92933">
        <ele>557.22</ele>
        <time>2013-01-03T10:34:19Z</time>
      </trkpt>
      <trkpt lat="43.29911" lon="5.92933">
        <ele>557.22</ele>
        <time>2013-01-03T10:34:20Z</time>
      </trkpt>
      <trkpt lat="43.29913" lon="5.92932">
        <ele>557.22</ele>
        <time>2013-01-03T10:34:21Z</time>
      </trkpt>
      <trkpt lat="43.29915" lon="5.92932">
        <ele>557.7</ele>
        <time>2013-01-03T10:34:22Z</time>
      </trkpt>
      <trkpt lat="43.29916" lon="5.92931">
        <ele>557.7</ele>
        <time>2013-01-03T10:34:23Z</time>
      </trkpt>
      <trkpt lat="43.29922" lon="5.92929">
        <ele>557.7</ele>
        <time>2013-01-03T10:34:27Z</time>
      </trkpt>
      <trkpt lat="43.29924" lon="5.92929">
        <ele>558.18</ele>
        <time>2013-01-03T10:34:28Z</time>
      </trkpt>
      <trkpt lat="43.29926" lon="5.92929">
        <ele>558.18</ele>
        <time>2013-01-03T10:34:29Z</time>
      </trkpt>
      <trkpt lat="43.29927" lon="5.92929">
        <ele>558.18</ele>
        <time>2013-01-03T10:34:30Z</time>
      </trkpt>
      <trkpt lat="43.29929" lon="5.9293">
        <ele>558.18</ele>
        <time>2013-01-03T10:34:31Z</time>
      </trkpt>
      <trkpt lat="43.2993" lon="5.9293">
        <ele>558.18</ele>
        <time>2013-01-03T10:34:32Z</time>
      </trkpt>
      <trkpt lat="43.29931" lon="5.92931">
        <ele>558.18</ele>
        <time>2013-01-03T10:34:33Z</time>
      </trkpt>
      <trkpt lat="43.29933" lon="5.92932">
        <ele>558.18</ele>
        <time>2013-01-03T10:34:34Z</time>
      </trkpt>
      <trkpt lat="43.29934" lon="5.92933">
        <ele>558.18</ele>
        <time>2013-01-03T10:34:35Z</time>
      </trkpt>
      <trkpt lat="43.29936" lon="5.92933">
        <ele>558.18</ele>
        <time>2013-01-03T10:34:36Z</time>
      </trkpt>
      <trkpt lat="43.29942" lon="5.92934">
        <ele>558.66</ele>
        <time>2013-01-03T10:34:39Z</time>
      </trkpt>
      <trkpt lat="43.29944" lon="5.92934">
        <ele>558.66</ele>
        <time>2013-01-03T10:34:40Z</time>
      </trkpt>
      <trkpt lat="43.29945" lon="5.92934">
        <ele>559.14</ele>
        <time>2013-01-03T10:34:41Z</time>
      </trkpt>
      <trkpt lat="43.29961" lon="5.92928">
        <ele>562.51</ele>
        <time>2013-01-03T10:34:52Z</time>
      </trkpt>
      <trkpt lat="43.29969" lon="5.92926">
        <ele>563.95</ele>
        <time>2013-01-03T10:34:58Z</time>
      </trkpt>
      <trkpt lat="43.2997" lon="5.92925">
        <ele>563.95</ele>
        <time>2013-01-03T10:34:59Z</time>
      </trkpt>
      <trkpt lat="43.29984" lon="5.92923">
        <ele>565.87</ele>
        <time>2013-01-03T10:35:08Z</time>
      </trkpt>
      <trkpt lat="43.29985" lon="5.92923">
        <ele>565.87</ele>
        <time>2013-01-03T10:35:09Z</time>
      </trkpt>
      <trkpt lat="43.30002" lon="5.92913">
        <ele>568.76</ele>
        <time>2013-01-03T10:35:22Z</time>
      </trkpt>
      <trkpt lat="43.30004" lon="5.92913">
        <ele>569.24</ele>
        <time>2013-01-03T10:35:23Z</time>
      </trkpt>
      <trkpt lat="43.30005" lon="5.92913">
        <ele>569.24</ele>
        <time>2013-01-03T10:35:24Z</time>
      </trkpt>
      <trkpt lat="43.30006" lon="5.92912">
        <ele>569.72</ele>
        <time>2013-01-03T10:35:25Z</time>
      </trkpt>
      <trkpt lat="43.30007" lon="5.92911">
        <ele>570.2</ele>
        <time>2013-01-03T10:35:26Z</time>
      </trkpt>
      <trkpt lat="43.30015" lon="5.92908">
        <ele>571.64</ele>
        <time>2013-01-03T10:35:36Z</time>
      </trkpt>
      <trkpt lat="43.30015" lon="5.92907">
        <ele>571.16</ele>
        <time>2013-01-03T10:35:56Z</time>
      </trkpt>
      <trkpt lat="43.30021" lon="5.92905">
        <ele>572.12</ele>
        <time>2013-01-03T10:36:09Z</time>
      </trkpt>
      <trkpt lat="43.30026" lon="5.92902">
        <ele>573.08</ele>
        <time>2013-01-03T10:36:13Z</time>
      </trkpt>
      <trkpt lat="43.30028" lon="5.92901">
        <ele>573.56</ele>
        <time>2013-01-03T10:36:15Z</time>
      </trkpt>
      <trkpt lat="43.3003" lon="5.929">
        <ele>574.04</ele>
        <time>2013-01-03T10:36:16Z</time>
      </trkpt>
      <trkpt lat="43.30032" lon="5.92899">
        <ele>574.53</ele>
        <time>2013-01-03T10:36:31Z</time>
      </trkpt>
      <trkpt lat="43.30032" lon="5.92899">
        <ele>574.04</ele>
        <time>2013-01-03T10:36:59Z</time>
      </trkpt>
      <trkpt lat="43.30032" lon="5.92899">
        <ele>574.04</ele>
        <time>2013-01-03T10:37:21Z</time>
      </trkpt>
      <trkpt lat="43.30032" lon="5.92899">
        <ele>573.56</ele>
        <time>2013-01-03T10:37:50Z</time>
      </trkpt>
      <trkpt lat="43.30032" lon="5.92899">
        <ele>573.56</ele>
        <time>2013-01-03T10:38:06Z</time>
      </trkpt>
      <trkpt lat="43.30035" lon="5.92899">
        <ele>574.04</ele>
        <time>2013-01-03T10:38:24Z</time>
      </trkpt>
      <trkpt lat="43.3004" lon="5.92897">
        <ele>574.53</ele>
        <time>2013-01-03T10:38:28Z</time>
      </trkpt>
      <trkpt lat="43.30041" lon="5.92896">
        <ele>575.01</ele>
        <time>2013-01-03T10:38:29Z</time>
      </trkpt>
      <trkpt lat="43.30045" lon="5.92894">
        <ele>575.49</ele>
        <time>2013-01-03T10:38:32Z</time>
      </trkpt>
      <trkpt lat="43.30046" lon="5.92893">
        <ele>575.49</ele>
        <time>2013-01-03T10:38:33Z</time>
      </trkpt>
      <trkpt lat="43.30047" lon="5.92893">
        <ele>575.97</ele>
        <time>2013-01-03T10:38:34Z</time>
      </trkpt>
      <trkpt lat="43.30049" lon="5.92892">
        <ele>576.45</ele>
        <time>2013-01-03T10:38:35Z</time>
      </trkpt>
      <trkpt lat="43.3005" lon="5.92892">
        <ele>576.45</ele>
        <time>2013-01-03T10:38:36Z</time>
      </trkpt>
      <trkpt lat="43.30052" lon="5.92892">
        <ele>576.45</ele>
        <time>2013-01-03T10:38:37Z</time>
      </trkpt>
      <trkpt lat="43.30053" lon="5.92891">
        <ele>576.93</ele>
        <time>2013-01-03T10:38:38Z</time>
      </trkpt>
      <trkpt lat="43.30054" lon="5.92891">
        <ele>576.93</ele>
        <time>2013-01-03T10:38:39Z</time>
      </trkpt>
      <trkpt lat="43.30055" lon="5.92891">
        <ele>576.93</ele>
        <time>2013-01-03T10:38:40Z</time>
      </trkpt>
      <trkpt lat="43.30057" lon="5.9289">
        <ele>576.93</ele>
        <time>2013-01-03T10:38:41Z</time>
      </trkpt>
      <trkpt lat="43.30058" lon="5.9289">
        <ele>577.41</ele>
        <time>2013-01-03T10:38:42Z</time>
      </trkpt>
      <trkpt lat="43.30059" lon="5.9289">
        <ele>577.41</ele>
        <time>2013-01-03T10:38:43Z</time>
      </trkpt>
      <trkpt lat="43.30061" lon="5.9289">
        <ele>577.89</ele>
        <time>2013-01-03T10:38:44Z</time>
      </trkpt>
      <trkpt lat="43.30062" lon="5.9289">
        <ele>577.89</ele>
        <time>2013-01-03T10:38:45Z</time>
      </trkpt>
      <trkpt lat="43.30063" lon="5.92889">
        <ele>577.89</ele>
        <time>2013-01-03T10:38:46Z</time>
      </trkpt>
      <trkpt lat="43.30065" lon="5.92889">
        <ele>578.37</ele>
        <time>2013-01-03T10:38:47Z</time>
      </trkpt>
      <trkpt lat="43.30066" lon="5.92888">
        <ele>578.37</ele>
        <time>2013-01-03T10:38:48Z</time>
      </trkpt>
      <trkpt lat="43.30067" lon="5.92887">
        <ele>578.37</ele>
        <time>2013-01-03T10:38:49Z</time>
      </trkpt>
      <trkpt lat="43.30069" lon="5.92886">
        <ele>578.37</ele>
        <time>2013-01-03T10:38:50Z</time>
      </trkpt>
      <trkpt lat="43.3007" lon="5.92885">
        <ele>578.85</ele>
        <time>2013-01-03T10:38:51Z</time>
      </trkpt>
      <trkpt lat="43.30071" lon="5.92884">
        <ele>578.85</ele>
        <time>2013-01-03T10:38:52Z</time>
      </trkpt>
      <trkpt lat="43.30072" lon="5.92884">
        <ele>579.33</ele>
        <time>2013-01-03T10:38:53Z</time>
      </trkpt>
      <trkpt lat="43.30073" lon="5.92883">
        <ele>579.33</ele>
        <time>2013-01-03T10:38:54Z</time>
      </trkpt>
      <trkpt lat="43.30075" lon="5.92882">
        <ele>579.81</ele>
        <time>2013-01-03T10:38:55Z</time>
      </trkpt>
      <trkpt lat="43.30078" lon="5.92878">
        <ele>580.29</ele>
        <time>2013-01-03T10:38:58Z</time>
      </trkpt>
      <trkpt lat="43.30081" lon="5.92866">
        <ele>581.73</ele>
        <time>2013-01-03T10:39:05Z</time>
      </trkpt>
      <trkpt lat="43.30082" lon="5.92865">
        <ele>581.73</ele>
        <time>2013-01-03T10:39:06Z</time>
      </trkpt>
      <trkpt lat="43.30095" lon="5.92847">
        <ele>583.18</ele>
        <time>2013-01-03T10:39:19Z</time>
      </trkpt>
      <trkpt lat="43.30096" lon="5.92844">
        <ele>583.66</ele>
        <time>2013-01-03T10:39:20Z</time>
      </trkpt>
      <trkpt lat="43.30097" lon="5.92842">
        <ele>583.66</ele>
        <time>2013-01-03T10:39:21Z</time>
      </trkpt>
      <trkpt lat="43.30097" lon="5.9284">
        <ele>583.66</ele>
        <time>2013-01-03T10:39:22Z</time>
      </trkpt>
      <trkpt lat="43.30098" lon="5.92838">
        <ele>583.66</ele>
        <time>2013-01-03T10:39:23Z</time>
      </trkpt>
      <trkpt lat="43.30099" lon="5.92836">
        <ele>584.14</ele>
        <time>2013-01-03T10:39:24Z</time>
      </trkpt>
      <trkpt lat="43.30099" lon="5.92835">
        <ele>584.14</ele>
        <time>2013-01-03T10:39:25Z</time>
      </trkpt>
      <trkpt lat="43.301" lon="5.92833">
        <ele>584.14</ele>
        <time>2013-01-03T10:39:26Z</time>
      </trkpt>
      <trkpt lat="43.30101" lon="5.92832">
        <ele>584.14</ele>
        <time>2013-01-03T10:39:27Z</time>
      </trkpt>
      <trkpt lat="43.30101" lon="5.9283">
        <ele>584.14</ele>
        <time>2013-01-03T10:39:28Z</time>
      </trkpt>
      <trkpt lat="43.30101" lon="5.92828">
        <ele>584.62</ele>
        <time>2013-01-03T10:39:29Z</time>
      </trkpt>
      <trkpt lat="43.30102" lon="5.92825">
        <ele>584.62</ele>
        <time>2013-01-03T10:39:30Z</time>
      </trkpt>
      <trkpt lat="43.30107" lon="5.92789">
        <ele>586.06</ele>
        <time>2013-01-03T10:39:45Z</time>
      </trkpt>
      <trkpt lat="43.30111" lon="5.9276">
        <ele>587.5</ele>
        <time>2013-01-03T10:39:57Z</time>
      </trkpt>
      <trkpt lat="43.30117" lon="5.92747">
        <ele>588.46</ele>
        <time>2013-01-03T10:40:04Z</time>
      </trkpt>
      <trkpt lat="43.30118" lon="5.92745">
        <ele>588.95</ele>
        <time>2013-01-03T10:40:05Z</time>
      </trkpt>
      <trkpt lat="43.30119" lon="5.92744">
        <ele>589.43</ele>
        <time>2013-01-03T10:40:06Z</time>
      </trkpt>
      <trkpt lat="43.30121" lon="5.92742">
        <ele>589.43</ele>
        <time>2013-01-03T10:40:07Z</time>
      </trkpt>
      <trkpt lat="43.30122" lon="5.9274">
        <ele>589.43</ele>
        <time>2013-01-03T10:40:08Z</time>
      </trkpt>
      <trkpt lat="43.30124" lon="5.92738">
        <ele>589.91</ele>
        <time>2013-01-03T10:40:09Z</time>
      </trkpt>
      <trkpt lat="43.30125" lon="5.92737">
        <ele>589.91</ele>
        <time>2013-01-03T10:40:10Z</time>
      </trkpt>
      <trkpt lat="43.30126" lon="5.92735">
        <ele>589.91</ele>
        <time>2013-01-03T10:40:11Z</time>
      </trkpt>
      <trkpt lat="43.30127" lon="5.92733">
        <ele>590.39</ele>
        <time>2013-01-03T10:40:12Z</time>
      </trkpt>
      <trkpt lat="43.30128" lon="5.92731">
        <ele>590.39</ele>
        <time>2013-01-03T10:40:13Z</time>
      </trkpt>
      <trkpt lat="43.30142" lon="5.92717">
        <ele>591.83</ele>
        <time>2013-01-03T10:40:23Z</time>
      </trkpt>
      <trkpt lat="43.30144" lon="5.92716">
        <ele>591.83</ele>
        <time>2013-01-03T10:40:24Z</time>
      </trkpt>
      <trkpt lat="43.30145" lon="5.92715">
        <ele>592.31</ele>
        <time>2013-01-03T10:40:25Z</time>
      </trkpt>
      <trkpt lat="43.30146" lon="5.92713">
        <ele>592.31</ele>
        <time>2013-01-03T10:40:26Z</time>
      </trkpt>
      <trkpt lat="43.30148" lon="5.92712">
        <ele>592.79</ele>
        <time>2013-01-03T10:40:27Z</time>
      </trkpt>
      <trkpt lat="43.30149" lon="5.9271">
        <ele>592.79</ele>
        <time>2013-01-03T10:40:28Z</time>
      </trkpt>
      <trkpt lat="43.30158" lon="5.92696">
        <ele>594.23</ele>
        <time>2013-01-03T10:40:37Z</time>
      </trkpt>
      <trkpt lat="43.30158" lon="5.92692">
        <ele>594.23</ele>
        <time>2013-01-03T10:40:38Z</time>
      </trkpt>
      <trkpt lat="43.30158" lon="5.9269">
        <ele>594.71</ele>
        <time>2013-01-03T10:40:39Z</time>
      </trkpt>
      <trkpt lat="43.30162" lon="5.92681">
        <ele>596.15</ele>
        <time>2013-01-03T10:40:48Z</time>
      </trkpt>
      <trkpt lat="43.30169" lon="5.92666">
        <ele>599.04</ele>
        <time>2013-01-03T10:40:59Z</time>
      </trkpt>
      <trkpt lat="43.30173" lon="5.92662">
        <ele>599.52</ele>
        <time>2013-01-03T10:41:12Z</time>
      </trkpt>
      <trkpt lat="43.30173" lon="5.92662">
        <ele>599.52</ele>
        <time>2013-01-03T10:41:33Z</time>
      </trkpt>
      <trkpt lat="43.30173" lon="5.92662">
        <ele>600</ele>
        <time>2013-01-03T10:41:51Z</time>
      </trkpt>
      <trkpt lat="43.30176" lon="5.92655">
        <ele>600</ele>
        <time>2013-01-03T10:42:02Z</time>
      </trkpt>
      <trkpt lat="43.30179" lon="5.92651">
        <ele>600</ele>
        <time>2013-01-03T10:42:05Z</time>
      </trkpt>
      <trkpt lat="43.3018" lon="5.92649">
        <ele>600.48</ele>
        <time>2013-01-03T10:42:06Z</time>
      </trkpt>
      <trkpt lat="43.30192" lon="5.92629">
        <ele>602.4</ele>
        <time>2013-01-03T10:42:17Z</time>
      </trkpt>
      <trkpt lat="43.30193" lon="5.92627">
        <ele>602.4</ele>
        <time>2013-01-03T10:42:18Z</time>
      </trkpt>
      <trkpt lat="43.30195" lon="5.92625">
        <ele>602.88</ele>
        <time>2013-01-03T10:42:21Z</time>
      </trkpt>
      <trkpt lat="43.30196" lon="5.92623">
        <ele>602.88</ele>
        <time>2013-01-03T10:42:22Z</time>
      </trkpt>
      <trkpt lat="43.30197" lon="5.9262">
        <ele>602.88</ele>
        <time>2013-01-03T10:42:23Z</time>
      </trkpt>
      <trkpt lat="43.30198" lon="5.92618">
        <ele>602.88</ele>
        <time>2013-01-03T10:42:24Z</time>
      </trkpt>
      <trkpt lat="43.30199" lon="5.92616">
        <ele>603.36</ele>
        <time>2013-01-03T10:42:25Z</time>
      </trkpt>
      <trkpt lat="43.302" lon="5.92614">
        <ele>603.36</ele>
        <time>2013-01-03T10:42:26Z</time>
      </trkpt>
      <trkpt lat="43.30206" lon="5.92604">
        <ele>604.33</ele>
        <time>2013-01-03T10:42:32Z</time>
      </trkpt>
      <trkpt lat="43.30207" lon="5.92602">
        <ele>604.33</ele>
        <time>2013-01-03T10:42:33Z</time>
      </trkpt>
      <trkpt lat="43.30208" lon="5.926">
        <ele>604.81</ele>
        <time>2013-01-03T10:42:34Z</time>
      </trkpt>
      <trkpt lat="43.30209" lon="5.926">
        <ele>604.81</ele>
        <time>2013-01-03T10:42:35Z</time>
      </trkpt>
      <trkpt lat="43.30211" lon="5.92598">
        <ele>604.81</ele>
        <time>2013-01-03T10:42:36Z</time>
      </trkpt>
      <trkpt lat="43.30212" lon="5.92597">
        <ele>604.81</ele>
        <time>2013-01-03T10:42:37Z</time>
      </trkpt>
      <trkpt lat="43.3022" lon="5.92585">
        <ele>606.25</ele>
        <time>2013-01-03T10:42:46Z</time>
      </trkpt>
      <trkpt lat="43.30221" lon="5.92582">
        <ele>606.25</ele>
        <time>2013-01-03T10:42:47Z</time>
      </trkpt>
      <trkpt lat="43.30222" lon="5.9258">
        <ele>606.25</ele>
        <time>2013-01-03T10:42:48Z</time>
      </trkpt>
      <trkpt lat="43.30239" lon="5.92558">
        <ele>606.73</ele>
        <time>2013-01-03T10:43:00Z</time>
      </trkpt>
      <trkpt lat="43.30254" lon="5.92541">
        <ele>608.65</ele>
        <time>2013-01-03T10:43:11Z</time>
      </trkpt>
      <trkpt lat="43.3027" lon="5.92512">
        <ele>610.09</ele>
        <time>2013-01-03T10:43:25Z</time>
      </trkpt>
      <trkpt lat="43.30279" lon="5.92489">
        <ele>611.06</ele>
        <time>2013-01-03T10:43:35Z</time>
      </trkpt>
      <trkpt lat="43.3028" lon="5.92487">
        <ele>611.06</ele>
        <time>2013-01-03T10:43:36Z</time>
      </trkpt>
      <trkpt lat="43.30296" lon="5.92471">
        <ele>612.02</ele>
        <time>2013-01-03T10:43:46Z</time>
      </trkpt>
      <trkpt lat="43.30301" lon="5.92467">
        <ele>612.5</ele>
        <time>2013-01-03T10:43:49Z</time>
      </trkpt>
      <trkpt lat="43.30303" lon="5.92465">
        <ele>612.5</ele>
        <time>2013-01-03T10:43:50Z</time>
      </trkpt>
      <trkpt lat="43.30304" lon="5.92463">
        <ele>612.5</ele>
        <time>2013-01-03T10:43:51Z</time>
      </trkpt>
      <trkpt lat="43.30306" lon="5.92462">
        <ele>612.98</ele>
        <time>2013-01-03T10:43:52Z</time>
      </trkpt>
      <trkpt lat="43.30307" lon="5.92461">
        <ele>612.98</ele>
        <time>2013-01-03T10:43:53Z</time>
      </trkpt>
      <trkpt lat="43.30309" lon="5.9246">
        <ele>613.46</ele>
        <time>2013-01-03T10:43:54Z</time>
      </trkpt>
      <trkpt lat="43.30311" lon="5.92458">
        <ele>613.46</ele>
        <time>2013-01-03T10:43:55Z</time>
      </trkpt>
      <trkpt lat="43.30313" lon="5.92457">
        <ele>613.46</ele>
        <time>2013-01-03T10:43:56Z</time>
      </trkpt>
      <trkpt lat="43.30315" lon="5.92456">
        <ele>613.94</ele>
        <time>2013-01-03T10:43:57Z</time>
      </trkpt>
      <trkpt lat="43.30316" lon="5.92455">
        <ele>613.94</ele>
        <time>2013-01-03T10:43:58Z</time>
      </trkpt>
      <trkpt lat="43.30339" lon="5.92444">
        <ele>615.38</ele>
        <time>2013-01-03T10:44:11Z</time>
      </trkpt>
      <trkpt lat="43.30366" lon="5.92435">
        <ele>616.82</ele>
        <time>2013-01-03T10:44:24Z</time>
      </trkpt>
      <trkpt lat="43.30389" lon="5.92434">
        <ele>620.19</ele>
        <time>2013-01-03T10:44:36Z</time>
      </trkpt>
      <trkpt lat="43.30405" lon="5.92426">
        <ele>623.55</ele>
        <time>2013-01-03T10:44:46Z</time>
      </trkpt>
      <trkpt lat="43.30426" lon="5.92421">
        <ele>624.03</ele>
        <time>2013-01-03T10:44:57Z</time>
      </trkpt>
      <trkpt lat="43.30435" lon="5.92415">
        <ele>625.96</ele>
        <time>2013-01-03T10:45:03Z</time>
      </trkpt>
      <trkpt lat="43.30444" lon="5.92394">
        <ele>629.32</ele>
        <time>2013-01-03T10:45:13Z</time>
      </trkpt>
      <trkpt lat="43.30457" lon="5.92371">
        <ele>631.72</ele>
        <time>2013-01-03T10:45:26Z</time>
      </trkpt>
      <trkpt lat="43.30469" lon="5.92345">
        <ele>634.61</ele>
        <time>2013-01-03T10:45:39Z</time>
      </trkpt>
      <trkpt lat="43.30471" lon="5.92342">
        <ele>635.09</ele>
        <time>2013-01-03T10:45:41Z</time>
      </trkpt>
      <trkpt lat="43.30472" lon="5.9234">
        <ele>635.09</ele>
        <time>2013-01-03T10:45:42Z</time>
      </trkpt>
      <trkpt lat="43.30484" lon="5.92315">
        <ele>636.53</ele>
        <time>2013-01-03T10:45:56Z</time>
      </trkpt>
      <trkpt lat="43.30485" lon="5.92314">
        <ele>637.01</ele>
        <time>2013-01-03T10:45:57Z</time>
      </trkpt>
      <trkpt lat="43.30486" lon="5.92313">
        <ele>637.49</ele>
        <time>2013-01-03T10:45:58Z</time>
      </trkpt>
      <trkpt lat="43.30487" lon="5.92311">
        <ele>637.49</ele>
        <time>2013-01-03T10:45:59Z</time>
      </trkpt>
      <trkpt lat="43.30487" lon="5.92309">
        <ele>637.49</ele>
        <time>2013-01-03T10:46:00Z</time>
      </trkpt>
      <trkpt lat="43.30495" lon="5.92292">
        <ele>639.41</ele>
        <time>2013-01-03T10:46:09Z</time>
      </trkpt>
      <trkpt lat="43.305" lon="5.92273">
        <ele>639.89</ele>
        <time>2013-01-03T10:46:16Z</time>
      </trkpt>
      <trkpt lat="43.30501" lon="5.9227">
        <ele>639.89</ele>
        <time>2013-01-03T10:46:17Z</time>
      </trkpt>
      <trkpt lat="43.30501" lon="5.92267">
        <ele>640.38</ele>
        <time>2013-01-03T10:46:18Z</time>
      </trkpt>
      <trkpt lat="43.30502" lon="5.92264">
        <ele>639.89</ele>
        <time>2013-01-03T10:46:19Z</time>
      </trkpt>
      <trkpt lat="43.30503" lon="5.92262">
        <ele>640.38</ele>
        <time>2013-01-03T10:46:20Z</time>
      </trkpt>
      <trkpt lat="43.30504" lon="5.9226">
        <ele>640.38</ele>
        <time>2013-01-03T10:46:21Z</time>
      </trkpt>
      <trkpt lat="43.30517" lon="5.9223">
        <ele>641.82</ele>
        <time>2013-01-03T10:46:35Z</time>
      </trkpt>
      <trkpt lat="43.30524" lon="5.92198">
        <ele>642.78</ele>
        <time>2013-01-03T10:46:48Z</time>
      </trkpt>
      <trkpt lat="43.30528" lon="5.92168">
        <ele>644.7</ele>
        <time>2013-01-03T10:47:00Z</time>
      </trkpt>
      <trkpt lat="43.30528" lon="5.92143">
        <ele>645.18</ele>
        <time>2013-01-03T10:47:10Z</time>
      </trkpt>
      <trkpt lat="43.30527" lon="5.92131">
        <ele>645.66</ele>
        <time>2013-01-03T10:47:14Z</time>
      </trkpt>
      <trkpt lat="43.30527" lon="5.92129">
        <ele>646.14</ele>
        <time>2013-01-03T10:47:15Z</time>
      </trkpt>
      <trkpt lat="43.30527" lon="5.92126">
        <ele>646.14</ele>
        <time>2013-01-03T10:47:16Z</time>
      </trkpt>
      <trkpt lat="43.30527" lon="5.92123">
        <ele>646.14</ele>
        <time>2013-01-03T10:47:17Z</time>
      </trkpt>
      <trkpt lat="43.30527" lon="5.92121">
        <ele>646.62</ele>
        <time>2013-01-03T10:47:18Z</time>
      </trkpt>
      <trkpt lat="43.30527" lon="5.92118">
        <ele>646.62</ele>
        <time>2013-01-03T10:47:19Z</time>
      </trkpt>
      <trkpt lat="43.30527" lon="5.92115">
        <ele>646.62</ele>
        <time>2013-01-03T10:47:20Z</time>
      </trkpt>
      <trkpt lat="43.30527" lon="5.92112">
        <ele>646.62</ele>
        <time>2013-01-03T10:47:21Z</time>
      </trkpt>
      <trkpt lat="43.30527" lon="5.9211">
        <ele>647.1</ele>
        <time>2013-01-03T10:47:22Z</time>
      </trkpt>
      <trkpt lat="43.30528" lon="5.92107">
        <ele>647.1</ele>
        <time>2013-01-03T10:47:23Z</time>
      </trkpt>
      <trkpt lat="43.30528" lon="5.92105">
        <ele>647.1</ele>
        <time>2013-01-03T10:47:24Z</time>
      </trkpt>
      <trkpt lat="43.30529" lon="5.92103">
        <ele>647.59</ele>
        <time>2013-01-03T10:47:25Z</time>
      </trkpt>
      <trkpt lat="43.3053" lon="5.92101">
        <ele>647.59</ele>
        <time>2013-01-03T10:47:26Z</time>
      </trkpt>
      <trkpt lat="43.30531" lon="5.92099">
        <ele>648.07</ele>
        <time>2013-01-03T10:47:27Z</time>
      </trkpt>
      <trkpt lat="43.30532" lon="5.92096">
        <ele>648.07</ele>
        <time>2013-01-03T10:47:28Z</time>
      </trkpt>
      <trkpt lat="43.30533" lon="5.92094">
        <ele>648.55</ele>
        <time>2013-01-03T10:47:29Z</time>
      </trkpt>
      <trkpt lat="43.30533" lon="5.92089">
        <ele>648.55</ele>
        <time>2013-01-03T10:47:31Z</time>
      </trkpt>
      <trkpt lat="43.30534" lon="5.92088">
        <ele>649.03</ele>
        <time>2013-01-03T10:47:32Z</time>
      </trkpt>
      <trkpt lat="43.30535" lon="5.92086">
        <ele>649.03</ele>
        <time>2013-01-03T10:47:33Z</time>
      </trkpt>
      <trkpt lat="43.30535" lon="5.92083">
        <ele>649.51</ele>
        <time>2013-01-03T10:47:34Z</time>
      </trkpt>
      <trkpt lat="43.30536" lon="5.92081">
        <ele>649.99</ele>
        <time>2013-01-03T10:47:35Z</time>
      </trkpt>
      <trkpt lat="43.30536" lon="5.92078">
        <ele>649.99</ele>
        <time>2013-01-03T10:47:36Z</time>
      </trkpt>
      <trkpt lat="43.30536" lon="5.92076">
        <ele>650.47</ele>
        <time>2013-01-03T10:47:37Z</time>
      </trkpt>
      <trkpt lat="43.30537" lon="5.92074">
        <ele>650.47</ele>
        <time>2013-01-03T10:47:38Z</time>
      </trkpt>
      <trkpt lat="43.30537" lon="5.92071">
        <ele>650.95</ele>
        <time>2013-01-03T10:47:39Z</time>
      </trkpt>
      <trkpt lat="43.30536" lon="5.92069">
        <ele>651.43</ele>
        <time>2013-01-03T10:47:40Z</time>
      </trkpt>
      <trkpt lat="43.30535" lon="5.92066">
        <ele>651.43</ele>
        <time>2013-01-03T10:47:41Z</time>
      </trkpt>
      <trkpt lat="43.30535" lon="5.92063">
        <ele>651.91</ele>
        <time>2013-01-03T10:47:42Z</time>
      </trkpt>
      <trkpt lat="43.30528" lon="5.92038">
        <ele>654.8</ele>
        <time>2013-01-03T10:47:53Z</time>
      </trkpt>
      <trkpt lat="43.30526" lon="5.92018">
        <ele>657.2</ele>
        <time>2013-01-03T10:48:01Z</time>
      </trkpt>
      <trkpt lat="43.30527" lon="5.92008">
        <ele>657.68</ele>
        <time>2013-01-03T10:48:15Z</time>
      </trkpt>
      <trkpt lat="43.30527" lon="5.92008">
        <ele>657.68</ele>
        <time>2013-01-03T10:48:33Z</time>
      </trkpt>
      <trkpt lat="43.30527" lon="5.92008">
        <ele>657.68</ele>
        <time>2013-01-03T10:48:58Z</time>
      </trkpt>
      <trkpt lat="43.30527" lon="5.92008">
        <ele>658.16</ele>
        <time>2013-01-03T10:49:26Z</time>
      </trkpt>
      <trkpt lat="43.30527" lon="5.92008">
        <ele>658.16</ele>
        <time>2013-01-03T10:49:40Z</time>
      </trkpt>
      <trkpt lat="43.30528" lon="5.92007">
        <ele>658.16</ele>
        <time>2013-01-03T10:49:41Z</time>
      </trkpt>
      <trkpt lat="43.30529" lon="5.92005">
        <ele>657.68</ele>
        <time>2013-01-03T10:49:42Z</time>
      </trkpt>
      <trkpt lat="43.30531" lon="5.92003">
        <ele>658.16</ele>
        <time>2013-01-03T10:49:43Z</time>
      </trkpt>
      <trkpt lat="43.30532" lon="5.92">
        <ele>658.16</ele>
        <time>2013-01-03T10:49:44Z</time>
      </trkpt>
      <trkpt lat="43.30534" lon="5.91997">
        <ele>658.16</ele>
        <time>2013-01-03T10:49:45Z</time>
      </trkpt>
      <trkpt lat="43.30536" lon="5.91993">
        <ele>658.16</ele>
        <time>2013-01-03T10:49:46Z</time>
      </trkpt>
      <trkpt lat="43.30553" lon="5.9196">
        <ele>658.64</ele>
        <time>2013-01-03T10:49:57Z</time>
      </trkpt>
      <trkpt lat="43.30558" lon="5.91946">
        <ele>659.6</ele>
        <time>2013-01-03T10:50:02Z</time>
      </trkpt>
      <trkpt lat="43.30559" lon="5.91944">
        <ele>660.08</ele>
        <time>2013-01-03T10:50:03Z</time>
      </trkpt>
      <trkpt lat="43.30559" lon="5.91942">
        <ele>660.08</ele>
        <time>2013-01-03T10:50:04Z</time>
      </trkpt>
      <trkpt lat="43.3056" lon="5.9194">
        <ele>660.08</ele>
        <time>2013-01-03T10:50:05Z</time>
      </trkpt>
      <trkpt lat="43.30561" lon="5.91937">
        <ele>660.56</ele>
        <time>2013-01-03T10:50:06Z</time>
      </trkpt>
      <trkpt lat="43.30561" lon="5.91935">
        <ele>660.56</ele>
        <time>2013-01-03T10:50:07Z</time>
      </trkpt>
      <trkpt lat="43.30561" lon="5.91932">
        <ele>661.52</ele>
        <time>2013-01-03T10:50:08Z</time>
      </trkpt>
      <trkpt lat="43.30562" lon="5.9193">
        <ele>661.52</ele>
        <time>2013-01-03T10:50:09Z</time>
      </trkpt>
      <trkpt lat="43.30562" lon="5.91928">
        <ele>662.01</ele>
        <time>2013-01-03T10:50:10Z</time>
      </trkpt>
      <trkpt lat="43.30563" lon="5.91926">
        <ele>662.01</ele>
        <time>2013-01-03T10:50:11Z</time>
      </trkpt>
      <trkpt lat="43.30567" lon="5.91917">
        <ele>662.97</ele>
        <time>2013-01-03T10:50:15Z</time>
      </trkpt>
      <trkpt lat="43.30567" lon="5.91914">
        <ele>663.45</ele>
        <time>2013-01-03T10:50:16Z</time>
      </trkpt>
      <trkpt lat="43.30568" lon="5.91911">
        <ele>663.45</ele>
        <time>2013-01-03T10:50:17Z</time>
      </trkpt>
      <trkpt lat="43.30568" lon="5.91908">
        <ele>663.93</ele>
        <time>2013-01-03T10:50:18Z</time>
      </trkpt>
      <trkpt lat="43.30567" lon="5.91905">
        <ele>663.93</ele>
        <time>2013-01-03T10:50:19Z</time>
      </trkpt>
      <trkpt lat="43.30567" lon="5.91903">
        <ele>663.93</ele>
        <time>2013-01-03T10:50:20Z</time>
      </trkpt>
      <trkpt lat="43.30567" lon="5.919">
        <ele>664.41</ele>
        <time>2013-01-03T10:50:21Z</time>
      </trkpt>
      <trkpt lat="43.30566" lon="5.91897">
        <ele>664.89</ele>
        <time>2013-01-03T10:50:22Z</time>
      </trkpt>
      <trkpt lat="43.30565" lon="5.91895">
        <ele>664.89</ele>
        <time>2013-01-03T10:50:23Z</time>
      </trkpt>
      <trkpt lat="43.30564" lon="5.91893">
        <ele>665.37</ele>
        <time>2013-01-03T10:50:24Z</time>
      </trkpt>
      <trkpt lat="43.30563" lon="5.91891">
        <ele>665.85</ele>
        <time>2013-01-03T10:50:25Z</time>
      </trkpt>
      <trkpt lat="43.30562" lon="5.91888">
        <ele>665.85</ele>
        <time>2013-01-03T10:50:26Z</time>
      </trkpt>
      <trkpt lat="43.30562" lon="5.91886">
        <ele>666.33</ele>
        <time>2013-01-03T10:50:27Z</time>
      </trkpt>
      <trkpt lat="43.30559" lon="5.9187">
        <ele>668.73</ele>
        <time>2013-01-03T10:50:34Z</time>
      </trkpt>
      <trkpt lat="43.30558" lon="5.91846">
        <ele>671.14</ele>
        <time>2013-01-03T10:50:44Z</time>
      </trkpt>
      <trkpt lat="43.30559" lon="5.91844">
        <ele>670.18</ele>
        <time>2013-01-03T10:50:45Z</time>
      </trkpt>
      <trkpt lat="43.30559" lon="5.91841">
        <ele>672.1</ele>
        <time>2013-01-03T10:50:46Z</time>
      </trkpt>
      <trkpt lat="43.30555" lon="5.91813">
        <ele>674.02</ele>
        <time>2013-01-03T10:50:59Z</time>
      </trkpt>
      <trkpt lat="43.3055" lon="5.91795">
        <ele>674.98</ele>
        <time>2013-01-03T10:51:10Z</time>
      </trkpt>
      <trkpt lat="43.30564" lon="5.91781">
        <ele>676.91</ele>
        <time>2013-01-03T10:51:21Z</time>
      </trkpt>
      <trkpt lat="43.30578" lon="5.91777">
        <ele>676.42</ele>
        <time>2013-01-03T10:51:28Z</time>
      </trkpt>
      <trkpt lat="43.3058" lon="5.91776">
        <ele>676.42</ele>
        <time>2013-01-03T10:51:29Z</time>
      </trkpt>
      <trkpt lat="43.30583" lon="5.91776">
        <ele>676.42</ele>
        <time>2013-01-03T10:51:30Z</time>
      </trkpt>
      <trkpt lat="43.30585" lon="5.91774">
        <ele>675.94</ele>
        <time>2013-01-03T10:51:31Z</time>
      </trkpt>
      <trkpt lat="43.30587" lon="5.91772">
        <ele>675.94</ele>
        <time>2013-01-03T10:51:32Z</time>
      </trkpt>
      <trkpt lat="43.30589" lon="5.91769">
        <ele>675.94</ele>
        <time>2013-01-03T10:51:33Z</time>
      </trkpt>
      <trkpt lat="43.3059" lon="5.91766">
        <ele>675.94</ele>
        <time>2013-01-03T10:51:34Z</time>
      </trkpt>
      <trkpt lat="43.30592" lon="5.91764">
        <ele>675.94</ele>
        <time>2013-01-03T10:51:35Z</time>
      </trkpt>
      <trkpt lat="43.30594" lon="5.91763">
        <ele>675.94</ele>
        <time>2013-01-03T10:51:36Z</time>
      </trkpt>
      <trkpt lat="43.30596" lon="5.91762">
        <ele>675.94</ele>
        <time>2013-01-03T10:51:37Z</time>
      </trkpt>
      <trkpt lat="43.30598" lon="5.9176">
        <ele>675.94</ele>
        <time>2013-01-03T10:51:38Z</time>
      </trkpt>
      <trkpt lat="43.306" lon="5.91759">
        <ele>675.46</ele>
        <time>2013-01-03T10:51:39Z</time>
      </trkpt>
      <trkpt lat="43.30603" lon="5.91757">
        <ele>675.94</ele>
        <time>2013-01-03T10:51:40Z</time>
      </trkpt>
      <trkpt lat="43.30605" lon="5.91755">
        <ele>675.94</ele>
        <time>2013-01-03T10:51:41Z</time>
      </trkpt>
      <trkpt lat="43.30607" lon="5.91753">
        <ele>675.94</ele>
        <time>2013-01-03T10:51:42Z</time>
      </trkpt>
      <trkpt lat="43.30616" lon="5.91726">
        <ele>677.39</ele>
        <time>2013-01-03T10:51:54Z</time>
      </trkpt>
      <trkpt lat="43.30617" lon="5.91725">
        <ele>677.39</ele>
        <time>2013-01-03T10:51:55Z</time>
      </trkpt>
      <trkpt lat="43.30619" lon="5.91725">
        <ele>677.87</ele>
        <time>2013-01-03T10:51:56Z</time>
      </trkpt>
      <trkpt lat="43.30621" lon="5.91725">
        <ele>677.87</ele>
        <time>2013-01-03T10:51:57Z</time>
      </trkpt>
      <trkpt lat="43.30623" lon="5.91726">
        <ele>677.39</ele>
        <time>2013-01-03T10:51:58Z</time>
      </trkpt>
      <trkpt lat="43.30625" lon="5.91727">
        <ele>677.39</ele>
        <time>2013-01-03T10:51:59Z</time>
      </trkpt>
      <trkpt lat="43.30628" lon="5.9173">
        <ele>677.39</ele>
        <time>2013-01-03T10:52:00Z</time>
      </trkpt>
      <trkpt lat="43.30631" lon="5.91732">
        <ele>677.39</ele>
        <time>2013-01-03T10:52:01Z</time>
      </trkpt>
      <trkpt lat="43.30634" lon="5.91736">
        <ele>676.91</ele>
        <time>2013-01-03T10:52:02Z</time>
      </trkpt>
      <trkpt lat="43.30641" lon="5.91751">
        <ele>677.87</ele>
        <time>2013-01-03T10:52:07Z</time>
      </trkpt>
      <trkpt lat="43.30642" lon="5.91753">
        <ele>677.87</ele>
        <time>2013-01-03T10:52:08Z</time>
      </trkpt>
      <trkpt lat="43.30644" lon="5.91755">
        <ele>677.87</ele>
        <time>2013-01-03T10:52:09Z</time>
      </trkpt>
      <trkpt lat="43.30645" lon="5.91757">
        <ele>678.35</ele>
        <time>2013-01-03T10:52:10Z</time>
      </trkpt>
      <trkpt lat="43.30646" lon="5.91758">
        <ele>678.35</ele>
        <time>2013-01-03T10:52:11Z</time>
      </trkpt>
      <trkpt lat="43.30648" lon="5.91759">
        <ele>678.35</ele>
        <time>2013-01-03T10:52:12Z</time>
      </trkpt>
      <trkpt lat="43.3065" lon="5.91761">
        <ele>678.83</ele>
        <time>2013-01-03T10:52:13Z</time>
      </trkpt>
      <trkpt lat="43.30651" lon="5.91762">
        <ele>678.83</ele>
        <time>2013-01-03T10:52:14Z</time>
      </trkpt>
      <trkpt lat="43.30653" lon="5.91763">
        <ele>678.83</ele>
        <time>2013-01-03T10:52:15Z</time>
      </trkpt>
      <trkpt lat="43.30655" lon="5.91763">
        <ele>678.35</ele>
        <time>2013-01-03T10:52:16Z</time>
      </trkpt>
      <trkpt lat="43.30657" lon="5.91763">
        <ele>678.83</ele>
        <time>2013-01-03T10:52:17Z</time>
      </trkpt>
      <trkpt lat="43.30659" lon="5.91763">
        <ele>678.83</ele>
        <time>2013-01-03T10:52:18Z</time>
      </trkpt>
      <trkpt lat="43.3066" lon="5.91763">
        <ele>678.83</ele>
        <time>2013-01-03T10:52:19Z</time>
      </trkpt>
      <trkpt lat="43.30662" lon="5.91763">
        <ele>678.83</ele>
        <time>2013-01-03T10:52:29Z</time>
      </trkpt>
      <trkpt lat="43.30667" lon="5.91762">
        <ele>678.35</ele>
        <time>2013-01-03T10:52:48Z</time>
      </trkpt>
      <trkpt lat="43.3068" lon="5.91758">
        <ele>676.91</ele>
        <time>2013-01-03T10:52:52Z</time>
      </trkpt>
      <trkpt lat="43.30693" lon="5.91753">
        <ele>674.98</ele>
        <time>2013-01-03T10:52:56Z</time>
      </trkpt>
      <trkpt lat="43.30708" lon="5.91726">
        <ele>674.5</ele>
        <time>2013-01-03T10:53:08Z</time>
      </trkpt>
      <trkpt lat="43.30723" lon="5.91695">
        <ele>675.46</ele>
        <time>2013-01-03T10:53:21Z</time>
      </trkpt>
      <trkpt lat="43.30737" lon="5.91667">
        <ele>676.42</ele>
        <time>2013-01-03T10:53:34Z</time>
      </trkpt>
      <trkpt lat="43.30743" lon="5.9164">
        <ele>677.87</ele>
        <time>2013-01-03T10:53:46Z</time>
      </trkpt>
      <trkpt lat="43.30759" lon="5.91605">
        <ele>677.87</ele>
        <time>2013-01-03T10:54:00Z</time>
      </trkpt>
      <trkpt lat="43.30774" lon="5.91559">
        <ele>678.35</ele>
        <time>2013-01-03T10:54:15Z</time>
      </trkpt>
      <trkpt lat="43.30793" lon="5.91531">
        <ele>679.79</ele>
        <time>2013-01-03T10:54:27Z</time>
      </trkpt>
      <trkpt lat="43.30797" lon="5.91525">
        <ele>680.27</ele>
        <time>2013-01-03T10:54:30Z</time>
      </trkpt>
      <trkpt lat="43.30798" lon="5.91522">
        <ele>680.27</ele>
        <time>2013-01-03T10:54:31Z</time>
      </trkpt>
      <trkpt lat="43.30822" lon="5.91489">
        <ele>681.71</ele>
        <time>2013-01-03T10:54:46Z</time>
      </trkpt>
      <trkpt lat="43.3085" lon="5.91472">
        <ele>683.63</ele>
        <time>2013-01-03T10:55:00Z</time>
      </trkpt>
      <trkpt lat="43.30873" lon="5.91463">
        <ele>686.04</ele>
        <time>2013-01-03T10:55:13Z</time>
      </trkpt>
      <trkpt lat="43.30893" lon="5.91472">
        <ele>688.92</ele>
        <time>2013-01-03T10:55:22Z</time>
      </trkpt>
      <trkpt lat="43.30915" lon="5.91472">
        <ele>692.29</ele>
        <time>2013-01-03T10:55:32Z</time>
      </trkpt>
      <trkpt lat="43.30921" lon="5.91469">
        <ele>693.73</ele>
        <time>2013-01-03T10:55:35Z</time>
      </trkpt>
      <trkpt lat="43.30936" lon="5.91456">
        <ele>695.17</ele>
        <time>2013-01-03T10:55:45Z</time>
      </trkpt>
      <trkpt lat="43.30938" lon="5.91455">
        <ele>695.17</ele>
        <time>2013-01-03T10:55:46Z</time>
      </trkpt>
      <trkpt lat="43.30939" lon="5.91454">
        <ele>695.17</ele>
        <time>2013-01-03T10:55:47Z</time>
      </trkpt>
      <trkpt lat="43.30941" lon="5.91453">
        <ele>695.65</ele>
        <time>2013-01-03T10:55:48Z</time>
      </trkpt>
      <trkpt lat="43.30942" lon="5.91451">
        <ele>695.65</ele>
        <time>2013-01-03T10:55:49Z</time>
      </trkpt>
      <trkpt lat="43.30943" lon="5.91449">
        <ele>696.13</ele>
        <time>2013-01-03T10:55:50Z</time>
      </trkpt>
      <trkpt lat="43.30944" lon="5.91448">
        <ele>696.13</ele>
        <time>2013-01-03T10:55:51Z</time>
      </trkpt>
      <trkpt lat="43.30946" lon="5.91447">
        <ele>696.13</ele>
        <time>2013-01-03T10:55:52Z</time>
      </trkpt>
      <trkpt lat="43.30952" lon="5.9144">
        <ele>696.61</ele>
        <time>2013-01-03T10:55:57Z</time>
      </trkpt>
      <trkpt lat="43.30953" lon="5.91439">
        <ele>696.61</ele>
        <time>2013-01-03T10:55:58Z</time>
      </trkpt>
      <trkpt lat="43.30954" lon="5.91437">
        <ele>696.61</ele>
        <time>2013-01-03T10:55:59Z</time>
      </trkpt>
      <trkpt lat="43.30954" lon="5.91435">
        <ele>696.61</ele>
        <time>2013-01-03T10:56:00Z</time>
      </trkpt>
      <trkpt lat="43.30954" lon="5.91433">
        <ele>697.09</ele>
        <time>2013-01-03T10:56:01Z</time>
      </trkpt>
      <trkpt lat="43.30955" lon="5.9143">
        <ele>697.09</ele>
        <time>2013-01-03T10:56:02Z</time>
      </trkpt>
      <trkpt lat="43.30955" lon="5.91428">
        <ele>697.09</ele>
        <time>2013-01-03T10:56:03Z</time>
      </trkpt>
      <trkpt lat="43.30955" lon="5.91425">
        <ele>697.09</ele>
        <time>2013-01-03T10:56:04Z</time>
      </trkpt>
      <trkpt lat="43.30955" lon="5.91422">
        <ele>697.57</ele>
        <time>2013-01-03T10:56:05Z</time>
      </trkpt>
      <trkpt lat="43.30955" lon="5.91419">
        <ele>697.57</ele>
        <time>2013-01-03T10:56:06Z</time>
      </trkpt>
      <trkpt lat="43.30952" lon="5.91384">
        <ele>699.02</ele>
        <time>2013-01-03T10:56:19Z</time>
      </trkpt>
      <trkpt lat="43.30943" lon="5.91362">
        <ele>701.9</ele>
        <time>2013-01-03T10:56:29Z</time>
      </trkpt>
      <trkpt lat="43.3093" lon="5.91336">
        <ele>703.82</ele>
        <time>2013-01-03T10:56:41Z</time>
      </trkpt>
      <trkpt lat="43.3092" lon="5.91323">
        <ele>705.75</ele>
        <time>2013-01-03T10:56:49Z</time>
      </trkpt>
      <trkpt lat="43.30919" lon="5.91319">
        <ele>706.71</ele>
        <time>2013-01-03T10:56:51Z</time>
      </trkpt>
      <trkpt lat="43.30919" lon="5.91316">
        <ele>707.19</ele>
        <time>2013-01-03T10:56:52Z</time>
      </trkpt>
      <trkpt lat="43.30918" lon="5.91313">
        <ele>707.19</ele>
        <time>2013-01-03T10:56:53Z</time>
      </trkpt>
      <trkpt lat="43.30917" lon="5.9131">
        <ele>708.15</ele>
        <time>2013-01-03T10:56:55Z</time>
      </trkpt>
      <trkpt lat="43.30916" lon="5.91308">
        <ele>708.63</ele>
        <time>2013-01-03T10:56:56Z</time>
      </trkpt>
      <trkpt lat="43.30915" lon="5.91306">
        <ele>708.63</ele>
        <time>2013-01-03T10:56:57Z</time>
      </trkpt>
      <trkpt lat="43.30907" lon="5.91296">
        <ele>710.55</ele>
        <time>2013-01-03T10:57:04Z</time>
      </trkpt>
      <trkpt lat="43.30906" lon="5.91293">
        <ele>710.55</ele>
        <time>2013-01-03T10:57:05Z</time>
      </trkpt>
      <trkpt lat="43.30905" lon="5.91292">
        <ele>711.03</ele>
        <time>2013-01-03T10:57:06Z</time>
      </trkpt>
      <trkpt lat="43.30904" lon="5.9129">
        <ele>711.03</ele>
        <time>2013-01-03T10:57:07Z</time>
      </trkpt>
      <trkpt lat="43.30902" lon="5.91288">
        <ele>711.51</ele>
        <time>2013-01-03T10:57:08Z</time>
      </trkpt>
      <trkpt lat="43.30901" lon="5.91287">
        <ele>711.51</ele>
        <time>2013-01-03T10:57:09Z</time>
      </trkpt>
      <trkpt lat="43.309" lon="5.91286">
        <ele>711.51</ele>
        <time>2013-01-03T10:57:10Z</time>
      </trkpt>
      <trkpt lat="43.30896" lon="5.91281">
        <ele>711.99</ele>
        <time>2013-01-03T10:57:13Z</time>
      </trkpt>
      <trkpt lat="43.30895" lon="5.9128">
        <ele>712.47</ele>
        <time>2013-01-03T10:57:14Z</time>
      </trkpt>
      <trkpt lat="43.30887" lon="5.9127">
        <ele>713.92</ele>
        <time>2013-01-03T10:57:21Z</time>
      </trkpt>
      <trkpt lat="43.30886" lon="5.91268">
        <ele>714.4</ele>
        <time>2013-01-03T10:57:22Z</time>
      </trkpt>
      <trkpt lat="43.30886" lon="5.91267">
        <ele>714.4</ele>
        <time>2013-01-03T10:57:23Z</time>
      </trkpt>
      <trkpt lat="43.30886" lon="5.91265">
        <ele>714.88</ele>
        <time>2013-01-03T10:57:24Z</time>
      </trkpt>
      <trkpt lat="43.30886" lon="5.91263">
        <ele>715.36</ele>
        <time>2013-01-03T10:57:25Z</time>
      </trkpt>
      <trkpt lat="43.30887" lon="5.91261">
        <ele>715.36</ele>
        <time>2013-01-03T10:57:26Z</time>
      </trkpt>
      <trkpt lat="43.30888" lon="5.91259">
        <ele>715.84</ele>
        <time>2013-01-03T10:57:27Z</time>
      </trkpt>
      <trkpt lat="43.30889" lon="5.91257">
        <ele>716.32</ele>
        <time>2013-01-03T10:57:28Z</time>
      </trkpt>
      <trkpt lat="43.30889" lon="5.91256">
        <ele>716.32</ele>
        <time>2013-01-03T10:57:29Z</time>
      </trkpt>
      <trkpt lat="43.3089" lon="5.91253">
        <ele>716.8</ele>
        <time>2013-01-03T10:57:30Z</time>
      </trkpt>
      <trkpt lat="43.30894" lon="5.91239">
        <ele>718.24</ele>
        <time>2013-01-03T10:57:38Z</time>
      </trkpt>
      <trkpt lat="43.30895" lon="5.91237">
        <ele>718.72</ele>
        <time>2013-01-03T10:57:39Z</time>
      </trkpt>
      <trkpt lat="43.30895" lon="5.91231">
        <ele>719.2</ele>
        <time>2013-01-03T10:57:42Z</time>
      </trkpt>
      <trkpt lat="43.30894" lon="5.91225">
        <ele>719.68</ele>
        <time>2013-01-03T10:57:45Z</time>
      </trkpt>
      <trkpt lat="43.30891" lon="5.91218">
        <ele>720.65</ele>
        <time>2013-01-03T10:57:48Z</time>
      </trkpt>
      <trkpt lat="43.30891" lon="5.91216">
        <ele>720.65</ele>
        <time>2013-01-03T10:57:49Z</time>
      </trkpt>
      <trkpt lat="43.30892" lon="5.9121">
        <ele>721.61</ele>
        <time>2013-01-03T10:57:52Z</time>
      </trkpt>
      <trkpt lat="43.30891" lon="5.91199">
        <ele>723.53</ele>
        <time>2013-01-03T10:58:02Z</time>
      </trkpt>
      <trkpt lat="43.30894" lon="5.91191">
        <ele>724.49</ele>
        <time>2013-01-03T10:58:09Z</time>
      </trkpt>
      <trkpt lat="43.30895" lon="5.91189">
        <ele>724.49</ele>
        <time>2013-01-03T10:58:10Z</time>
      </trkpt>
      <trkpt lat="43.30896" lon="5.91187">
        <ele>724.97</ele>
        <time>2013-01-03T10:58:11Z</time>
      </trkpt>
      <trkpt lat="43.30897" lon="5.91186">
        <ele>724.97</ele>
        <time>2013-01-03T10:58:12Z</time>
      </trkpt>
      <trkpt lat="43.30898" lon="5.91185">
        <ele>724.97</ele>
        <time>2013-01-03T10:58:13Z</time>
      </trkpt>
      <trkpt lat="43.30904" lon="5.91182">
        <ele>725.93</ele>
        <time>2013-01-03T10:58:17Z</time>
      </trkpt>
      <trkpt lat="43.30905" lon="5.91182">
        <ele>725.93</ele>
        <time>2013-01-03T10:58:18Z</time>
      </trkpt>
      <trkpt lat="43.30926" lon="5.91189">
        <ele>729.3</ele>
        <time>2013-01-03T10:58:32Z</time>
      </trkpt>
      <trkpt lat="43.30928" lon="5.9119">
        <ele>729.78</ele>
        <time>2013-01-03T10:58:34Z</time>
      </trkpt>
      <trkpt lat="43.3093" lon="5.9119">
        <ele>729.78</ele>
        <time>2013-01-03T10:58:35Z</time>
      </trkpt>
      <trkpt lat="43.30931" lon="5.9119">
        <ele>730.26</ele>
        <time>2013-01-03T10:58:36Z</time>
      </trkpt>
      <trkpt lat="43.30933" lon="5.9119">
        <ele>730.26</ele>
        <time>2013-01-03T10:58:37Z</time>
      </trkpt>
      <trkpt lat="43.30934" lon="5.91191">
        <ele>730.74</ele>
        <time>2013-01-03T10:58:38Z</time>
      </trkpt>
      <trkpt lat="43.30935" lon="5.91191">
        <ele>730.74</ele>
        <time>2013-01-03T10:58:39Z</time>
      </trkpt>
      <trkpt lat="43.30937" lon="5.9119">
        <ele>730.74</ele>
        <time>2013-01-03T10:58:40Z</time>
      </trkpt>
      <trkpt lat="43.30938" lon="5.91191">
        <ele>731.22</ele>
        <time>2013-01-03T10:58:41Z</time>
      </trkpt>
      <trkpt lat="43.3094" lon="5.91193">
        <ele>731.22</ele>
        <time>2013-01-03T10:58:42Z</time>
      </trkpt>
      <trkpt lat="43.30945" lon="5.91196">
        <ele>731.7</ele>
        <time>2013-01-03T10:58:46Z</time>
      </trkpt>
      <trkpt lat="43.30947" lon="5.91197">
        <ele>731.7</ele>
        <time>2013-01-03T10:58:47Z</time>
      </trkpt>
      <trkpt lat="43.30949" lon="5.91197">
        <ele>732.18</ele>
        <time>2013-01-03T10:58:48Z</time>
      </trkpt>
      <trkpt lat="43.3095" lon="5.91198">
        <ele>732.18</ele>
        <time>2013-01-03T10:58:49Z</time>
      </trkpt>
      <trkpt lat="43.30951" lon="5.91199">
        <ele>732.18</ele>
        <time>2013-01-03T10:58:50Z</time>
      </trkpt>
      <trkpt lat="43.30953" lon="5.91199">
        <ele>732.66</ele>
        <time>2013-01-03T10:58:51Z</time>
      </trkpt>
      <trkpt lat="43.30955" lon="5.912">
        <ele>732.66</ele>
        <time>2013-01-03T10:58:52Z</time>
      </trkpt>
      <trkpt lat="43.30956" lon="5.912">
        <ele>732.66</ele>
        <time>2013-01-03T10:58:53Z</time>
      </trkpt>
      <trkpt lat="43.30967" lon="5.91195">
        <ele>734.1</ele>
        <time>2013-01-03T10:59:00Z</time>
      </trkpt>
      <trkpt lat="43.30968" lon="5.91194">
        <ele>733.62</ele>
        <time>2013-01-03T10:59:01Z</time>
      </trkpt>
      <trkpt lat="43.30973" lon="5.91189">
        <ele>734.1</ele>
        <time>2013-01-03T10:59:05Z</time>
      </trkpt>
      <trkpt lat="43.30975" lon="5.91187">
        <ele>734.58</ele>
        <time>2013-01-03T10:59:06Z</time>
      </trkpt>
      <trkpt lat="43.30976" lon="5.91185">
        <ele>734.58</ele>
        <time>2013-01-03T10:59:07Z</time>
      </trkpt>
      <trkpt lat="43.30989" lon="5.9117">
        <ele>735.55</ele>
        <time>2013-01-03T10:59:18Z</time>
      </trkpt>
      <trkpt lat="43.30989" lon="5.91168">
        <ele>735.55</ele>
        <time>2013-01-03T10:59:19Z</time>
      </trkpt>
      <trkpt lat="43.30989" lon="5.91166">
        <ele>735.55</ele>
        <time>2013-01-03T10:59:20Z</time>
      </trkpt>
      <trkpt lat="43.3099" lon="5.91164">
        <ele>735.55</ele>
        <time>2013-01-03T10:59:21Z</time>
      </trkpt>
      <trkpt lat="43.30992" lon="5.91162">
        <ele>735.55</ele>
        <time>2013-01-03T10:59:22Z</time>
      </trkpt>
      <trkpt lat="43.30993" lon="5.9116">
        <ele>735.55</ele>
        <time>2013-01-03T10:59:23Z</time>
      </trkpt>
      <trkpt lat="43.30994" lon="5.91159">
        <ele>735.55</ele>
        <time>2013-01-03T10:59:24Z</time>
      </trkpt>
      <trkpt lat="43.30995" lon="5.91159">
        <ele>735.07</ele>
        <time>2013-01-03T10:59:37Z</time>
      </trkpt>
      <trkpt lat="43.30995" lon="5.91159">
        <ele>735.07</ele>
        <time>2013-01-03T11:00:04Z</time>
      </trkpt>
      <trkpt lat="43.30995" lon="5.9116">
        <ele>735.07</ele>
        <time>2013-01-03T11:00:31Z</time>
      </trkpt>
      <trkpt lat="43.30995" lon="5.9116">
        <ele>735.07</ele>
        <time>2013-01-03T11:01:03Z</time>
      </trkpt>
      <trkpt lat="43.30995" lon="5.9116">
        <ele>736.03</ele>
        <time>2013-01-03T11:01:13Z</time>
      </trkpt>
      <trkpt lat="43.31007" lon="5.91145">
        <ele>736.51</ele>
        <time>2013-01-03T11:01:22Z</time>
      </trkpt>
      <trkpt lat="43.31008" lon="5.91143">
        <ele>736.51</ele>
        <time>2013-01-03T11:01:23Z</time>
      </trkpt>
      <trkpt lat="43.31009" lon="5.91142">
        <ele>736.99</ele>
        <time>2013-01-03T11:01:24Z</time>
      </trkpt>
      <trkpt lat="43.31027" lon="5.91129">
        <ele>736.99</ele>
        <time>2013-01-03T11:01:36Z</time>
      </trkpt>
      <trkpt lat="43.31033" lon="5.91124">
        <ele>737.47</ele>
        <time>2013-01-03T11:01:49Z</time>
      </trkpt>
      <trkpt lat="43.31033" lon="5.91124">
        <ele>737.47</ele>
        <time>2013-01-03T11:02:05Z</time>
      </trkpt>
      <trkpt lat="43.31033" lon="5.91123">
        <ele>737.47</ele>
        <time>2013-01-03T11:02:25Z</time>
      </trkpt>
      <trkpt lat="43.31048" lon="5.9112">
        <ele>737.95</ele>
        <time>2013-01-03T11:02:41Z</time>
      </trkpt>
      <trkpt lat="43.31075" lon="5.91121">
        <ele>740.83</ele>
        <time>2013-01-03T11:02:51Z</time>
      </trkpt>
      <trkpt lat="43.31093" lon="5.91121">
        <ele>742.76</ele>
        <time>2013-01-03T11:03:01Z</time>
      </trkpt>
      <trkpt lat="43.31094" lon="5.91121">
        <ele>742.28</ele>
        <time>2013-01-03T11:03:02Z</time>
      </trkpt>
      <trkpt lat="43.31113" lon="5.91138">
        <ele>742.28</ele>
        <time>2013-01-03T11:03:14Z</time>
      </trkpt>
      <trkpt lat="43.31116" lon="5.91142">
        <ele>742.28</ele>
        <time>2013-01-03T11:03:16Z</time>
      </trkpt>
      <trkpt lat="43.31117" lon="5.91145">
        <ele>742.28</ele>
        <time>2013-01-03T11:03:17Z</time>
      </trkpt>
      <trkpt lat="43.31118" lon="5.91147">
        <ele>742.76</ele>
        <time>2013-01-03T11:03:18Z</time>
      </trkpt>
      <trkpt lat="43.31119" lon="5.91149">
        <ele>742.76</ele>
        <time>2013-01-03T11:03:19Z</time>
      </trkpt>
      <trkpt lat="43.31119" lon="5.9115">
        <ele>742.76</ele>
        <time>2013-01-03T11:03:20Z</time>
      </trkpt>
      <trkpt lat="43.3112" lon="5.91152">
        <ele>742.76</ele>
        <time>2013-01-03T11:03:21Z</time>
      </trkpt>
      <trkpt lat="43.31129" lon="5.91158">
        <ele>742.28</ele>
        <time>2013-01-03T11:03:26Z</time>
      </trkpt>
      <trkpt lat="43.31132" lon="5.91158">
        <ele>742.28</ele>
        <time>2013-01-03T11:03:27Z</time>
      </trkpt>
      <trkpt lat="43.31133" lon="5.91157">
        <ele>742.28</ele>
        <time>2013-01-03T11:03:28Z</time>
      </trkpt>
      <trkpt lat="43.31135" lon="5.91157">
        <ele>742.28</ele>
        <time>2013-01-03T11:03:29Z</time>
      </trkpt>
      <trkpt lat="43.31137" lon="5.91156">
        <ele>741.79</ele>
        <time>2013-01-03T11:03:30Z</time>
      </trkpt>
      <trkpt lat="43.3114" lon="5.91156">
        <ele>741.79</ele>
        <time>2013-01-03T11:03:31Z</time>
      </trkpt>
      <trkpt lat="43.31142" lon="5.91155">
        <ele>741.79</ele>
        <time>2013-01-03T11:03:32Z</time>
      </trkpt>
      <trkpt lat="43.31144" lon="5.91155">
        <ele>741.79</ele>
        <time>2013-01-03T11:03:33Z</time>
      </trkpt>
      <trkpt lat="43.31146" lon="5.91155">
        <ele>741.79</ele>
        <time>2013-01-03T11:03:34Z</time>
      </trkpt>
      <trkpt lat="43.31148" lon="5.91155">
        <ele>741.79</ele>
        <time>2013-01-03T11:03:35Z</time>
      </trkpt>
      <trkpt lat="43.31151" lon="5.91154">
        <ele>741.31</ele>
        <time>2013-01-03T11:03:36Z</time>
      </trkpt>
      <trkpt lat="43.31154" lon="5.91154">
        <ele>741.31</ele>
        <time>2013-01-03T11:03:37Z</time>
      </trkpt>
      <trkpt lat="43.31187" lon="5.91156">
        <ele>739.39</ele>
        <time>2013-01-03T11:03:46Z</time>
      </trkpt>
      <trkpt lat="43.312" lon="5.91156">
        <ele>738.91</ele>
        <time>2013-01-03T11:03:49Z</time>
      </trkpt>
      <trkpt lat="43.31241" lon="5.91169">
        <ele>736.03</ele>
        <time>2013-01-03T11:04:00Z</time>
      </trkpt>
      <trkpt lat="43.31245" lon="5.9117">
        <ele>736.03</ele>
        <time>2013-01-03T11:04:01Z</time>
      </trkpt>
      <trkpt lat="43.31262" lon="5.91182">
        <ele>736.03</ele>
        <time>2013-01-03T11:04:09Z</time>
      </trkpt>
      <trkpt lat="43.31271" lon="5.91182">
        <ele>736.51</ele>
        <time>2013-01-03T11:04:14Z</time>
      </trkpt>
      <trkpt lat="43.31275" lon="5.91184">
        <ele>736.99</ele>
        <time>2013-01-03T11:04:16Z</time>
      </trkpt>
      <trkpt lat="43.31284" lon="5.91181">
        <ele>736.99</ele>
        <time>2013-01-03T11:04:27Z</time>
      </trkpt>
      <trkpt lat="43.31284" lon="5.91181">
        <ele>736.99</ele>
        <time>2013-01-03T11:04:42Z</time>
      </trkpt>
      <trkpt lat="43.31283" lon="5.91181">
        <ele>736.99</ele>
        <time>2013-01-03T11:04:58Z</time>
      </trkpt>
      <trkpt lat="43.31267" lon="5.91182">
        <ele>736.51</ele>
        <time>2013-01-03T11:05:09Z</time>
      </trkpt>
      <trkpt lat="43.31257" lon="5.91192">
        <ele>736.03</ele>
        <time>2013-01-03T11:05:16Z</time>
      </trkpt>
      <trkpt lat="43.31254" lon="5.91193">
        <ele>736.03</ele>
        <time>2013-01-03T11:05:18Z</time>
      </trkpt>
      <trkpt lat="43.31245" lon="5.91205">
        <ele>736.51</ele>
        <time>2013-01-03T11:05:29Z</time>
      </trkpt>
      <trkpt lat="43.31245" lon="5.91208">
        <ele>736.51</ele>
        <time>2013-01-03T11:05:33Z</time>
      </trkpt>
      <trkpt lat="43.31241" lon="5.91246">
        <ele>737.47</ele>
        <time>2013-01-03T11:05:48Z</time>
      </trkpt>
      <trkpt lat="43.31244" lon="5.91253">
        <ele>737.47</ele>
        <time>2013-01-03T11:05:51Z</time>
      </trkpt>
      <trkpt lat="43.31256" lon="5.91254">
        <ele>737.47</ele>
        <time>2013-01-03T11:05:58Z</time>
      </trkpt>
      <trkpt lat="43.31284" lon="5.91246">
        <ele>737.95</ele>
        <time>2013-01-03T11:06:12Z</time>
      </trkpt>
      <trkpt lat="43.31308" lon="5.91248">
        <ele>737.95</ele>
        <time>2013-01-03T11:06:23Z</time>
      </trkpt>
      <trkpt lat="43.3134" lon="5.91262">
        <ele>738.43</ele>
        <time>2013-01-03T11:06:36Z</time>
      </trkpt>
      <trkpt lat="43.3135" lon="5.91262">
        <ele>738.91</ele>
        <time>2013-01-03T11:06:40Z</time>
      </trkpt>
      <trkpt lat="43.31362" lon="5.91253">
        <ele>738.91</ele>
        <time>2013-01-03T11:06:46Z</time>
      </trkpt>
      <trkpt lat="43.3137" lon="5.91244">
        <ele>738.43</ele>
        <time>2013-01-03T11:06:50Z</time>
      </trkpt>
      <trkpt lat="43.31386" lon="5.91215">
        <ele>738.91</ele>
        <time>2013-01-03T11:07:01Z</time>
      </trkpt>
      <trkpt lat="43.31398" lon="5.91188">
        <ele>737.47</ele>
        <time>2013-01-03T11:07:10Z</time>
      </trkpt>
      <trkpt lat="43.31401" lon="5.91121">
        <ele>734.58</ele>
        <time>2013-01-03T11:07:23Z</time>
      </trkpt>
      <trkpt lat="43.31407" lon="5.91093">
        <ele>733.62</ele>
        <time>2013-01-03T11:07:29Z</time>
      </trkpt>
      <trkpt lat="43.3141" lon="5.91088">
        <ele>733.14</ele>
        <time>2013-01-03T11:07:30Z</time>
      </trkpt>
      <trkpt lat="43.31411" lon="5.91082">
        <ele>732.66</ele>
        <time>2013-01-03T11:07:31Z</time>
      </trkpt>
      <trkpt lat="43.31411" lon="5.91075">
        <ele>732.18</ele>
        <time>2013-01-03T11:07:32Z</time>
      </trkpt>
      <trkpt lat="43.31411" lon="5.91069">
        <ele>731.7</ele>
        <time>2013-01-03T11:07:33Z</time>
      </trkpt>
      <trkpt lat="43.3141" lon="5.91063">
        <ele>731.22</ele>
        <time>2013-01-03T11:07:34Z</time>
      </trkpt>
      <trkpt lat="43.31409" lon="5.91057">
        <ele>731.22</ele>
        <time>2013-01-03T11:07:35Z</time>
      </trkpt>
      <trkpt lat="43.31407" lon="5.91046">
        <ele>730.74</ele>
        <time>2013-01-03T11:07:37Z</time>
      </trkpt>
      <trkpt lat="43.31407" lon="5.9104">
        <ele>730.74</ele>
        <time>2013-01-03T11:07:38Z</time>
      </trkpt>
      <trkpt lat="43.31408" lon="5.91028">
        <ele>730.26</ele>
        <time>2013-01-03T11:07:40Z</time>
      </trkpt>
      <trkpt lat="43.3141" lon="5.91023">
        <ele>730.26</ele>
        <time>2013-01-03T11:07:41Z</time>
      </trkpt>
      <trkpt lat="43.31412" lon="5.91018">
        <ele>729.78</ele>
        <time>2013-01-03T11:07:42Z</time>
      </trkpt>
      <trkpt lat="43.31414" lon="5.91013">
        <ele>729.78</ele>
        <time>2013-01-03T11:07:43Z</time>
      </trkpt>
      <trkpt lat="43.31417" lon="5.91008">
        <ele>729.3</ele>
        <time>2013-01-03T11:07:44Z</time>
      </trkpt>
      <trkpt lat="43.31419" lon="5.91003">
        <ele>729.3</ele>
        <time>2013-01-03T11:07:45Z</time>
      </trkpt>
      <trkpt lat="43.31428" lon="5.90986">
        <ele>728.82</ele>
        <time>2013-01-03T11:07:49Z</time>
      </trkpt>
      <trkpt lat="43.31429" lon="5.9098">
        <ele>728.82</ele>
        <time>2013-01-03T11:07:50Z</time>
      </trkpt>
      <trkpt lat="43.31429" lon="5.90975">
        <ele>728.34</ele>
        <time>2013-01-03T11:07:51Z</time>
      </trkpt>
      <trkpt lat="43.3143" lon="5.9097">
        <ele>728.34</ele>
        <time>2013-01-03T11:07:52Z</time>
      </trkpt>
      <trkpt lat="43.31432" lon="5.90965">
        <ele>728.34</ele>
        <time>2013-01-03T11:07:53Z</time>
      </trkpt>
      <trkpt lat="43.31434" lon="5.90961">
        <ele>728.34</ele>
        <time>2013-01-03T11:07:54Z</time>
      </trkpt>
      <trkpt lat="43.31436" lon="5.9096">
        <ele>728.34</ele>
        <time>2013-01-03T11:07:55Z</time>
      </trkpt>
      <trkpt lat="43.31439" lon="5.90959">
        <ele>728.34</ele>
        <time>2013-01-03T11:07:56Z</time>
      </trkpt>
      <trkpt lat="43.31462" lon="5.90938">
        <ele>726.89</ele>
        <time>2013-01-03T11:08:06Z</time>
      </trkpt>
      <trkpt lat="43.31467" lon="5.90929">
        <ele>726.41</ele>
        <time>2013-01-03T11:08:08Z</time>
      </trkpt>
      <trkpt lat="43.31469" lon="5.90922">
        <ele>725.45</ele>
        <time>2013-01-03T11:08:09Z</time>
      </trkpt>
      <trkpt lat="43.3147" lon="5.90915">
        <ele>725.45</ele>
        <time>2013-01-03T11:08:10Z</time>
      </trkpt>
      <trkpt lat="43.3147" lon="5.90908">
        <ele>724.49</ele>
        <time>2013-01-03T11:08:11Z</time>
      </trkpt>
      <trkpt lat="43.31472" lon="5.90901">
        <ele>724.49</ele>
        <time>2013-01-03T11:08:12Z</time>
      </trkpt>
      <trkpt lat="43.31473" lon="5.90894">
        <ele>724.01</ele>
        <time>2013-01-03T11:08:13Z</time>
      </trkpt>
      <trkpt lat="43.31475" lon="5.90889">
        <ele>723.53</ele>
        <time>2013-01-03T11:08:14Z</time>
      </trkpt>
      <trkpt lat="43.31477" lon="5.90883">
        <ele>723.53</ele>
        <time>2013-01-03T11:08:15Z</time>
      </trkpt>
      <trkpt lat="43.31482" lon="5.9087">
        <ele>723.05</ele>
        <time>2013-01-03T11:08:17Z</time>
      </trkpt>
      <trkpt lat="43.31485" lon="5.90864">
        <ele>722.57</ele>
        <time>2013-01-03T11:08:18Z</time>
      </trkpt>
      <trkpt lat="43.31494" lon="5.90844">
        <ele>722.09</ele>
        <time>2013-01-03T11:08:22Z</time>
      </trkpt>
      <trkpt lat="43.31495" lon="5.90838">
        <ele>722.09</ele>
        <time>2013-01-03T11:08:23Z</time>
      </trkpt>
      <trkpt lat="43.31497" lon="5.90834">
        <ele>722.09</ele>
        <time>2013-01-03T11:08:24Z</time>
      </trkpt>
      <trkpt lat="43.31499" lon="5.9083">
        <ele>722.09</ele>
        <time>2013-01-03T11:08:25Z</time>
      </trkpt>
      <trkpt lat="43.31501" lon="5.90826">
        <ele>721.61</ele>
        <time>2013-01-03T11:08:26Z</time>
      </trkpt>
      <trkpt lat="43.31502" lon="5.90823">
        <ele>721.61</ele>
        <time>2013-01-03T11:08:27Z</time>
      </trkpt>
      <trkpt lat="43.31505" lon="5.9082">
        <ele>721.61</ele>
        <time>2013-01-03T11:08:28Z</time>
      </trkpt>
      <trkpt lat="43.31507" lon="5.90818">
        <ele>721.61</ele>
        <time>2013-01-03T11:08:29Z</time>
      </trkpt>
      <trkpt lat="43.3151" lon="5.90816">
        <ele>721.61</ele>
        <time>2013-01-03T11:08:30Z</time>
      </trkpt>
      <trkpt lat="43.31511" lon="5.90812">
        <ele>721.61</ele>
        <time>2013-01-03T11:08:31Z</time>
      </trkpt>
      <trkpt lat="43.31511" lon="5.90808">
        <ele>721.61</ele>
        <time>2013-01-03T11:08:32Z</time>
      </trkpt>
      <trkpt lat="43.3151" lon="5.90804">
        <ele>721.61</ele>
        <time>2013-01-03T11:08:33Z</time>
      </trkpt>
      <trkpt lat="43.31509" lon="5.90799">
        <ele>721.61</ele>
        <time>2013-01-03T11:08:34Z</time>
      </trkpt>
      <trkpt lat="43.31508" lon="5.90795">
        <ele>721.61</ele>
        <time>2013-01-03T11:08:35Z</time>
      </trkpt>
      <trkpt lat="43.31508" lon="5.90791">
        <ele>721.61</ele>
        <time>2013-01-03T11:08:36Z</time>
      </trkpt>
      <trkpt lat="43.31514" lon="5.9075">
        <ele>720.65</ele>
        <time>2013-01-03T11:08:46Z</time>
      </trkpt>
      <trkpt lat="43.31523" lon="5.9069">
        <ele>719.68</ele>
        <time>2013-01-03T11:08:58Z</time>
      </trkpt>
      <trkpt lat="43.31532" lon="5.90671">
        <ele>719.68</ele>
        <time>2013-01-03T11:09:02Z</time>
      </trkpt>
      <trkpt lat="43.31536" lon="5.90668">
        <ele>719.68</ele>
        <time>2013-01-03T11:09:03Z</time>
      </trkpt>
      <trkpt lat="43.31562" lon="5.90642">
        <ele>719.2</ele>
        <time>2013-01-03T11:09:12Z</time>
      </trkpt>
      <trkpt lat="43.31563" lon="5.90639">
        <ele>719.2</ele>
        <time>2013-01-03T11:09:13Z</time>
      </trkpt>
      <trkpt lat="43.31581" lon="5.90618">
        <ele>719.2</ele>
        <time>2013-01-03T11:09:24Z</time>
      </trkpt>
      <trkpt lat="43.31605" lon="5.90598">
        <ele>718.72</ele>
        <time>2013-01-03T11:09:36Z</time>
      </trkpt>
      <trkpt lat="43.31607" lon="5.90595">
        <ele>718.72</ele>
        <time>2013-01-03T11:09:37Z</time>
      </trkpt>
      <trkpt lat="43.31616" lon="5.90541">
        <ele>718.24</ele>
        <time>2013-01-03T11:09:51Z</time>
      </trkpt>
      <trkpt lat="43.31619" lon="5.90525">
        <ele>718.72</ele>
        <time>2013-01-03T11:09:55Z</time>
      </trkpt>
      <trkpt lat="43.31621" lon="5.90522">
        <ele>718.72</ele>
        <time>2013-01-03T11:09:56Z</time>
      </trkpt>
      <trkpt lat="43.31622" lon="5.90518">
        <ele>718.72</ele>
        <time>2013-01-03T11:09:57Z</time>
      </trkpt>
      <trkpt lat="43.31624" lon="5.90514">
        <ele>718.72</ele>
        <time>2013-01-03T11:09:58Z</time>
      </trkpt>
      <trkpt lat="43.31626" lon="5.90511">
        <ele>718.72</ele>
        <time>2013-01-03T11:09:59Z</time>
      </trkpt>
      <trkpt lat="43.31628" lon="5.90508">
        <ele>718.72</ele>
        <time>2013-01-03T11:10:00Z</time>
      </trkpt>
      <trkpt lat="43.3163" lon="5.90506">
        <ele>719.2</ele>
        <time>2013-01-03T11:10:01Z</time>
      </trkpt>
      <trkpt lat="43.31632" lon="5.90503">
        <ele>719.2</ele>
        <time>2013-01-03T11:10:02Z</time>
      </trkpt>
      <trkpt lat="43.31661" lon="5.90478">
        <ele>720.65</ele>
        <time>2013-01-03T11:10:13Z</time>
      </trkpt>
      <trkpt lat="43.31664" lon="5.90479">
        <ele>721.13</ele>
        <time>2013-01-03T11:10:14Z</time>
      </trkpt>
      <trkpt lat="43.31698" lon="5.90475">
        <ele>722.57</ele>
        <time>2013-01-03T11:10:25Z</time>
      </trkpt>
      <trkpt lat="43.317" lon="5.90475">
        <ele>722.57</ele>
        <time>2013-01-03T11:10:26Z</time>
      </trkpt>
      <trkpt lat="43.31705" lon="5.90476">
        <ele>723.05</ele>
        <time>2013-01-03T11:10:28Z</time>
      </trkpt>
      <trkpt lat="43.31708" lon="5.90479">
        <ele>723.05</ele>
        <time>2013-01-03T11:10:29Z</time>
      </trkpt>
      <trkpt lat="43.3171" lon="5.90481">
        <ele>723.05</ele>
        <time>2013-01-03T11:10:30Z</time>
      </trkpt>
      <trkpt lat="43.31712" lon="5.90484">
        <ele>723.05</ele>
        <time>2013-01-03T11:10:31Z</time>
      </trkpt>
      <trkpt lat="43.31714" lon="5.90487">
        <ele>722.57</ele>
        <time>2013-01-03T11:10:32Z</time>
      </trkpt>
      <trkpt lat="43.31715" lon="5.90491">
        <ele>722.57</ele>
        <time>2013-01-03T11:10:33Z</time>
      </trkpt>
      <trkpt lat="43.31718" lon="5.90498">
        <ele>722.57</ele>
        <time>2013-01-03T11:10:35Z</time>
      </trkpt>
      <trkpt lat="43.31721" lon="5.90499">
        <ele>722.57</ele>
        <time>2013-01-03T11:10:36Z</time>
      </trkpt>
      <trkpt lat="43.31724" lon="5.905">
        <ele>722.57</ele>
        <time>2013-01-03T11:10:37Z</time>
      </trkpt>
      <trkpt lat="43.31727" lon="5.905">
        <ele>723.05</ele>
        <time>2013-01-03T11:10:38Z</time>
      </trkpt>
      <trkpt lat="43.31729" lon="5.90499">
        <ele>723.05</ele>
        <time>2013-01-03T11:10:39Z</time>
      </trkpt>
      <trkpt lat="43.31738" lon="5.90493">
        <ele>723.53</ele>
        <time>2013-01-03T11:10:43Z</time>
      </trkpt>
      <trkpt lat="43.31764" lon="5.90501">
        <ele>722.09</ele>
        <time>2013-01-03T11:10:52Z</time>
      </trkpt>
      <trkpt lat="43.31768" lon="5.905">
        <ele>722.09</ele>
        <time>2013-01-03T11:10:53Z</time>
      </trkpt>
      <trkpt lat="43.31784" lon="5.90492">
        <ele>721.13</ele>
        <time>2013-01-03T11:10:58Z</time>
      </trkpt>
      <trkpt lat="43.31786" lon="5.90489">
        <ele>721.13</ele>
        <time>2013-01-03T11:10:59Z</time>
      </trkpt>
      <trkpt lat="43.31788" lon="5.90487">
        <ele>721.13</ele>
        <time>2013-01-03T11:11:00Z</time>
      </trkpt>
      <trkpt lat="43.3179" lon="5.90484">
        <ele>721.61</ele>
        <time>2013-01-03T11:11:01Z</time>
      </trkpt>
      <trkpt lat="43.31791" lon="5.90481">
        <ele>721.13</ele>
        <time>2013-01-03T11:11:02Z</time>
      </trkpt>
      <trkpt lat="43.31793" lon="5.90478">
        <ele>721.13</ele>
        <time>2013-01-03T11:11:03Z</time>
      </trkpt>
      <trkpt lat="43.31801" lon="5.90464">
        <ele>721.13</ele>
        <time>2013-01-03T11:11:08Z</time>
      </trkpt>
      <trkpt lat="43.31804" lon="5.90462">
        <ele>721.13</ele>
        <time>2013-01-03T11:11:09Z</time>
      </trkpt>
      <trkpt lat="43.31824" lon="5.90446">
        <ele>721.13</ele>
        <time>2013-01-03T11:11:20Z</time>
      </trkpt>
      <trkpt lat="43.31837" lon="5.90433">
        <ele>721.13</ele>
        <time>2013-01-03T11:11:27Z</time>
      </trkpt>
      <trkpt lat="43.31839" lon="5.90431">
        <ele>721.61</ele>
        <time>2013-01-03T11:11:28Z</time>
      </trkpt>
      <trkpt lat="43.31841" lon="5.90429">
        <ele>721.13</ele>
        <time>2013-01-03T11:11:29Z</time>
      </trkpt>
      <trkpt lat="43.31859" lon="5.90414">
        <ele>721.61</ele>
        <time>2013-01-03T11:11:37Z</time>
      </trkpt>
      <trkpt lat="43.31862" lon="5.90411">
        <ele>721.61</ele>
        <time>2013-01-03T11:11:38Z</time>
      </trkpt>
      <trkpt lat="43.31864" lon="5.90409">
        <ele>721.61</ele>
        <time>2013-01-03T11:11:39Z</time>
      </trkpt>
      <trkpt lat="43.31867" lon="5.90406">
        <ele>722.09</ele>
        <time>2013-01-03T11:11:40Z</time>
      </trkpt>
      <trkpt lat="43.3187" lon="5.90404">
        <ele>722.09</ele>
        <time>2013-01-03T11:11:41Z</time>
      </trkpt>
      <trkpt lat="43.31873" lon="5.90402">
        <ele>722.09</ele>
        <time>2013-01-03T11:11:42Z</time>
      </trkpt>
      <trkpt lat="43.31875" lon="5.90399">
        <ele>722.09</ele>
        <time>2013-01-03T11:11:43Z</time>
      </trkpt>
      <trkpt lat="43.31903" lon="5.90373">
        <ele>723.53</ele>
        <time>2013-01-03T11:11:54Z</time>
      </trkpt>
      <trkpt lat="43.31946" lon="5.90346">
        <ele>724.97</ele>
        <time>2013-01-03T11:12:10Z</time>
      </trkpt>
      <trkpt lat="43.31978" lon="5.90317">
        <ele>726.89</ele>
        <time>2013-01-03T11:12:23Z</time>
      </trkpt>
      <trkpt lat="43.32004" lon="5.90293">
        <ele>727.86</ele>
        <time>2013-01-03T11:12:35Z</time>
      </trkpt>
      <trkpt lat="43.32011" lon="5.90287">
        <ele>728.82</ele>
        <time>2013-01-03T11:12:39Z</time>
      </trkpt>
      <trkpt lat="43.32011" lon="5.90285">
        <ele>728.82</ele>
        <time>2013-01-03T11:12:40Z</time>
      </trkpt>
      <trkpt lat="43.32011" lon="5.90282">
        <ele>728.82</ele>
        <time>2013-01-03T11:12:42Z</time>
      </trkpt>
      <trkpt lat="43.3201" lon="5.90281">
        <ele>727.86</ele>
        <time>2013-01-03T11:12:56Z</time>
      </trkpt>
      <trkpt lat="43.3201" lon="5.90281">
        <ele>728.82</ele>
        <time>2013-01-03T11:13:13Z</time>
      </trkpt>
      <trkpt lat="43.32009" lon="5.90279">
        <ele>728.34</ele>
        <time>2013-01-03T11:13:14Z</time>
      </trkpt>
      <trkpt lat="43.32008" lon="5.90276">
        <ele>728.34</ele>
        <time>2013-01-03T11:13:15Z</time>
      </trkpt>
      <trkpt lat="43.32008" lon="5.90273">
        <ele>728.34</ele>
        <time>2013-01-03T11:13:16Z</time>
      </trkpt>
      <trkpt lat="43.32006" lon="5.90271">
        <ele>728.34</ele>
        <time>2013-01-03T11:13:17Z</time>
      </trkpt>
      <trkpt lat="43.32005" lon="5.90268">
        <ele>728.34</ele>
        <time>2013-01-03T11:13:18Z</time>
      </trkpt>
      <trkpt lat="43.32004" lon="5.90264">
        <ele>727.86</ele>
        <time>2013-01-03T11:13:19Z</time>
      </trkpt>
      <trkpt lat="43.32003" lon="5.90261">
        <ele>727.37</ele>
        <time>2013-01-03T11:13:20Z</time>
      </trkpt>
      <trkpt lat="43.32002" lon="5.90258">
        <ele>727.86</ele>
        <time>2013-01-03T11:13:21Z</time>
      </trkpt>
      <trkpt lat="43.32002" lon="5.90255">
        <ele>727.37</ele>
        <time>2013-01-03T11:13:22Z</time>
      </trkpt>
      <trkpt lat="43.32" lon="5.90252">
        <ele>727.86</ele>
        <time>2013-01-03T11:13:23Z</time>
      </trkpt>
      <trkpt lat="43.31987" lon="5.9021">
        <ele>726.89</ele>
        <time>2013-01-03T11:13:34Z</time>
      </trkpt>
      <trkpt lat="43.31978" lon="5.9018">
        <ele>726.89</ele>
        <time>2013-01-03T11:13:41Z</time>
      </trkpt>
      <trkpt lat="43.31976" lon="5.90176">
        <ele>726.41</ele>
        <time>2013-01-03T11:13:42Z</time>
      </trkpt>
      <trkpt lat="43.31956" lon="5.90132">
        <ele>726.89</ele>
        <time>2013-01-03T11:13:54Z</time>
      </trkpt>
      <trkpt lat="43.31936" lon="5.90088">
        <ele>728.34</ele>
        <time>2013-01-03T11:14:06Z</time>
      </trkpt>
      <trkpt lat="43.31917" lon="5.90036">
        <ele>728.82</ele>
        <time>2013-01-03T11:14:20Z</time>
      </trkpt>
      <trkpt lat="43.31914" lon="5.90033">
        <ele>728.34</ele>
        <time>2013-01-03T11:14:21Z</time>
      </trkpt>
      <trkpt lat="43.31899" lon="5.89993">
        <ele>729.78</ele>
        <time>2013-01-03T11:14:33Z</time>
      </trkpt>
      <trkpt lat="43.31884" lon="5.89946">
        <ele>728.82</ele>
        <time>2013-01-03T11:14:43Z</time>
      </trkpt>
      <trkpt lat="43.31883" lon="5.89942">
        <ele>728.82</ele>
        <time>2013-01-03T11:14:44Z</time>
      </trkpt>
      <trkpt lat="43.31881" lon="5.89937">
        <ele>728.82</ele>
        <time>2013-01-03T11:14:45Z</time>
      </trkpt>
      <trkpt lat="43.31861" lon="5.89881">
        <ele>730.26</ele>
        <time>2013-01-03T11:14:58Z</time>
      </trkpt>
      <trkpt lat="43.31853" lon="5.89871">
        <ele>730.74</ele>
        <time>2013-01-03T11:15:02Z</time>
      </trkpt>
      <trkpt lat="43.31833" lon="5.89844">
        <ele>729.78</ele>
        <time>2013-01-03T11:15:13Z</time>
      </trkpt>
      <trkpt lat="43.31824" lon="5.89837">
        <ele>729.3</ele>
        <time>2013-01-03T11:15:16Z</time>
      </trkpt>
      <trkpt lat="43.3182" lon="5.89836">
        <ele>729.3</ele>
        <time>2013-01-03T11:15:17Z</time>
      </trkpt>
      <trkpt lat="43.31817" lon="5.89833">
        <ele>729.3</ele>
        <time>2013-01-03T11:15:18Z</time>
      </trkpt>
      <trkpt lat="43.31799" lon="5.8981">
        <ele>727.86</ele>
        <time>2013-01-03T11:15:25Z</time>
      </trkpt>
      <trkpt lat="43.31777" lon="5.89777">
        <ele>725.93</ele>
        <time>2013-01-03T11:15:34Z</time>
      </trkpt>
      <trkpt lat="43.31775" lon="5.89772">
        <ele>726.41</ele>
        <time>2013-01-03T11:15:35Z</time>
      </trkpt>
      <trkpt lat="43.31744" lon="5.8974">
        <ele>725.93</ele>
        <time>2013-01-03T11:15:45Z</time>
      </trkpt>
      <trkpt lat="43.31736" lon="5.8973">
        <ele>725.93</ele>
        <time>2013-01-03T11:15:48Z</time>
      </trkpt>
      <trkpt lat="43.31732" lon="5.89727">
        <ele>725.93</ele>
        <time>2013-01-03T11:15:49Z</time>
      </trkpt>
      <trkpt lat="43.31728" lon="5.89724">
        <ele>725.93</ele>
        <time>2013-01-03T11:15:50Z</time>
      </trkpt>
      <trkpt lat="43.31724" lon="5.89722">
        <ele>725.93</ele>
        <time>2013-01-03T11:15:51Z</time>
      </trkpt>
      <trkpt lat="43.31721" lon="5.8972">
        <ele>725.93</ele>
        <time>2013-01-03T11:15:52Z</time>
      </trkpt>
      <trkpt lat="43.31711" lon="5.89713">
        <ele>725.93</ele>
        <time>2013-01-03T11:15:55Z</time>
      </trkpt>
      <trkpt lat="43.31708" lon="5.89712">
        <ele>725.93</ele>
        <time>2013-01-03T11:15:56Z</time>
      </trkpt>
      <trkpt lat="43.31705" lon="5.8971">
        <ele>725.93</ele>
        <time>2013-01-03T11:15:57Z</time>
      </trkpt>
      <trkpt lat="43.3169" lon="5.89701">
        <ele>725.93</ele>
        <time>2013-01-03T11:16:01Z</time>
      </trkpt>
      <trkpt lat="43.31687" lon="5.89697">
        <ele>725.93</ele>
        <time>2013-01-03T11:16:02Z</time>
      </trkpt>
      <trkpt lat="43.31684" lon="5.89692">
        <ele>725.93</ele>
        <time>2013-01-03T11:16:03Z</time>
      </trkpt>
      <trkpt lat="43.31682" lon="5.89688">
        <ele>725.93</ele>
        <time>2013-01-03T11:16:04Z</time>
      </trkpt>
      <trkpt lat="43.3168" lon="5.89683">
        <ele>725.93</ele>
        <time>2013-01-03T11:16:05Z</time>
      </trkpt>
      <trkpt lat="43.31667" lon="5.89666">
        <ele>726.41</ele>
        <time>2013-01-03T11:16:10Z</time>
      </trkpt>
      <trkpt lat="43.31656" lon="5.89657">
        <ele>725.45</ele>
        <time>2013-01-03T11:16:13Z</time>
      </trkpt>
      <trkpt lat="43.31652" lon="5.89653">
        <ele>725.45</ele>
        <time>2013-01-03T11:16:14Z</time>
      </trkpt>
      <trkpt lat="43.31648" lon="5.8965">
        <ele>724.97</ele>
        <time>2013-01-03T11:16:15Z</time>
      </trkpt>
      <trkpt lat="43.31645" lon="5.89647">
        <ele>724.97</ele>
        <time>2013-01-03T11:16:16Z</time>
      </trkpt>
      <trkpt lat="43.31641" lon="5.89645">
        <ele>725.45</ele>
        <time>2013-01-03T11:16:17Z</time>
      </trkpt>
      <trkpt lat="43.31637" lon="5.89643">
        <ele>724.97</ele>
        <time>2013-01-03T11:16:18Z</time>
      </trkpt>
      <trkpt lat="43.31633" lon="5.8964">
        <ele>725.45</ele>
        <time>2013-01-03T11:16:19Z</time>
      </trkpt>
      <trkpt lat="43.31629" lon="5.89638">
        <ele>724.97</ele>
        <time>2013-01-03T11:16:20Z</time>
      </trkpt>
      <trkpt lat="43.31591" lon="5.89616">
        <ele>724.01</ele>
        <time>2013-01-03T11:16:30Z</time>
      </trkpt>
      <trkpt lat="43.31586" lon="5.89615">
        <ele>723.53</ele>
        <time>2013-01-03T11:16:31Z</time>
      </trkpt>
      <trkpt lat="43.31581" lon="5.89614">
        <ele>723.53</ele>
        <time>2013-01-03T11:16:32Z</time>
      </trkpt>
      <trkpt lat="43.31576" lon="5.89614">
        <ele>723.05</ele>
        <time>2013-01-03T11:16:33Z</time>
      </trkpt>
      <trkpt lat="43.31567" lon="5.8961">
        <ele>723.05</ele>
        <time>2013-01-03T11:16:35Z</time>
      </trkpt>
      <trkpt lat="43.31552" lon="5.8959">
        <ele>723.05</ele>
        <time>2013-01-03T11:16:40Z</time>
      </trkpt>
      <trkpt lat="43.31549" lon="5.89586">
        <ele>723.05</ele>
        <time>2013-01-03T11:16:41Z</time>
      </trkpt>
      <trkpt lat="43.31545" lon="5.89583">
        <ele>723.05</ele>
        <time>2013-01-03T11:16:42Z</time>
      </trkpt>
      <trkpt lat="43.31542" lon="5.8958">
        <ele>723.05</ele>
        <time>2013-01-03T11:16:43Z</time>
      </trkpt>
      <trkpt lat="43.31539" lon="5.89576">
        <ele>723.53</ele>
        <time>2013-01-03T11:16:44Z</time>
      </trkpt>
      <trkpt lat="43.31535" lon="5.89574">
        <ele>723.05</ele>
        <time>2013-01-03T11:16:45Z</time>
      </trkpt>
      <trkpt lat="43.31532" lon="5.89571">
        <ele>723.05</ele>
        <time>2013-01-03T11:16:46Z</time>
      </trkpt>
      <trkpt lat="43.31529" lon="5.89568">
        <ele>723.05</ele>
        <time>2013-01-03T11:16:47Z</time>
      </trkpt>
      <trkpt lat="43.31481" lon="5.89519">
        <ele>724.01</ele>
        <time>2013-01-03T11:17:03Z</time>
      </trkpt>
      <trkpt lat="43.31469" lon="5.89509">
        <ele>724.01</ele>
        <time>2013-01-03T11:17:07Z</time>
      </trkpt>
      <trkpt lat="43.31466" lon="5.89508">
        <ele>724.01</ele>
        <time>2013-01-03T11:17:08Z</time>
      </trkpt>
      <trkpt lat="43.31463" lon="5.89506">
        <ele>724.01</ele>
        <time>2013-01-03T11:17:09Z</time>
      </trkpt>
      <trkpt lat="43.3146" lon="5.89504">
        <ele>724.01</ele>
        <time>2013-01-03T11:17:10Z</time>
      </trkpt>
      <trkpt lat="43.31458" lon="5.895">
        <ele>723.53</ele>
        <time>2013-01-03T11:17:11Z</time>
      </trkpt>
      <trkpt lat="43.31456" lon="5.89496">
        <ele>723.53</ele>
        <time>2013-01-03T11:17:12Z</time>
      </trkpt>
      <trkpt lat="43.31455" lon="5.89492">
        <ele>724.01</ele>
        <time>2013-01-03T11:17:13Z</time>
      </trkpt>
      <trkpt lat="43.31453" lon="5.89488">
        <ele>724.01</ele>
        <time>2013-01-03T11:17:14Z</time>
      </trkpt>
      <trkpt lat="43.31451" lon="5.89484">
        <ele>724.01</ele>
        <time>2013-01-03T11:17:15Z</time>
      </trkpt>
      <trkpt lat="43.31429" lon="5.89451">
        <ele>724.49</ele>
        <time>2013-01-03T11:17:24Z</time>
      </trkpt>
      <trkpt lat="43.31428" lon="5.89446">
        <ele>724.49</ele>
        <time>2013-01-03T11:17:25Z</time>
      </trkpt>
      <trkpt lat="43.31424" lon="5.89437">
        <ele>724.49</ele>
        <time>2013-01-03T11:17:27Z</time>
      </trkpt>
      <trkpt lat="43.3142" lon="5.89426">
        <ele>724.49</ele>
        <time>2013-01-03T11:17:29Z</time>
      </trkpt>
      <trkpt lat="43.31413" lon="5.89417">
        <ele>724.97</ele>
        <time>2013-01-03T11:17:31Z</time>
      </trkpt>
      <trkpt lat="43.31387" lon="5.89387">
        <ele>725.45</ele>
        <time>2013-01-03T11:17:40Z</time>
      </trkpt>
      <trkpt lat="43.31383" lon="5.89383">
        <ele>725.45</ele>
        <time>2013-01-03T11:17:41Z</time>
      </trkpt>
      <trkpt lat="43.3138" lon="5.8938">
        <ele>724.97</ele>
        <time>2013-01-03T11:17:42Z</time>
      </trkpt>
      <trkpt lat="43.31377" lon="5.89376">
        <ele>725.45</ele>
        <time>2013-01-03T11:17:43Z</time>
      </trkpt>
      <trkpt lat="43.31374" lon="5.89372">
        <ele>725.45</ele>
        <time>2013-01-03T11:17:44Z</time>
      </trkpt>
      <trkpt lat="43.31371" lon="5.89369">
        <ele>724.97</ele>
        <time>2013-01-03T11:17:45Z</time>
      </trkpt>
      <trkpt lat="43.31367" lon="5.89366">
        <ele>724.97</ele>
        <time>2013-01-03T11:17:46Z</time>
      </trkpt>
      <trkpt lat="43.31363" lon="5.89364">
        <ele>724.97</ele>
        <time>2013-01-03T11:17:47Z</time>
      </trkpt>
      <trkpt lat="43.3136" lon="5.89361">
        <ele>725.45</ele>
        <time>2013-01-03T11:17:48Z</time>
      </trkpt>
      <trkpt lat="43.31357" lon="5.89358">
        <ele>725.93</ele>
        <time>2013-01-03T11:17:49Z</time>
      </trkpt>
      <trkpt lat="43.31354" lon="5.89354">
        <ele>725.93</ele>
        <time>2013-01-03T11:17:50Z</time>
      </trkpt>
      <trkpt lat="43.31351" lon="5.8935">
        <ele>725.93</ele>
        <time>2013-01-03T11:17:51Z</time>
      </trkpt>
      <trkpt lat="43.31345" lon="5.89342">
        <ele>725.93</ele>
        <time>2013-01-03T11:17:53Z</time>
      </trkpt>
      <trkpt lat="43.31337" lon="5.89337">
        <ele>725.93</ele>
        <time>2013-01-03T11:17:55Z</time>
      </trkpt>
      <trkpt lat="43.31333" lon="5.89333">
        <ele>725.93</ele>
        <time>2013-01-03T11:17:56Z</time>
      </trkpt>
      <trkpt lat="43.31324" lon="5.89326">
        <ele>725.45</ele>
        <time>2013-01-03T11:17:58Z</time>
      </trkpt>
      <trkpt lat="43.31312" lon="5.89318">
        <ele>725.93</ele>
        <time>2013-01-03T11:18:01Z</time>
      </trkpt>
      <trkpt lat="43.31309" lon="5.89314">
        <ele>725.93</ele>
        <time>2013-01-03T11:18:02Z</time>
      </trkpt>
      <trkpt lat="43.31307" lon="5.8931">
        <ele>725.93</ele>
        <time>2013-01-03T11:18:03Z</time>
      </trkpt>
      <trkpt lat="43.31286" lon="5.89272">
        <ele>726.41</ele>
        <time>2013-01-03T11:18:13Z</time>
      </trkpt>
      <trkpt lat="43.31269" lon="5.89214">
        <ele>727.37</ele>
        <time>2013-01-03T11:18:26Z</time>
      </trkpt>
      <trkpt lat="43.31259" lon="5.89153">
        <ele>728.34</ele>
        <time>2013-01-03T11:18:39Z</time>
      </trkpt>
      <trkpt lat="43.3126" lon="5.89098">
        <ele>729.3</ele>
        <time>2013-01-03T11:18:51Z</time>
      </trkpt>
      <trkpt lat="43.3127" lon="5.89058">
        <ele>730.74</ele>
        <time>2013-01-03T11:19:03Z</time>
      </trkpt>
      <trkpt lat="43.31271" lon="5.89056">
        <ele>730.74</ele>
        <time>2013-01-03T11:19:12Z</time>
      </trkpt>
      <trkpt lat="43.31271" lon="5.89056">
        <ele>730.74</ele>
        <time>2013-01-03T11:19:32Z</time>
      </trkpt>
      <trkpt lat="43.31271" lon="5.89057">
        <ele>730.74</ele>
        <time>2013-01-03T11:19:52Z</time>
      </trkpt>
      <trkpt lat="43.31271" lon="5.89055">
        <ele>730.74</ele>
        <time>2013-01-03T11:20:14Z</time>
      </trkpt>
      <trkpt lat="43.31272" lon="5.89053">
        <ele>730.74</ele>
        <time>2013-01-03T11:20:15Z</time>
      </trkpt>
      <trkpt lat="43.31273" lon="5.8905">
        <ele>730.74</ele>
        <time>2013-01-03T11:20:16Z</time>
      </trkpt>
      <trkpt lat="43.31274" lon="5.89047">
        <ele>730.74</ele>
        <time>2013-01-03T11:20:17Z</time>
      </trkpt>
      <trkpt lat="43.31276" lon="5.89045">
        <ele>730.74</ele>
        <time>2013-01-03T11:20:18Z</time>
      </trkpt>
      <trkpt lat="43.31277" lon="5.89042">
        <ele>731.22</ele>
        <time>2013-01-03T11:20:19Z</time>
      </trkpt>
      <trkpt lat="43.31278" lon="5.89039">
        <ele>731.22</ele>
        <time>2013-01-03T11:20:20Z</time>
      </trkpt>
      <trkpt lat="43.31297" lon="5.89006">
        <ele>732.18</ele>
        <time>2013-01-03T11:20:33Z</time>
      </trkpt>
      <trkpt lat="43.31319" lon="5.88974">
        <ele>733.62</ele>
        <time>2013-01-03T11:20:46Z</time>
      </trkpt>
      <trkpt lat="43.31343" lon="5.8895">
        <ele>735.07</ele>
        <time>2013-01-03T11:20:57Z</time>
      </trkpt>
      <trkpt lat="43.3137" lon="5.88929">
        <ele>736.51</ele>
        <time>2013-01-03T11:21:10Z</time>
      </trkpt>
      <trkpt lat="43.31398" lon="5.88918">
        <ele>738.43</ele>
        <time>2013-01-03T11:21:21Z</time>
      </trkpt>
      <trkpt lat="43.31429" lon="5.88898">
        <ele>740.35</ele>
        <time>2013-01-03T11:21:34Z</time>
      </trkpt>
      <trkpt lat="43.31433" lon="5.88894">
        <ele>740.35</ele>
        <time>2013-01-03T11:21:36Z</time>
      </trkpt>
      <trkpt lat="43.31434" lon="5.88892">
        <ele>740.35</ele>
        <time>2013-01-03T11:21:37Z</time>
      </trkpt>
      <trkpt lat="43.31435" lon="5.8889">
        <ele>740.83</ele>
        <time>2013-01-03T11:21:38Z</time>
      </trkpt>
      <trkpt lat="43.31437" lon="5.88889">
        <ele>740.83</ele>
        <time>2013-01-03T11:21:39Z</time>
      </trkpt>
      <trkpt lat="43.31439" lon="5.88888">
        <ele>741.31</ele>
        <time>2013-01-03T11:21:40Z</time>
      </trkpt>
      <trkpt lat="43.31442" lon="5.88888">
        <ele>741.31</ele>
        <time>2013-01-03T11:21:41Z</time>
      </trkpt>
      <trkpt lat="43.31467" lon="5.88886">
        <ele>742.76</ele>
        <time>2013-01-03T11:21:51Z</time>
      </trkpt>
      <trkpt lat="43.31489" lon="5.88884">
        <ele>744.2</ele>
        <time>2013-01-03T11:22:01Z</time>
      </trkpt>
      <trkpt lat="43.31504" lon="5.88888">
        <ele>744.68</ele>
        <time>2013-01-03T11:22:08Z</time>
      </trkpt>
      <trkpt lat="43.31507" lon="5.88889">
        <ele>745.16</ele>
        <time>2013-01-03T11:22:09Z</time>
      </trkpt>
      <trkpt lat="43.31514" lon="5.8889">
        <ele>745.64</ele>
        <time>2013-01-03T11:22:12Z</time>
      </trkpt>
      <trkpt lat="43.31516" lon="5.8889">
        <ele>745.16</ele>
        <time>2013-01-03T11:22:13Z</time>
      </trkpt>
      <trkpt lat="43.31518" lon="5.8889">
        <ele>745.64</ele>
        <time>2013-01-03T11:22:14Z</time>
      </trkpt>
      <trkpt lat="43.31528" lon="5.88893">
        <ele>746.12</ele>
        <time>2013-01-03T11:22:19Z</time>
      </trkpt>
      <trkpt lat="43.31529" lon="5.88894">
        <ele>746.6</ele>
        <time>2013-01-03T11:22:21Z</time>
      </trkpt>
      <trkpt lat="43.31524" lon="5.88891">
        <ele>746.12</ele>
        <time>2013-01-03T11:22:34Z</time>
      </trkpt>
      <trkpt lat="43.31524" lon="5.88891">
        <ele>746.12</ele>
        <time>2013-01-03T11:22:52Z</time>
      </trkpt>
      <trkpt lat="43.31529" lon="5.88893">
        <ele>746.12</ele>
        <time>2013-01-03T11:22:55Z</time>
      </trkpt>
      <trkpt lat="43.31537" lon="5.88898">
        <ele>747.08</ele>
        <time>2013-01-03T11:22:58Z</time>
      </trkpt>
      <trkpt lat="43.31548" lon="5.88882">
        <ele>749</ele>
        <time>2013-01-03T11:23:05Z</time>
      </trkpt>
      <trkpt lat="43.31546" lon="5.88871">
        <ele>749.97</ele>
        <time>2013-01-03T11:23:08Z</time>
      </trkpt>
      <trkpt lat="43.31561" lon="5.88844">
        <ele>752.85</ele>
        <time>2013-01-03T11:23:20Z</time>
      </trkpt>
      <trkpt lat="43.31578" lon="5.88835">
        <ele>754.29</ele>
        <time>2013-01-03T11:23:29Z</time>
      </trkpt>
      <trkpt lat="43.31603" lon="5.88802">
        <ele>755.73</ele>
        <time>2013-01-03T11:23:43Z</time>
      </trkpt>
      <trkpt lat="43.31612" lon="5.88792">
        <ele>756.69</ele>
        <time>2013-01-03T11:23:48Z</time>
      </trkpt>
      <trkpt lat="43.31629" lon="5.8878">
        <ele>757.66</ele>
        <time>2013-01-03T11:23:57Z</time>
      </trkpt>
      <trkpt lat="43.31642" lon="5.88763">
        <ele>759.1</ele>
        <time>2013-01-03T11:24:05Z</time>
      </trkpt>
      <trkpt lat="43.31644" lon="5.88759">
        <ele>759.1</ele>
        <time>2013-01-03T11:24:07Z</time>
      </trkpt>
      <trkpt lat="43.31653" lon="5.88732">
        <ele>761.02</ele>
        <time>2013-01-03T11:24:17Z</time>
      </trkpt>
      <trkpt lat="43.31655" lon="5.88715">
        <ele>761.5</ele>
        <time>2013-01-03T11:24:23Z</time>
      </trkpt>
      <trkpt lat="43.31657" lon="5.88699">
        <ele>762.94</ele>
        <time>2013-01-03T11:24:29Z</time>
      </trkpt>
      <trkpt lat="43.31657" lon="5.88668">
        <ele>764.39</ele>
        <time>2013-01-03T11:24:39Z</time>
      </trkpt>
      <trkpt lat="43.31666" lon="5.8865">
        <ele>765.83</ele>
        <time>2013-01-03T11:24:47Z</time>
      </trkpt>
      <trkpt lat="43.3167" lon="5.88635">
        <ele>766.31</ele>
        <time>2013-01-03T11:24:53Z</time>
      </trkpt>
      <trkpt lat="43.31672" lon="5.8862">
        <ele>766.79</ele>
        <time>2013-01-03T11:24:59Z</time>
      </trkpt>
      <trkpt lat="43.31674" lon="5.88606">
        <ele>767.75</ele>
        <time>2013-01-03T11:25:04Z</time>
      </trkpt>
      <trkpt lat="43.31682" lon="5.88579">
        <ele>769.19</ele>
        <time>2013-01-03T11:25:14Z</time>
      </trkpt>
      <trkpt lat="43.31683" lon="5.88567">
        <ele>770.15</ele>
        <time>2013-01-03T11:25:18Z</time>
      </trkpt>
      <trkpt lat="43.31675" lon="5.88532">
        <ele>772.56</ele>
        <time>2013-01-03T11:25:30Z</time>
      </trkpt>
      <trkpt lat="43.31674" lon="5.8853">
        <ele>772.56</ele>
        <time>2013-01-03T11:25:31Z</time>
      </trkpt>
      <trkpt lat="43.31666" lon="5.885">
        <ele>774.48</ele>
        <time>2013-01-03T11:25:42Z</time>
      </trkpt>
      <trkpt lat="43.31665" lon="5.88485">
        <ele>775.44</ele>
        <time>2013-01-03T11:25:47Z</time>
      </trkpt>
      <trkpt lat="43.31666" lon="5.88477">
        <ele>775.44</ele>
        <time>2013-01-03T11:25:50Z</time>
      </trkpt>
      <trkpt lat="43.31667" lon="5.88442">
        <ele>777.36</ele>
        <time>2013-01-03T11:26:03Z</time>
      </trkpt>
      <trkpt lat="43.31668" lon="5.88414">
        <ele>779.77</ele>
        <time>2013-01-03T11:26:14Z</time>
      </trkpt>
      <trkpt lat="43.31668" lon="5.88411">
        <ele>780.25</ele>
        <time>2013-01-03T11:26:15Z</time>
      </trkpt>
      <trkpt lat="43.31681" lon="5.88382">
        <ele>781.69</ele>
        <time>2013-01-03T11:26:28Z</time>
      </trkpt>
      <trkpt lat="43.31684" lon="5.88378">
        <ele>782.17</ele>
        <time>2013-01-03T11:26:30Z</time>
      </trkpt>
      <trkpt lat="43.31692" lon="5.88347">
        <ele>784.57</ele>
        <time>2013-01-03T11:26:43Z</time>
      </trkpt>
      <trkpt lat="43.31691" lon="5.8832">
        <ele>786.02</ele>
        <time>2013-01-03T11:26:52Z</time>
      </trkpt>
      <trkpt lat="43.31693" lon="5.88311">
        <ele>786.5</ele>
        <time>2013-01-03T11:26:55Z</time>
      </trkpt>
      <trkpt lat="43.31693" lon="5.88302">
        <ele>786.98</ele>
        <time>2013-01-03T11:26:58Z</time>
      </trkpt>
      <trkpt lat="43.317" lon="5.8828">
        <ele>788.9</ele>
        <time>2013-01-03T11:27:08Z</time>
      </trkpt>
      <trkpt lat="43.31702" lon="5.88276">
        <ele>788.9</ele>
        <time>2013-01-03T11:27:10Z</time>
      </trkpt>
      <trkpt lat="43.31705" lon="5.88264">
        <ele>790.34</ele>
        <time>2013-01-03T11:27:15Z</time>
      </trkpt>
      <trkpt lat="43.31705" lon="5.88253">
        <ele>791.3</ele>
        <time>2013-01-03T11:27:19Z</time>
      </trkpt>
      <trkpt lat="43.31712" lon="5.88218">
        <ele>793.71</ele>
        <time>2013-01-03T11:27:33Z</time>
      </trkpt>
      <trkpt lat="43.31721" lon="5.88191">
        <ele>795.63</ele>
        <time>2013-01-03T11:27:45Z</time>
      </trkpt>
      <trkpt lat="43.31723" lon="5.88184">
        <ele>796.11</ele>
        <time>2013-01-03T11:27:48Z</time>
      </trkpt>
      <trkpt lat="43.31725" lon="5.8817">
        <ele>796.59</ele>
        <time>2013-01-03T11:27:54Z</time>
      </trkpt>
      <trkpt lat="43.31725" lon="5.88138">
        <ele>798.51</ele>
        <time>2013-01-03T11:28:06Z</time>
      </trkpt>
      <trkpt lat="43.31724" lon="5.8813">
        <ele>798.99</ele>
        <time>2013-01-03T11:28:09Z</time>
      </trkpt>
      <trkpt lat="43.3173" lon="5.88104">
        <ele>801.4</ele>
        <time>2013-01-03T11:28:21Z</time>
      </trkpt>
      <trkpt lat="43.3173" lon="5.88102">
        <ele>801.88</ele>
        <time>2013-01-03T11:28:22Z</time>
      </trkpt>
      <trkpt lat="43.31734" lon="5.88094">
        <ele>802.36</ele>
        <time>2013-01-03T11:28:26Z</time>
      </trkpt>
      <trkpt lat="43.3174" lon="5.8808">
        <ele>803.32</ele>
        <time>2013-01-03T11:28:32Z</time>
      </trkpt>
      <trkpt lat="43.31742" lon="5.8807">
        <ele>803.8</ele>
        <time>2013-01-03T11:28:36Z</time>
      </trkpt>
      <trkpt lat="43.31734" lon="5.88028">
        <ele>805.24</ele>
        <time>2013-01-03T11:28:52Z</time>
      </trkpt>
      <trkpt lat="43.31724" lon="5.88015">
        <ele>805.72</ele>
        <time>2013-01-03T11:28:59Z</time>
      </trkpt>
      <trkpt lat="43.31715" lon="5.88006">
        <ele>806.2</ele>
        <time>2013-01-03T11:29:05Z</time>
      </trkpt>
      <trkpt lat="43.31707" lon="5.87988">
        <ele>807.64</ele>
        <time>2013-01-03T11:29:14Z</time>
      </trkpt>
      <trkpt lat="43.31707" lon="5.87978">
        <ele>808.13</ele>
        <time>2013-01-03T11:29:18Z</time>
      </trkpt>
      <trkpt lat="43.31707" lon="5.87954">
        <ele>809.09</ele>
        <time>2013-01-03T11:29:28Z</time>
      </trkpt>
      <trkpt lat="43.31706" lon="5.87946">
        <ele>809.57</ele>
        <time>2013-01-03T11:29:32Z</time>
      </trkpt>
      <trkpt lat="43.31709" lon="5.87909">
        <ele>812.93</ele>
        <time>2013-01-03T11:29:46Z</time>
      </trkpt>
      <trkpt lat="43.3171" lon="5.87906">
        <ele>813.89</ele>
        <time>2013-01-03T11:29:48Z</time>
      </trkpt>
      <trkpt lat="43.31721" lon="5.87887">
        <ele>814.85</ele>
        <time>2013-01-03T11:29:55Z</time>
      </trkpt>
      <trkpt lat="43.3174" lon="5.87859">
        <ele>817.74</ele>
        <time>2013-01-03T11:30:09Z</time>
      </trkpt>
      <trkpt lat="43.31743" lon="5.87855">
        <ele>818.22</ele>
        <time>2013-01-03T11:30:11Z</time>
      </trkpt>
      <trkpt lat="43.31747" lon="5.8784">
        <ele>819.66</ele>
        <time>2013-01-03T11:30:17Z</time>
      </trkpt>
      <trkpt lat="43.31754" lon="5.87802">
        <ele>822.06</ele>
        <time>2013-01-03T11:30:32Z</time>
      </trkpt>
      <trkpt lat="43.31753" lon="5.87795">
        <ele>823.03</ele>
        <time>2013-01-03T11:30:35Z</time>
      </trkpt>
      <trkpt lat="43.31753" lon="5.87787">
        <ele>823.51</ele>
        <time>2013-01-03T11:30:47Z</time>
      </trkpt>
      <trkpt lat="43.31753" lon="5.87786">
        <ele>823.03</ele>
        <time>2013-01-03T11:31:10Z</time>
      </trkpt>
      <trkpt lat="43.31753" lon="5.87786">
        <ele>823.03</ele>
        <time>2013-01-03T11:31:41Z</time>
      </trkpt>
      <trkpt lat="43.31752" lon="5.87785">
        <ele>823.51</ele>
        <time>2013-01-03T11:31:54Z</time>
      </trkpt>
      <trkpt lat="43.31752" lon="5.87762">
        <ele>824.95</ele>
        <time>2013-01-03T11:32:05Z</time>
      </trkpt>
      <trkpt lat="43.31751" lon="5.87753">
        <ele>825.91</ele>
        <time>2013-01-03T11:32:09Z</time>
      </trkpt>
      <trkpt lat="43.31752" lon="5.8773">
        <ele>827.35</ele>
        <time>2013-01-03T11:32:19Z</time>
      </trkpt>
      <trkpt lat="43.31753" lon="5.87722">
        <ele>827.83</ele>
        <time>2013-01-03T11:32:22Z</time>
      </trkpt>
      <trkpt lat="43.31753" lon="5.87717">
        <ele>827.83</ele>
        <time>2013-01-03T11:32:24Z</time>
      </trkpt>
      <trkpt lat="43.31756" lon="5.87695">
        <ele>830.24</ele>
        <time>2013-01-03T11:32:36Z</time>
      </trkpt>
      <trkpt lat="43.31758" lon="5.87693">
        <ele>830.24</ele>
        <time>2013-01-03T11:32:50Z</time>
      </trkpt>
      <trkpt lat="43.31773" lon="5.87666">
        <ele>833.12</ele>
        <time>2013-01-03T11:33:04Z</time>
      </trkpt>
      <trkpt lat="43.31776" lon="5.87661">
        <ele>834.08</ele>
        <time>2013-01-03T11:33:09Z</time>
      </trkpt>
      <trkpt lat="43.31778" lon="5.87657">
        <ele>835.04</ele>
        <time>2013-01-03T11:33:13Z</time>
      </trkpt>
      <trkpt lat="43.31784" lon="5.87643">
        <ele>838.41</ele>
        <time>2013-01-03T11:33:25Z</time>
      </trkpt>
      <trkpt lat="43.31785" lon="5.87641">
        <ele>838.41</ele>
        <time>2013-01-03T11:33:26Z</time>
      </trkpt>
      <trkpt lat="43.31792" lon="5.8763">
        <ele>842.25</ele>
        <time>2013-01-03T11:33:40Z</time>
      </trkpt>
      <trkpt lat="43.31798" lon="5.87621">
        <ele>843.69</ele>
        <time>2013-01-03T11:33:59Z</time>
      </trkpt>
      <trkpt lat="43.31802" lon="5.87615">
        <ele>845.14</ele>
        <time>2013-01-03T11:34:04Z</time>
      </trkpt>
      <trkpt lat="43.31806" lon="5.87601">
        <ele>847.06</ele>
        <time>2013-01-03T11:34:13Z</time>
      </trkpt>
      <trkpt lat="43.31808" lon="5.87595">
        <ele>848.02</ele>
        <time>2013-01-03T11:34:26Z</time>
      </trkpt>
      <trkpt lat="43.31808" lon="5.8759">
        <ele>848.5</ele>
        <time>2013-01-03T11:34:32Z</time>
      </trkpt>
      <trkpt lat="43.31809" lon="5.87579">
        <ele>849.94</ele>
        <time>2013-01-03T11:34:36Z</time>
      </trkpt>
      <trkpt lat="43.31813" lon="5.87538">
        <ele>851.38</ele>
        <time>2013-01-03T11:34:52Z</time>
      </trkpt>
      <trkpt lat="43.31825" lon="5.87502">
        <ele>854.75</ele>
        <time>2013-01-03T11:35:07Z</time>
      </trkpt>
      <trkpt lat="43.31832" lon="5.8749">
        <ele>855.71</ele>
        <time>2013-01-03T11:35:13Z</time>
      </trkpt>
      <trkpt lat="43.31841" lon="5.87496">
        <ele>857.63</ele>
        <time>2013-01-03T11:35:20Z</time>
      </trkpt>
      <trkpt lat="43.3186" lon="5.8751">
        <ele>861</ele>
        <time>2013-01-03T11:35:33Z</time>
      </trkpt>
      <trkpt lat="43.31862" lon="5.87511">
        <ele>861</ele>
        <time>2013-01-03T11:35:35Z</time>
      </trkpt>
      <trkpt lat="43.31882" lon="5.87515">
        <ele>864.36</ele>
        <time>2013-01-03T11:35:47Z</time>
      </trkpt>
      <trkpt lat="43.31903" lon="5.8752">
        <ele>866.77</ele>
        <time>2013-01-03T11:36:01Z</time>
      </trkpt>
      <trkpt lat="43.31903" lon="5.8752">
        <ele>866.29</ele>
        <time>2013-01-03T11:36:27Z</time>
      </trkpt>
      <trkpt lat="43.31902" lon="5.87519">
        <ele>865.8</ele>
        <time>2013-01-03T11:37:09Z</time>
      </trkpt>
      <trkpt lat="43.31903" lon="5.8752">
        <ele>865.8</ele>
        <time>2013-01-03T11:37:52Z</time>
      </trkpt>
      <trkpt lat="43.31903" lon="5.87519">
        <ele>865.8</ele>
        <time>2013-01-03T11:38:38Z</time>
      </trkpt>
      <trkpt lat="43.31903" lon="5.8752">
        <ele>866.29</ele>
        <time>2013-01-03T11:39:11Z</time>
      </trkpt>
      <trkpt lat="43.31903" lon="5.8752">
        <ele>866.29</ele>
        <time>2013-01-03T11:39:15Z</time>
      </trkpt>
      <trkpt lat="43.31912" lon="5.87536">
        <ele>865.8</ele>
        <time>2013-01-03T11:39:23Z</time>
      </trkpt>
      <trkpt lat="43.31934" lon="5.8755">
        <ele>867.73</ele>
        <time>2013-01-03T11:39:35Z</time>
      </trkpt>
      <trkpt lat="43.31953" lon="5.87552">
        <ele>871.09</ele>
        <time>2013-01-03T11:39:45Z</time>
      </trkpt>
      <trkpt lat="43.31974" lon="5.8756">
        <ele>872.53</ele>
        <time>2013-01-03T11:39:57Z</time>
      </trkpt>
      <trkpt lat="43.31982" lon="5.87547">
        <ele>873.5</ele>
        <time>2013-01-03T11:40:05Z</time>
      </trkpt>
      <trkpt lat="43.3199" lon="5.8751">
        <ele>875.42</ele>
        <time>2013-01-03T11:40:21Z</time>
      </trkpt>
      <trkpt lat="43.31994" lon="5.87478">
        <ele>876.38</ele>
        <time>2013-01-03T11:40:34Z</time>
      </trkpt>
      <trkpt lat="43.31995" lon="5.87475">
        <ele>876.86</ele>
        <time>2013-01-03T11:40:35Z</time>
      </trkpt>
      <trkpt lat="43.31998" lon="5.87444">
        <ele>875.42</ele>
        <time>2013-01-03T11:40:47Z</time>
      </trkpt>
      <trkpt lat="43.31998" lon="5.87441">
        <ele>875.42</ele>
        <time>2013-01-03T11:40:48Z</time>
      </trkpt>
      <trkpt lat="43.32" lon="5.8741">
        <ele>874.94</ele>
        <time>2013-01-03T11:40:56Z</time>
      </trkpt>
      <trkpt lat="43.32004" lon="5.87396">
        <ele>875.9</ele>
        <time>2013-01-03T11:41:01Z</time>
      </trkpt>
      <trkpt lat="43.32006" lon="5.8739">
        <ele>876.38</ele>
        <time>2013-01-03T11:41:03Z</time>
      </trkpt>
      <trkpt lat="43.32008" lon="5.87374">
        <ele>876.86</ele>
        <time>2013-01-03T11:41:15Z</time>
      </trkpt>
      <trkpt lat="43.32006" lon="5.87372">
        <ele>876.38</ele>
        <time>2013-01-03T11:41:27Z</time>
      </trkpt>
      <trkpt lat="43.32006" lon="5.87372">
        <ele>876.38</ele>
        <time>2013-01-03T11:41:52Z</time>
      </trkpt>
      <trkpt lat="43.32006" lon="5.87372">
        <ele>876.38</ele>
        <time>2013-01-03T11:42:25Z</time>
      </trkpt>
      <trkpt lat="43.32007" lon="5.87372">
        <ele>876.38</ele>
        <time>2013-01-03T11:42:50Z</time>
      </trkpt>
      <trkpt lat="43.32007" lon="5.87371">
        <ele>876.86</ele>
        <time>2013-01-03T11:43:24Z</time>
      </trkpt>
      <trkpt lat="43.32007" lon="5.87371">
        <ele>876.86</ele>
        <time>2013-01-03T11:43:59Z</time>
      </trkpt>
      <trkpt lat="43.32007" lon="5.87371">
        <ele>877.34</ele>
        <time>2013-01-03T11:44:13Z</time>
      </trkpt>
      <trkpt lat="43.32008" lon="5.87372">
        <ele>877.34</ele>
        <time>2013-01-03T11:44:25Z</time>
      </trkpt>
      <trkpt lat="43.32008" lon="5.87372">
        <ele>877.34</ele>
        <time>2013-01-03T11:44:44Z</time>
      </trkpt>
      <trkpt lat="43.32008" lon="5.87372">
        <ele>877.82</ele>
        <time>2013-01-03T11:44:49Z</time>
      </trkpt>
      <trkpt lat="43.32011" lon="5.87367">
        <ele>877.34</ele>
        <time>2013-01-03T11:44:52Z</time>
      </trkpt>
      <trkpt lat="43.32025" lon="5.87326">
        <ele>877.34</ele>
        <time>2013-01-03T11:45:05Z</time>
      </trkpt>
      <trkpt lat="43.32026" lon="5.87323">
        <ele>877.34</ele>
        <time>2013-01-03T11:45:06Z</time>
      </trkpt>
      <trkpt lat="43.32037" lon="5.8729">
        <ele>878.78</ele>
        <time>2013-01-03T11:45:18Z</time>
      </trkpt>
      <trkpt lat="43.32039" lon="5.87287">
        <ele>878.78</ele>
        <time>2013-01-03T11:45:23Z</time>
      </trkpt>
      <trkpt lat="43.32043" lon="5.87279">
        <ele>878.78</ele>
        <time>2013-01-03T11:45:27Z</time>
      </trkpt>
      <trkpt lat="43.32071" lon="5.87266">
        <ele>877.34</ele>
        <time>2013-01-03T11:45:37Z</time>
      </trkpt>
      <trkpt lat="43.32079" lon="5.87257">
        <ele>878.3</ele>
        <time>2013-01-03T11:45:41Z</time>
      </trkpt>
      <trkpt lat="43.3209" lon="5.8725">
        <ele>880.22</ele>
        <time>2013-01-03T11:45:47Z</time>
      </trkpt>
      <trkpt lat="43.32111" lon="5.87236">
        <ele>882.63</ele>
        <time>2013-01-03T11:45:59Z</time>
      </trkpt>
      <trkpt lat="43.32118" lon="5.8723">
        <ele>884.07</ele>
        <time>2013-01-03T11:46:04Z</time>
      </trkpt>
      <trkpt lat="43.3212" lon="5.87226">
        <ele>884.55</ele>
        <time>2013-01-03T11:46:06Z</time>
      </trkpt>
      <trkpt lat="43.32124" lon="5.87224">
        <ele>885.51</ele>
        <time>2013-01-03T11:46:09Z</time>
      </trkpt>
      <trkpt lat="43.32135" lon="5.87211">
        <ele>887.43</ele>
        <time>2013-01-03T11:46:17Z</time>
      </trkpt>
      <trkpt lat="43.32154" lon="5.87193">
        <ele>889.84</ele>
        <time>2013-01-03T11:46:31Z</time>
      </trkpt>
      <trkpt lat="43.3217" lon="5.87183">
        <ele>891.76</ele>
        <time>2013-01-03T11:46:42Z</time>
      </trkpt>
      <trkpt lat="43.32176" lon="5.87175">
        <ele>893.2</ele>
        <time>2013-01-03T11:46:52Z</time>
      </trkpt>
      <trkpt lat="43.32176" lon="5.87175">
        <ele>893.2</ele>
        <time>2013-01-03T11:47:12Z</time>
      </trkpt>
      <trkpt lat="43.32178" lon="5.8717">
        <ele>894.16</ele>
        <time>2013-01-03T11:47:23Z</time>
      </trkpt>
      <trkpt lat="43.32178" lon="5.8717">
        <ele>893.68</ele>
        <time>2013-01-03T11:47:45Z</time>
      </trkpt>
      <trkpt lat="43.32179" lon="5.87166">
        <ele>894.16</ele>
        <time>2013-01-03T11:48:08Z</time>
      </trkpt>
      <trkpt lat="43.32181" lon="5.87161">
        <ele>894.64</ele>
        <time>2013-01-03T11:48:20Z</time>
      </trkpt>
      <trkpt lat="43.32184" lon="5.87156">
        <ele>895.12</ele>
        <time>2013-01-03T11:48:23Z</time>
      </trkpt>
      <trkpt lat="43.32199" lon="5.87142">
        <ele>897.53</ele>
        <time>2013-01-03T11:48:34Z</time>
      </trkpt>
      <trkpt lat="43.32203" lon="5.8714">
        <ele>897.53</ele>
        <time>2013-01-03T11:48:36Z</time>
      </trkpt>
      <trkpt lat="43.3221" lon="5.8713">
        <ele>898.01</ele>
        <time>2013-01-03T11:48:41Z</time>
      </trkpt>
      <trkpt lat="43.32217" lon="5.87123">
        <ele>898.01</ele>
        <time>2013-01-03T11:48:45Z</time>
      </trkpt>
      <trkpt lat="43.32252" lon="5.87112">
        <ele>898.97</ele>
        <time>2013-01-03T11:49:02Z</time>
      </trkpt>
      <trkpt lat="43.32272" lon="5.87107">
        <ele>900.41</ele>
        <time>2013-01-03T11:49:12Z</time>
      </trkpt>
      <trkpt lat="43.32282" lon="5.87104">
        <ele>901.85</ele>
        <time>2013-01-03T11:49:17Z</time>
      </trkpt>
      <trkpt lat="43.32291" lon="5.87102">
        <ele>902.82</ele>
        <time>2013-01-03T11:49:22Z</time>
      </trkpt>
      <trkpt lat="43.32298" lon="5.871">
        <ele>903.3</ele>
        <time>2013-01-03T11:49:26Z</time>
      </trkpt>
      <trkpt lat="43.32329" lon="5.87087">
        <ele>905.22</ele>
        <time>2013-01-03T11:49:42Z</time>
      </trkpt>
      <trkpt lat="43.32356" lon="5.87083">
        <ele>907.62</ele>
        <time>2013-01-03T11:49:54Z</time>
      </trkpt>
      <trkpt lat="43.32383" lon="5.87068">
        <ele>909.54</ele>
        <time>2013-01-03T11:50:07Z</time>
      </trkpt>
      <trkpt lat="43.32401" lon="5.87054">
        <ele>910.99</ele>
        <time>2013-01-03T11:50:19Z</time>
      </trkpt>
      <trkpt lat="43.32404" lon="5.87051">
        <ele>911.47</ele>
        <time>2013-01-03T11:50:35Z</time>
      </trkpt>
      <trkpt lat="43.32417" lon="5.8704">
        <ele>911.95</ele>
        <time>2013-01-03T11:50:42Z</time>
      </trkpt>
      <trkpt lat="43.3242" lon="5.87037">
        <ele>912.43</ele>
        <time>2013-01-03T11:50:44Z</time>
      </trkpt>
      <trkpt lat="43.32441" lon="5.87031">
        <ele>914.83</ele>
        <time>2013-01-03T11:50:56Z</time>
      </trkpt>
      <trkpt lat="43.32448" lon="5.8703">
        <ele>915.79</ele>
        <time>2013-01-03T11:51:09Z</time>
      </trkpt>
      <trkpt lat="43.32447" lon="5.87032">
        <ele>914.35</ele>
        <time>2013-01-03T11:51:16Z</time>
      </trkpt>
      <trkpt lat="43.32447" lon="5.87032">
        <ele>914.35</ele>
        <time>2013-01-03T11:51:17Z</time>
      </trkpt>
      <trkpt lat="43.32448" lon="5.87028">
        <ele>914.83</ele>
        <time>2013-01-03T12:38:18Z</time>
      </trkpt>
      <trkpt lat="43.32449" lon="5.87031">
        <ele>913.87</ele>
        <time>2013-01-03T12:38:51Z</time>
      </trkpt>
      <trkpt lat="43.32448" lon="5.8703">
        <ele>914.35</ele>
        <time>2013-01-03T12:39:03Z</time>
      </trkpt>
      <trkpt lat="43.32447" lon="5.87029">
        <ele>913.87</ele>
        <time>2013-01-03T12:39:30Z</time>
      </trkpt>
      <trkpt lat="43.32447" lon="5.87029">
        <ele>913.87</ele>
        <time>2013-01-03T12:39:36Z</time>
      </trkpt>
      <trkpt lat="43.3244" lon="5.87032">
        <ele>913.39</ele>
        <time>2013-01-03T12:39:43Z</time>
      </trkpt>
      <trkpt lat="43.32442" lon="5.87036">
        <ele>912.91</ele>
        <time>2013-01-03T12:39:50Z</time>
      </trkpt>
      <trkpt lat="43.32436" lon="5.8704">
        <ele>912.43</ele>
        <time>2013-01-03T12:39:54Z</time>
      </trkpt>
      <trkpt lat="43.32433" lon="5.87044">
        <ele>911.95</ele>
        <time>2013-01-03T12:40:02Z</time>
      </trkpt>
      <trkpt lat="43.32433" lon="5.87044">
        <ele>911.95</ele>
        <time>2013-01-03T12:40:16Z</time>
      </trkpt>
      <trkpt lat="43.32433" lon="5.87044">
        <ele>911.95</ele>
        <time>2013-01-03T12:40:31Z</time>
      </trkpt>
      <trkpt lat="43.32433" lon="5.87044">
        <ele>911.95</ele>
        <time>2013-01-03T12:41:02Z</time>
      </trkpt>
      <trkpt lat="43.32431" lon="5.87048">
        <ele>911.47</ele>
        <time>2013-01-03T12:41:19Z</time>
      </trkpt>
      <trkpt lat="43.32429" lon="5.87061">
        <ele>909.06</ele>
        <time>2013-01-03T12:41:24Z</time>
      </trkpt>
      <trkpt lat="43.32427" lon="5.87067">
        <ele>907.62</ele>
        <time>2013-01-03T12:41:37Z</time>
      </trkpt>
      <trkpt lat="43.32427" lon="5.87067">
        <ele>907.62</ele>
        <time>2013-01-03T12:41:43Z</time>
      </trkpt>
      <trkpt lat="43.32427" lon="5.87072">
        <ele>906.66</ele>
        <time>2013-01-03T12:41:52Z</time>
      </trkpt>
      <trkpt lat="43.32427" lon="5.87072">
        <ele>906.66</ele>
        <time>2013-01-03T12:42:12Z</time>
      </trkpt>
      <trkpt lat="43.32426" lon="5.87075">
        <ele>906.18</ele>
        <time>2013-01-03T12:42:25Z</time>
      </trkpt>
      <trkpt lat="43.32426" lon="5.87075">
        <ele>906.18</ele>
        <time>2013-01-03T12:42:48Z</time>
      </trkpt>
      <trkpt lat="43.32426" lon="5.87075">
        <ele>906.18</ele>
        <time>2013-01-03T12:42:54Z</time>
      </trkpt>
      <trkpt lat="43.32423" lon="5.87075">
        <ele>905.7</ele>
        <time>2013-01-03T12:43:03Z</time>
      </trkpt>
      <trkpt lat="43.32423" lon="5.87075">
        <ele>905.22</ele>
        <time>2013-01-03T12:43:27Z</time>
      </trkpt>
      <trkpt lat="43.32423" lon="5.87075">
        <ele>905.7</ele>
        <time>2013-01-03T12:43:51Z</time>
      </trkpt>
      <trkpt lat="43.32423" lon="5.87075">
        <ele>905.7</ele>
        <time>2013-01-03T12:44:18Z</time>
      </trkpt>
      <trkpt lat="43.32423" lon="5.87075">
        <ele>905.22</ele>
        <time>2013-01-03T12:44:43Z</time>
      </trkpt>
      <trkpt lat="43.32423" lon="5.87074">
        <ele>905.22</ele>
        <time>2013-01-03T12:45:07Z</time>
      </trkpt>
      <trkpt lat="43.32423" lon="5.87074">
        <ele>905.7</ele>
        <time>2013-01-03T12:45:33Z</time>
      </trkpt>
      <trkpt lat="43.32423" lon="5.87074">
        <ele>906.18</ele>
        <time>2013-01-03T12:45:44Z</time>
      </trkpt>
      <trkpt lat="43.32422" lon="5.87077">
        <ele>905.7</ele>
        <time>2013-01-03T12:45:46Z</time>
      </trkpt>
      <trkpt lat="43.32415" lon="5.87102">
        <ele>902.82</ele>
        <time>2013-01-03T12:45:54Z</time>
      </trkpt>
      <trkpt lat="43.32409" lon="5.87107">
        <ele>902.33</ele>
        <time>2013-01-03T12:45:56Z</time>
      </trkpt>
      <trkpt lat="43.32395" lon="5.87127">
        <ele>901.85</ele>
        <time>2013-01-03T12:46:05Z</time>
      </trkpt>
      <trkpt lat="43.3239" lon="5.87142">
        <ele>899.45</ele>
        <time>2013-01-03T12:46:13Z</time>
      </trkpt>
      <trkpt lat="43.32389" lon="5.87143">
        <ele>899.93</ele>
        <time>2013-01-03T12:46:15Z</time>
      </trkpt>
      <trkpt lat="43.32384" lon="5.87151">
        <ele>901.37</ele>
        <time>2013-01-03T12:46:23Z</time>
      </trkpt>
      <trkpt lat="43.32382" lon="5.87154">
        <ele>901.37</ele>
        <time>2013-01-03T12:46:30Z</time>
      </trkpt>
      <trkpt lat="43.32377" lon="5.87156">
        <ele>901.37</ele>
        <time>2013-01-03T12:46:40Z</time>
      </trkpt>
      <trkpt lat="43.32373" lon="5.87159">
        <ele>900.89</ele>
        <time>2013-01-03T12:46:46Z</time>
      </trkpt>
      <trkpt lat="43.32362" lon="5.87174">
        <ele>898.97</ele>
        <time>2013-01-03T12:46:56Z</time>
      </trkpt>
      <trkpt lat="43.3235" lon="5.87191">
        <ele>897.53</ele>
        <time>2013-01-03T12:47:04Z</time>
      </trkpt>
      <trkpt lat="43.32338" lon="5.87214">
        <ele>895.61</ele>
        <time>2013-01-03T12:47:12Z</time>
      </trkpt>
      <trkpt lat="43.3233" lon="5.87233">
        <ele>893.68</ele>
        <time>2013-01-03T12:47:16Z</time>
      </trkpt>
      <trkpt lat="43.32328" lon="5.87238">
        <ele>893.68</ele>
        <time>2013-01-03T12:47:17Z</time>
      </trkpt>
      <trkpt lat="43.32312" lon="5.87277">
        <ele>890.8</ele>
        <time>2013-01-03T12:47:28Z</time>
      </trkpt>
      <trkpt lat="43.32302" lon="5.87299">
        <ele>887.91</ele>
        <time>2013-01-03T12:47:35Z</time>
      </trkpt>
      <trkpt lat="43.32292" lon="5.87313">
        <ele>885.03</ele>
        <time>2013-01-03T12:47:40Z</time>
      </trkpt>
      <trkpt lat="43.32291" lon="5.87316">
        <ele>885.03</ele>
        <time>2013-01-03T12:47:41Z</time>
      </trkpt>
      <trkpt lat="43.3229" lon="5.87319">
        <ele>884.55</ele>
        <time>2013-01-03T12:47:42Z</time>
      </trkpt>
      <trkpt lat="43.3228" lon="5.87339">
        <ele>881.67</ele>
        <time>2013-01-03T12:47:49Z</time>
      </trkpt>
      <trkpt lat="43.32279" lon="5.87341">
        <ele>881.19</ele>
        <time>2013-01-03T12:47:50Z</time>
      </trkpt>
      <trkpt lat="43.32277" lon="5.87341">
        <ele>881.19</ele>
        <time>2013-01-03T12:47:51Z</time>
      </trkpt>
      <trkpt lat="43.32275" lon="5.87343">
        <ele>880.71</ele>
        <time>2013-01-03T12:47:52Z</time>
      </trkpt>
      <trkpt lat="43.32274" lon="5.87346">
        <ele>880.71</ele>
        <time>2013-01-03T12:47:53Z</time>
      </trkpt>
      <trkpt lat="43.32273" lon="5.8735">
        <ele>880.22</ele>
        <time>2013-01-03T12:47:54Z</time>
      </trkpt>
      <trkpt lat="43.32271" lon="5.87353">
        <ele>880.22</ele>
        <time>2013-01-03T12:47:55Z</time>
      </trkpt>
      <trkpt lat="43.32269" lon="5.87356">
        <ele>879.74</ele>
        <time>2013-01-03T12:47:56Z</time>
      </trkpt>
      <trkpt lat="43.32268" lon="5.8736">
        <ele>879.26</ele>
        <time>2013-01-03T12:47:57Z</time>
      </trkpt>
      <trkpt lat="43.32267" lon="5.87363">
        <ele>879.26</ele>
        <time>2013-01-03T12:47:58Z</time>
      </trkpt>
      <trkpt lat="43.32265" lon="5.87365">
        <ele>879.26</ele>
        <time>2013-01-03T12:47:59Z</time>
      </trkpt>
      <trkpt lat="43.32263" lon="5.87368">
        <ele>879.26</ele>
        <time>2013-01-03T12:48:00Z</time>
      </trkpt>
      <trkpt lat="43.3226" lon="5.87371">
        <ele>878.78</ele>
        <time>2013-01-03T12:48:01Z</time>
      </trkpt>
      <trkpt lat="43.32258" lon="5.87375">
        <ele>878.78</ele>
        <time>2013-01-03T12:48:02Z</time>
      </trkpt>
      <trkpt lat="43.32257" lon="5.87379">
        <ele>878.3</ele>
        <time>2013-01-03T12:48:03Z</time>
      </trkpt>
      <trkpt lat="43.32255" lon="5.87383">
        <ele>878.3</ele>
        <time>2013-01-03T12:48:04Z</time>
      </trkpt>
      <trkpt lat="43.32252" lon="5.87393">
        <ele>877.34</ele>
        <time>2013-01-03T12:48:06Z</time>
      </trkpt>
      <trkpt lat="43.3225" lon="5.87397">
        <ele>877.34</ele>
        <time>2013-01-03T12:48:07Z</time>
      </trkpt>
      <trkpt lat="43.32248" lon="5.874">
        <ele>877.34</ele>
        <time>2013-01-03T12:48:08Z</time>
      </trkpt>
      <trkpt lat="43.32247" lon="5.87403">
        <ele>877.34</ele>
        <time>2013-01-03T12:48:09Z</time>
      </trkpt>
      <trkpt lat="43.32245" lon="5.87406">
        <ele>877.34</ele>
        <time>2013-01-03T12:48:10Z</time>
      </trkpt>
      <trkpt lat="43.32244" lon="5.87408">
        <ele>877.34</ele>
        <time>2013-01-03T12:48:11Z</time>
      </trkpt>
      <trkpt lat="43.32243" lon="5.87411">
        <ele>877.34</ele>
        <time>2013-01-03T12:48:12Z</time>
      </trkpt>
      <trkpt lat="43.32243" lon="5.87413">
        <ele>876.86</ele>
        <time>2013-01-03T12:48:13Z</time>
      </trkpt>
      <trkpt lat="43.32242" lon="5.87415">
        <ele>877.34</ele>
        <time>2013-01-03T12:48:14Z</time>
      </trkpt>
      <trkpt lat="43.32241" lon="5.87418">
        <ele>877.34</ele>
        <time>2013-01-03T12:48:15Z</time>
      </trkpt>
      <trkpt lat="43.3224" lon="5.8742">
        <ele>876.86</ele>
        <time>2013-01-03T12:48:16Z</time>
      </trkpt>
      <trkpt lat="43.32238" lon="5.87422">
        <ele>876.86</ele>
        <time>2013-01-03T12:48:17Z</time>
      </trkpt>
      <trkpt lat="43.32236" lon="5.87425">
        <ele>876.86</ele>
        <time>2013-01-03T12:48:18Z</time>
      </trkpt>
      <trkpt lat="43.32235" lon="5.87429">
        <ele>876.86</ele>
        <time>2013-01-03T12:48:19Z</time>
      </trkpt>
      <trkpt lat="43.32229" lon="5.87437">
        <ele>876.38</ele>
        <time>2013-01-03T12:48:23Z</time>
      </trkpt>
      <trkpt lat="43.32228" lon="5.8744">
        <ele>876.38</ele>
        <time>2013-01-03T12:48:24Z</time>
      </trkpt>
      <trkpt lat="43.32226" lon="5.87442">
        <ele>876.38</ele>
        <time>2013-01-03T12:48:25Z</time>
      </trkpt>
      <trkpt lat="43.32225" lon="5.87444">
        <ele>876.38</ele>
        <time>2013-01-03T12:48:26Z</time>
      </trkpt>
      <trkpt lat="43.32224" lon="5.87447">
        <ele>876.38</ele>
        <time>2013-01-03T12:48:27Z</time>
      </trkpt>
      <trkpt lat="43.32222" lon="5.87449">
        <ele>875.9</ele>
        <time>2013-01-03T12:48:28Z</time>
      </trkpt>
      <trkpt lat="43.32214" lon="5.87468">
        <ele>874.94</ele>
        <time>2013-01-03T12:48:36Z</time>
      </trkpt>
      <trkpt lat="43.32213" lon="5.8747">
        <ele>874.94</ele>
        <time>2013-01-03T12:48:37Z</time>
      </trkpt>
      <trkpt lat="43.32211" lon="5.87472">
        <ele>874.94</ele>
        <time>2013-01-03T12:48:38Z</time>
      </trkpt>
      <trkpt lat="43.3221" lon="5.87473">
        <ele>874.94</ele>
        <time>2013-01-03T12:48:39Z</time>
      </trkpt>
      <trkpt lat="43.32208" lon="5.87473">
        <ele>874.46</ele>
        <time>2013-01-03T12:48:40Z</time>
      </trkpt>
      <trkpt lat="43.32207" lon="5.87475">
        <ele>874.46</ele>
        <time>2013-01-03T12:48:41Z</time>
      </trkpt>
      <trkpt lat="43.32207" lon="5.87476">
        <ele>874.46</ele>
        <time>2013-01-03T12:48:42Z</time>
      </trkpt>
      <trkpt lat="43.32207" lon="5.87479">
        <ele>874.46</ele>
        <time>2013-01-03T12:48:43Z</time>
      </trkpt>
      <trkpt lat="43.32206" lon="5.87481">
        <ele>873.98</ele>
        <time>2013-01-03T12:48:44Z</time>
      </trkpt>
      <trkpt lat="43.32205" lon="5.87484">
        <ele>873.5</ele>
        <time>2013-01-03T12:48:45Z</time>
      </trkpt>
      <trkpt lat="43.32204" lon="5.87486">
        <ele>873.5</ele>
        <time>2013-01-03T12:48:46Z</time>
      </trkpt>
      <trkpt lat="43.32202" lon="5.87489">
        <ele>873.5</ele>
        <time>2013-01-03T12:48:47Z</time>
      </trkpt>
      <trkpt lat="43.32195" lon="5.87517">
        <ele>870.61</ele>
        <time>2013-01-03T12:48:55Z</time>
      </trkpt>
      <trkpt lat="43.32193" lon="5.87519">
        <ele>870.13</ele>
        <time>2013-01-03T12:48:56Z</time>
      </trkpt>
      <trkpt lat="43.32186" lon="5.87528">
        <ele>869.65</ele>
        <time>2013-01-03T12:48:59Z</time>
      </trkpt>
      <trkpt lat="43.32185" lon="5.87531">
        <ele>869.65</ele>
        <time>2013-01-03T12:49:00Z</time>
      </trkpt>
      <trkpt lat="43.32183" lon="5.87533">
        <ele>869.17</ele>
        <time>2013-01-03T12:49:01Z</time>
      </trkpt>
      <trkpt lat="43.32182" lon="5.87535">
        <ele>869.65</ele>
        <time>2013-01-03T12:49:02Z</time>
      </trkpt>
      <trkpt lat="43.32181" lon="5.87538">
        <ele>869.17</ele>
        <time>2013-01-03T12:49:03Z</time>
      </trkpt>
      <trkpt lat="43.3218" lon="5.87541">
        <ele>869.17</ele>
        <time>2013-01-03T12:49:04Z</time>
      </trkpt>
      <trkpt lat="43.32179" lon="5.87544">
        <ele>869.17</ele>
        <time>2013-01-03T12:49:05Z</time>
      </trkpt>
      <trkpt lat="43.32179" lon="5.87547">
        <ele>869.17</ele>
        <time>2013-01-03T12:49:06Z</time>
      </trkpt>
      <trkpt lat="43.32179" lon="5.8755">
        <ele>868.69</ele>
        <time>2013-01-03T12:49:07Z</time>
      </trkpt>
      <trkpt lat="43.32178" lon="5.87553">
        <ele>868.69</ele>
        <time>2013-01-03T12:49:08Z</time>
      </trkpt>
      <trkpt lat="43.32175" lon="5.87562">
        <ele>868.21</ele>
        <time>2013-01-03T12:49:11Z</time>
      </trkpt>
      <trkpt lat="43.32173" lon="5.87565">
        <ele>868.69</ele>
        <time>2013-01-03T12:49:12Z</time>
      </trkpt>
      <trkpt lat="43.32171" lon="5.87569">
        <ele>868.21</ele>
        <time>2013-01-03T12:49:13Z</time>
      </trkpt>
      <trkpt lat="43.3217" lon="5.87573">
        <ele>868.21</ele>
        <time>2013-01-03T12:49:14Z</time>
      </trkpt>
      <trkpt lat="43.32169" lon="5.87575">
        <ele>868.21</ele>
        <time>2013-01-03T12:49:15Z</time>
      </trkpt>
      <trkpt lat="43.32168" lon="5.87578">
        <ele>867.73</ele>
        <time>2013-01-03T12:49:16Z</time>
      </trkpt>
      <trkpt lat="43.32168" lon="5.87581">
        <ele>867.73</ele>
        <time>2013-01-03T12:49:17Z</time>
      </trkpt>
      <trkpt lat="43.32167" lon="5.87583">
        <ele>867.73</ele>
        <time>2013-01-03T12:49:18Z</time>
      </trkpt>
      <trkpt lat="43.32166" lon="5.87585">
        <ele>867.25</ele>
        <time>2013-01-03T12:49:19Z</time>
      </trkpt>
      <trkpt lat="43.32164" lon="5.87588">
        <ele>867.25</ele>
        <time>2013-01-03T12:49:20Z</time>
      </trkpt>
      <trkpt lat="43.32163" lon="5.87591">
        <ele>867.25</ele>
        <time>2013-01-03T12:49:21Z</time>
      </trkpt>
      <trkpt lat="43.32162" lon="5.87594">
        <ele>866.77</ele>
        <time>2013-01-03T12:49:22Z</time>
      </trkpt>
      <trkpt lat="43.32151" lon="5.87642">
        <ele>865.32</ele>
        <time>2013-01-03T12:49:34Z</time>
      </trkpt>
      <trkpt lat="43.32148" lon="5.87648">
        <ele>864.36</ele>
        <time>2013-01-03T12:49:36Z</time>
      </trkpt>
      <trkpt lat="43.32148" lon="5.87651">
        <ele>863.88</ele>
        <time>2013-01-03T12:49:37Z</time>
      </trkpt>
      <trkpt lat="43.32148" lon="5.87655">
        <ele>863.4</ele>
        <time>2013-01-03T12:49:38Z</time>
      </trkpt>
      <trkpt lat="43.32144" lon="5.87682">
        <ele>860.04</ele>
        <time>2013-01-03T12:49:46Z</time>
      </trkpt>
      <trkpt lat="43.32142" lon="5.87696">
        <ele>858.11</ele>
        <time>2013-01-03T12:49:50Z</time>
      </trkpt>
      <trkpt lat="43.32134" lon="5.87712">
        <ele>856.19</ele>
        <time>2013-01-03T12:49:58Z</time>
      </trkpt>
      <trkpt lat="43.32133" lon="5.87712">
        <ele>856.19</ele>
        <time>2013-01-03T12:49:59Z</time>
      </trkpt>
      <trkpt lat="43.32134" lon="5.87718">
        <ele>855.23</ele>
        <time>2013-01-03T12:50:07Z</time>
      </trkpt>
      <trkpt lat="43.32135" lon="5.8772">
        <ele>854.75</ele>
        <time>2013-01-03T12:50:08Z</time>
      </trkpt>
      <trkpt lat="43.32134" lon="5.87727">
        <ele>853.79</ele>
        <time>2013-01-03T12:50:13Z</time>
      </trkpt>
      <trkpt lat="43.32133" lon="5.8773">
        <ele>853.79</ele>
        <time>2013-01-03T12:50:14Z</time>
      </trkpt>
      <trkpt lat="43.32131" lon="5.87733">
        <ele>853.31</ele>
        <time>2013-01-03T12:50:15Z</time>
      </trkpt>
      <trkpt lat="43.32129" lon="5.87737">
        <ele>852.83</ele>
        <time>2013-01-03T12:50:16Z</time>
      </trkpt>
      <trkpt lat="43.32127" lon="5.87739">
        <ele>852.83</ele>
        <time>2013-01-03T12:50:17Z</time>
      </trkpt>
      <trkpt lat="43.32124" lon="5.87741">
        <ele>852.83</ele>
        <time>2013-01-03T12:50:18Z</time>
      </trkpt>
      <trkpt lat="43.32122" lon="5.87743">
        <ele>852.35</ele>
        <time>2013-01-03T12:50:19Z</time>
      </trkpt>
      <trkpt lat="43.32121" lon="5.87746">
        <ele>852.35</ele>
        <time>2013-01-03T12:50:20Z</time>
      </trkpt>
      <trkpt lat="43.3212" lon="5.87749">
        <ele>851.87</ele>
        <time>2013-01-03T12:50:21Z</time>
      </trkpt>
      <trkpt lat="43.32119" lon="5.87751">
        <ele>851.87</ele>
        <time>2013-01-03T12:50:22Z</time>
      </trkpt>
      <trkpt lat="43.32118" lon="5.87754">
        <ele>851.87</ele>
        <time>2013-01-03T12:50:23Z</time>
      </trkpt>
      <trkpt lat="43.32118" lon="5.87756">
        <ele>851.38</ele>
        <time>2013-01-03T12:50:24Z</time>
      </trkpt>
      <trkpt lat="43.32117" lon="5.87759">
        <ele>850.9</ele>
        <time>2013-01-03T12:50:25Z</time>
      </trkpt>
      <trkpt lat="43.32115" lon="5.87763">
        <ele>850.42</ele>
        <time>2013-01-03T12:50:26Z</time>
      </trkpt>
      <trkpt lat="43.32114" lon="5.87767">
        <ele>849.94</ele>
        <time>2013-01-03T12:50:27Z</time>
      </trkpt>
      <trkpt lat="43.32113" lon="5.87772">
        <ele>849.46</ele>
        <time>2013-01-03T12:50:28Z</time>
      </trkpt>
      <trkpt lat="43.32112" lon="5.87777">
        <ele>848.98</ele>
        <time>2013-01-03T12:50:29Z</time>
      </trkpt>
      <trkpt lat="43.32109" lon="5.87782">
        <ele>848.02</ele>
        <time>2013-01-03T12:50:30Z</time>
      </trkpt>
      <trkpt lat="43.32104" lon="5.87793">
        <ele>847.06</ele>
        <time>2013-01-03T12:50:32Z</time>
      </trkpt>
      <trkpt lat="43.32104" lon="5.87797">
        <ele>846.58</ele>
        <time>2013-01-03T12:50:33Z</time>
      </trkpt>
      <trkpt lat="43.32103" lon="5.87801">
        <ele>846.58</ele>
        <time>2013-01-03T12:50:34Z</time>
      </trkpt>
      <trkpt lat="43.32101" lon="5.87805">
        <ele>846.1</ele>
        <time>2013-01-03T12:50:35Z</time>
      </trkpt>
      <trkpt lat="43.32099" lon="5.87809">
        <ele>845.14</ele>
        <time>2013-01-03T12:50:36Z</time>
      </trkpt>
      <trkpt lat="43.32098" lon="5.87814">
        <ele>845.14</ele>
        <time>2013-01-03T12:50:37Z</time>
      </trkpt>
      <trkpt lat="43.32095" lon="5.87822">
        <ele>845.14</ele>
        <time>2013-01-03T12:50:39Z</time>
      </trkpt>
      <trkpt lat="43.32094" lon="5.87824">
        <ele>845.62</ele>
        <time>2013-01-03T12:50:40Z</time>
      </trkpt>
      <trkpt lat="43.32096" lon="5.87828">
        <ele>845.62</ele>
        <time>2013-01-03T12:50:43Z</time>
      </trkpt>
      <trkpt lat="43.32096" lon="5.8783">
        <ele>845.62</ele>
        <time>2013-01-03T12:50:44Z</time>
      </trkpt>
      <trkpt lat="43.32096" lon="5.87833">
        <ele>845.14</ele>
        <time>2013-01-03T12:50:45Z</time>
      </trkpt>
      <trkpt lat="43.32095" lon="5.87836">
        <ele>845.14</ele>
        <time>2013-01-03T12:50:46Z</time>
      </trkpt>
      <trkpt lat="43.32094" lon="5.87839">
        <ele>845.14</ele>
        <time>2013-01-03T12:50:47Z</time>
      </trkpt>
      <trkpt lat="43.32093" lon="5.87843">
        <ele>845.14</ele>
        <time>2013-01-03T12:50:48Z</time>
      </trkpt>
      <trkpt lat="43.32091" lon="5.87845">
        <ele>845.14</ele>
        <time>2013-01-03T12:50:49Z</time>
      </trkpt>
      <trkpt lat="43.32089" lon="5.87846">
        <ele>844.66</ele>
        <time>2013-01-03T12:50:50Z</time>
      </trkpt>
      <trkpt lat="43.32086" lon="5.87847">
        <ele>845.14</ele>
        <time>2013-01-03T12:50:51Z</time>
      </trkpt>
      <trkpt lat="43.32076" lon="5.87854">
        <ele>845.14</ele>
        <time>2013-01-03T12:50:56Z</time>
      </trkpt>
      <trkpt lat="43.32074" lon="5.87856">
        <ele>845.14</ele>
        <time>2013-01-03T12:50:57Z</time>
      </trkpt>
      <trkpt lat="43.32071" lon="5.87857">
        <ele>845.14</ele>
        <time>2013-01-03T12:50:58Z</time>
      </trkpt>
      <trkpt lat="43.32068" lon="5.87859">
        <ele>845.14</ele>
        <time>2013-01-03T12:50:59Z</time>
      </trkpt>
      <trkpt lat="43.32067" lon="5.87862">
        <ele>845.14</ele>
        <time>2013-01-03T12:51:00Z</time>
      </trkpt>
      <trkpt lat="43.32064" lon="5.87865">
        <ele>845.14</ele>
        <time>2013-01-03T12:51:09Z</time>
      </trkpt>
      <trkpt lat="43.32063" lon="5.87867">
        <ele>845.14</ele>
        <time>2013-01-03T12:51:18Z</time>
      </trkpt>
      <trkpt lat="43.32062" lon="5.87868">
        <ele>845.14</ele>
        <time>2013-01-03T12:51:19Z</time>
      </trkpt>
      <trkpt lat="43.32061" lon="5.87869">
        <ele>845.14</ele>
        <time>2013-01-03T12:51:20Z</time>
      </trkpt>
      <trkpt lat="43.32061" lon="5.87871">
        <ele>845.14</ele>
        <time>2013-01-03T12:51:21Z</time>
      </trkpt>
      <trkpt lat="43.3206" lon="5.87873">
        <ele>845.14</ele>
        <time>2013-01-03T12:51:22Z</time>
      </trkpt>
      <trkpt lat="43.32058" lon="5.87877">
        <ele>845.14</ele>
        <time>2013-01-03T12:51:24Z</time>
      </trkpt>
      <trkpt lat="43.32057" lon="5.87879">
        <ele>845.14</ele>
        <time>2013-01-03T12:51:25Z</time>
      </trkpt>
      <trkpt lat="43.32057" lon="5.87882">
        <ele>845.14</ele>
        <time>2013-01-03T12:51:26Z</time>
      </trkpt>
      <trkpt lat="43.32057" lon="5.87884">
        <ele>845.14</ele>
        <time>2013-01-03T12:51:27Z</time>
      </trkpt>
      <trkpt lat="43.32056" lon="5.87887">
        <ele>845.14</ele>
        <time>2013-01-03T12:51:28Z</time>
      </trkpt>
      <trkpt lat="43.32056" lon="5.8789">
        <ele>845.14</ele>
        <time>2013-01-03T12:51:29Z</time>
      </trkpt>
      <trkpt lat="43.32055" lon="5.87892">
        <ele>845.14</ele>
        <time>2013-01-03T12:51:30Z</time>
      </trkpt>
      <trkpt lat="43.32054" lon="5.87895">
        <ele>845.62</ele>
        <time>2013-01-03T12:51:31Z</time>
      </trkpt>
      <trkpt lat="43.32053" lon="5.87897">
        <ele>845.62</ele>
        <time>2013-01-03T12:51:32Z</time>
      </trkpt>
      <trkpt lat="43.32046" lon="5.87928">
        <ele>844.66</ele>
        <time>2013-01-03T12:51:42Z</time>
      </trkpt>
      <trkpt lat="43.32041" lon="5.87936">
        <ele>844.18</ele>
        <time>2013-01-03T12:51:51Z</time>
      </trkpt>
      <trkpt lat="43.32041" lon="5.87936">
        <ele>844.18</ele>
        <time>2013-01-03T12:51:53Z</time>
      </trkpt>
      <trkpt lat="43.32041" lon="5.87937">
        <ele>844.18</ele>
        <time>2013-01-03T12:51:54Z</time>
      </trkpt>
      <trkpt lat="43.32041" lon="5.8794">
        <ele>844.18</ele>
        <time>2013-01-03T12:51:55Z</time>
      </trkpt>
      <trkpt lat="43.32041" lon="5.87943">
        <ele>843.69</ele>
        <time>2013-01-03T12:51:56Z</time>
      </trkpt>
      <trkpt lat="43.32041" lon="5.87947">
        <ele>843.69</ele>
        <time>2013-01-03T12:51:57Z</time>
      </trkpt>
      <trkpt lat="43.32039" lon="5.87962">
        <ele>842.73</ele>
        <time>2013-01-03T12:52:02Z</time>
      </trkpt>
      <trkpt lat="43.3204" lon="5.87967">
        <ele>842.25</ele>
        <time>2013-01-03T12:52:05Z</time>
      </trkpt>
      <trkpt lat="43.3204" lon="5.87969">
        <ele>841.77</ele>
        <time>2013-01-03T12:52:06Z</time>
      </trkpt>
      <trkpt lat="43.32039" lon="5.87971">
        <ele>841.77</ele>
        <time>2013-01-03T12:52:07Z</time>
      </trkpt>
      <trkpt lat="43.32039" lon="5.87973">
        <ele>841.29</ele>
        <time>2013-01-03T12:52:17Z</time>
      </trkpt>
      <trkpt lat="43.32037" lon="5.8797">
        <ele>841.77</ele>
        <time>2013-01-03T12:52:30Z</time>
      </trkpt>
      <trkpt lat="43.32036" lon="5.87968">
        <ele>841.77</ele>
        <time>2013-01-03T12:52:31Z</time>
      </trkpt>
      <trkpt lat="43.32036" lon="5.87966">
        <ele>842.25</ele>
        <time>2013-01-03T12:52:32Z</time>
      </trkpt>
      <trkpt lat="43.32036" lon="5.87964">
        <ele>842.25</ele>
        <time>2013-01-03T12:52:33Z</time>
      </trkpt>
      <trkpt lat="43.32037" lon="5.87962">
        <ele>842.25</ele>
        <time>2013-01-03T12:52:34Z</time>
      </trkpt>
      <trkpt lat="43.32042" lon="5.87941">
        <ele>843.69</ele>
        <time>2013-01-03T12:52:45Z</time>
      </trkpt>
      <trkpt lat="43.32038" lon="5.87923">
        <ele>844.66</ele>
        <time>2013-01-03T12:52:58Z</time>
      </trkpt>
      <trkpt lat="43.3204" lon="5.87926">
        <ele>844.66</ele>
        <time>2013-01-03T12:53:13Z</time>
      </trkpt>
      <trkpt lat="43.32037" lon="5.87919">
        <ele>844.66</ele>
        <time>2013-01-03T12:53:23Z</time>
      </trkpt>
      <trkpt lat="43.32036" lon="5.87918">
        <ele>844.66</ele>
        <time>2013-01-03T12:53:24Z</time>
      </trkpt>
      <trkpt lat="43.32033" lon="5.87917">
        <ele>844.66</ele>
        <time>2013-01-03T12:53:25Z</time>
      </trkpt>
      <trkpt lat="43.32031" lon="5.87917">
        <ele>844.18</ele>
        <time>2013-01-03T12:53:26Z</time>
      </trkpt>
      <trkpt lat="43.32028" lon="5.87917">
        <ele>844.18</ele>
        <time>2013-01-03T12:53:27Z</time>
      </trkpt>
      <trkpt lat="43.32024" lon="5.87916">
        <ele>843.69</ele>
        <time>2013-01-03T12:53:28Z</time>
      </trkpt>
      <trkpt lat="43.32021" lon="5.87915">
        <ele>843.69</ele>
        <time>2013-01-03T12:53:29Z</time>
      </trkpt>
      <trkpt lat="43.32018" lon="5.87915">
        <ele>843.21</ele>
        <time>2013-01-03T12:53:30Z</time>
      </trkpt>
      <trkpt lat="43.32015" lon="5.87913">
        <ele>843.21</ele>
        <time>2013-01-03T12:53:31Z</time>
      </trkpt>
      <trkpt lat="43.32012" lon="5.8791">
        <ele>842.73</ele>
        <time>2013-01-03T12:53:32Z</time>
      </trkpt>
      <trkpt lat="43.32008" lon="5.87908">
        <ele>842.25</ele>
        <time>2013-01-03T12:53:33Z</time>
      </trkpt>
      <trkpt lat="43.32005" lon="5.87906">
        <ele>842.25</ele>
        <time>2013-01-03T12:53:34Z</time>
      </trkpt>
      <trkpt lat="43.32" lon="5.87903">
        <ele>841.77</ele>
        <time>2013-01-03T12:53:35Z</time>
      </trkpt>
      <trkpt lat="43.31996" lon="5.879">
        <ele>841.29</ele>
        <time>2013-01-03T12:53:36Z</time>
      </trkpt>
      <trkpt lat="43.31992" lon="5.87895">
        <ele>840.81</ele>
        <time>2013-01-03T12:53:37Z</time>
      </trkpt>
      <trkpt lat="43.31988" lon="5.8789">
        <ele>839.85</ele>
        <time>2013-01-03T12:53:38Z</time>
      </trkpt>
      <trkpt lat="43.31983" lon="5.87887">
        <ele>839.37</ele>
        <time>2013-01-03T12:53:39Z</time>
      </trkpt>
      <trkpt lat="43.31978" lon="5.87886">
        <ele>839.37</ele>
        <time>2013-01-03T12:53:40Z</time>
      </trkpt>
      <trkpt lat="43.31973" lon="5.87885">
        <ele>839.37</ele>
        <time>2013-01-03T12:53:41Z</time>
      </trkpt>
      <trkpt lat="43.31969" lon="5.87884">
        <ele>839.37</ele>
        <time>2013-01-03T12:53:42Z</time>
      </trkpt>
      <trkpt lat="43.31965" lon="5.87882">
        <ele>839.37</ele>
        <time>2013-01-03T12:53:43Z</time>
      </trkpt>
      <trkpt lat="43.3196" lon="5.87883">
        <ele>839.85</ele>
        <time>2013-01-03T12:53:44Z</time>
      </trkpt>
      <trkpt lat="43.31957" lon="5.87884">
        <ele>839.85</ele>
        <time>2013-01-03T12:53:45Z</time>
      </trkpt>
      <trkpt lat="43.31953" lon="5.87883">
        <ele>840.33</ele>
        <time>2013-01-03T12:53:46Z</time>
      </trkpt>
      <trkpt lat="43.3195" lon="5.87882">
        <ele>840.81</ele>
        <time>2013-01-03T12:53:47Z</time>
      </trkpt>
      <trkpt lat="43.31947" lon="5.8788">
        <ele>841.29</ele>
        <time>2013-01-03T12:53:48Z</time>
      </trkpt>
      <trkpt lat="43.31945" lon="5.87877">
        <ele>841.77</ele>
        <time>2013-01-03T12:53:49Z</time>
      </trkpt>
      <trkpt lat="43.31944" lon="5.87873">
        <ele>842.25</ele>
        <time>2013-01-03T12:53:50Z</time>
      </trkpt>
      <trkpt lat="43.31943" lon="5.87869">
        <ele>842.73</ele>
        <time>2013-01-03T12:53:51Z</time>
      </trkpt>
      <trkpt lat="43.31941" lon="5.87866">
        <ele>843.21</ele>
        <time>2013-01-03T12:53:52Z</time>
      </trkpt>
      <trkpt lat="43.31939" lon="5.87864">
        <ele>843.69</ele>
        <time>2013-01-03T12:53:53Z</time>
      </trkpt>
      <trkpt lat="43.31938" lon="5.87861">
        <ele>844.18</ele>
        <time>2013-01-03T12:53:54Z</time>
      </trkpt>
      <trkpt lat="43.31937" lon="5.87858">
        <ele>844.18</ele>
        <time>2013-01-03T12:53:55Z</time>
      </trkpt>
      <trkpt lat="43.31937" lon="5.87855">
        <ele>844.66</ele>
        <time>2013-01-03T12:53:56Z</time>
      </trkpt>
      <trkpt lat="43.31937" lon="5.87853">
        <ele>845.62</ele>
        <time>2013-01-03T12:53:57Z</time>
      </trkpt>
      <trkpt lat="43.31937" lon="5.8785">
        <ele>845.62</ele>
        <time>2013-01-03T12:53:58Z</time>
      </trkpt>
      <trkpt lat="43.31936" lon="5.87848">
        <ele>846.1</ele>
        <time>2013-01-03T12:53:59Z</time>
      </trkpt>
      <trkpt lat="43.31935" lon="5.87845">
        <ele>846.1</ele>
        <time>2013-01-03T12:54:00Z</time>
      </trkpt>
      <trkpt lat="43.31933" lon="5.87835">
        <ele>846.58</ele>
        <time>2013-01-03T12:54:03Z</time>
      </trkpt>
      <trkpt lat="43.31933" lon="5.87831">
        <ele>846.58</ele>
        <time>2013-01-03T12:54:04Z</time>
      </trkpt>
      <trkpt lat="43.31934" lon="5.87828">
        <ele>846.58</ele>
        <time>2013-01-03T12:54:05Z</time>
      </trkpt>
      <trkpt lat="43.31935" lon="5.87824">
        <ele>846.58</ele>
        <time>2013-01-03T12:54:06Z</time>
      </trkpt>
      <trkpt lat="43.31936" lon="5.87822">
        <ele>847.06</ele>
        <time>2013-01-03T12:54:07Z</time>
      </trkpt>
      <trkpt lat="43.31939" lon="5.8782">
        <ele>847.06</ele>
        <time>2013-01-03T12:54:08Z</time>
      </trkpt>
      <trkpt lat="43.31941" lon="5.87817">
        <ele>847.06</ele>
        <time>2013-01-03T12:54:09Z</time>
      </trkpt>
      <trkpt lat="43.31942" lon="5.87814">
        <ele>847.06</ele>
        <time>2013-01-03T12:54:10Z</time>
      </trkpt>
      <trkpt lat="43.31942" lon="5.8781">
        <ele>847.54</ele>
        <time>2013-01-03T12:54:11Z</time>
      </trkpt>
      <trkpt lat="43.31941" lon="5.87807">
        <ele>847.54</ele>
        <time>2013-01-03T12:54:12Z</time>
      </trkpt>
      <trkpt lat="43.31939" lon="5.87804">
        <ele>847.54</ele>
        <time>2013-01-03T12:54:13Z</time>
      </trkpt>
      <trkpt lat="43.31938" lon="5.87801">
        <ele>848.02</ele>
        <time>2013-01-03T12:54:14Z</time>
      </trkpt>
      <trkpt lat="43.31934" lon="5.87775">
        <ele>848.98</ele>
        <time>2013-01-03T12:54:23Z</time>
      </trkpt>
      <trkpt lat="43.31932" lon="5.87765">
        <ele>849.94</ele>
        <time>2013-01-03T12:54:26Z</time>
      </trkpt>
      <trkpt lat="43.3193" lon="5.87763">
        <ele>849.46</ele>
        <time>2013-01-03T12:54:27Z</time>
      </trkpt>
      <trkpt lat="43.31929" lon="5.87761">
        <ele>849.94</ele>
        <time>2013-01-03T12:54:28Z</time>
      </trkpt>
      <trkpt lat="43.31926" lon="5.8776">
        <ele>849.94</ele>
        <time>2013-01-03T12:54:29Z</time>
      </trkpt>
      <trkpt lat="43.31924" lon="5.8776">
        <ele>849.94</ele>
        <time>2013-01-03T12:54:30Z</time>
      </trkpt>
      <trkpt lat="43.31921" lon="5.87761">
        <ele>849.94</ele>
        <time>2013-01-03T12:54:31Z</time>
      </trkpt>
      <trkpt lat="43.31919" lon="5.87762">
        <ele>849.46</ele>
        <time>2013-01-03T12:54:32Z</time>
      </trkpt>
      <trkpt lat="43.31917" lon="5.87764">
        <ele>849.46</ele>
        <time>2013-01-03T12:54:33Z</time>
      </trkpt>
      <trkpt lat="43.31915" lon="5.87767">
        <ele>848.98</ele>
        <time>2013-01-03T12:54:42Z</time>
      </trkpt>
      <trkpt lat="43.3191" lon="5.87769">
        <ele>848.5</ele>
        <time>2013-01-03T12:55:03Z</time>
      </trkpt>
      <trkpt lat="43.31905" lon="5.87771">
        <ele>848.02</ele>
        <time>2013-01-03T12:55:05Z</time>
      </trkpt>
      <trkpt lat="43.31884" lon="5.87753">
        <ele>847.54</ele>
        <time>2013-01-03T12:55:13Z</time>
      </trkpt>
      <trkpt lat="43.31876" lon="5.87735">
        <ele>848.02</ele>
        <time>2013-01-03T12:55:19Z</time>
      </trkpt>
      <trkpt lat="43.31873" lon="5.87733">
        <ele>848.02</ele>
        <time>2013-01-03T12:55:20Z</time>
      </trkpt>
      <trkpt lat="43.31869" lon="5.87732">
        <ele>847.06</ele>
        <time>2013-01-03T12:55:21Z</time>
      </trkpt>
      <trkpt lat="43.31857" lon="5.87728">
        <ele>845.62</ele>
        <time>2013-01-03T12:55:24Z</time>
      </trkpt>
      <trkpt lat="43.31853" lon="5.87728">
        <ele>845.14</ele>
        <time>2013-01-03T12:55:25Z</time>
      </trkpt>
      <trkpt lat="43.3185" lon="5.87729">
        <ele>844.66</ele>
        <time>2013-01-03T12:55:26Z</time>
      </trkpt>
      <trkpt lat="43.31847" lon="5.87728">
        <ele>843.69</ele>
        <time>2013-01-03T12:55:27Z</time>
      </trkpt>
      <trkpt lat="43.31845" lon="5.87725">
        <ele>843.21</ele>
        <time>2013-01-03T12:55:28Z</time>
      </trkpt>
      <trkpt lat="43.31843" lon="5.87721">
        <ele>842.73</ele>
        <time>2013-01-03T12:55:29Z</time>
      </trkpt>
      <trkpt lat="43.31842" lon="5.87718">
        <ele>843.21</ele>
        <time>2013-01-03T12:55:30Z</time>
      </trkpt>
      <trkpt lat="43.31842" lon="5.87715">
        <ele>843.21</ele>
        <time>2013-01-03T12:55:31Z</time>
      </trkpt>
      <trkpt lat="43.31841" lon="5.87712">
        <ele>843.21</ele>
        <time>2013-01-03T12:55:32Z</time>
      </trkpt>
      <trkpt lat="43.31841" lon="5.87715">
        <ele>843.21</ele>
        <time>2013-01-03T12:55:35Z</time>
      </trkpt>
      <trkpt lat="43.31845" lon="5.87731">
        <ele>843.21</ele>
        <time>2013-01-03T12:55:43Z</time>
      </trkpt>
      <trkpt lat="43.31844" lon="5.87735">
        <ele>843.21</ele>
        <time>2013-01-03T12:55:44Z</time>
      </trkpt>
      <trkpt lat="43.31843" lon="5.87739">
        <ele>842.73</ele>
        <time>2013-01-03T12:55:45Z</time>
      </trkpt>
      <trkpt lat="43.31842" lon="5.87744">
        <ele>842.73</ele>
        <time>2013-01-03T12:55:46Z</time>
      </trkpt>
      <trkpt lat="43.31841" lon="5.87749">
        <ele>842.25</ele>
        <time>2013-01-03T12:55:47Z</time>
      </trkpt>
      <trkpt lat="43.3184" lon="5.87756">
        <ele>841.77</ele>
        <time>2013-01-03T12:55:48Z</time>
      </trkpt>
      <trkpt lat="43.31828" lon="5.87813">
        <ele>838.41</ele>
        <time>2013-01-03T12:55:56Z</time>
      </trkpt>
      <trkpt lat="43.31826" lon="5.8782">
        <ele>837.93</ele>
        <time>2013-01-03T12:55:57Z</time>
      </trkpt>
      <trkpt lat="43.3182" lon="5.87837">
        <ele>836.96</ele>
        <time>2013-01-03T12:55:59Z</time>
      </trkpt>
      <trkpt lat="43.3181" lon="5.87878">
        <ele>833.6</ele>
        <time>2013-01-03T12:56:03Z</time>
      </trkpt>
      <trkpt lat="43.31809" lon="5.87889">
        <ele>832.64</ele>
        <time>2013-01-03T12:56:04Z</time>
      </trkpt>
      <trkpt lat="43.31809" lon="5.87899">
        <ele>831.68</ele>
        <time>2013-01-03T12:56:05Z</time>
      </trkpt>
      <trkpt lat="43.3181" lon="5.87909">
        <ele>831.68</ele>
        <time>2013-01-03T12:56:06Z</time>
      </trkpt>
      <trkpt lat="43.31811" lon="5.87928">
        <ele>830.24</ele>
        <time>2013-01-03T12:56:08Z</time>
      </trkpt>
      <trkpt lat="43.31808" lon="5.87936">
        <ele>829.27</ele>
        <time>2013-01-03T12:56:09Z</time>
      </trkpt>
      <trkpt lat="43.31804" lon="5.87942">
        <ele>828.31</ele>
        <time>2013-01-03T12:56:10Z</time>
      </trkpt>
      <trkpt lat="43.31798" lon="5.87945">
        <ele>827.35</ele>
        <time>2013-01-03T12:56:11Z</time>
      </trkpt>
      <trkpt lat="43.31791" lon="5.87946">
        <ele>826.87</ele>
        <time>2013-01-03T12:56:12Z</time>
      </trkpt>
      <trkpt lat="43.31785" lon="5.87947">
        <ele>826.87</ele>
        <time>2013-01-03T12:56:13Z</time>
      </trkpt>
      <trkpt lat="43.31782" lon="5.87951">
        <ele>826.39</ele>
        <time>2013-01-03T12:56:14Z</time>
      </trkpt>
      <trkpt lat="43.31781" lon="5.87956">
        <ele>825.91</ele>
        <time>2013-01-03T12:56:15Z</time>
      </trkpt>
      <trkpt lat="43.31782" lon="5.87962">
        <ele>825.43</ele>
        <time>2013-01-03T12:56:16Z</time>
      </trkpt>
      <trkpt lat="43.31785" lon="5.87968">
        <ele>824.95</ele>
        <time>2013-01-03T12:56:17Z</time>
      </trkpt>
      <trkpt lat="43.31788" lon="5.87974">
        <ele>824.47</ele>
        <time>2013-01-03T12:56:18Z</time>
      </trkpt>
      <trkpt lat="43.3179" lon="5.8798">
        <ele>824.47</ele>
        <time>2013-01-03T12:56:19Z</time>
      </trkpt>
      <trkpt lat="43.31791" lon="5.87986">
        <ele>824.95</ele>
        <time>2013-01-03T12:56:20Z</time>
      </trkpt>
      <trkpt lat="43.31791" lon="5.87992">
        <ele>824.47</ele>
        <time>2013-01-03T12:56:21Z</time>
      </trkpt>
      <trkpt lat="43.31792" lon="5.87999">
        <ele>824.47</ele>
        <time>2013-01-03T12:56:22Z</time>
      </trkpt>
      <trkpt lat="43.31794" lon="5.88013">
        <ele>823.03</ele>
        <time>2013-01-03T12:56:24Z</time>
      </trkpt>
      <trkpt lat="43.31795" lon="5.88021">
        <ele>823.03</ele>
        <time>2013-01-03T12:56:25Z</time>
      </trkpt>
      <trkpt lat="43.31797" lon="5.88028">
        <ele>823.03</ele>
        <time>2013-01-03T12:56:26Z</time>
      </trkpt>
      <trkpt lat="43.31797" lon="5.88034">
        <ele>823.03</ele>
        <time>2013-01-03T12:56:27Z</time>
      </trkpt>
      <trkpt lat="43.31798" lon="5.88041">
        <ele>823.03</ele>
        <time>2013-01-03T12:56:28Z</time>
      </trkpt>
      <trkpt lat="43.31799" lon="5.88047">
        <ele>823.51</ele>
        <time>2013-01-03T12:56:29Z</time>
      </trkpt>
      <trkpt lat="43.31801" lon="5.88052">
        <ele>823.03</ele>
        <time>2013-01-03T12:56:30Z</time>
      </trkpt>
      <trkpt lat="43.31804" lon="5.88056">
        <ele>823.51</ele>
        <time>2013-01-03T12:56:31Z</time>
      </trkpt>
      <trkpt lat="43.31807" lon="5.88059">
        <ele>823.51</ele>
        <time>2013-01-03T12:56:32Z</time>
      </trkpt>
      <trkpt lat="43.3181" lon="5.88061">
        <ele>823.99</ele>
        <time>2013-01-03T12:56:33Z</time>
      </trkpt>
      <trkpt lat="43.31813" lon="5.88062">
        <ele>824.47</ele>
        <time>2013-01-03T12:56:34Z</time>
      </trkpt>
      <trkpt lat="43.31831" lon="5.88082">
        <ele>825.91</ele>
        <time>2013-01-03T12:56:43Z</time>
      </trkpt>
      <trkpt lat="43.31838" lon="5.88083">
        <ele>826.39</ele>
        <time>2013-01-03T12:56:46Z</time>
      </trkpt>
      <trkpt lat="43.31839" lon="5.88085">
        <ele>826.39</ele>
        <time>2013-01-03T12:56:47Z</time>
      </trkpt>
      <trkpt lat="43.31841" lon="5.88087">
        <ele>826.39</ele>
        <time>2013-01-03T12:56:48Z</time>
      </trkpt>
      <trkpt lat="43.31842" lon="5.88091">
        <ele>826.39</ele>
        <time>2013-01-03T12:56:49Z</time>
      </trkpt>
      <trkpt lat="43.31843" lon="5.88095">
        <ele>825.91</ele>
        <time>2013-01-03T12:56:50Z</time>
      </trkpt>
      <trkpt lat="43.31844" lon="5.881">
        <ele>825.91</ele>
        <time>2013-01-03T12:56:51Z</time>
      </trkpt>
      <trkpt lat="43.31845" lon="5.88105">
        <ele>825.43</ele>
        <time>2013-01-03T12:56:52Z</time>
      </trkpt>
      <trkpt lat="43.31846" lon="5.8811">
        <ele>824.95</ele>
        <time>2013-01-03T12:56:53Z</time>
      </trkpt>
      <trkpt lat="43.31848" lon="5.88117">
        <ele>824.95</ele>
        <time>2013-01-03T12:56:54Z</time>
      </trkpt>
      <trkpt lat="43.31852" lon="5.88128">
        <ele>824.47</ele>
        <time>2013-01-03T12:56:56Z</time>
      </trkpt>
      <trkpt lat="43.31855" lon="5.88132">
        <ele>824.47</ele>
        <time>2013-01-03T12:56:57Z</time>
      </trkpt>
      <trkpt lat="43.31881" lon="5.88169">
        <ele>824.95</ele>
        <time>2013-01-03T12:57:07Z</time>
      </trkpt>
      <trkpt lat="43.31887" lon="5.88185">
        <ele>823.99</ele>
        <time>2013-01-03T12:57:10Z</time>
      </trkpt>
      <trkpt lat="43.31888" lon="5.88191">
        <ele>823.99</ele>
        <time>2013-01-03T12:57:11Z</time>
      </trkpt>
      <trkpt lat="43.31888" lon="5.88206">
        <ele>823.03</ele>
        <time>2013-01-03T12:57:14Z</time>
      </trkpt>
      <trkpt lat="43.31883" lon="5.88226">
        <ele>821.58</ele>
        <time>2013-01-03T12:57:17Z</time>
      </trkpt>
      <trkpt lat="43.31883" lon="5.88233">
        <ele>821.58</ele>
        <time>2013-01-03T12:57:18Z</time>
      </trkpt>
      <trkpt lat="43.31885" lon="5.88238">
        <ele>820.62</ele>
        <time>2013-01-03T12:57:19Z</time>
      </trkpt>
      <trkpt lat="43.31888" lon="5.88242">
        <ele>820.62</ele>
        <time>2013-01-03T12:57:20Z</time>
      </trkpt>
      <trkpt lat="43.31891" lon="5.88247">
        <ele>820.14</ele>
        <time>2013-01-03T12:57:21Z</time>
      </trkpt>
      <trkpt lat="43.31893" lon="5.88253">
        <ele>819.18</ele>
        <time>2013-01-03T12:57:22Z</time>
      </trkpt>
      <trkpt lat="43.31893" lon="5.8826">
        <ele>818.22</ele>
        <time>2013-01-03T12:57:23Z</time>
      </trkpt>
      <trkpt lat="43.31893" lon="5.88268">
        <ele>817.74</ele>
        <time>2013-01-03T12:57:24Z</time>
      </trkpt>
      <trkpt lat="43.31894" lon="5.88275">
        <ele>817.26</ele>
        <time>2013-01-03T12:57:25Z</time>
      </trkpt>
      <trkpt lat="43.31895" lon="5.88282">
        <ele>817.26</ele>
        <time>2013-01-03T12:57:26Z</time>
      </trkpt>
      <trkpt lat="43.31896" lon="5.88301">
        <ele>817.26</ele>
        <time>2013-01-03T12:57:29Z</time>
      </trkpt>
      <trkpt lat="43.31896" lon="5.88308">
        <ele>817.26</ele>
        <time>2013-01-03T12:57:30Z</time>
      </trkpt>
      <trkpt lat="43.31896" lon="5.88315">
        <ele>817.26</ele>
        <time>2013-01-03T12:57:31Z</time>
      </trkpt>
      <trkpt lat="43.31894" lon="5.8832">
        <ele>817.26</ele>
        <time>2013-01-03T12:57:32Z</time>
      </trkpt>
      <trkpt lat="43.3189" lon="5.88324">
        <ele>817.26</ele>
        <time>2013-01-03T12:57:33Z</time>
      </trkpt>
      <trkpt lat="43.31886" lon="5.88326">
        <ele>817.26</ele>
        <time>2013-01-03T12:57:34Z</time>
      </trkpt>
      <trkpt lat="43.31882" lon="5.88327">
        <ele>816.78</ele>
        <time>2013-01-03T12:57:35Z</time>
      </trkpt>
      <trkpt lat="43.31875" lon="5.88328">
        <ele>816.78</ele>
        <time>2013-01-03T12:57:37Z</time>
      </trkpt>
      <trkpt lat="43.31874" lon="5.88327">
        <ele>816.78</ele>
        <time>2013-01-03T12:57:38Z</time>
      </trkpt>
      <trkpt lat="43.31873" lon="5.88327">
        <ele>817.26</ele>
        <time>2013-01-03T12:57:47Z</time>
      </trkpt>
      <trkpt lat="43.31872" lon="5.88325">
        <ele>817.74</ele>
        <time>2013-01-03T12:58:01Z</time>
      </trkpt>
      <trkpt lat="43.31872" lon="5.88326">
        <ele>817.26</ele>
        <time>2013-01-03T12:58:22Z</time>
      </trkpt>
      <trkpt lat="43.31872" lon="5.88327">
        <ele>817.26</ele>
        <time>2013-01-03T12:58:30Z</time>
      </trkpt>
      <trkpt lat="43.31873" lon="5.88329">
        <ele>817.26</ele>
        <time>2013-01-03T12:58:31Z</time>
      </trkpt>
      <trkpt lat="43.31872" lon="5.88331">
        <ele>817.26</ele>
        <time>2013-01-03T12:58:32Z</time>
      </trkpt>
      <trkpt lat="43.31872" lon="5.88333">
        <ele>817.26</ele>
        <time>2013-01-03T12:58:33Z</time>
      </trkpt>
      <trkpt lat="43.31871" lon="5.88335">
        <ele>817.26</ele>
        <time>2013-01-03T12:58:34Z</time>
      </trkpt>
      <trkpt lat="43.31871" lon="5.88337">
        <ele>817.26</ele>
        <time>2013-01-03T12:58:35Z</time>
      </trkpt>
      <trkpt lat="43.31872" lon="5.8834">
        <ele>817.74</ele>
        <time>2013-01-03T12:58:50Z</time>
      </trkpt>
      <trkpt lat="43.31872" lon="5.8834">
        <ele>817.74</ele>
        <time>2013-01-03T12:59:12Z</time>
      </trkpt>
      <trkpt lat="43.31872" lon="5.88339">
        <ele>817.74</ele>
        <time>2013-01-03T12:59:13Z</time>
      </trkpt>
      <trkpt lat="43.31871" lon="5.88338">
        <ele>817.74</ele>
        <time>2013-01-03T12:59:16Z</time>
      </trkpt>
      <trkpt lat="43.31871" lon="5.88337">
        <ele>817.74</ele>
        <time>2013-01-03T12:59:17Z</time>
      </trkpt>
      <trkpt lat="43.31871" lon="5.88334">
        <ele>817.26</ele>
        <time>2013-01-03T12:59:18Z</time>
      </trkpt>
      <trkpt lat="43.31888" lon="5.88328">
        <ele>817.26</ele>
        <time>2013-01-03T12:59:26Z</time>
      </trkpt>
      <trkpt lat="43.31888" lon="5.88333">
        <ele>817.74</ele>
        <time>2013-01-03T12:59:35Z</time>
      </trkpt>
      <trkpt lat="43.31887" lon="5.88335">
        <ele>817.74</ele>
        <time>2013-01-03T12:59:40Z</time>
      </trkpt>
      <trkpt lat="43.3189" lon="5.88352">
        <ele>818.7</ele>
        <time>2013-01-03T12:59:47Z</time>
      </trkpt>
      <trkpt lat="43.31888" lon="5.88381">
        <ele>820.62</ele>
        <time>2013-01-03T12:59:55Z</time>
      </trkpt>
      <trkpt lat="43.31875" lon="5.88405">
        <ele>820.14</ele>
        <time>2013-01-03T13:00:04Z</time>
      </trkpt>
      <trkpt lat="43.31878" lon="5.88423">
        <ele>820.14</ele>
        <time>2013-01-03T13:00:11Z</time>
      </trkpt>
      <trkpt lat="43.31862" lon="5.88449">
        <ele>818.7</ele>
        <time>2013-01-03T13:00:22Z</time>
      </trkpt>
      <trkpt lat="43.31852" lon="5.88495">
        <ele>819.18</ele>
        <time>2013-01-03T13:00:34Z</time>
      </trkpt>
      <trkpt lat="43.31853" lon="5.88538">
        <ele>819.66</ele>
        <time>2013-01-03T13:00:45Z</time>
      </trkpt>
      <trkpt lat="43.31854" lon="5.88542">
        <ele>819.66</ele>
        <time>2013-01-03T13:00:46Z</time>
      </trkpt>
      <trkpt lat="43.31853" lon="5.88565">
        <ele>821.1</ele>
        <time>2013-01-03T13:00:51Z</time>
      </trkpt>
      <trkpt lat="43.31852" lon="5.88569">
        <ele>821.58</ele>
        <time>2013-01-03T13:00:57Z</time>
      </trkpt>
      <trkpt lat="43.3183" lon="5.88576">
        <ele>819.18</ele>
        <time>2013-01-03T13:01:04Z</time>
      </trkpt>
      <trkpt lat="43.31826" lon="5.88578">
        <ele>818.7</ele>
        <time>2013-01-03T13:01:05Z</time>
      </trkpt>
      <trkpt lat="43.31823" lon="5.88581">
        <ele>818.22</ele>
        <time>2013-01-03T13:01:06Z</time>
      </trkpt>
      <trkpt lat="43.31821" lon="5.88585">
        <ele>817.74</ele>
        <time>2013-01-03T13:01:07Z</time>
      </trkpt>
      <trkpt lat="43.31819" lon="5.88589">
        <ele>817.74</ele>
        <time>2013-01-03T13:01:08Z</time>
      </trkpt>
      <trkpt lat="43.31817" lon="5.88594">
        <ele>817.26</ele>
        <time>2013-01-03T13:01:09Z</time>
      </trkpt>
      <trkpt lat="43.31814" lon="5.88598">
        <ele>816.78</ele>
        <time>2013-01-03T13:01:10Z</time>
      </trkpt>
      <trkpt lat="43.31814" lon="5.88602">
        <ele>816.3</ele>
        <time>2013-01-03T13:01:11Z</time>
      </trkpt>
      <trkpt lat="43.31814" lon="5.88606">
        <ele>816.3</ele>
        <time>2013-01-03T13:01:12Z</time>
      </trkpt>
      <trkpt lat="43.31815" lon="5.8861">
        <ele>816.3</ele>
        <time>2013-01-03T13:01:13Z</time>
      </trkpt>
      <trkpt lat="43.31816" lon="5.88615">
        <ele>816.3</ele>
        <time>2013-01-03T13:01:14Z</time>
      </trkpt>
      <trkpt lat="43.31817" lon="5.8862">
        <ele>816.78</ele>
        <time>2013-01-03T13:01:15Z</time>
      </trkpt>
      <trkpt lat="43.31817" lon="5.88624">
        <ele>816.78</ele>
        <time>2013-01-03T13:01:16Z</time>
      </trkpt>
      <trkpt lat="43.31817" lon="5.88628">
        <ele>816.78</ele>
        <time>2013-01-03T13:01:17Z</time>
      </trkpt>
      <trkpt lat="43.31816" lon="5.88632">
        <ele>816.3</ele>
        <time>2013-01-03T13:01:18Z</time>
      </trkpt>
      <trkpt lat="43.31817" lon="5.88636">
        <ele>816.3</ele>
        <time>2013-01-03T13:01:19Z</time>
      </trkpt>
      <trkpt lat="43.31818" lon="5.8864">
        <ele>816.3</ele>
        <time>2013-01-03T13:01:20Z</time>
      </trkpt>
      <trkpt lat="43.31819" lon="5.88642">
        <ele>816.3</ele>
        <time>2013-01-03T13:01:21Z</time>
      </trkpt>
      <trkpt lat="43.31821" lon="5.88644">
        <ele>816.3</ele>
        <time>2013-01-03T13:01:22Z</time>
      </trkpt>
      <trkpt lat="43.31822" lon="5.88646">
        <ele>816.3</ele>
        <time>2013-01-03T13:01:23Z</time>
      </trkpt>
      <trkpt lat="43.31823" lon="5.88648">
        <ele>816.3</ele>
        <time>2013-01-03T13:01:24Z</time>
      </trkpt>
      <trkpt lat="43.31824" lon="5.88652">
        <ele>815.82</ele>
        <time>2013-01-03T13:01:25Z</time>
      </trkpt>
      <trkpt lat="43.31825" lon="5.88656">
        <ele>815.82</ele>
        <time>2013-01-03T13:01:26Z</time>
      </trkpt>
      <trkpt lat="43.31826" lon="5.88661">
        <ele>815.34</ele>
        <time>2013-01-03T13:01:27Z</time>
      </trkpt>
      <trkpt lat="43.31827" lon="5.88664">
        <ele>814.85</ele>
        <time>2013-01-03T13:01:28Z</time>
      </trkpt>
      <trkpt lat="43.31828" lon="5.88666">
        <ele>814.37</ele>
        <time>2013-01-03T13:01:29Z</time>
      </trkpt>
      <trkpt lat="43.3183" lon="5.88667">
        <ele>814.37</ele>
        <time>2013-01-03T13:01:30Z</time>
      </trkpt>
      <trkpt lat="43.31832" lon="5.8867">
        <ele>813.89</ele>
        <time>2013-01-03T13:01:31Z</time>
      </trkpt>
      <trkpt lat="43.31832" lon="5.88674">
        <ele>813.89</ele>
        <time>2013-01-03T13:01:32Z</time>
      </trkpt>
      <trkpt lat="43.31833" lon="5.88678">
        <ele>814.37</ele>
        <time>2013-01-03T13:01:33Z</time>
      </trkpt>
      <trkpt lat="43.31833" lon="5.88682">
        <ele>814.85</ele>
        <time>2013-01-03T13:01:34Z</time>
      </trkpt>
      <trkpt lat="43.31833" lon="5.88687">
        <ele>814.85</ele>
        <time>2013-01-03T13:01:35Z</time>
      </trkpt>
      <trkpt lat="43.31831" lon="5.88702">
        <ele>815.82</ele>
        <time>2013-01-03T13:01:39Z</time>
      </trkpt>
      <trkpt lat="43.31831" lon="5.88706">
        <ele>815.82</ele>
        <time>2013-01-03T13:01:40Z</time>
      </trkpt>
      <trkpt lat="43.31829" lon="5.88734">
        <ele>815.82</ele>
        <time>2013-01-03T13:01:48Z</time>
      </trkpt>
      <trkpt lat="43.31829" lon="5.88737">
        <ele>815.82</ele>
        <time>2013-01-03T13:01:49Z</time>
      </trkpt>
      <trkpt lat="43.31828" lon="5.88741">
        <ele>815.82</ele>
        <time>2013-01-03T13:01:50Z</time>
      </trkpt>
      <trkpt lat="43.31827" lon="5.88746">
        <ele>815.34</ele>
        <time>2013-01-03T13:01:51Z</time>
      </trkpt>
      <trkpt lat="43.31827" lon="5.88751">
        <ele>815.34</ele>
        <time>2013-01-03T13:01:52Z</time>
      </trkpt>
      <trkpt lat="43.31827" lon="5.88757">
        <ele>814.85</ele>
        <time>2013-01-03T13:01:53Z</time>
      </trkpt>
      <trkpt lat="43.31827" lon="5.88761">
        <ele>814.37</ele>
        <time>2013-01-03T13:01:54Z</time>
      </trkpt>
      <trkpt lat="43.31827" lon="5.88764">
        <ele>813.89</ele>
        <time>2013-01-03T13:01:55Z</time>
      </trkpt>
      <trkpt lat="43.31827" lon="5.88767">
        <ele>813.89</ele>
        <time>2013-01-03T13:01:56Z</time>
      </trkpt>
      <trkpt lat="43.31827" lon="5.88769">
        <ele>813.41</ele>
        <time>2013-01-03T13:01:57Z</time>
      </trkpt>
      <trkpt lat="43.31827" lon="5.88772">
        <ele>812.93</ele>
        <time>2013-01-03T13:01:58Z</time>
      </trkpt>
      <trkpt lat="43.31827" lon="5.88777">
        <ele>811.97</ele>
        <time>2013-01-03T13:02:00Z</time>
      </trkpt>
      <trkpt lat="43.31827" lon="5.8878">
        <ele>811.97</ele>
        <time>2013-01-03T13:02:01Z</time>
      </trkpt>
      <trkpt lat="43.31828" lon="5.88782">
        <ele>811.49</ele>
        <time>2013-01-03T13:02:02Z</time>
      </trkpt>
      <trkpt lat="43.31829" lon="5.88785">
        <ele>811.01</ele>
        <time>2013-01-03T13:02:03Z</time>
      </trkpt>
      <trkpt lat="43.31829" lon="5.88789">
        <ele>810.05</ele>
        <time>2013-01-03T13:02:04Z</time>
      </trkpt>
      <trkpt lat="43.31829" lon="5.88792">
        <ele>809.57</ele>
        <time>2013-01-03T13:02:05Z</time>
      </trkpt>
      <trkpt lat="43.31828" lon="5.88795">
        <ele>809.09</ele>
        <time>2013-01-03T13:02:06Z</time>
      </trkpt>
      <trkpt lat="43.31828" lon="5.888">
        <ele>806.2</ele>
        <time>2013-01-03T13:02:12Z</time>
      </trkpt>
      <trkpt lat="43.31828" lon="5.88801">
        <ele>806.68</ele>
        <time>2013-01-03T13:02:24Z</time>
      </trkpt>
      <trkpt lat="43.31829" lon="5.88803">
        <ele>806.2</ele>
        <time>2013-01-03T13:02:31Z</time>
      </trkpt>
      <trkpt lat="43.31829" lon="5.88806">
        <ele>805.72</ele>
        <time>2013-01-03T13:02:32Z</time>
      </trkpt>
      <trkpt lat="43.31829" lon="5.8881">
        <ele>804.76</ele>
        <time>2013-01-03T13:02:33Z</time>
      </trkpt>
      <trkpt lat="43.31829" lon="5.88814">
        <ele>804.28</ele>
        <time>2013-01-03T13:02:34Z</time>
      </trkpt>
      <trkpt lat="43.31828" lon="5.88818">
        <ele>803.32</ele>
        <time>2013-01-03T13:02:35Z</time>
      </trkpt>
      <trkpt lat="43.31827" lon="5.88822">
        <ele>802.84</ele>
        <time>2013-01-03T13:02:36Z</time>
      </trkpt>
      <trkpt lat="43.31827" lon="5.88826">
        <ele>801.88</ele>
        <time>2013-01-03T13:02:37Z</time>
      </trkpt>
      <trkpt lat="43.31827" lon="5.88828">
        <ele>801.88</ele>
        <time>2013-01-03T13:02:38Z</time>
      </trkpt>
      <trkpt lat="43.31827" lon="5.88837">
        <ele>803.8</ele>
        <time>2013-01-03T13:02:49Z</time>
      </trkpt>
      <trkpt lat="43.31827" lon="5.88847">
        <ele>805.72</ele>
        <time>2013-01-03T13:02:58Z</time>
      </trkpt>
      <trkpt lat="43.31827" lon="5.88853">
        <ele>806.68</ele>
        <time>2013-01-03T13:03:05Z</time>
      </trkpt>
      <trkpt lat="43.31827" lon="5.8886">
        <ele>807.16</ele>
        <time>2013-01-03T13:03:09Z</time>
      </trkpt>
      <trkpt lat="43.31831" lon="5.88873">
        <ele>809.09</ele>
        <time>2013-01-03T13:03:19Z</time>
      </trkpt>
      <trkpt lat="43.3183" lon="5.88888">
        <ele>809.57</ele>
        <time>2013-01-03T13:03:31Z</time>
      </trkpt>
      <trkpt lat="43.31836" lon="5.88912">
        <ele>810.53</ele>
        <time>2013-01-03T13:03:40Z</time>
      </trkpt>
      <trkpt lat="43.31836" lon="5.88915">
        <ele>810.53</ele>
        <time>2013-01-03T13:03:41Z</time>
      </trkpt>
      <trkpt lat="43.31837" lon="5.88918">
        <ele>810.53</ele>
        <time>2013-01-03T13:03:42Z</time>
      </trkpt>
      <trkpt lat="43.31842" lon="5.88929">
        <ele>810.53</ele>
        <time>2013-01-03T13:03:46Z</time>
      </trkpt>
      <trkpt lat="43.31842" lon="5.88932">
        <ele>810.53</ele>
        <time>2013-01-03T13:03:47Z</time>
      </trkpt>
      <trkpt lat="43.31842" lon="5.88933">
        <ele>810.05</ele>
        <time>2013-01-03T13:03:48Z</time>
      </trkpt>
      <trkpt lat="43.31843" lon="5.88935">
        <ele>810.05</ele>
        <time>2013-01-03T13:03:49Z</time>
      </trkpt>
      <trkpt lat="43.31843" lon="5.88937">
        <ele>810.05</ele>
        <time>2013-01-03T13:03:50Z</time>
      </trkpt>
      <trkpt lat="43.31843" lon="5.88941">
        <ele>810.05</ele>
        <time>2013-01-03T13:03:52Z</time>
      </trkpt>
      <trkpt lat="43.31845" lon="5.88943">
        <ele>810.05</ele>
        <time>2013-01-03T13:03:53Z</time>
      </trkpt>
      <trkpt lat="43.31846" lon="5.88945">
        <ele>809.57</ele>
        <time>2013-01-03T13:03:54Z</time>
      </trkpt>
      <trkpt lat="43.31847" lon="5.88948">
        <ele>809.57</ele>
        <time>2013-01-03T13:03:55Z</time>
      </trkpt>
      <trkpt lat="43.31848" lon="5.8895">
        <ele>809.09</ele>
        <time>2013-01-03T13:03:56Z</time>
      </trkpt>
      <trkpt lat="43.31849" lon="5.88953">
        <ele>809.09</ele>
        <time>2013-01-03T13:03:57Z</time>
      </trkpt>
      <trkpt lat="43.3185" lon="5.88955">
        <ele>808.61</ele>
        <time>2013-01-03T13:03:58Z</time>
      </trkpt>
      <trkpt lat="43.31851" lon="5.88958">
        <ele>808.61</ele>
        <time>2013-01-03T13:03:59Z</time>
      </trkpt>
      <trkpt lat="43.31852" lon="5.88961">
        <ele>808.13</ele>
        <time>2013-01-03T13:04:00Z</time>
      </trkpt>
      <trkpt lat="43.31853" lon="5.88965">
        <ele>808.13</ele>
        <time>2013-01-03T13:04:01Z</time>
      </trkpt>
      <trkpt lat="43.31855" lon="5.88969">
        <ele>807.16</ele>
        <time>2013-01-03T13:04:02Z</time>
      </trkpt>
      <trkpt lat="43.31859" lon="5.88979">
        <ele>808.13</ele>
        <time>2013-01-03T13:04:05Z</time>
      </trkpt>
      <trkpt lat="43.31859" lon="5.88981">
        <ele>808.13</ele>
        <time>2013-01-03T13:04:06Z</time>
      </trkpt>
      <trkpt lat="43.31854" lon="5.88993">
        <ele>806.2</ele>
        <time>2013-01-03T13:04:10Z</time>
      </trkpt>
      <trkpt lat="43.31854" lon="5.88995">
        <ele>806.68</ele>
        <time>2013-01-03T13:04:11Z</time>
      </trkpt>
      <trkpt lat="43.31854" lon="5.88997">
        <ele>806.68</ele>
        <time>2013-01-03T13:04:12Z</time>
      </trkpt>
      <trkpt lat="43.31854" lon="5.89">
        <ele>806.68</ele>
        <time>2013-01-03T13:04:13Z</time>
      </trkpt>
      <trkpt lat="43.31855" lon="5.89002">
        <ele>807.16</ele>
        <time>2013-01-03T13:04:14Z</time>
      </trkpt>
      <trkpt lat="43.31857" lon="5.89011">
        <ele>806.68</ele>
        <time>2013-01-03T13:04:18Z</time>
      </trkpt>
      <trkpt lat="43.3186" lon="5.89018">
        <ele>808.13</ele>
        <time>2013-01-03T13:04:27Z</time>
      </trkpt>
      <trkpt lat="43.3186" lon="5.89023">
        <ele>809.09</ele>
        <time>2013-01-03T13:04:40Z</time>
      </trkpt>
      <trkpt lat="43.31862" lon="5.89028">
        <ele>810.05</ele>
        <time>2013-01-03T13:04:44Z</time>
      </trkpt>
      <trkpt lat="43.31863" lon="5.89037">
        <ele>810.05</ele>
        <time>2013-01-03T13:04:54Z</time>
      </trkpt>
      <trkpt lat="43.31863" lon="5.89039">
        <ele>810.05</ele>
        <time>2013-01-03T13:04:55Z</time>
      </trkpt>
      <trkpt lat="43.31863" lon="5.89041">
        <ele>810.05</ele>
        <time>2013-01-03T13:04:56Z</time>
      </trkpt>
      <trkpt lat="43.31863" lon="5.89043">
        <ele>809.57</ele>
        <time>2013-01-03T13:04:57Z</time>
      </trkpt>
      <trkpt lat="43.31863" lon="5.89045">
        <ele>809.57</ele>
        <time>2013-01-03T13:05:05Z</time>
      </trkpt>
      <trkpt lat="43.31863" lon="5.89045">
        <ele>809.57</ele>
        <time>2013-01-03T13:05:26Z</time>
      </trkpt>
      <trkpt lat="43.31865" lon="5.89058">
        <ele>810.05</ele>
        <time>2013-01-03T13:05:48Z</time>
      </trkpt>
      <trkpt lat="43.31865" lon="5.89063">
        <ele>810.05</ele>
        <time>2013-01-03T13:05:52Z</time>
      </trkpt>
      <trkpt lat="43.31863" lon="5.8907">
        <ele>808.61</ele>
        <time>2013-01-03T13:06:04Z</time>
      </trkpt>
      <trkpt lat="43.31861" lon="5.89072">
        <ele>808.61</ele>
        <time>2013-01-03T13:06:20Z</time>
      </trkpt>
      <trkpt lat="43.31861" lon="5.89075">
        <ele>807.64</ele>
        <time>2013-01-03T13:06:21Z</time>
      </trkpt>
      <trkpt lat="43.31861" lon="5.89077">
        <ele>807.64</ele>
        <time>2013-01-03T13:06:22Z</time>
      </trkpt>
      <trkpt lat="43.31861" lon="5.89079">
        <ele>807.16</ele>
        <time>2013-01-03T13:06:23Z</time>
      </trkpt>
      <trkpt lat="43.3186" lon="5.89081">
        <ele>807.16</ele>
        <time>2013-01-03T13:06:24Z</time>
      </trkpt>
      <trkpt lat="43.3186" lon="5.89084">
        <ele>806.68</ele>
        <time>2013-01-03T13:06:25Z</time>
      </trkpt>
      <trkpt lat="43.31861" lon="5.89087">
        <ele>806.68</ele>
        <time>2013-01-03T13:06:26Z</time>
      </trkpt>
      <trkpt lat="43.31862" lon="5.89094">
        <ele>806.68</ele>
        <time>2013-01-03T13:06:29Z</time>
      </trkpt>
      <trkpt lat="43.31861" lon="5.89096">
        <ele>806.68</ele>
        <time>2013-01-03T13:06:30Z</time>
      </trkpt>
      <trkpt lat="43.31862" lon="5.89107">
        <ele>805.24</ele>
        <time>2013-01-03T13:06:34Z</time>
      </trkpt>
      <trkpt lat="43.31863" lon="5.8911">
        <ele>805.24</ele>
        <time>2013-01-03T13:06:35Z</time>
      </trkpt>
      <trkpt lat="43.31862" lon="5.89119">
        <ele>803.32</ele>
        <time>2013-01-03T13:06:39Z</time>
      </trkpt>
      <trkpt lat="43.31862" lon="5.89121">
        <ele>802.84</ele>
        <time>2013-01-03T13:06:40Z</time>
      </trkpt>
      <trkpt lat="43.31864" lon="5.89132">
        <ele>799.95</ele>
        <time>2013-01-03T13:06:45Z</time>
      </trkpt>
      <trkpt lat="43.31864" lon="5.89133">
        <ele>798.99</ele>
        <time>2013-01-03T13:06:47Z</time>
      </trkpt>
      <trkpt lat="43.31862" lon="5.89133">
        <ele>798.99</ele>
        <time>2013-01-03T13:06:49Z</time>
      </trkpt>
      <trkpt lat="43.31861" lon="5.89132">
        <ele>798.03</ele>
        <time>2013-01-03T13:07:06Z</time>
      </trkpt>
      <trkpt lat="43.31861" lon="5.89133">
        <ele>798.03</ele>
        <time>2013-01-03T13:07:40Z</time>
      </trkpt>
      <trkpt lat="43.31861" lon="5.89133">
        <ele>798.03</ele>
        <time>2013-01-03T13:08:19Z</time>
      </trkpt>
      <trkpt lat="43.31862" lon="5.89138">
        <ele>798.51</ele>
        <time>2013-01-03T13:08:39Z</time>
      </trkpt>
      <trkpt lat="43.31862" lon="5.89138">
        <ele>798.03</ele>
        <time>2013-01-03T13:08:44Z</time>
      </trkpt>
      <trkpt lat="43.31863" lon="5.89147">
        <ele>795.63</ele>
        <time>2013-01-03T13:08:47Z</time>
      </trkpt>
      <trkpt lat="43.31863" lon="5.8915">
        <ele>795.15</ele>
        <time>2013-01-03T13:08:48Z</time>
      </trkpt>
      <trkpt lat="43.31863" lon="5.89152">
        <ele>794.19</ele>
        <time>2013-01-03T13:08:49Z</time>
      </trkpt>
      <trkpt lat="43.31862" lon="5.89153">
        <ele>793.71</ele>
        <time>2013-01-03T13:08:50Z</time>
      </trkpt>
      <trkpt lat="43.31862" lon="5.89155">
        <ele>793.22</ele>
        <time>2013-01-03T13:08:51Z</time>
      </trkpt>
      <trkpt lat="43.31864" lon="5.89159">
        <ele>792.74</ele>
        <time>2013-01-03T13:08:54Z</time>
      </trkpt>
      <trkpt lat="43.31864" lon="5.89164">
        <ele>791.3</ele>
        <time>2013-01-03T13:08:56Z</time>
      </trkpt>
      <trkpt lat="43.31863" lon="5.89166">
        <ele>790.34</ele>
        <time>2013-01-03T13:08:57Z</time>
      </trkpt>
      <trkpt lat="43.31864" lon="5.89168">
        <ele>790.34</ele>
        <time>2013-01-03T13:08:58Z</time>
      </trkpt>
      <trkpt lat="43.31864" lon="5.8917">
        <ele>789.86</ele>
        <time>2013-01-03T13:08:59Z</time>
      </trkpt>
      <trkpt lat="43.31865" lon="5.89172">
        <ele>789.38</ele>
        <time>2013-01-03T13:09:00Z</time>
      </trkpt>
      <trkpt lat="43.31865" lon="5.89174">
        <ele>789.38</ele>
        <time>2013-01-03T13:09:01Z</time>
      </trkpt>
      <trkpt lat="43.31865" lon="5.89177">
        <ele>788.42</ele>
        <time>2013-01-03T13:09:02Z</time>
      </trkpt>
      <trkpt lat="43.31864" lon="5.89179">
        <ele>787.94</ele>
        <time>2013-01-03T13:09:03Z</time>
      </trkpt>
      <trkpt lat="43.31863" lon="5.89182">
        <ele>787.46</ele>
        <time>2013-01-03T13:09:04Z</time>
      </trkpt>
      <trkpt lat="43.31863" lon="5.89184">
        <ele>786.98</ele>
        <time>2013-01-03T13:09:05Z</time>
      </trkpt>
      <trkpt lat="43.31862" lon="5.89187">
        <ele>786.5</ele>
        <time>2013-01-03T13:09:06Z</time>
      </trkpt>
      <trkpt lat="43.31861" lon="5.8919">
        <ele>786.5</ele>
        <time>2013-01-03T13:09:07Z</time>
      </trkpt>
      <trkpt lat="43.31861" lon="5.89193">
        <ele>786.5</ele>
        <time>2013-01-03T13:09:08Z</time>
      </trkpt>
      <trkpt lat="43.31859" lon="5.89201">
        <ele>786.5</ele>
        <time>2013-01-03T13:09:19Z</time>
      </trkpt>
      <trkpt lat="43.31858" lon="5.89205">
        <ele>786.02</ele>
        <time>2013-01-03T13:09:33Z</time>
      </trkpt>
      <trkpt lat="43.31858" lon="5.89206">
        <ele>786.02</ele>
        <time>2013-01-03T13:09:55Z</time>
      </trkpt>
      <trkpt lat="43.31858" lon="5.89208">
        <ele>785.53</ele>
        <time>2013-01-03T13:09:56Z</time>
      </trkpt>
      <trkpt lat="43.31859" lon="5.8921">
        <ele>785.53</ele>
        <time>2013-01-03T13:09:57Z</time>
      </trkpt>
      <trkpt lat="43.31861" lon="5.89212">
        <ele>785.53</ele>
        <time>2013-01-03T13:09:58Z</time>
      </trkpt>
      <trkpt lat="43.31863" lon="5.89214">
        <ele>785.53</ele>
        <time>2013-01-03T13:09:59Z</time>
      </trkpt>
      <trkpt lat="43.31867" lon="5.89224">
        <ele>785.53</ele>
        <time>2013-01-03T13:10:05Z</time>
      </trkpt>
      <trkpt lat="43.31868" lon="5.89242">
        <ele>781.21</ele>
        <time>2013-01-03T13:10:12Z</time>
      </trkpt>
      <trkpt lat="43.31866" lon="5.89248">
        <ele>779.29</ele>
        <time>2013-01-03T13:10:16Z</time>
      </trkpt>
      <trkpt lat="43.31864" lon="5.8925">
        <ele>776.88</ele>
        <time>2013-01-03T13:10:18Z</time>
      </trkpt>
      <trkpt lat="43.31863" lon="5.89254">
        <ele>775.44</ele>
        <time>2013-01-03T13:10:22Z</time>
      </trkpt>
      <trkpt lat="43.31863" lon="5.89254">
        <ele>774.96</ele>
        <time>2013-01-03T13:10:37Z</time>
      </trkpt>
      <trkpt lat="43.31864" lon="5.89254">
        <ele>774.96</ele>
        <time>2013-01-03T13:11:12Z</time>
      </trkpt>
      <trkpt lat="43.31863" lon="5.89256">
        <ele>774.96</ele>
        <time>2013-01-03T13:11:19Z</time>
      </trkpt>
      <trkpt lat="43.31859" lon="5.89268">
        <ele>772.56</ele>
        <time>2013-01-03T13:11:23Z</time>
      </trkpt>
      <trkpt lat="43.31857" lon="5.8928">
        <ele>769.19</ele>
        <time>2013-01-03T13:11:27Z</time>
      </trkpt>
      <trkpt lat="43.31855" lon="5.89285">
        <ele>768.23</ele>
        <time>2013-01-03T13:11:29Z</time>
      </trkpt>
      <trkpt lat="43.31853" lon="5.89292">
        <ele>766.79</ele>
        <time>2013-01-03T13:11:32Z</time>
      </trkpt>
      <trkpt lat="43.31849" lon="5.89297">
        <ele>765.35</ele>
        <time>2013-01-03T13:11:34Z</time>
      </trkpt>
      <trkpt lat="43.31846" lon="5.89302">
        <ele>764.39</ele>
        <time>2013-01-03T13:11:35Z</time>
      </trkpt>
      <trkpt lat="43.3184" lon="5.89311">
        <ele>763.9</ele>
        <time>2013-01-03T13:11:37Z</time>
      </trkpt>
      <trkpt lat="43.31832" lon="5.89324">
        <ele>763.9</ele>
        <time>2013-01-03T13:11:41Z</time>
      </trkpt>
      <trkpt lat="43.31829" lon="5.89326">
        <ele>763.42</ele>
        <time>2013-01-03T13:11:42Z</time>
      </trkpt>
      <trkpt lat="43.3182" lon="5.89336">
        <ele>760.54</ele>
        <time>2013-01-03T13:11:49Z</time>
      </trkpt>
      <trkpt lat="43.3182" lon="5.89337">
        <ele>760.54</ele>
        <time>2013-01-03T13:12:01Z</time>
      </trkpt>
      <trkpt lat="43.3182" lon="5.89337">
        <ele>760.54</ele>
        <time>2013-01-03T13:12:27Z</time>
      </trkpt>
      <trkpt lat="43.31819" lon="5.89337">
        <ele>761.02</ele>
        <time>2013-01-03T13:12:41Z</time>
      </trkpt>
      <trkpt lat="43.31819" lon="5.89337">
        <ele>760.54</ele>
        <time>2013-01-03T13:12:47Z</time>
      </trkpt>
      <trkpt lat="43.31818" lon="5.89339">
        <ele>760.54</ele>
        <time>2013-01-03T13:12:48Z</time>
      </trkpt>
      <trkpt lat="43.31816" lon="5.89341">
        <ele>760.06</ele>
        <time>2013-01-03T13:12:49Z</time>
      </trkpt>
      <trkpt lat="43.31814" lon="5.89345">
        <ele>759.1</ele>
        <time>2013-01-03T13:12:50Z</time>
      </trkpt>
      <trkpt lat="43.31812" lon="5.89348">
        <ele>758.62</ele>
        <time>2013-01-03T13:12:51Z</time>
      </trkpt>
      <trkpt lat="43.31809" lon="5.8935">
        <ele>758.14</ele>
        <time>2013-01-03T13:12:52Z</time>
      </trkpt>
      <trkpt lat="43.31807" lon="5.89351">
        <ele>757.66</ele>
        <time>2013-01-03T13:12:53Z</time>
      </trkpt>
      <trkpt lat="43.31804" lon="5.89352">
        <ele>757.18</ele>
        <time>2013-01-03T13:12:54Z</time>
      </trkpt>
      <trkpt lat="43.31801" lon="5.89352">
        <ele>756.69</ele>
        <time>2013-01-03T13:12:55Z</time>
      </trkpt>
      <trkpt lat="43.31799" lon="5.89354">
        <ele>756.21</ele>
        <time>2013-01-03T13:12:56Z</time>
      </trkpt>
      <trkpt lat="43.31798" lon="5.89356">
        <ele>755.25</ele>
        <time>2013-01-03T13:12:57Z</time>
      </trkpt>
      <trkpt lat="43.31798" lon="5.89359">
        <ele>754.77</ele>
        <time>2013-01-03T13:12:58Z</time>
      </trkpt>
      <trkpt lat="43.31798" lon="5.8936">
        <ele>754.29</ele>
        <time>2013-01-03T13:12:59Z</time>
      </trkpt>
      <trkpt lat="43.31797" lon="5.89362">
        <ele>754.29</ele>
        <time>2013-01-03T13:13:00Z</time>
      </trkpt>
      <trkpt lat="43.31796" lon="5.89365">
        <ele>753.81</ele>
        <time>2013-01-03T13:13:02Z</time>
      </trkpt>
      <trkpt lat="43.31794" lon="5.89365">
        <ele>753.33</ele>
        <time>2013-01-03T13:13:03Z</time>
      </trkpt>
      <trkpt lat="43.31793" lon="5.89365">
        <ele>752.85</ele>
        <time>2013-01-03T13:13:04Z</time>
      </trkpt>
      <trkpt lat="43.31788" lon="5.89365">
        <ele>749.97</ele>
        <time>2013-01-03T13:13:10Z</time>
      </trkpt>
      <trkpt lat="43.31787" lon="5.89365">
        <ele>749</ele>
        <time>2013-01-03T13:13:11Z</time>
      </trkpt>
      <trkpt lat="43.31786" lon="5.89366">
        <ele>749</ele>
        <time>2013-01-03T13:13:12Z</time>
      </trkpt>
      <trkpt lat="43.31784" lon="5.89371">
        <ele>748.52</ele>
        <time>2013-01-03T13:13:21Z</time>
      </trkpt>
      <trkpt lat="43.31784" lon="5.89372">
        <ele>748.52</ele>
        <time>2013-01-03T13:13:24Z</time>
      </trkpt>
      <trkpt lat="43.31782" lon="5.89393">
        <ele>746.12</ele>
        <time>2013-01-03T13:13:32Z</time>
      </trkpt>
      <trkpt lat="43.31782" lon="5.89393">
        <ele>746.12</ele>
        <time>2013-01-03T13:13:49Z</time>
      </trkpt>
      <trkpt lat="43.31782" lon="5.89393">
        <ele>746.12</ele>
        <time>2013-01-03T13:14:17Z</time>
      </trkpt>
      <trkpt lat="43.31775" lon="5.89405">
        <ele>744.2</ele>
        <time>2013-01-03T13:14:30Z</time>
      </trkpt>
      <trkpt lat="43.31773" lon="5.89411">
        <ele>743.72</ele>
        <time>2013-01-03T13:14:31Z</time>
      </trkpt>
      <trkpt lat="43.31773" lon="5.89418">
        <ele>742.76</ele>
        <time>2013-01-03T13:14:32Z</time>
      </trkpt>
      <trkpt lat="43.31773" lon="5.89424">
        <ele>742.76</ele>
        <time>2013-01-03T13:14:33Z</time>
      </trkpt>
      <trkpt lat="43.31772" lon="5.89446">
        <ele>741.31</ele>
        <time>2013-01-03T13:14:36Z</time>
      </trkpt>
      <trkpt lat="43.3177" lon="5.89453">
        <ele>740.83</ele>
        <time>2013-01-03T13:14:37Z</time>
      </trkpt>
      <trkpt lat="43.31768" lon="5.8946">
        <ele>739.87</ele>
        <time>2013-01-03T13:14:38Z</time>
      </trkpt>
      <trkpt lat="43.31765" lon="5.89467">
        <ele>739.39</ele>
        <time>2013-01-03T13:14:39Z</time>
      </trkpt>
      <trkpt lat="43.31764" lon="5.89474">
        <ele>738.91</ele>
        <time>2013-01-03T13:14:40Z</time>
      </trkpt>
      <trkpt lat="43.31765" lon="5.89481">
        <ele>738.43</ele>
        <time>2013-01-03T13:14:41Z</time>
      </trkpt>
      <trkpt lat="43.31767" lon="5.89487">
        <ele>737.95</ele>
        <time>2013-01-03T13:14:42Z</time>
      </trkpt>
      <trkpt lat="43.31768" lon="5.89493">
        <ele>737.47</ele>
        <time>2013-01-03T13:14:43Z</time>
      </trkpt>
      <trkpt lat="43.3177" lon="5.89499">
        <ele>737.47</ele>
        <time>2013-01-03T13:14:44Z</time>
      </trkpt>
      <trkpt lat="43.3177" lon="5.89506">
        <ele>736.99</ele>
        <time>2013-01-03T13:14:45Z</time>
      </trkpt>
      <trkpt lat="43.3177" lon="5.89512">
        <ele>736.51</ele>
        <time>2013-01-03T13:14:46Z</time>
      </trkpt>
      <trkpt lat="43.3177" lon="5.89515">
        <ele>736.51</ele>
        <time>2013-01-03T13:14:52Z</time>
      </trkpt>
      <trkpt lat="43.3177" lon="5.89516">
        <ele>736.03</ele>
        <time>2013-01-03T13:15:05Z</time>
      </trkpt>
      <trkpt lat="43.31778" lon="5.89555">
        <ele>735.07</ele>
        <time>2013-01-03T13:15:14Z</time>
      </trkpt>
      <trkpt lat="43.3178" lon="5.8956">
        <ele>734.58</ele>
        <time>2013-01-03T13:15:15Z</time>
      </trkpt>
      <trkpt lat="43.31782" lon="5.89566">
        <ele>734.58</ele>
        <time>2013-01-03T13:15:16Z</time>
      </trkpt>
      <trkpt lat="43.31783" lon="5.89572">
        <ele>734.1</ele>
        <time>2013-01-03T13:15:17Z</time>
      </trkpt>
      <trkpt lat="43.31784" lon="5.89584">
        <ele>733.14</ele>
        <time>2013-01-03T13:15:19Z</time>
      </trkpt>
      <trkpt lat="43.31785" lon="5.89592">
        <ele>732.66</ele>
        <time>2013-01-03T13:15:20Z</time>
      </trkpt>
      <trkpt lat="43.31788" lon="5.89605">
        <ele>732.18</ele>
        <time>2013-01-03T13:15:22Z</time>
      </trkpt>
      <trkpt lat="43.3179" lon="5.89612">
        <ele>731.7</ele>
        <time>2013-01-03T13:15:23Z</time>
      </trkpt>
      <trkpt lat="43.31791" lon="5.89618">
        <ele>731.22</ele>
        <time>2013-01-03T13:15:24Z</time>
      </trkpt>
      <trkpt lat="43.31792" lon="5.89625">
        <ele>731.22</ele>
        <time>2013-01-03T13:15:25Z</time>
      </trkpt>
      <trkpt lat="43.31794" lon="5.89632">
        <ele>731.22</ele>
        <time>2013-01-03T13:15:26Z</time>
      </trkpt>
      <trkpt lat="43.31796" lon="5.89646">
        <ele>731.22</ele>
        <time>2013-01-03T13:15:28Z</time>
      </trkpt>
      <trkpt lat="43.31798" lon="5.89653">
        <ele>731.22</ele>
        <time>2013-01-03T13:15:29Z</time>
      </trkpt>
      <trkpt lat="43.318" lon="5.89659">
        <ele>730.74</ele>
        <time>2013-01-03T13:15:30Z</time>
      </trkpt>
      <trkpt lat="43.31802" lon="5.89666">
        <ele>730.26</ele>
        <time>2013-01-03T13:15:31Z</time>
      </trkpt>
      <trkpt lat="43.31804" lon="5.89673">
        <ele>730.26</ele>
        <time>2013-01-03T13:15:32Z</time>
      </trkpt>
      <trkpt lat="43.31807" lon="5.89695">
        <ele>729.3</ele>
        <time>2013-01-03T13:15:36Z</time>
      </trkpt>
      <trkpt lat="43.31807" lon="5.89702">
        <ele>728.82</ele>
        <time>2013-01-03T13:15:37Z</time>
      </trkpt>
      <trkpt lat="43.31808" lon="5.89709">
        <ele>727.86</ele>
        <time>2013-01-03T13:15:38Z</time>
      </trkpt>
      <trkpt lat="43.3181" lon="5.89724">
        <ele>726.41</ele>
        <time>2013-01-03T13:15:40Z</time>
      </trkpt>
      <trkpt lat="43.3181" lon="5.89731">
        <ele>726.41</ele>
        <time>2013-01-03T13:15:41Z</time>
      </trkpt>
      <trkpt lat="43.31809" lon="5.89745">
        <ele>726.41</ele>
        <time>2013-01-03T13:15:43Z</time>
      </trkpt>
      <trkpt lat="43.31807" lon="5.89751">
        <ele>725.93</ele>
        <time>2013-01-03T13:15:44Z</time>
      </trkpt>
      <trkpt lat="43.31803" lon="5.89756">
        <ele>725.45</ele>
        <time>2013-01-03T13:15:45Z</time>
      </trkpt>
      <trkpt lat="43.31796" lon="5.89763">
        <ele>725.45</ele>
        <time>2013-01-03T13:15:47Z</time>
      </trkpt>
      <trkpt lat="43.31792" lon="5.89766">
        <ele>725.45</ele>
        <time>2013-01-03T13:15:48Z</time>
      </trkpt>
      <trkpt lat="43.31781" lon="5.89777">
        <ele>724.49</ele>
        <time>2013-01-03T13:15:51Z</time>
      </trkpt>
      <trkpt lat="43.31776" lon="5.89778">
        <ele>724.01</ele>
        <time>2013-01-03T13:15:52Z</time>
      </trkpt>
      <trkpt lat="43.31772" lon="5.89776">
        <ele>724.01</ele>
        <time>2013-01-03T13:15:53Z</time>
      </trkpt>
      <trkpt lat="43.31769" lon="5.89773">
        <ele>724.01</ele>
        <time>2013-01-03T13:15:54Z</time>
      </trkpt>
      <trkpt lat="43.31768" lon="5.8977">
        <ele>724.01</ele>
        <time>2013-01-03T13:15:55Z</time>
      </trkpt>
      <trkpt lat="43.31767" lon="5.89768">
        <ele>724.01</ele>
        <time>2013-01-03T13:15:56Z</time>
      </trkpt>
      <trkpt lat="43.31766" lon="5.89766">
        <ele>723.53</ele>
        <time>2013-01-03T13:15:57Z</time>
      </trkpt>
      <trkpt lat="43.31765" lon="5.89765">
        <ele>724.01</ele>
        <time>2013-01-03T13:15:58Z</time>
      </trkpt>
      <trkpt lat="43.31764" lon="5.89763">
        <ele>723.53</ele>
        <time>2013-01-03T13:15:59Z</time>
      </trkpt>
      <trkpt lat="43.31751" lon="5.89741">
        <ele>723.53</ele>
        <time>2013-01-03T13:16:10Z</time>
      </trkpt>
      <trkpt lat="43.31747" lon="5.89737">
        <ele>723.53</ele>
        <time>2013-01-03T13:16:12Z</time>
      </trkpt>
      <trkpt lat="43.31745" lon="5.89735">
        <ele>723.53</ele>
        <time>2013-01-03T13:16:13Z</time>
      </trkpt>
      <trkpt lat="43.31743" lon="5.89735">
        <ele>723.53</ele>
        <time>2013-01-03T13:16:14Z</time>
      </trkpt>
      <trkpt lat="43.31741" lon="5.89735">
        <ele>723.53</ele>
        <time>2013-01-03T13:16:15Z</time>
      </trkpt>
      <trkpt lat="43.31739" lon="5.89734">
        <ele>724.01</ele>
        <time>2013-01-03T13:16:16Z</time>
      </trkpt>
      <trkpt lat="43.31737" lon="5.89732">
        <ele>723.53</ele>
        <time>2013-01-03T13:16:17Z</time>
      </trkpt>
      <trkpt lat="43.31735" lon="5.8973">
        <ele>723.53</ele>
        <time>2013-01-03T13:16:18Z</time>
      </trkpt>
      <trkpt lat="43.31733" lon="5.89727">
        <ele>723.05</ele>
        <time>2013-01-03T13:16:19Z</time>
      </trkpt>
      <trkpt lat="43.3173" lon="5.89726">
        <ele>723.05</ele>
        <time>2013-01-03T13:16:20Z</time>
      </trkpt>
      <trkpt lat="43.31728" lon="5.89725">
        <ele>723.05</ele>
        <time>2013-01-03T13:16:21Z</time>
      </trkpt>
      <trkpt lat="43.31726" lon="5.89724">
        <ele>723.53</ele>
        <time>2013-01-03T13:16:22Z</time>
      </trkpt>
      <trkpt lat="43.31697" lon="5.89702">
        <ele>723.53</ele>
        <time>2013-01-03T13:16:33Z</time>
      </trkpt>
      <trkpt lat="43.31689" lon="5.89699">
        <ele>723.53</ele>
        <time>2013-01-03T13:16:36Z</time>
      </trkpt>
      <trkpt lat="43.31687" lon="5.89697">
        <ele>723.53</ele>
        <time>2013-01-03T13:16:37Z</time>
      </trkpt>
      <trkpt lat="43.31685" lon="5.89695">
        <ele>723.53</ele>
        <time>2013-01-03T13:16:38Z</time>
      </trkpt>
      <trkpt lat="43.31659" lon="5.89659">
        <ele>723.05</ele>
        <time>2013-01-03T13:16:50Z</time>
      </trkpt>
      <trkpt lat="43.31652" lon="5.89653">
        <ele>722.57</ele>
        <time>2013-01-03T13:16:52Z</time>
      </trkpt>
      <trkpt lat="43.31648" lon="5.8965">
        <ele>722.09</ele>
        <time>2013-01-03T13:16:53Z</time>
      </trkpt>
      <trkpt lat="43.31612" lon="5.89626">
        <ele>722.09</ele>
        <time>2013-01-03T13:17:03Z</time>
      </trkpt>
      <trkpt lat="43.31579" lon="5.89612">
        <ele>721.13</ele>
        <time>2013-01-03T13:17:12Z</time>
      </trkpt>
      <trkpt lat="43.31575" lon="5.89611">
        <ele>721.13</ele>
        <time>2013-01-03T13:17:13Z</time>
      </trkpt>
      <trkpt lat="43.3157" lon="5.89608">
        <ele>721.13</ele>
        <time>2013-01-03T13:17:14Z</time>
      </trkpt>
      <trkpt lat="43.31563" lon="5.89601">
        <ele>720.65</ele>
        <time>2013-01-03T13:17:16Z</time>
      </trkpt>
      <trkpt lat="43.31559" lon="5.89599">
        <ele>721.13</ele>
        <time>2013-01-03T13:17:17Z</time>
      </trkpt>
      <trkpt lat="43.31556" lon="5.89595">
        <ele>720.65</ele>
        <time>2013-01-03T13:17:18Z</time>
      </trkpt>
      <trkpt lat="43.31552" lon="5.89591">
        <ele>720.65</ele>
        <time>2013-01-03T13:17:19Z</time>
      </trkpt>
      <trkpt lat="43.31549" lon="5.89587">
        <ele>720.65</ele>
        <time>2013-01-03T13:17:20Z</time>
      </trkpt>
      <trkpt lat="43.31545" lon="5.89583">
        <ele>720.65</ele>
        <time>2013-01-03T13:17:21Z</time>
      </trkpt>
      <trkpt lat="43.31501" lon="5.89541">
        <ele>721.61</ele>
        <time>2013-01-03T13:17:35Z</time>
      </trkpt>
      <trkpt lat="43.31471" lon="5.89505">
        <ele>722.09</ele>
        <time>2013-01-03T13:17:46Z</time>
      </trkpt>
      <trkpt lat="43.31445" lon="5.89475">
        <ele>721.61</ele>
        <time>2013-01-03T13:17:55Z</time>
      </trkpt>
      <trkpt lat="43.3142" lon="5.89426">
        <ele>723.05</ele>
        <time>2013-01-03T13:18:08Z</time>
      </trkpt>
      <trkpt lat="43.31388" lon="5.8939">
        <ele>723.53</ele>
        <time>2013-01-03T13:18:20Z</time>
      </trkpt>
      <trkpt lat="43.31367" lon="5.89366">
        <ele>723.05</ele>
        <time>2013-01-03T13:18:27Z</time>
      </trkpt>
      <trkpt lat="43.31364" lon="5.89364">
        <ele>723.05</ele>
        <time>2013-01-03T13:18:28Z</time>
      </trkpt>
      <trkpt lat="43.31361" lon="5.89362">
        <ele>723.53</ele>
        <time>2013-01-03T13:18:29Z</time>
      </trkpt>
      <trkpt lat="43.31358" lon="5.8936">
        <ele>723.53</ele>
        <time>2013-01-03T13:18:30Z</time>
      </trkpt>
      <trkpt lat="43.31355" lon="5.89357">
        <ele>724.01</ele>
        <time>2013-01-03T13:18:31Z</time>
      </trkpt>
      <trkpt lat="43.31353" lon="5.89354">
        <ele>724.01</ele>
        <time>2013-01-03T13:18:32Z</time>
      </trkpt>
      <trkpt lat="43.3135" lon="5.8935">
        <ele>724.01</ele>
        <time>2013-01-03T13:18:33Z</time>
      </trkpt>
      <trkpt lat="43.31347" lon="5.89347">
        <ele>724.01</ele>
        <time>2013-01-03T13:18:34Z</time>
      </trkpt>
      <trkpt lat="43.31344" lon="5.89344">
        <ele>724.01</ele>
        <time>2013-01-03T13:18:35Z</time>
      </trkpt>
      <trkpt lat="43.31341" lon="5.89341">
        <ele>723.53</ele>
        <time>2013-01-03T13:18:36Z</time>
      </trkpt>
      <trkpt lat="43.31327" lon="5.89327">
        <ele>723.53</ele>
        <time>2013-01-03T13:18:40Z</time>
      </trkpt>
      <trkpt lat="43.31323" lon="5.89324">
        <ele>723.05</ele>
        <time>2013-01-03T13:18:41Z</time>
      </trkpt>
      <trkpt lat="43.31295" lon="5.89298">
        <ele>724.01</ele>
        <time>2013-01-03T13:18:51Z</time>
      </trkpt>
      <trkpt lat="43.31268" lon="5.89249">
        <ele>724.49</ele>
        <time>2013-01-03T13:19:06Z</time>
      </trkpt>
      <trkpt lat="43.31244" lon="5.89221">
        <ele>724.49</ele>
        <time>2013-01-03T13:19:17Z</time>
      </trkpt>
      <trkpt lat="43.3121" lon="5.89188">
        <ele>724.49</ele>
        <time>2013-01-03T13:19:31Z</time>
      </trkpt>
      <trkpt lat="43.31179" lon="5.89145">
        <ele>725.45</ele>
        <time>2013-01-03T13:19:46Z</time>
      </trkpt>
      <trkpt lat="43.31151" lon="5.89104">
        <ele>727.86</ele>
        <time>2013-01-03T13:20:01Z</time>
      </trkpt>
      <trkpt lat="43.31146" lon="5.89094">
        <ele>728.34</ele>
        <time>2013-01-03T13:20:05Z</time>
      </trkpt>
      <trkpt lat="43.31145" lon="5.89093">
        <ele>728.82</ele>
        <time>2013-01-03T13:20:06Z</time>
      </trkpt>
      <trkpt lat="43.31143" lon="5.89091">
        <ele>728.82</ele>
        <time>2013-01-03T13:20:07Z</time>
      </trkpt>
      <trkpt lat="43.31142" lon="5.8909">
        <ele>728.82</ele>
        <time>2013-01-03T13:20:08Z</time>
      </trkpt>
      <trkpt lat="43.3114" lon="5.89088">
        <ele>728.82</ele>
        <time>2013-01-03T13:20:09Z</time>
      </trkpt>
      <trkpt lat="43.31133" lon="5.8908">
        <ele>730.26</ele>
        <time>2013-01-03T13:20:20Z</time>
      </trkpt>
      <trkpt lat="43.31132" lon="5.89078">
        <ele>730.26</ele>
        <time>2013-01-03T13:20:27Z</time>
      </trkpt>
      <trkpt lat="43.3113" lon="5.89076">
        <ele>730.26</ele>
        <time>2013-01-03T13:20:28Z</time>
      </trkpt>
      <trkpt lat="43.31127" lon="5.89069">
        <ele>731.22</ele>
        <time>2013-01-03T13:20:32Z</time>
      </trkpt>
      <trkpt lat="43.31126" lon="5.89067">
        <ele>731.22</ele>
        <time>2013-01-03T13:20:33Z</time>
      </trkpt>
      <trkpt lat="43.31125" lon="5.89066">
        <ele>731.22</ele>
        <time>2013-01-03T13:20:34Z</time>
      </trkpt>
      <trkpt lat="43.31119" lon="5.89055">
        <ele>732.66</ele>
        <time>2013-01-03T13:20:40Z</time>
      </trkpt>
      <trkpt lat="43.31119" lon="5.89054">
        <ele>732.66</ele>
        <time>2013-01-03T13:20:41Z</time>
      </trkpt>
      <trkpt lat="43.31118" lon="5.89052">
        <ele>733.14</ele>
        <time>2013-01-03T13:20:42Z</time>
      </trkpt>
      <trkpt lat="43.31108" lon="5.89036">
        <ele>735.07</ele>
        <time>2013-01-03T13:20:52Z</time>
      </trkpt>
      <trkpt lat="43.31107" lon="5.89035">
        <ele>735.55</ele>
        <time>2013-01-03T13:20:53Z</time>
      </trkpt>
      <trkpt lat="43.31106" lon="5.89033">
        <ele>735.55</ele>
        <time>2013-01-03T13:20:54Z</time>
      </trkpt>
      <trkpt lat="43.31105" lon="5.89031">
        <ele>736.03</ele>
        <time>2013-01-03T13:20:55Z</time>
      </trkpt>
      <trkpt lat="43.31104" lon="5.89029">
        <ele>736.03</ele>
        <time>2013-01-03T13:20:56Z</time>
      </trkpt>
      <trkpt lat="43.31103" lon="5.89027">
        <ele>736.03</ele>
        <time>2013-01-03T13:20:57Z</time>
      </trkpt>
      <trkpt lat="43.31102" lon="5.89025">
        <ele>736.51</ele>
        <time>2013-01-03T13:20:58Z</time>
      </trkpt>
      <trkpt lat="43.31102" lon="5.89023">
        <ele>736.51</ele>
        <time>2013-01-03T13:20:59Z</time>
      </trkpt>
      <trkpt lat="43.311" lon="5.8902">
        <ele>736.99</ele>
        <time>2013-01-03T13:21:00Z</time>
      </trkpt>
      <trkpt lat="43.31099" lon="5.89018">
        <ele>736.99</ele>
        <time>2013-01-03T13:21:01Z</time>
      </trkpt>
      <trkpt lat="43.31098" lon="5.89016">
        <ele>736.99</ele>
        <time>2013-01-03T13:21:02Z</time>
      </trkpt>
      <trkpt lat="43.31097" lon="5.89015">
        <ele>737.95</ele>
        <time>2013-01-03T13:21:03Z</time>
      </trkpt>
      <trkpt lat="43.31096" lon="5.89013">
        <ele>737.95</ele>
        <time>2013-01-03T13:21:04Z</time>
      </trkpt>
      <trkpt lat="43.31095" lon="5.89011">
        <ele>738.43</ele>
        <time>2013-01-03T13:21:05Z</time>
      </trkpt>
      <trkpt lat="43.31095" lon="5.89009">
        <ele>738.43</ele>
        <time>2013-01-03T13:21:06Z</time>
      </trkpt>
      <trkpt lat="43.31094" lon="5.89006">
        <ele>738.91</ele>
        <time>2013-01-03T13:21:18Z</time>
      </trkpt>
      <trkpt lat="43.31093" lon="5.89004">
        <ele>738.91</ele>
        <time>2013-01-03T13:21:19Z</time>
      </trkpt>
      <trkpt lat="43.31092" lon="5.89002">
        <ele>739.39</ele>
        <time>2013-01-03T13:21:20Z</time>
      </trkpt>
      <trkpt lat="43.31092" lon="5.89">
        <ele>739.39</ele>
        <time>2013-01-03T13:21:21Z</time>
      </trkpt>
      <trkpt lat="43.31091" lon="5.88998">
        <ele>739.39</ele>
        <time>2013-01-03T13:21:22Z</time>
      </trkpt>
      <trkpt lat="43.3109" lon="5.88996">
        <ele>739.87</ele>
        <time>2013-01-03T13:21:23Z</time>
      </trkpt>
      <trkpt lat="43.31082" lon="5.88977">
        <ele>741.79</ele>
        <time>2013-01-03T13:21:34Z</time>
      </trkpt>
      <trkpt lat="43.3108" lon="5.88974">
        <ele>742.28</ele>
        <time>2013-01-03T13:21:36Z</time>
      </trkpt>
      <trkpt lat="43.31078" lon="5.8897">
        <ele>742.76</ele>
        <time>2013-01-03T13:21:45Z</time>
      </trkpt>
      <trkpt lat="43.31077" lon="5.88967">
        <ele>743.24</ele>
        <time>2013-01-03T13:21:56Z</time>
      </trkpt>
      <trkpt lat="43.31077" lon="5.88967">
        <ele>743.72</ele>
        <time>2013-01-03T13:22:22Z</time>
      </trkpt>
      <trkpt lat="43.31075" lon="5.88965">
        <ele>743.72</ele>
        <time>2013-01-03T13:22:26Z</time>
      </trkpt>
      <trkpt lat="43.31068" lon="5.88947">
        <ele>745.64</ele>
        <time>2013-01-03T13:22:39Z</time>
      </trkpt>
      <trkpt lat="43.31062" lon="5.88926">
        <ele>748.52</ele>
        <time>2013-01-03T13:22:53Z</time>
      </trkpt>
      <trkpt lat="43.31059" lon="5.88921">
        <ele>749.49</ele>
        <time>2013-01-03T13:23:03Z</time>
      </trkpt>
      <trkpt lat="43.31051" lon="5.88909">
        <ele>751.41</ele>
        <time>2013-01-03T13:23:14Z</time>
      </trkpt>
      <trkpt lat="43.31039" lon="5.8889">
        <ele>753.33</ele>
        <time>2013-01-03T13:23:26Z</time>
      </trkpt>
      <trkpt lat="43.31037" lon="5.88889">
        <ele>753.81</ele>
        <time>2013-01-03T13:23:27Z</time>
      </trkpt>
      <trkpt lat="43.31036" lon="5.88888">
        <ele>753.81</ele>
        <time>2013-01-03T13:23:28Z</time>
      </trkpt>
      <trkpt lat="43.31034" lon="5.88886">
        <ele>753.81</ele>
        <time>2013-01-03T13:23:29Z</time>
      </trkpt>
      <trkpt lat="43.31033" lon="5.88885">
        <ele>754.29</ele>
        <time>2013-01-03T13:23:30Z</time>
      </trkpt>
      <trkpt lat="43.31032" lon="5.88883">
        <ele>754.77</ele>
        <time>2013-01-03T13:23:31Z</time>
      </trkpt>
      <trkpt lat="43.3103" lon="5.88882">
        <ele>754.77</ele>
        <time>2013-01-03T13:23:32Z</time>
      </trkpt>
      <trkpt lat="43.31024" lon="5.88874">
        <ele>755.73</ele>
        <time>2013-01-03T13:23:37Z</time>
      </trkpt>
      <trkpt lat="43.31024" lon="5.88872">
        <ele>755.73</ele>
        <time>2013-01-03T13:23:38Z</time>
      </trkpt>
      <trkpt lat="43.31018" lon="5.88861">
        <ele>756.69</ele>
        <time>2013-01-03T13:23:45Z</time>
      </trkpt>
      <trkpt lat="43.31016" lon="5.8886">
        <ele>757.18</ele>
        <time>2013-01-03T13:23:46Z</time>
      </trkpt>
      <trkpt lat="43.31015" lon="5.88859">
        <ele>757.18</ele>
        <time>2013-01-03T13:23:47Z</time>
      </trkpt>
      <trkpt lat="43.31006" lon="5.88847">
        <ele>758.14</ele>
        <time>2013-01-03T13:23:53Z</time>
      </trkpt>
      <trkpt lat="43.30991" lon="5.88838">
        <ele>758.62</ele>
        <time>2013-01-03T13:24:01Z</time>
      </trkpt>
      <trkpt lat="43.30972" lon="5.88821">
        <ele>759.58</ele>
        <time>2013-01-03T13:24:14Z</time>
      </trkpt>
      <trkpt lat="43.30967" lon="5.88819">
        <ele>759.58</ele>
        <time>2013-01-03T13:24:25Z</time>
      </trkpt>
      <trkpt lat="43.30967" lon="5.88819">
        <ele>759.58</ele>
        <time>2013-01-03T13:24:48Z</time>
      </trkpt>
      <trkpt lat="43.30967" lon="5.88819">
        <ele>759.1</ele>
        <time>2013-01-03T13:25:11Z</time>
      </trkpt>
      <trkpt lat="43.30964" lon="5.88818">
        <ele>759.1</ele>
        <time>2013-01-03T13:25:30Z</time>
      </trkpt>
      <trkpt lat="43.30937" lon="5.8881">
        <ele>757.18</ele>
        <time>2013-01-03T13:25:39Z</time>
      </trkpt>
      <trkpt lat="43.30935" lon="5.8881">
        <ele>757.18</ele>
        <time>2013-01-03T13:25:40Z</time>
      </trkpt>
      <trkpt lat="43.30933" lon="5.8881">
        <ele>757.18</ele>
        <time>2013-01-03T13:25:41Z</time>
      </trkpt>
      <trkpt lat="43.30903" lon="5.88799">
        <ele>756.21</ele>
        <time>2013-01-03T13:25:51Z</time>
      </trkpt>
      <trkpt lat="43.30892" lon="5.88762">
        <ele>755.25</ele>
        <time>2013-01-03T13:26:00Z</time>
      </trkpt>
      <trkpt lat="43.30888" lon="5.88758">
        <ele>754.77</ele>
        <time>2013-01-03T13:26:01Z</time>
      </trkpt>
      <trkpt lat="43.30879" lon="5.88745">
        <ele>753.33</ele>
        <time>2013-01-03T13:26:04Z</time>
      </trkpt>
      <trkpt lat="43.30876" lon="5.8874">
        <ele>752.85</ele>
        <time>2013-01-03T13:26:05Z</time>
      </trkpt>
      <trkpt lat="43.30873" lon="5.88735">
        <ele>752.85</ele>
        <time>2013-01-03T13:26:06Z</time>
      </trkpt>
      <trkpt lat="43.3087" lon="5.88731">
        <ele>752.85</ele>
        <time>2013-01-03T13:26:07Z</time>
      </trkpt>
      <trkpt lat="43.30867" lon="5.88728">
        <ele>752.37</ele>
        <time>2013-01-03T13:26:08Z</time>
      </trkpt>
      <trkpt lat="43.30863" lon="5.88727">
        <ele>752.37</ele>
        <time>2013-01-03T13:26:09Z</time>
      </trkpt>
      <trkpt lat="43.30859" lon="5.88725">
        <ele>752.37</ele>
        <time>2013-01-03T13:26:10Z</time>
      </trkpt>
      <trkpt lat="43.30855" lon="5.88725">
        <ele>752.37</ele>
        <time>2013-01-03T13:26:11Z</time>
      </trkpt>
      <trkpt lat="43.30852" lon="5.88724">
        <ele>752.37</ele>
        <time>2013-01-03T13:26:12Z</time>
      </trkpt>
      <trkpt lat="43.3082" lon="5.88709">
        <ele>752.37</ele>
        <time>2013-01-03T13:26:25Z</time>
      </trkpt>
      <trkpt lat="43.30819" lon="5.88707">
        <ele>752.37</ele>
        <time>2013-01-03T13:26:26Z</time>
      </trkpt>
      <trkpt lat="43.30818" lon="5.88704">
        <ele>752.85</ele>
        <time>2013-01-03T13:26:27Z</time>
      </trkpt>
      <trkpt lat="43.30818" lon="5.88702">
        <ele>752.85</ele>
        <time>2013-01-03T13:26:28Z</time>
      </trkpt>
      <trkpt lat="43.30817" lon="5.88698">
        <ele>752.85</ele>
        <time>2013-01-03T13:26:40Z</time>
      </trkpt>
      <trkpt lat="43.30818" lon="5.88694">
        <ele>752.85</ele>
        <time>2013-01-03T13:26:55Z</time>
      </trkpt>
      <trkpt lat="43.30818" lon="5.88692">
        <ele>752.85</ele>
        <time>2013-01-03T13:26:56Z</time>
      </trkpt>
      <trkpt lat="43.30819" lon="5.8869">
        <ele>752.85</ele>
        <time>2013-01-03T13:26:57Z</time>
      </trkpt>
      <trkpt lat="43.3082" lon="5.88688">
        <ele>752.85</ele>
        <time>2013-01-03T13:26:58Z</time>
      </trkpt>
      <trkpt lat="43.30821" lon="5.88686">
        <ele>752.85</ele>
        <time>2013-01-03T13:26:59Z</time>
      </trkpt>
      <trkpt lat="43.30843" lon="5.88654">
        <ele>751.41</ele>
        <time>2013-01-03T13:27:13Z</time>
      </trkpt>
      <trkpt lat="43.30864" lon="5.88632">
        <ele>751.41</ele>
        <time>2013-01-03T13:27:24Z</time>
      </trkpt>
      <trkpt lat="43.30881" lon="5.88596">
        <ele>751.41</ele>
        <time>2013-01-03T13:27:36Z</time>
      </trkpt>
      <trkpt lat="43.3088" lon="5.88584">
        <ele>751.89</ele>
        <time>2013-01-03T13:27:40Z</time>
      </trkpt>
      <trkpt lat="43.30877" lon="5.88572">
        <ele>752.85</ele>
        <time>2013-01-03T13:27:44Z</time>
      </trkpt>
      <trkpt lat="43.30862" lon="5.88574">
        <ele>751.41</ele>
        <time>2013-01-03T13:27:50Z</time>
      </trkpt>
      <trkpt lat="43.30858" lon="5.88576">
        <ele>751.41</ele>
        <time>2013-01-03T13:27:51Z</time>
      </trkpt>
      <trkpt lat="43.30854" lon="5.88577">
        <ele>750.93</ele>
        <time>2013-01-03T13:27:52Z</time>
      </trkpt>
      <trkpt lat="43.30836" lon="5.88587">
        <ele>750.45</ele>
        <time>2013-01-03T13:27:56Z</time>
      </trkpt>
      <trkpt lat="43.30818" lon="5.88617">
        <ele>750.93</ele>
        <time>2013-01-03T13:28:05Z</time>
      </trkpt>
      <trkpt lat="43.30797" lon="5.88628">
        <ele>751.41</ele>
        <time>2013-01-03T13:28:15Z</time>
      </trkpt>
      <trkpt lat="43.30794" lon="5.88628">
        <ele>751.41</ele>
        <time>2013-01-03T13:28:25Z</time>
      </trkpt>
      <trkpt lat="43.30792" lon="5.88631">
        <ele>751.41</ele>
        <time>2013-01-03T13:28:28Z</time>
      </trkpt>
      <trkpt lat="43.30792" lon="5.88633">
        <ele>751.41</ele>
        <time>2013-01-03T13:28:29Z</time>
      </trkpt>
      <trkpt lat="43.3079" lon="5.88634">
        <ele>751.41</ele>
        <time>2013-01-03T13:28:30Z</time>
      </trkpt>
      <trkpt lat="43.30789" lon="5.88636">
        <ele>751.41</ele>
        <time>2013-01-03T13:28:31Z</time>
      </trkpt>
      <trkpt lat="43.30788" lon="5.88637">
        <ele>751.41</ele>
        <time>2013-01-03T13:28:32Z</time>
      </trkpt>
      <trkpt lat="43.30786" lon="5.88638">
        <ele>751.41</ele>
        <time>2013-01-03T13:28:33Z</time>
      </trkpt>
      <trkpt lat="43.30784" lon="5.88639">
        <ele>750.93</ele>
        <time>2013-01-03T13:28:34Z</time>
      </trkpt>
      <trkpt lat="43.30782" lon="5.8864">
        <ele>750.93</ele>
        <time>2013-01-03T13:28:35Z</time>
      </trkpt>
      <trkpt lat="43.3078" lon="5.88641">
        <ele>751.41</ele>
        <time>2013-01-03T13:28:36Z</time>
      </trkpt>
      <trkpt lat="43.30778" lon="5.88643">
        <ele>751.41</ele>
        <time>2013-01-03T13:28:37Z</time>
      </trkpt>
      <trkpt lat="43.30777" lon="5.88646">
        <ele>751.41</ele>
        <time>2013-01-03T13:28:38Z</time>
      </trkpt>
      <trkpt lat="43.30776" lon="5.88648">
        <ele>751.41</ele>
        <time>2013-01-03T13:28:39Z</time>
      </trkpt>
      <trkpt lat="43.30775" lon="5.88651">
        <ele>751.89</ele>
        <time>2013-01-03T13:28:40Z</time>
      </trkpt>
      <trkpt lat="43.30773" lon="5.88653">
        <ele>751.89</ele>
        <time>2013-01-03T13:28:41Z</time>
      </trkpt>
      <trkpt lat="43.30772" lon="5.88655">
        <ele>751.89</ele>
        <time>2013-01-03T13:28:42Z</time>
      </trkpt>
      <trkpt lat="43.30771" lon="5.88658">
        <ele>751.89</ele>
        <time>2013-01-03T13:28:43Z</time>
      </trkpt>
      <trkpt lat="43.3077" lon="5.88661">
        <ele>752.37</ele>
        <time>2013-01-03T13:28:44Z</time>
      </trkpt>
      <trkpt lat="43.30769" lon="5.88665">
        <ele>752.37</ele>
        <time>2013-01-03T13:28:45Z</time>
      </trkpt>
      <trkpt lat="43.30758" lon="5.88677">
        <ele>755.73</ele>
        <time>2013-01-03T13:28:51Z</time>
      </trkpt>
      <trkpt lat="43.30754" lon="5.88678">
        <ele>756.21</ele>
        <time>2013-01-03T13:29:00Z</time>
      </trkpt>
      <trkpt lat="43.30754" lon="5.88678">
        <ele>756.21</ele>
        <time>2013-01-03T13:29:16Z</time>
      </trkpt>
      <trkpt lat="43.30754" lon="5.88678">
        <ele>756.21</ele>
        <time>2013-01-03T13:29:28Z</time>
      </trkpt>
      <trkpt lat="43.30765" lon="5.8867">
        <ele>754.29</ele>
        <time>2013-01-03T13:29:33Z</time>
      </trkpt>
      <trkpt lat="43.30768" lon="5.88666">
        <ele>753.81</ele>
        <time>2013-01-03T13:29:34Z</time>
      </trkpt>
      <trkpt lat="43.30771" lon="5.8866">
        <ele>752.85</ele>
        <time>2013-01-03T13:29:35Z</time>
      </trkpt>
      <trkpt lat="43.30777" lon="5.88649">
        <ele>751.41</ele>
        <time>2013-01-03T13:29:37Z</time>
      </trkpt>
      <trkpt lat="43.30779" lon="5.88645">
        <ele>750.93</ele>
        <time>2013-01-03T13:29:38Z</time>
      </trkpt>
      <trkpt lat="43.30781" lon="5.88642">
        <ele>750.93</ele>
        <time>2013-01-03T13:29:39Z</time>
      </trkpt>
      <trkpt lat="43.30783" lon="5.88641">
        <ele>750.93</ele>
        <time>2013-01-03T13:29:40Z</time>
      </trkpt>
      <trkpt lat="43.30786" lon="5.8864">
        <ele>750.93</ele>
        <time>2013-01-03T13:29:41Z</time>
      </trkpt>
      <trkpt lat="43.30788" lon="5.88639">
        <ele>750.93</ele>
        <time>2013-01-03T13:29:42Z</time>
      </trkpt>
      <trkpt lat="43.30796" lon="5.88631">
        <ele>750.93</ele>
        <time>2013-01-03T13:29:46Z</time>
      </trkpt>
      <trkpt lat="43.30796" lon="5.88629">
        <ele>750.93</ele>
        <time>2013-01-03T13:29:47Z</time>
      </trkpt>
      <trkpt lat="43.30796" lon="5.88627">
        <ele>750.93</ele>
        <time>2013-01-03T13:29:48Z</time>
      </trkpt>
      <trkpt lat="43.30796" lon="5.88627">
        <ele>750.93</ele>
        <time>2013-01-03T13:29:50Z</time>
      </trkpt>
      <trkpt lat="43.30796" lon="5.88627">
        <ele>750.93</ele>
        <time>2013-01-03T13:29:51Z</time>
      </trkpt>
      <trkpt lat="43.30793" lon="5.88629">
        <ele>750.93</ele>
        <time>2013-01-03T13:30:05Z</time>
      </trkpt>
      <trkpt lat="43.30793" lon="5.88629">
        <ele>750.93</ele>
        <time>2013-01-03T13:30:18Z</time>
      </trkpt>
      <trkpt lat="43.30783" lon="5.886">
        <ele>747.56</ele>
        <time>2013-01-03T13:30:28Z</time>
      </trkpt>
      <trkpt lat="43.30778" lon="5.88582">
        <ele>745.64</ele>
        <time>2013-01-03T13:30:32Z</time>
      </trkpt>
      <trkpt lat="43.30777" lon="5.88576">
        <ele>745.16</ele>
        <time>2013-01-03T13:30:33Z</time>
      </trkpt>
      <trkpt lat="43.30769" lon="5.88563">
        <ele>743.24</ele>
        <time>2013-01-03T13:30:36Z</time>
      </trkpt>
      <trkpt lat="43.30762" lon="5.88555">
        <ele>742.28</ele>
        <time>2013-01-03T13:30:38Z</time>
      </trkpt>
      <trkpt lat="43.30758" lon="5.88552">
        <ele>741.79</ele>
        <time>2013-01-03T13:30:39Z</time>
      </trkpt>
      <trkpt lat="43.30753" lon="5.8855">
        <ele>741.79</ele>
        <time>2013-01-03T13:30:40Z</time>
      </trkpt>
      <trkpt lat="43.30749" lon="5.8855">
        <ele>741.31</ele>
        <time>2013-01-03T13:30:41Z</time>
      </trkpt>
      <trkpt lat="43.30745" lon="5.88552">
        <ele>741.31</ele>
        <time>2013-01-03T13:30:42Z</time>
      </trkpt>
      <trkpt lat="43.30742" lon="5.88555">
        <ele>740.83</ele>
        <time>2013-01-03T13:30:43Z</time>
      </trkpt>
      <trkpt lat="43.30739" lon="5.88558">
        <ele>740.83</ele>
        <time>2013-01-03T13:30:44Z</time>
      </trkpt>
      <trkpt lat="43.30729" lon="5.88569">
        <ele>739.87</ele>
        <time>2013-01-03T13:30:47Z</time>
      </trkpt>
      <trkpt lat="43.30723" lon="5.88577">
        <ele>739.87</ele>
        <time>2013-01-03T13:30:54Z</time>
      </trkpt>
      <trkpt lat="43.30721" lon="5.88577">
        <ele>739.87</ele>
        <time>2013-01-03T13:31:13Z</time>
      </trkpt>
      <trkpt lat="43.3072" lon="5.88578">
        <ele>739.87</ele>
        <time>2013-01-03T13:31:14Z</time>
      </trkpt>
      <trkpt lat="43.30717" lon="5.88578">
        <ele>739.39</ele>
        <time>2013-01-03T13:31:15Z</time>
      </trkpt>
      <trkpt lat="43.30713" lon="5.88577">
        <ele>738.91</ele>
        <time>2013-01-03T13:31:16Z</time>
      </trkpt>
      <trkpt lat="43.30708" lon="5.88576">
        <ele>738.43</ele>
        <time>2013-01-03T13:31:17Z</time>
      </trkpt>
      <trkpt lat="43.30705" lon="5.88576">
        <ele>738.43</ele>
        <time>2013-01-03T13:31:18Z</time>
      </trkpt>
      <trkpt lat="43.30701" lon="5.88575">
        <ele>737.95</ele>
        <time>2013-01-03T13:31:19Z</time>
      </trkpt>
      <trkpt lat="43.30698" lon="5.88574">
        <ele>737.95</ele>
        <time>2013-01-03T13:31:20Z</time>
      </trkpt>
      <trkpt lat="43.30696" lon="5.88575">
        <ele>737.95</ele>
        <time>2013-01-03T13:31:21Z</time>
      </trkpt>
      <trkpt lat="43.30694" lon="5.88576">
        <ele>737.95</ele>
        <time>2013-01-03T13:31:22Z</time>
      </trkpt>
      <trkpt lat="43.30693" lon="5.8858">
        <ele>738.43</ele>
        <time>2013-01-03T13:31:24Z</time>
      </trkpt>
      <trkpt lat="43.30694" lon="5.88595">
        <ele>739.39</ele>
        <time>2013-01-03T13:31:29Z</time>
      </trkpt>
      <trkpt lat="43.30694" lon="5.88601">
        <ele>740.35</ele>
        <time>2013-01-03T13:31:41Z</time>
      </trkpt>
      <trkpt lat="43.30694" lon="5.88601">
        <ele>740.35</ele>
        <time>2013-01-03T13:32:05Z</time>
      </trkpt>
      <trkpt lat="43.30694" lon="5.88601">
        <ele>740.35</ele>
        <time>2013-01-03T13:32:24Z</time>
      </trkpt>
      <trkpt lat="43.3069" lon="5.88611">
        <ele>740.35</ele>
        <time>2013-01-03T13:32:28Z</time>
      </trkpt>
      <trkpt lat="43.30684" lon="5.8862">
        <ele>741.31</ele>
        <time>2013-01-03T13:32:31Z</time>
      </trkpt>
      <trkpt lat="43.30683" lon="5.88628">
        <ele>742.76</ele>
        <time>2013-01-03T13:32:34Z</time>
      </trkpt>
      <trkpt lat="43.30684" lon="5.88634">
        <ele>742.76</ele>
        <time>2013-01-03T13:32:37Z</time>
      </trkpt>
      <trkpt lat="43.30687" lon="5.8864">
        <ele>742.76</ele>
        <time>2013-01-03T13:32:40Z</time>
      </trkpt>
      <trkpt lat="43.30687" lon="5.88647">
        <ele>742.76</ele>
        <time>2013-01-03T13:32:43Z</time>
      </trkpt>
      <trkpt lat="43.3069" lon="5.88652">
        <ele>743.24</ele>
        <time>2013-01-03T13:32:54Z</time>
      </trkpt>
      <trkpt lat="43.30697" lon="5.88658">
        <ele>743.72</ele>
        <time>2013-01-03T13:33:05Z</time>
      </trkpt>
      <trkpt lat="43.30697" lon="5.88658">
        <ele>743.72</ele>
        <time>2013-01-03T13:33:29Z</time>
      </trkpt>
      <trkpt lat="43.30696" lon="5.88661">
        <ele>743.24</ele>
        <time>2013-01-03T13:33:35Z</time>
      </trkpt>
      <trkpt lat="43.3068" lon="5.8865">
        <ele>742.28</ele>
        <time>2013-01-03T13:33:46Z</time>
      </trkpt>
      <trkpt lat="43.30686" lon="5.88634">
        <ele>740.83</ele>
        <time>2013-01-03T13:33:51Z</time>
      </trkpt>
      <trkpt lat="43.30688" lon="5.88629">
        <ele>739.87</ele>
        <time>2013-01-03T13:33:52Z</time>
      </trkpt>
      <trkpt lat="43.30691" lon="5.88601">
        <ele>737.95</ele>
        <time>2013-01-03T13:33:56Z</time>
      </trkpt>
      <trkpt lat="43.30702" lon="5.8859">
        <ele>737.47</ele>
        <time>2013-01-03T13:34:01Z</time>
      </trkpt>
      <trkpt lat="43.30715" lon="5.88586">
        <ele>738.91</ele>
        <time>2013-01-03T13:34:06Z</time>
      </trkpt>
      <trkpt lat="43.30735" lon="5.88567">
        <ele>739.87</ele>
        <time>2013-01-03T13:34:15Z</time>
      </trkpt>
      <trkpt lat="43.30739" lon="5.88562">
        <ele>739.87</ele>
        <time>2013-01-03T13:34:17Z</time>
      </trkpt>
      <trkpt lat="43.30751" lon="5.88558">
        <ele>740.35</ele>
        <time>2013-01-03T13:34:28Z</time>
      </trkpt>
      <trkpt lat="43.30752" lon="5.88558">
        <ele>740.83</ele>
        <time>2013-01-03T13:34:56Z</time>
      </trkpt>
      <trkpt lat="43.30763" lon="5.8856">
        <ele>741.31</ele>
        <time>2013-01-03T13:35:02Z</time>
      </trkpt>
      <trkpt lat="43.30776" lon="5.88576">
        <ele>743.24</ele>
        <time>2013-01-03T13:35:12Z</time>
      </trkpt>
      <trkpt lat="43.30781" lon="5.88588">
        <ele>744.68</ele>
        <time>2013-01-03T13:35:18Z</time>
      </trkpt>
      <trkpt lat="43.30783" lon="5.88597">
        <ele>746.12</ele>
        <time>2013-01-03T13:35:22Z</time>
      </trkpt>
      <trkpt lat="43.30789" lon="5.88617">
        <ele>748.04</ele>
        <time>2013-01-03T13:35:29Z</time>
      </trkpt>
      <trkpt lat="43.30795" lon="5.88624">
        <ele>749.49</ele>
        <time>2013-01-03T13:35:33Z</time>
      </trkpt>
      <trkpt lat="43.3081" lon="5.88627">
        <ele>749.97</ele>
        <time>2013-01-03T13:35:40Z</time>
      </trkpt>
      <trkpt lat="43.30819" lon="5.88635">
        <ele>749.97</ele>
        <time>2013-01-03T13:35:46Z</time>
      </trkpt>
      <trkpt lat="43.30826" lon="5.88638">
        <ele>750.45</ele>
        <time>2013-01-03T13:35:56Z</time>
      </trkpt>
      <trkpt lat="43.30838" lon="5.88657">
        <ele>749.97</ele>
        <time>2013-01-03T13:36:06Z</time>
      </trkpt>
      <trkpt lat="43.30829" lon="5.88672">
        <ele>750.93</ele>
        <time>2013-01-03T13:36:13Z</time>
      </trkpt>
      <trkpt lat="43.30816" lon="5.887">
        <ele>751.41</ele>
        <time>2013-01-03T13:36:28Z</time>
      </trkpt>
      <trkpt lat="43.30816" lon="5.88701">
        <ele>751.41</ele>
        <time>2013-01-03T13:36:43Z</time>
      </trkpt>
      <trkpt lat="43.30816" lon="5.88701">
        <ele>751.41</ele>
        <time>2013-01-03T13:36:48Z</time>
      </trkpt>
      <trkpt lat="43.30834" lon="5.88721">
        <ele>750.93</ele>
        <time>2013-01-03T13:37:01Z</time>
      </trkpt>
      <trkpt lat="43.30869" lon="5.88731">
        <ele>751.41</ele>
        <time>2013-01-03T13:37:15Z</time>
      </trkpt>
      <trkpt lat="43.30888" lon="5.88759">
        <ele>753.33</ele>
        <time>2013-01-03T13:37:26Z</time>
      </trkpt>
      <trkpt lat="43.309" lon="5.88793">
        <ele>754.77</ele>
        <time>2013-01-03T13:37:38Z</time>
      </trkpt>
      <trkpt lat="43.30927" lon="5.88812">
        <ele>754.77</ele>
        <time>2013-01-03T13:37:51Z</time>
      </trkpt>
      <trkpt lat="43.3095" lon="5.88817">
        <ele>755.73</ele>
        <time>2013-01-03T13:38:01Z</time>
      </trkpt>
      <trkpt lat="43.3096" lon="5.88846">
        <ele>758.62</ele>
        <time>2013-01-03T13:38:11Z</time>
      </trkpt>
      <trkpt lat="43.3096" lon="5.8886">
        <ele>760.54</ele>
        <time>2013-01-03T13:38:16Z</time>
      </trkpt>
      <trkpt lat="43.30964" lon="5.88872">
        <ele>761.98</ele>
        <time>2013-01-03T13:38:21Z</time>
      </trkpt>
      <trkpt lat="43.30966" lon="5.8888">
        <ele>762.46</ele>
        <time>2013-01-03T13:38:24Z</time>
      </trkpt>
      <trkpt lat="43.30969" lon="5.88895">
        <ele>763.42</ele>
        <time>2013-01-03T13:38:34Z</time>
      </trkpt>
      <trkpt lat="43.30969" lon="5.88895">
        <ele>763.42</ele>
        <time>2013-01-03T13:38:55Z</time>
      </trkpt>
      <trkpt lat="43.30969" lon="5.88896">
        <ele>763.42</ele>
        <time>2013-01-03T13:39:17Z</time>
      </trkpt>
      <trkpt lat="43.30969" lon="5.88897">
        <ele>763.42</ele>
        <time>2013-01-03T13:39:20Z</time>
      </trkpt>
      <trkpt lat="43.30972" lon="5.88921">
        <ele>762.46</ele>
        <time>2013-01-03T13:39:29Z</time>
      </trkpt>
      <trkpt lat="43.30966" lon="5.88947">
        <ele>761.98</ele>
        <time>2013-01-03T13:39:35Z</time>
      </trkpt>
      <trkpt lat="43.30968" lon="5.88988">
        <ele>761.98</ele>
        <time>2013-01-03T13:39:45Z</time>
      </trkpt>
      <trkpt lat="43.30969" lon="5.88992">
        <ele>761.98</ele>
        <time>2013-01-03T13:39:46Z</time>
      </trkpt>
      <trkpt lat="43.30972" lon="5.89025">
        <ele>762.94</ele>
        <time>2013-01-03T13:39:56Z</time>
      </trkpt>
      <trkpt lat="43.30973" lon="5.89046">
        <ele>762.94</ele>
        <time>2013-01-03T13:40:02Z</time>
      </trkpt>
      <trkpt lat="43.30971" lon="5.89058">
        <ele>763.42</ele>
        <time>2013-01-03T13:40:05Z</time>
      </trkpt>
      <trkpt lat="43.30969" lon="5.8908">
        <ele>764.39</ele>
        <time>2013-01-03T13:40:11Z</time>
      </trkpt>
      <trkpt lat="43.30964" lon="5.89095">
        <ele>765.83</ele>
        <time>2013-01-03T13:40:16Z</time>
      </trkpt>
      <trkpt lat="43.30953" lon="5.89123">
        <ele>767.75</ele>
        <time>2013-01-03T13:40:27Z</time>
      </trkpt>
      <trkpt lat="43.30941" lon="5.89144">
        <ele>770.63</ele>
        <time>2013-01-03T13:40:36Z</time>
      </trkpt>
      <trkpt lat="43.30933" lon="5.89166">
        <ele>773.04</ele>
        <time>2013-01-03T13:40:47Z</time>
      </trkpt>
      <trkpt lat="43.30932" lon="5.89176">
        <ele>774.48</ele>
        <time>2013-01-03T13:40:53Z</time>
      </trkpt>
      <trkpt lat="43.30928" lon="5.8919">
        <ele>775.92</ele>
        <time>2013-01-03T13:41:00Z</time>
      </trkpt>
      <trkpt lat="43.30921" lon="5.89219">
        <ele>778.32</ele>
        <time>2013-01-03T13:41:13Z</time>
      </trkpt>
      <trkpt lat="43.3092" lon="5.89229">
        <ele>780.25</ele>
        <time>2013-01-03T13:41:18Z</time>
      </trkpt>
      <trkpt lat="43.30919" lon="5.89233">
        <ele>781.21</ele>
        <time>2013-01-03T13:41:20Z</time>
      </trkpt>
      <trkpt lat="43.3092" lon="5.89252">
        <ele>782.65</ele>
        <time>2013-01-03T13:41:33Z</time>
      </trkpt>
      <trkpt lat="43.30921" lon="5.89253">
        <ele>783.13</ele>
        <time>2013-01-03T13:41:49Z</time>
      </trkpt>
      <trkpt lat="43.30922" lon="5.89257">
        <ele>782.65</ele>
        <time>2013-01-03T13:41:51Z</time>
      </trkpt>
      <trkpt lat="43.30923" lon="5.89266">
        <ele>784.09</ele>
        <time>2013-01-03T13:42:05Z</time>
      </trkpt>
      <trkpt lat="43.30923" lon="5.89271">
        <ele>784.09</ele>
        <time>2013-01-03T13:42:23Z</time>
      </trkpt>
      <trkpt lat="43.30917" lon="5.89286">
        <ele>786.98</ele>
        <time>2013-01-03T13:42:36Z</time>
      </trkpt>
      <trkpt lat="43.30917" lon="5.89288">
        <ele>786.98</ele>
        <time>2013-01-03T13:42:37Z</time>
      </trkpt>
      <trkpt lat="43.30913" lon="5.89295">
        <ele>787.94</ele>
        <time>2013-01-03T13:42:43Z</time>
      </trkpt>
      <trkpt lat="43.30912" lon="5.89298">
        <ele>788.42</ele>
        <time>2013-01-03T13:42:45Z</time>
      </trkpt>
      <trkpt lat="43.30904" lon="5.89318">
        <ele>791.3</ele>
        <time>2013-01-03T13:42:59Z</time>
      </trkpt>
      <trkpt lat="43.30903" lon="5.89319">
        <ele>791.3</ele>
        <time>2013-01-03T13:43:00Z</time>
      </trkpt>
      <trkpt lat="43.30897" lon="5.89325">
        <ele>793.22</ele>
        <time>2013-01-03T13:43:07Z</time>
      </trkpt>
      <trkpt lat="43.30887" lon="5.8932">
        <ele>794.19</ele>
        <time>2013-01-03T13:43:20Z</time>
      </trkpt>
      <trkpt lat="43.30887" lon="5.8932">
        <ele>794.19</ele>
        <time>2013-01-03T13:43:22Z</time>
      </trkpt>
      <trkpt lat="43.30871" lon="5.89305">
        <ele>795.15</ele>
        <time>2013-01-03T13:43:33Z</time>
      </trkpt>
      <trkpt lat="43.30868" lon="5.89302">
        <ele>794.67</ele>
        <time>2013-01-03T13:43:35Z</time>
      </trkpt>
      <trkpt lat="43.30861" lon="5.89286">
        <ele>794.67</ele>
        <time>2013-01-03T13:43:46Z</time>
      </trkpt>
      <trkpt lat="43.30861" lon="5.89286">
        <ele>794.67</ele>
        <time>2013-01-03T13:43:56Z</time>
      </trkpt>
      <trkpt lat="43.30864" lon="5.89292">
        <ele>794.67</ele>
        <time>2013-01-03T13:44:00Z</time>
      </trkpt>
      <trkpt lat="43.30866" lon="5.89296">
        <ele>794.67</ele>
        <time>2013-01-03T13:44:02Z</time>
      </trkpt>
      <trkpt lat="43.30869" lon="5.893">
        <ele>794.67</ele>
        <time>2013-01-03T13:44:06Z</time>
      </trkpt>
      <trkpt lat="43.30884" lon="5.89317">
        <ele>794.19</ele>
        <time>2013-01-03T13:44:19Z</time>
      </trkpt>
      <trkpt lat="43.30886" lon="5.89319">
        <ele>794.19</ele>
        <time>2013-01-03T13:44:21Z</time>
      </trkpt>
      <trkpt lat="43.30892" lon="5.89326">
        <ele>792.74</ele>
        <time>2013-01-03T13:44:32Z</time>
      </trkpt>
      <trkpt lat="43.30892" lon="5.89327">
        <ele>793.22</ele>
        <time>2013-01-03T13:44:40Z</time>
      </trkpt>
      <trkpt lat="43.30877" lon="5.89308">
        <ele>794.67</ele>
        <time>2013-01-03T13:44:53Z</time>
      </trkpt>
      <trkpt lat="43.30861" lon="5.89291">
        <ele>794.67</ele>
        <time>2013-01-03T13:45:05Z</time>
      </trkpt>
      <trkpt lat="43.3086" lon="5.89289">
        <ele>794.19</ele>
        <time>2013-01-03T13:45:06Z</time>
      </trkpt>
      <trkpt lat="43.30854" lon="5.89277">
        <ele>794.19</ele>
        <time>2013-01-03T13:45:11Z</time>
      </trkpt>
      <trkpt lat="43.30851" lon="5.89255">
        <ele>794.19</ele>
        <time>2013-01-03T13:45:20Z</time>
      </trkpt>
      <trkpt lat="43.30836" lon="5.89231">
        <ele>797.55</ele>
        <time>2013-01-03T13:45:31Z</time>
      </trkpt>
      <trkpt lat="43.30815" lon="5.89217">
        <ele>799.47</ele>
        <time>2013-01-03T13:45:42Z</time>
      </trkpt>
      <trkpt lat="43.30794" lon="5.89206">
        <ele>801.88</ele>
        <time>2013-01-03T13:45:54Z</time>
      </trkpt>
      <trkpt lat="43.30793" lon="5.89205">
        <ele>801.88</ele>
        <time>2013-01-03T13:46:03Z</time>
      </trkpt>
      <trkpt lat="43.30787" lon="5.89205">
        <ele>801.88</ele>
        <time>2013-01-03T13:46:07Z</time>
      </trkpt>
      <trkpt lat="43.30767" lon="5.89216">
        <ele>803.32</ele>
        <time>2013-01-03T13:46:19Z</time>
      </trkpt>
      <trkpt lat="43.30761" lon="5.89221">
        <ele>803.32</ele>
        <time>2013-01-03T13:46:23Z</time>
      </trkpt>
      <trkpt lat="43.30743" lon="5.89242">
        <ele>803.8</ele>
        <time>2013-01-03T13:46:35Z</time>
      </trkpt>
      <trkpt lat="43.3073" lon="5.89259">
        <ele>805.24</ele>
        <time>2013-01-03T13:46:44Z</time>
      </trkpt>
      <trkpt lat="43.30715" lon="5.89286">
        <ele>807.64</ele>
        <time>2013-01-03T13:46:57Z</time>
      </trkpt>
      <trkpt lat="43.30695" lon="5.89316">
        <ele>810.53</ele>
        <time>2013-01-03T13:47:11Z</time>
      </trkpt>
      <trkpt lat="43.30695" lon="5.89323">
        <ele>811.01</ele>
        <time>2013-01-03T13:47:22Z</time>
      </trkpt>
      <trkpt lat="43.30695" lon="5.89323">
        <ele>811.01</ele>
        <time>2013-01-03T13:47:43Z</time>
      </trkpt>
      <trkpt lat="43.30694" lon="5.89325">
        <ele>811.01</ele>
        <time>2013-01-03T13:48:04Z</time>
      </trkpt>
      <trkpt lat="43.30694" lon="5.89334">
        <ele>811.97</ele>
        <time>2013-01-03T13:48:15Z</time>
      </trkpt>
      <trkpt lat="43.30694" lon="5.89334">
        <ele>811.97</ele>
        <time>2013-01-03T13:48:38Z</time>
      </trkpt>
      <trkpt lat="43.30694" lon="5.89334">
        <ele>811.49</ele>
        <time>2013-01-03T13:49:03Z</time>
      </trkpt>
      <trkpt lat="43.30694" lon="5.89334">
        <ele>811.49</ele>
        <time>2013-01-03T13:49:19Z</time>
      </trkpt>
      <trkpt lat="43.30694" lon="5.89349">
        <ele>812.45</ele>
        <time>2013-01-03T13:49:24Z</time>
      </trkpt>
      <trkpt lat="43.307" lon="5.89372">
        <ele>814.37</ele>
        <time>2013-01-03T13:49:33Z</time>
      </trkpt>
      <trkpt lat="43.30714" lon="5.89403">
        <ele>816.3</ele>
        <time>2013-01-03T13:49:47Z</time>
      </trkpt>
      <trkpt lat="43.30721" lon="5.89415">
        <ele>818.22</ele>
        <time>2013-01-03T13:49:52Z</time>
      </trkpt>
      <trkpt lat="43.30729" lon="5.89423">
        <ele>819.18</ele>
        <time>2013-01-03T13:49:57Z</time>
      </trkpt>
      <trkpt lat="43.30746" lon="5.89455">
        <ele>820.62</ele>
        <time>2013-01-03T13:50:12Z</time>
      </trkpt>
      <trkpt lat="43.30749" lon="5.89476">
        <ele>820.62</ele>
        <time>2013-01-03T13:50:21Z</time>
      </trkpt>
      <trkpt lat="43.3075" lon="5.89476">
        <ele>821.58</ele>
        <time>2013-01-03T13:50:42Z</time>
      </trkpt>
      <trkpt lat="43.3075" lon="5.89476">
        <ele>820.62</ele>
        <time>2013-01-03T13:50:53Z</time>
      </trkpt>
      <trkpt lat="43.30747" lon="5.89501">
        <ele>820.62</ele>
        <time>2013-01-03T13:51:05Z</time>
      </trkpt>
      <trkpt lat="43.30743" lon="5.89512">
        <ele>820.62</ele>
        <time>2013-01-03T13:51:10Z</time>
      </trkpt>
      <trkpt lat="43.30746" lon="5.89555">
        <ele>819.66</ele>
        <time>2013-01-03T13:51:21Z</time>
      </trkpt>
      <trkpt lat="43.30746" lon="5.89566">
        <ele>820.14</ele>
        <time>2013-01-03T13:51:24Z</time>
      </trkpt>
      <trkpt lat="43.30748" lon="5.89606">
        <ele>820.14</ele>
        <time>2013-01-03T13:51:35Z</time>
      </trkpt>
      <trkpt lat="43.30733" lon="5.89646">
        <ele>819.66</ele>
        <time>2013-01-03T13:51:47Z</time>
      </trkpt>
      <trkpt lat="43.30737" lon="5.89671">
        <ele>820.14</ele>
        <time>2013-01-03T13:51:58Z</time>
      </trkpt>
      <trkpt lat="43.30737" lon="5.89671">
        <ele>820.14</ele>
        <time>2013-01-03T13:52:19Z</time>
      </trkpt>
      <trkpt lat="43.30737" lon="5.89671">
        <ele>819.66</ele>
        <time>2013-01-03T13:52:47Z</time>
      </trkpt>
      <trkpt lat="43.30737" lon="5.89672">
        <ele>820.62</ele>
        <time>2013-01-03T13:52:58Z</time>
      </trkpt>
      <trkpt lat="43.30745" lon="5.89714">
        <ele>820.14</ele>
        <time>2013-01-03T13:53:08Z</time>
      </trkpt>
      <trkpt lat="43.30757" lon="5.89742">
        <ele>820.14</ele>
        <time>2013-01-03T13:53:15Z</time>
      </trkpt>
      <trkpt lat="43.3075" lon="5.89776">
        <ele>820.14</ele>
        <time>2013-01-03T13:53:24Z</time>
      </trkpt>
      <trkpt lat="43.30739" lon="5.89822">
        <ele>818.7</ele>
        <time>2013-01-03T13:53:35Z</time>
      </trkpt>
      <trkpt lat="43.30736" lon="5.89831">
        <ele>819.18</ele>
        <time>2013-01-03T13:53:38Z</time>
      </trkpt>
      <trkpt lat="43.3074" lon="5.89875">
        <ele>820.14</ele>
        <time>2013-01-03T13:53:50Z</time>
      </trkpt>
      <trkpt lat="43.30747" lon="5.89911">
        <ele>820.14</ele>
        <time>2013-01-03T13:54:01Z</time>
      </trkpt>
      <trkpt lat="43.3076" lon="5.89939">
        <ele>819.18</ele>
        <time>2013-01-03T13:54:10Z</time>
      </trkpt>
      <trkpt lat="43.30773" lon="5.89971">
        <ele>817.74</ele>
        <time>2013-01-03T13:54:19Z</time>
      </trkpt>
      <trkpt lat="43.30775" lon="5.89974">
        <ele>817.74</ele>
        <time>2013-01-03T13:54:20Z</time>
      </trkpt>
      <trkpt lat="43.30782" lon="5.89988">
        <ele>816.3</ele>
        <time>2013-01-03T13:54:25Z</time>
      </trkpt>
      <trkpt lat="43.30806" lon="5.90027">
        <ele>815.34</ele>
        <time>2013-01-03T13:54:37Z</time>
      </trkpt>
      <trkpt lat="43.30811" lon="5.90066">
        <ele>812.93</ele>
        <time>2013-01-03T13:54:48Z</time>
      </trkpt>
      <trkpt lat="43.30805" lon="5.90092">
        <ele>811.49</ele>
        <time>2013-01-03T13:54:57Z</time>
      </trkpt>
      <trkpt lat="43.30804" lon="5.90096">
        <ele>811.49</ele>
        <time>2013-01-03T13:54:58Z</time>
      </trkpt>
      <trkpt lat="43.30823" lon="5.90138">
        <ele>809.57</ele>
        <time>2013-01-03T13:55:09Z</time>
      </trkpt>
      <trkpt lat="43.3083" lon="5.90157">
        <ele>809.57</ele>
        <time>2013-01-03T13:55:15Z</time>
      </trkpt>
      <trkpt lat="43.30842" lon="5.90202">
        <ele>811.01</ele>
        <time>2013-01-03T13:55:27Z</time>
      </trkpt>
      <trkpt lat="43.30858" lon="5.9024">
        <ele>812.93</ele>
        <time>2013-01-03T13:55:41Z</time>
      </trkpt>
      <trkpt lat="43.30859" lon="5.90242">
        <ele>812.93</ele>
        <time>2013-01-03T13:55:42Z</time>
      </trkpt>
      <trkpt lat="43.30863" lon="5.90251">
        <ele>813.41</ele>
        <time>2013-01-03T13:55:46Z</time>
      </trkpt>
      <trkpt lat="43.30866" lon="5.90275">
        <ele>813.41</ele>
        <time>2013-01-03T13:55:54Z</time>
      </trkpt>
      <trkpt lat="43.30879" lon="5.90303">
        <ele>812.93</ele>
        <time>2013-01-03T13:56:04Z</time>
      </trkpt>
      <trkpt lat="43.30887" lon="5.90347">
        <ele>811.97</ele>
        <time>2013-01-03T13:56:14Z</time>
      </trkpt>
      <trkpt lat="43.30888" lon="5.9035">
        <ele>811.49</ele>
        <time>2013-01-03T13:56:15Z</time>
      </trkpt>
      <trkpt lat="43.30892" lon="5.90392">
        <ele>810.05</ele>
        <time>2013-01-03T13:56:25Z</time>
      </trkpt>
      <trkpt lat="43.30906" lon="5.90432">
        <ele>808.13</ele>
        <time>2013-01-03T13:56:35Z</time>
      </trkpt>
      <trkpt lat="43.30914" lon="5.90445">
        <ele>806.68</ele>
        <time>2013-01-03T13:56:39Z</time>
      </trkpt>
      <trkpt lat="43.30918" lon="5.90467">
        <ele>805.72</ele>
        <time>2013-01-03T13:56:44Z</time>
      </trkpt>
      <trkpt lat="43.3092" lon="5.90478">
        <ele>804.76</ele>
        <time>2013-01-03T13:56:46Z</time>
      </trkpt>
      <trkpt lat="43.30928" lon="5.90529">
        <ele>802.84</ele>
        <time>2013-01-03T13:56:57Z</time>
      </trkpt>
      <trkpt lat="43.30929" lon="5.90544">
        <ele>802.36</ele>
        <time>2013-01-03T13:57:01Z</time>
      </trkpt>
      <trkpt lat="43.30929" lon="5.90548">
        <ele>801.88</ele>
        <time>2013-01-03T13:57:02Z</time>
      </trkpt>
      <trkpt lat="43.3093" lon="5.90551">
        <ele>801.88</ele>
        <time>2013-01-03T13:57:03Z</time>
      </trkpt>
      <trkpt lat="43.3093" lon="5.90555">
        <ele>801.88</ele>
        <time>2013-01-03T13:57:04Z</time>
      </trkpt>
      <trkpt lat="43.3093" lon="5.90558">
        <ele>801.88</ele>
        <time>2013-01-03T13:57:05Z</time>
      </trkpt>
      <trkpt lat="43.30931" lon="5.90561">
        <ele>801.88</ele>
        <time>2013-01-03T13:57:06Z</time>
      </trkpt>
      <trkpt lat="43.30933" lon="5.90578">
        <ele>801.4</ele>
        <time>2013-01-03T13:57:11Z</time>
      </trkpt>
      <trkpt lat="43.30932" lon="5.9058">
        <ele>800.92</ele>
        <time>2013-01-03T13:57:12Z</time>
      </trkpt>
      <trkpt lat="43.3093" lon="5.90583">
        <ele>800.92</ele>
        <time>2013-01-03T13:57:13Z</time>
      </trkpt>
      <trkpt lat="43.30929" lon="5.90586">
        <ele>800.92</ele>
        <time>2013-01-03T13:57:14Z</time>
      </trkpt>
      <trkpt lat="43.30929" lon="5.90588">
        <ele>800.92</ele>
        <time>2013-01-03T13:57:23Z</time>
      </trkpt>
      <trkpt lat="43.30927" lon="5.9059">
        <ele>800.92</ele>
        <time>2013-01-03T13:57:25Z</time>
      </trkpt>
      <trkpt lat="43.30925" lon="5.90592">
        <ele>800.92</ele>
        <time>2013-01-03T13:57:26Z</time>
      </trkpt>
      <trkpt lat="43.30922" lon="5.90595">
        <ele>800.44</ele>
        <time>2013-01-03T13:57:27Z</time>
      </trkpt>
      <trkpt lat="43.30918" lon="5.90599">
        <ele>800.44</ele>
        <time>2013-01-03T13:57:29Z</time>
      </trkpt>
      <trkpt lat="43.30914" lon="5.90605">
        <ele>800.44</ele>
        <time>2013-01-03T13:57:32Z</time>
      </trkpt>
      <trkpt lat="43.30913" lon="5.90605">
        <ele>800.44</ele>
        <time>2013-01-03T13:57:44Z</time>
      </trkpt>
      <trkpt lat="43.30907" lon="5.90608">
        <ele>800.44</ele>
        <time>2013-01-03T13:58:09Z</time>
      </trkpt>
      <trkpt lat="43.30893" lon="5.90618">
        <ele>800.92</ele>
        <time>2013-01-03T13:58:15Z</time>
      </trkpt>
      <trkpt lat="43.30891" lon="5.9062">
        <ele>800.92</ele>
        <time>2013-01-03T13:58:16Z</time>
      </trkpt>
      <trkpt lat="43.30889" lon="5.90621">
        <ele>800.92</ele>
        <time>2013-01-03T13:58:17Z</time>
      </trkpt>
      <trkpt lat="43.30886" lon="5.90623">
        <ele>800.92</ele>
        <time>2013-01-03T13:58:18Z</time>
      </trkpt>
      <trkpt lat="43.30883" lon="5.90624">
        <ele>800.92</ele>
        <time>2013-01-03T13:58:19Z</time>
      </trkpt>
      <trkpt lat="43.30881" lon="5.90626">
        <ele>801.4</ele>
        <time>2013-01-03T13:58:20Z</time>
      </trkpt>
      <trkpt lat="43.30878" lon="5.90628">
        <ele>800.92</ele>
        <time>2013-01-03T13:58:21Z</time>
      </trkpt>
      <trkpt lat="43.30876" lon="5.90629">
        <ele>801.4</ele>
        <time>2013-01-03T13:58:22Z</time>
      </trkpt>
      <trkpt lat="43.30873" lon="5.90631">
        <ele>801.4</ele>
        <time>2013-01-03T13:58:23Z</time>
      </trkpt>
      <trkpt lat="43.3087" lon="5.90633">
        <ele>801.4</ele>
        <time>2013-01-03T13:58:24Z</time>
      </trkpt>
      <trkpt lat="43.30867" lon="5.90636">
        <ele>801.4</ele>
        <time>2013-01-03T13:58:25Z</time>
      </trkpt>
      <trkpt lat="43.30853" lon="5.90661">
        <ele>800.44</ele>
        <time>2013-01-03T13:58:31Z</time>
      </trkpt>
      <trkpt lat="43.3085" lon="5.90665">
        <ele>800.44</ele>
        <time>2013-01-03T13:58:32Z</time>
      </trkpt>
      <trkpt lat="43.30844" lon="5.90673">
        <ele>800.44</ele>
        <time>2013-01-03T13:58:34Z</time>
      </trkpt>
      <trkpt lat="43.30841" lon="5.90677">
        <ele>800.44</ele>
        <time>2013-01-03T13:58:35Z</time>
      </trkpt>
      <trkpt lat="43.30823" lon="5.90696">
        <ele>799.95</ele>
        <time>2013-01-03T13:58:41Z</time>
      </trkpt>
      <trkpt lat="43.30819" lon="5.90699">
        <ele>799.95</ele>
        <time>2013-01-03T13:58:42Z</time>
      </trkpt>
      <trkpt lat="43.30815" lon="5.90701">
        <ele>799.95</ele>
        <time>2013-01-03T13:58:43Z</time>
      </trkpt>
      <trkpt lat="43.30803" lon="5.90706">
        <ele>799.47</ele>
        <time>2013-01-03T13:58:46Z</time>
      </trkpt>
      <trkpt lat="43.30799" lon="5.90709">
        <ele>798.99</ele>
        <time>2013-01-03T13:58:47Z</time>
      </trkpt>
      <trkpt lat="43.30795" lon="5.90711">
        <ele>798.99</ele>
        <time>2013-01-03T13:58:48Z</time>
      </trkpt>
      <trkpt lat="43.3079" lon="5.90712">
        <ele>798.99</ele>
        <time>2013-01-03T13:58:49Z</time>
      </trkpt>
      <trkpt lat="43.30786" lon="5.90712">
        <ele>798.99</ele>
        <time>2013-01-03T13:58:50Z</time>
      </trkpt>
      <trkpt lat="43.3077" lon="5.90714">
        <ele>798.99</ele>
        <time>2013-01-03T13:58:54Z</time>
      </trkpt>
      <trkpt lat="43.30766" lon="5.90714">
        <ele>799.47</ele>
        <time>2013-01-03T13:58:55Z</time>
      </trkpt>
      <trkpt lat="43.30762" lon="5.90713">
        <ele>799.47</ele>
        <time>2013-01-03T13:58:56Z</time>
      </trkpt>
      <trkpt lat="43.30758" lon="5.90711">
        <ele>799.47</ele>
        <time>2013-01-03T13:58:57Z</time>
      </trkpt>
      <trkpt lat="43.30755" lon="5.9071">
        <ele>799.95</ele>
        <time>2013-01-03T13:58:58Z</time>
      </trkpt>
      <trkpt lat="43.30752" lon="5.90709">
        <ele>800.44</ele>
        <time>2013-01-03T13:58:59Z</time>
      </trkpt>
      <trkpt lat="43.30749" lon="5.90707">
        <ele>800.44</ele>
        <time>2013-01-03T13:59:00Z</time>
      </trkpt>
      <trkpt lat="43.30745" lon="5.90707">
        <ele>800.92</ele>
        <time>2013-01-03T13:59:01Z</time>
      </trkpt>
      <trkpt lat="43.30742" lon="5.90706">
        <ele>800.44</ele>
        <time>2013-01-03T13:59:02Z</time>
      </trkpt>
      <trkpt lat="43.30738" lon="5.90706">
        <ele>800.92</ele>
        <time>2013-01-03T13:59:03Z</time>
      </trkpt>
      <trkpt lat="43.30695" lon="5.90703">
        <ele>801.88</ele>
        <time>2013-01-03T13:59:16Z</time>
      </trkpt>
      <trkpt lat="43.3067" lon="5.90704">
        <ele>799.47</ele>
        <time>2013-01-03T13:59:21Z</time>
      </trkpt>
      <trkpt lat="43.30667" lon="5.90703">
        <ele>799.95</ele>
        <time>2013-01-03T13:59:22Z</time>
      </trkpt>
      <trkpt lat="43.30663" lon="5.90701">
        <ele>799.95</ele>
        <time>2013-01-03T13:59:23Z</time>
      </trkpt>
      <trkpt lat="43.30659" lon="5.907">
        <ele>799.47</ele>
        <time>2013-01-03T13:59:24Z</time>
      </trkpt>
      <trkpt lat="43.30655" lon="5.90699">
        <ele>799.95</ele>
        <time>2013-01-03T13:59:25Z</time>
      </trkpt>
      <trkpt lat="43.30652" lon="5.90698">
        <ele>799.47</ele>
        <time>2013-01-03T13:59:26Z</time>
      </trkpt>
      <trkpt lat="43.30648" lon="5.90697">
        <ele>799.47</ele>
        <time>2013-01-03T13:59:27Z</time>
      </trkpt>
      <trkpt lat="43.30645" lon="5.90697">
        <ele>799.47</ele>
        <time>2013-01-03T13:59:28Z</time>
      </trkpt>
      <trkpt lat="43.30641" lon="5.90697">
        <ele>798.99</ele>
        <time>2013-01-03T13:59:29Z</time>
      </trkpt>
      <trkpt lat="43.30602" lon="5.90691">
        <ele>800.44</ele>
        <time>2013-01-03T13:59:39Z</time>
      </trkpt>
      <trkpt lat="43.30592" lon="5.9069">
        <ele>801.88</ele>
        <time>2013-01-03T13:59:42Z</time>
      </trkpt>
      <trkpt lat="43.3059" lon="5.90691">
        <ele>802.36</ele>
        <time>2013-01-03T13:59:43Z</time>
      </trkpt>
      <trkpt lat="43.30568" lon="5.90714">
        <ele>801.4</ele>
        <time>2013-01-03T13:59:51Z</time>
      </trkpt>
      <trkpt lat="43.30555" lon="5.90727">
        <ele>799.95</ele>
        <time>2013-01-03T13:59:54Z</time>
      </trkpt>
      <trkpt lat="43.30551" lon="5.90731">
        <ele>799.47</ele>
        <time>2013-01-03T13:59:55Z</time>
      </trkpt>
      <trkpt lat="43.30546" lon="5.90736">
        <ele>798.99</ele>
        <time>2013-01-03T13:59:56Z</time>
      </trkpt>
      <trkpt lat="43.30541" lon="5.90741">
        <ele>798.51</ele>
        <time>2013-01-03T13:59:57Z</time>
      </trkpt>
      <trkpt lat="43.30536" lon="5.90747">
        <ele>798.03</ele>
        <time>2013-01-03T13:59:58Z</time>
      </trkpt>
      <trkpt lat="43.30526" lon="5.90756">
        <ele>796.59</ele>
        <time>2013-01-03T14:00:00Z</time>
      </trkpt>
      <trkpt lat="43.30522" lon="5.9076">
        <ele>796.59</ele>
        <time>2013-01-03T14:00:01Z</time>
      </trkpt>
      <trkpt lat="43.30518" lon="5.90765">
        <ele>796.11</ele>
        <time>2013-01-03T14:00:02Z</time>
      </trkpt>
      <trkpt lat="43.30512" lon="5.90777">
        <ele>795.63</ele>
        <time>2013-01-03T14:00:04Z</time>
      </trkpt>
      <trkpt lat="43.30504" lon="5.90796">
        <ele>794.67</ele>
        <time>2013-01-03T14:00:07Z</time>
      </trkpt>
      <trkpt lat="43.30499" lon="5.9081">
        <ele>793.71</ele>
        <time>2013-01-03T14:00:09Z</time>
      </trkpt>
      <trkpt lat="43.30493" lon="5.9082">
        <ele>793.22</ele>
        <time>2013-01-03T14:00:11Z</time>
      </trkpt>
      <trkpt lat="43.3049" lon="5.90824">
        <ele>792.74</ele>
        <time>2013-01-03T14:00:12Z</time>
      </trkpt>
      <trkpt lat="43.30488" lon="5.90827">
        <ele>793.22</ele>
        <time>2013-01-03T14:00:13Z</time>
      </trkpt>
      <trkpt lat="43.30485" lon="5.90829">
        <ele>793.22</ele>
        <time>2013-01-03T14:00:14Z</time>
      </trkpt>
      <trkpt lat="43.30482" lon="5.90831">
        <ele>793.22</ele>
        <time>2013-01-03T14:00:15Z</time>
      </trkpt>
      <trkpt lat="43.3047" lon="5.90869">
        <ele>791.78</ele>
        <time>2013-01-03T14:00:24Z</time>
      </trkpt>
      <trkpt lat="43.30468" lon="5.90887">
        <ele>790.82</ele>
        <time>2013-01-03T14:00:27Z</time>
      </trkpt>
      <trkpt lat="43.30467" lon="5.909">
        <ele>790.34</ele>
        <time>2013-01-03T14:00:29Z</time>
      </trkpt>
      <trkpt lat="43.30466" lon="5.90906">
        <ele>790.34</ele>
        <time>2013-01-03T14:00:30Z</time>
      </trkpt>
      <trkpt lat="43.30464" lon="5.90911">
        <ele>789.86</ele>
        <time>2013-01-03T14:00:31Z</time>
      </trkpt>
      <trkpt lat="43.3046" lon="5.90928">
        <ele>789.86</ele>
        <time>2013-01-03T14:00:35Z</time>
      </trkpt>
      <trkpt lat="43.30459" lon="5.9093">
        <ele>789.86</ele>
        <time>2013-01-03T14:00:36Z</time>
      </trkpt>
      <trkpt lat="43.30458" lon="5.90932">
        <ele>789.86</ele>
        <time>2013-01-03T14:00:46Z</time>
      </trkpt>
      <trkpt lat="43.30457" lon="5.90932">
        <ele>789.38</ele>
        <time>2013-01-03T14:01:07Z</time>
      </trkpt>
      <trkpt lat="43.30457" lon="5.90932">
        <ele>789.38</ele>
        <time>2013-01-03T14:01:25Z</time>
      </trkpt>
      <trkpt lat="43.30458" lon="5.90934">
        <ele>789.38</ele>
        <time>2013-01-03T14:01:26Z</time>
      </trkpt>
      <trkpt lat="43.30483" lon="5.90945">
        <ele>786.02</ele>
        <time>2013-01-03T14:01:36Z</time>
      </trkpt>
      <trkpt lat="43.305" lon="5.90951">
        <ele>782.65</ele>
        <time>2013-01-03T14:01:41Z</time>
      </trkpt>
      <trkpt lat="43.30517" lon="5.90956">
        <ele>779.77</ele>
        <time>2013-01-03T14:01:46Z</time>
      </trkpt>
      <trkpt lat="43.30528" lon="5.90962">
        <ele>777.36</ele>
        <time>2013-01-03T14:01:54Z</time>
      </trkpt>
      <trkpt lat="43.30528" lon="5.90963">
        <ele>777.36</ele>
        <time>2013-01-03T14:02:16Z</time>
      </trkpt>
      <trkpt lat="43.30536" lon="5.90967">
        <ele>777.36</ele>
        <time>2013-01-03T14:02:22Z</time>
      </trkpt>
      <trkpt lat="43.30541" lon="5.9097">
        <ele>776.4</ele>
        <time>2013-01-03T14:02:23Z</time>
      </trkpt>
      <trkpt lat="43.30545" lon="5.90975">
        <ele>775.44</ele>
        <time>2013-01-03T14:02:24Z</time>
      </trkpt>
      <trkpt lat="43.30561" lon="5.90997">
        <ele>773.52</ele>
        <time>2013-01-03T14:02:28Z</time>
      </trkpt>
      <trkpt lat="43.30564" lon="5.91004">
        <ele>772.56</ele>
        <time>2013-01-03T14:02:29Z</time>
      </trkpt>
      <trkpt lat="43.30567" lon="5.91011">
        <ele>771.6</ele>
        <time>2013-01-03T14:02:30Z</time>
      </trkpt>
      <trkpt lat="43.30571" lon="5.91017">
        <ele>771.11</ele>
        <time>2013-01-03T14:02:31Z</time>
      </trkpt>
      <trkpt lat="43.30575" lon="5.91022">
        <ele>770.15</ele>
        <time>2013-01-03T14:02:32Z</time>
      </trkpt>
      <trkpt lat="43.30578" lon="5.91026">
        <ele>769.19</ele>
        <time>2013-01-03T14:02:33Z</time>
      </trkpt>
      <trkpt lat="43.30582" lon="5.9103">
        <ele>768.71</ele>
        <time>2013-01-03T14:02:34Z</time>
      </trkpt>
      <trkpt lat="43.30586" lon="5.91035">
        <ele>767.75</ele>
        <time>2013-01-03T14:02:35Z</time>
      </trkpt>
      <trkpt lat="43.3059" lon="5.91039">
        <ele>767.75</ele>
        <time>2013-01-03T14:02:36Z</time>
      </trkpt>
      <trkpt lat="43.30594" lon="5.91046">
        <ele>766.31</ele>
        <time>2013-01-03T14:02:38Z</time>
      </trkpt>
      <trkpt lat="43.30595" lon="5.91049">
        <ele>765.83</ele>
        <time>2013-01-03T14:02:39Z</time>
      </trkpt>
      <trkpt lat="43.30596" lon="5.91052">
        <ele>765.35</ele>
        <time>2013-01-03T14:02:40Z</time>
      </trkpt>
      <trkpt lat="43.30597" lon="5.91057">
        <ele>764.87</ele>
        <time>2013-01-03T14:02:41Z</time>
      </trkpt>
      <trkpt lat="43.306" lon="5.91062">
        <ele>764.39</ele>
        <time>2013-01-03T14:02:42Z</time>
      </trkpt>
      <trkpt lat="43.30602" lon="5.91066">
        <ele>763.9</ele>
        <time>2013-01-03T14:02:43Z</time>
      </trkpt>
      <trkpt lat="43.30603" lon="5.91071">
        <ele>763.9</ele>
        <time>2013-01-03T14:02:44Z</time>
      </trkpt>
      <trkpt lat="43.30604" lon="5.91074">
        <ele>763.42</ele>
        <time>2013-01-03T14:02:45Z</time>
      </trkpt>
      <trkpt lat="43.30606" lon="5.91076">
        <ele>763.42</ele>
        <time>2013-01-03T14:02:46Z</time>
      </trkpt>
      <trkpt lat="43.30607" lon="5.91078">
        <ele>762.94</ele>
        <time>2013-01-03T14:02:47Z</time>
      </trkpt>
      <trkpt lat="43.30609" lon="5.91078">
        <ele>762.94</ele>
        <time>2013-01-03T14:02:48Z</time>
      </trkpt>
      <trkpt lat="43.3061" lon="5.91079">
        <ele>762.46</ele>
        <time>2013-01-03T14:02:49Z</time>
      </trkpt>
      <trkpt lat="43.30612" lon="5.91079">
        <ele>762.46</ele>
        <time>2013-01-03T14:02:50Z</time>
      </trkpt>
      <trkpt lat="43.30618" lon="5.91082">
        <ele>761.5</ele>
        <time>2013-01-03T14:03:01Z</time>
      </trkpt>
      <trkpt lat="43.30619" lon="5.91084">
        <ele>761.5</ele>
        <time>2013-01-03T14:03:02Z</time>
      </trkpt>
      <trkpt lat="43.30621" lon="5.91094">
        <ele>761.98</ele>
        <time>2013-01-03T14:03:10Z</time>
      </trkpt>
      <trkpt lat="43.3062" lon="5.91098">
        <ele>762.46</ele>
        <time>2013-01-03T14:03:13Z</time>
      </trkpt>
      <trkpt lat="43.3062" lon="5.91099">
        <ele>762.46</ele>
        <time>2013-01-03T14:03:14Z</time>
      </trkpt>
      <trkpt lat="43.3062" lon="5.911">
        <ele>762.94</ele>
        <time>2013-01-03T14:03:15Z</time>
      </trkpt>
      <trkpt lat="43.30613" lon="5.9111">
        <ele>765.35</ele>
        <time>2013-01-03T14:03:28Z</time>
      </trkpt>
      <trkpt lat="43.30604" lon="5.91118">
        <ele>766.79</ele>
        <time>2013-01-03T14:03:39Z</time>
      </trkpt>
      <trkpt lat="43.30598" lon="5.91126">
        <ele>768.23</ele>
        <time>2013-01-03T14:03:46Z</time>
      </trkpt>
      <trkpt lat="43.30592" lon="5.91128">
        <ele>769.19</ele>
        <time>2013-01-03T14:04:00Z</time>
      </trkpt>
      <trkpt lat="43.30589" lon="5.91131">
        <ele>770.15</ele>
        <time>2013-01-03T14:04:16Z</time>
      </trkpt>
      <trkpt lat="43.30577" lon="5.91133">
        <ele>772.56</ele>
        <time>2013-01-03T14:04:34Z</time>
      </trkpt>
      <trkpt lat="43.30564" lon="5.91135">
        <ele>775.44</ele>
        <time>2013-01-03T14:04:46Z</time>
      </trkpt>
      <trkpt lat="43.30557" lon="5.91136">
        <ele>777.36</ele>
        <time>2013-01-03T14:04:53Z</time>
      </trkpt>
      <trkpt lat="43.30553" lon="5.91138">
        <ele>778.32</ele>
        <time>2013-01-03T14:04:58Z</time>
      </trkpt>
      <trkpt lat="43.30548" lon="5.91144">
        <ele>779.29</ele>
        <time>2013-01-03T14:05:05Z</time>
      </trkpt>
      <trkpt lat="43.30548" lon="5.91145">
        <ele>779.29</ele>
        <time>2013-01-03T14:05:19Z</time>
      </trkpt>
      <trkpt lat="43.30543" lon="5.91152">
        <ele>780.73</ele>
        <time>2013-01-03T14:05:32Z</time>
      </trkpt>
      <trkpt lat="43.30532" lon="5.91164">
        <ele>782.65</ele>
        <time>2013-01-03T14:05:45Z</time>
      </trkpt>
      <trkpt lat="43.30531" lon="5.91164">
        <ele>783.13</ele>
        <time>2013-01-03T14:05:46Z</time>
      </trkpt>
      <trkpt lat="43.30524" lon="5.91181">
        <ele>785.05</ele>
        <time>2013-01-03T14:05:57Z</time>
      </trkpt>
      <trkpt lat="43.3052" lon="5.91191">
        <ele>786.02</ele>
        <time>2013-01-03T14:06:04Z</time>
      </trkpt>
      <trkpt lat="43.30519" lon="5.91192">
        <ele>786.02</ele>
        <time>2013-01-03T14:06:05Z</time>
      </trkpt>
      <trkpt lat="43.30518" lon="5.91194">
        <ele>786.5</ele>
        <time>2013-01-03T14:06:06Z</time>
      </trkpt>
      <trkpt lat="43.30514" lon="5.912">
        <ele>787.46</ele>
        <time>2013-01-03T14:06:17Z</time>
      </trkpt>
      <trkpt lat="43.30504" lon="5.91225">
        <ele>788.42</ele>
        <time>2013-01-03T14:06:28Z</time>
      </trkpt>
      <trkpt lat="43.30503" lon="5.91226">
        <ele>788.42</ele>
        <time>2013-01-03T14:06:29Z</time>
      </trkpt>
      <trkpt lat="43.30502" lon="5.91228">
        <ele>788.9</ele>
        <time>2013-01-03T14:06:30Z</time>
      </trkpt>
      <trkpt lat="43.30501" lon="5.91239">
        <ele>788.42</ele>
        <time>2013-01-03T14:06:42Z</time>
      </trkpt>
      <trkpt lat="43.30499" lon="5.91245">
        <ele>788.42</ele>
        <time>2013-01-03T14:07:01Z</time>
      </trkpt>
      <trkpt lat="43.30499" lon="5.91248">
        <ele>788.42</ele>
        <time>2013-01-03T14:07:02Z</time>
      </trkpt>
      <trkpt lat="43.30498" lon="5.91251">
        <ele>788.42</ele>
        <time>2013-01-03T14:07:03Z</time>
      </trkpt>
      <trkpt lat="43.30496" lon="5.91254">
        <ele>787.94</ele>
        <time>2013-01-03T14:07:04Z</time>
      </trkpt>
      <trkpt lat="43.30495" lon="5.91257">
        <ele>787.94</ele>
        <time>2013-01-03T14:07:05Z</time>
      </trkpt>
      <trkpt lat="43.30492" lon="5.91261">
        <ele>787.46</ele>
        <time>2013-01-03T14:07:14Z</time>
      </trkpt>
      <trkpt lat="43.30489" lon="5.91265">
        <ele>786.98</ele>
        <time>2013-01-03T14:07:24Z</time>
      </trkpt>
      <trkpt lat="43.30488" lon="5.91266">
        <ele>786.98</ele>
        <time>2013-01-03T14:07:25Z</time>
      </trkpt>
      <trkpt lat="43.30486" lon="5.91269">
        <ele>786.5</ele>
        <time>2013-01-03T14:07:26Z</time>
      </trkpt>
      <trkpt lat="43.30485" lon="5.91272">
        <ele>786.02</ele>
        <time>2013-01-03T14:07:27Z</time>
      </trkpt>
      <trkpt lat="43.30483" lon="5.91277">
        <ele>785.53</ele>
        <time>2013-01-03T14:07:28Z</time>
      </trkpt>
      <trkpt lat="43.30482" lon="5.91281">
        <ele>784.57</ele>
        <time>2013-01-03T14:07:29Z</time>
      </trkpt>
      <trkpt lat="43.30481" lon="5.91286">
        <ele>784.09</ele>
        <time>2013-01-03T14:07:30Z</time>
      </trkpt>
      <trkpt lat="43.3048" lon="5.91291">
        <ele>783.61</ele>
        <time>2013-01-03T14:07:31Z</time>
      </trkpt>
      <trkpt lat="43.30478" lon="5.91295">
        <ele>782.65</ele>
        <time>2013-01-03T14:07:32Z</time>
      </trkpt>
      <trkpt lat="43.30475" lon="5.91299">
        <ele>782.17</ele>
        <time>2013-01-03T14:07:33Z</time>
      </trkpt>
      <trkpt lat="43.30471" lon="5.91304">
        <ele>781.69</ele>
        <time>2013-01-03T14:07:34Z</time>
      </trkpt>
      <trkpt lat="43.30467" lon="5.91308">
        <ele>781.21</ele>
        <time>2013-01-03T14:07:35Z</time>
      </trkpt>
      <trkpt lat="43.30464" lon="5.91314">
        <ele>780.73</ele>
        <time>2013-01-03T14:07:36Z</time>
      </trkpt>
      <trkpt lat="43.30461" lon="5.91319">
        <ele>780.25</ele>
        <time>2013-01-03T14:07:37Z</time>
      </trkpt>
      <trkpt lat="43.30454" lon="5.9133">
        <ele>779.29</ele>
        <time>2013-01-03T14:07:39Z</time>
      </trkpt>
      <trkpt lat="43.30447" lon="5.91339">
        <ele>778.81</ele>
        <time>2013-01-03T14:07:41Z</time>
      </trkpt>
      <trkpt lat="43.30443" lon="5.91342">
        <ele>778.81</ele>
        <time>2013-01-03T14:07:42Z</time>
      </trkpt>
      <trkpt lat="43.3044" lon="5.91345">
        <ele>779.29</ele>
        <time>2013-01-03T14:07:43Z</time>
      </trkpt>
      <trkpt lat="43.30437" lon="5.91346">
        <ele>779.29</ele>
        <time>2013-01-03T14:07:44Z</time>
      </trkpt>
      <trkpt lat="43.30435" lon="5.91347">
        <ele>779.77</ele>
        <time>2013-01-03T14:07:45Z</time>
      </trkpt>
      <trkpt lat="43.30432" lon="5.91348">
        <ele>779.77</ele>
        <time>2013-01-03T14:07:46Z</time>
      </trkpt>
      <trkpt lat="43.3043" lon="5.91349">
        <ele>779.77</ele>
        <time>2013-01-03T14:07:47Z</time>
      </trkpt>
      <trkpt lat="43.30427" lon="5.91351">
        <ele>780.25</ele>
        <time>2013-01-03T14:07:56Z</time>
      </trkpt>
      <trkpt lat="43.30426" lon="5.91353">
        <ele>779.77</ele>
        <time>2013-01-03T14:07:57Z</time>
      </trkpt>
      <trkpt lat="43.30424" lon="5.91355">
        <ele>779.77</ele>
        <time>2013-01-03T14:07:58Z</time>
      </trkpt>
      <trkpt lat="43.30423" lon="5.91356">
        <ele>779.29</ele>
        <time>2013-01-03T14:07:59Z</time>
      </trkpt>
      <trkpt lat="43.30421" lon="5.91358">
        <ele>779.77</ele>
        <time>2013-01-03T14:08:00Z</time>
      </trkpt>
      <trkpt lat="43.30404" lon="5.91388">
        <ele>776.4</ele>
        <time>2013-01-03T14:08:08Z</time>
      </trkpt>
      <trkpt lat="43.30396" lon="5.91399">
        <ele>775.92</ele>
        <time>2013-01-03T14:08:10Z</time>
      </trkpt>
      <trkpt lat="43.30393" lon="5.91405">
        <ele>775.44</ele>
        <time>2013-01-03T14:08:11Z</time>
      </trkpt>
      <trkpt lat="43.30386" lon="5.91424">
        <ele>774.96</ele>
        <time>2013-01-03T14:08:14Z</time>
      </trkpt>
      <trkpt lat="43.30379" lon="5.91463">
        <ele>772.56</ele>
        <time>2013-01-03T14:08:19Z</time>
      </trkpt>
      <trkpt lat="43.30375" lon="5.91479">
        <ele>770.63</ele>
        <time>2013-01-03T14:08:21Z</time>
      </trkpt>
      <trkpt lat="43.3037" lon="5.91505">
        <ele>768.23</ele>
        <time>2013-01-03T14:08:24Z</time>
      </trkpt>
      <trkpt lat="43.30369" lon="5.91515">
        <ele>767.27</ele>
        <time>2013-01-03T14:08:25Z</time>
      </trkpt>
      <trkpt lat="43.30368" lon="5.91532">
        <ele>765.35</ele>
        <time>2013-01-03T14:08:27Z</time>
      </trkpt>
      <trkpt lat="43.30367" lon="5.9154">
        <ele>764.39</ele>
        <time>2013-01-03T14:08:28Z</time>
      </trkpt>
      <trkpt lat="43.3036" lon="5.91574">
        <ele>761.98</ele>
        <time>2013-01-03T14:08:32Z</time>
      </trkpt>
      <trkpt lat="43.30355" lon="5.91614">
        <ele>761.98</ele>
        <time>2013-01-03T14:08:38Z</time>
      </trkpt>
      <trkpt lat="43.30355" lon="5.9162">
        <ele>761.98</ele>
        <time>2013-01-03T14:08:39Z</time>
      </trkpt>
      <trkpt lat="43.30353" lon="5.91633">
        <ele>761.98</ele>
        <time>2013-01-03T14:08:41Z</time>
      </trkpt>
      <trkpt lat="43.30352" lon="5.91639">
        <ele>761.98</ele>
        <time>2013-01-03T14:08:42Z</time>
      </trkpt>
      <trkpt lat="43.3035" lon="5.91667">
        <ele>761.02</ele>
        <time>2013-01-03T14:08:46Z</time>
      </trkpt>
      <trkpt lat="43.30349" lon="5.91673">
        <ele>761.5</ele>
        <time>2013-01-03T14:08:47Z</time>
      </trkpt>
      <trkpt lat="43.30348" lon="5.91678">
        <ele>761.5</ele>
        <time>2013-01-03T14:08:48Z</time>
      </trkpt>
      <trkpt lat="43.30347" lon="5.91683">
        <ele>761.98</ele>
        <time>2013-01-03T14:08:49Z</time>
      </trkpt>
      <trkpt lat="43.30347" lon="5.91689">
        <ele>761.5</ele>
        <time>2013-01-03T14:08:50Z</time>
      </trkpt>
      <trkpt lat="43.30347" lon="5.91694">
        <ele>761.02</ele>
        <time>2013-01-03T14:08:51Z</time>
      </trkpt>
      <trkpt lat="43.30347" lon="5.917">
        <ele>761.02</ele>
        <time>2013-01-03T14:08:52Z</time>
      </trkpt>
      <trkpt lat="43.30347" lon="5.91706">
        <ele>760.54</ele>
        <time>2013-01-03T14:08:53Z</time>
      </trkpt>
      <trkpt lat="43.30349" lon="5.91763">
        <ele>758.62</ele>
        <time>2013-01-03T14:09:03Z</time>
      </trkpt>
      <trkpt lat="43.30349" lon="5.91769">
        <ele>758.62</ele>
        <time>2013-01-03T14:09:04Z</time>
      </trkpt>
      <trkpt lat="43.30349" lon="5.91776">
        <ele>758.62</ele>
        <time>2013-01-03T14:09:05Z</time>
      </trkpt>
      <trkpt lat="43.3035" lon="5.91783">
        <ele>757.66</ele>
        <time>2013-01-03T14:09:06Z</time>
      </trkpt>
      <trkpt lat="43.30351" lon="5.91798">
        <ele>757.18</ele>
        <time>2013-01-03T14:09:08Z</time>
      </trkpt>
      <trkpt lat="43.30354" lon="5.91823">
        <ele>753.81</ele>
        <time>2013-01-03T14:09:11Z</time>
      </trkpt>
      <trkpt lat="43.30354" lon="5.91833">
        <ele>753.33</ele>
        <time>2013-01-03T14:09:12Z</time>
      </trkpt>
      <trkpt lat="43.30358" lon="5.91862">
        <ele>750.45</ele>
        <time>2013-01-03T14:09:15Z</time>
      </trkpt>
      <trkpt lat="43.30359" lon="5.9187">
        <ele>749.97</ele>
        <time>2013-01-03T14:09:16Z</time>
      </trkpt>
      <trkpt lat="43.30358" lon="5.91908">
        <ele>746.12</ele>
        <time>2013-01-03T14:09:20Z</time>
      </trkpt>
      <trkpt lat="43.30354" lon="5.91936">
        <ele>743.24</ele>
        <time>2013-01-03T14:09:23Z</time>
      </trkpt>
      <trkpt lat="43.30351" lon="5.91943">
        <ele>742.76</ele>
        <time>2013-01-03T14:09:24Z</time>
      </trkpt>
      <trkpt lat="43.30349" lon="5.91947">
        <ele>742.28</ele>
        <time>2013-01-03T14:09:25Z</time>
      </trkpt>
      <trkpt lat="43.30347" lon="5.91949">
        <ele>742.28</ele>
        <time>2013-01-03T14:09:26Z</time>
      </trkpt>
      <trkpt lat="43.30344" lon="5.9195">
        <ele>742.76</ele>
        <time>2013-01-03T14:09:27Z</time>
      </trkpt>
      <trkpt lat="43.3033" lon="5.91956">
        <ele>744.68</ele>
        <time>2013-01-03T14:09:33Z</time>
      </trkpt>
      <trkpt lat="43.30328" lon="5.91956">
        <ele>744.68</ele>
        <time>2013-01-03T14:09:34Z</time>
      </trkpt>
      <trkpt lat="43.30325" lon="5.91957">
        <ele>745.16</ele>
        <time>2013-01-03T14:09:35Z</time>
      </trkpt>
      <trkpt lat="43.30323" lon="5.91957">
        <ele>745.16</ele>
        <time>2013-01-03T14:09:36Z</time>
      </trkpt>
      <trkpt lat="43.3032" lon="5.91958">
        <ele>745.64</ele>
        <time>2013-01-03T14:09:37Z</time>
      </trkpt>
      <trkpt lat="43.30318" lon="5.91959">
        <ele>745.64</ele>
        <time>2013-01-03T14:09:38Z</time>
      </trkpt>
      <trkpt lat="43.30315" lon="5.91959">
        <ele>746.12</ele>
        <time>2013-01-03T14:09:40Z</time>
      </trkpt>
      <trkpt lat="43.30314" lon="5.91958">
        <ele>746.6</ele>
        <time>2013-01-03T14:09:41Z</time>
      </trkpt>
      <trkpt lat="43.30312" lon="5.91957">
        <ele>747.08</ele>
        <time>2013-01-03T14:09:42Z</time>
      </trkpt>
      <trkpt lat="43.3031" lon="5.91957">
        <ele>747.08</ele>
        <time>2013-01-03T14:09:43Z</time>
      </trkpt>
      <trkpt lat="43.30306" lon="5.91958">
        <ele>747.56</ele>
        <time>2013-01-03T14:09:45Z</time>
      </trkpt>
      <trkpt lat="43.30305" lon="5.9196">
        <ele>747.56</ele>
        <time>2013-01-03T14:09:46Z</time>
      </trkpt>
      <trkpt lat="43.30303" lon="5.91962">
        <ele>747.56</ele>
        <time>2013-01-03T14:09:47Z</time>
      </trkpt>
      <trkpt lat="43.30301" lon="5.91965">
        <ele>747.08</ele>
        <time>2013-01-03T14:09:48Z</time>
      </trkpt>
      <trkpt lat="43.30299" lon="5.91968">
        <ele>747.08</ele>
        <time>2013-01-03T14:09:49Z</time>
      </trkpt>
      <trkpt lat="43.30296" lon="5.9197">
        <ele>746.6</ele>
        <time>2013-01-03T14:09:50Z</time>
      </trkpt>
      <trkpt lat="43.30265" lon="5.91997">
        <ele>746.12</ele>
        <time>2013-01-03T14:10:00Z</time>
      </trkpt>
      <trkpt lat="43.30245" lon="5.92018">
        <ele>743.24</ele>
        <time>2013-01-03T14:10:06Z</time>
      </trkpt>
      <trkpt lat="43.30232" lon="5.92031">
        <ele>741.31</ele>
        <time>2013-01-03T14:10:09Z</time>
      </trkpt>
      <trkpt lat="43.30215" lon="5.9205">
        <ele>738.91</ele>
        <time>2013-01-03T14:10:12Z</time>
      </trkpt>
      <trkpt lat="43.30208" lon="5.92054">
        <ele>738.43</ele>
        <time>2013-01-03T14:10:13Z</time>
      </trkpt>
      <trkpt lat="43.30201" lon="5.92058">
        <ele>737.95</ele>
        <time>2013-01-03T14:10:14Z</time>
      </trkpt>
      <trkpt lat="43.30193" lon="5.92061">
        <ele>736.99</ele>
        <time>2013-01-03T14:10:15Z</time>
      </trkpt>
      <trkpt lat="43.30186" lon="5.92062">
        <ele>736.51</ele>
        <time>2013-01-03T14:10:16Z</time>
      </trkpt>
      <trkpt lat="43.3018" lon="5.92063">
        <ele>736.51</ele>
        <time>2013-01-03T14:10:17Z</time>
      </trkpt>
      <trkpt lat="43.30174" lon="5.92062">
        <ele>736.99</ele>
        <time>2013-01-03T14:10:18Z</time>
      </trkpt>
      <trkpt lat="43.30169" lon="5.92062">
        <ele>737.47</ele>
        <time>2013-01-03T14:10:19Z</time>
      </trkpt>
      <trkpt lat="43.30164" lon="5.92062">
        <ele>737.47</ele>
        <time>2013-01-03T14:10:20Z</time>
      </trkpt>
      <trkpt lat="43.30159" lon="5.92063">
        <ele>737.95</ele>
        <time>2013-01-03T14:10:21Z</time>
      </trkpt>
      <trkpt lat="43.30155" lon="5.92064">
        <ele>737.47</ele>
        <time>2013-01-03T14:10:22Z</time>
      </trkpt>
      <trkpt lat="43.30151" lon="5.92067">
        <ele>737.95</ele>
        <time>2013-01-03T14:10:23Z</time>
      </trkpt>
      <trkpt lat="43.30146" lon="5.9207">
        <ele>738.43</ele>
        <time>2013-01-03T14:10:24Z</time>
      </trkpt>
      <trkpt lat="43.30129" lon="5.9208">
        <ele>739.87</ele>
        <time>2013-01-03T14:10:30Z</time>
      </trkpt>
      <trkpt lat="43.30127" lon="5.9208">
        <ele>739.87</ele>
        <time>2013-01-03T14:10:31Z</time>
      </trkpt>
      <trkpt lat="43.30124" lon="5.92082">
        <ele>740.35</ele>
        <time>2013-01-03T14:10:32Z</time>
      </trkpt>
      <trkpt lat="43.30121" lon="5.92083">
        <ele>740.83</ele>
        <time>2013-01-03T14:10:33Z</time>
      </trkpt>
      <trkpt lat="43.30117" lon="5.92084">
        <ele>741.31</ele>
        <time>2013-01-03T14:10:34Z</time>
      </trkpt>
      <trkpt lat="43.30114" lon="5.92084">
        <ele>741.79</ele>
        <time>2013-01-03T14:10:35Z</time>
      </trkpt>
      <trkpt lat="43.30111" lon="5.92085">
        <ele>742.28</ele>
        <time>2013-01-03T14:10:36Z</time>
      </trkpt>
      <trkpt lat="43.30107" lon="5.92087">
        <ele>742.76</ele>
        <time>2013-01-03T14:10:37Z</time>
      </trkpt>
      <trkpt lat="43.30104" lon="5.92088">
        <ele>742.76</ele>
        <time>2013-01-03T14:10:38Z</time>
      </trkpt>
      <trkpt lat="43.30078" lon="5.92095">
        <ele>745.64</ele>
        <time>2013-01-03T14:10:50Z</time>
      </trkpt>
      <trkpt lat="43.30073" lon="5.92097">
        <ele>746.6</ele>
        <time>2013-01-03T14:10:53Z</time>
      </trkpt>
      <trkpt lat="43.30071" lon="5.92096">
        <ele>746.12</ele>
        <time>2013-01-03T14:10:54Z</time>
      </trkpt>
      <trkpt lat="43.3007" lon="5.92097">
        <ele>746.6</ele>
        <time>2013-01-03T14:10:55Z</time>
      </trkpt>
      <trkpt lat="43.30068" lon="5.92097">
        <ele>746.6</ele>
        <time>2013-01-03T14:10:56Z</time>
      </trkpt>
      <trkpt lat="43.30066" lon="5.92097">
        <ele>747.08</ele>
        <time>2013-01-03T14:10:57Z</time>
      </trkpt>
      <trkpt lat="43.30056" lon="5.92096">
        <ele>747.56</ele>
        <time>2013-01-03T14:11:02Z</time>
      </trkpt>
      <trkpt lat="43.30054" lon="5.92096">
        <ele>747.56</ele>
        <time>2013-01-03T14:11:03Z</time>
      </trkpt>
      <trkpt lat="43.30052" lon="5.92097">
        <ele>747.56</ele>
        <time>2013-01-03T14:11:04Z</time>
      </trkpt>
      <trkpt lat="43.3003" lon="5.92107">
        <ele>747.08</ele>
        <time>2013-01-03T14:11:14Z</time>
      </trkpt>
      <trkpt lat="43.30028" lon="5.92107">
        <ele>747.08</ele>
        <time>2013-01-03T14:11:15Z</time>
      </trkpt>
      <trkpt lat="43.30025" lon="5.92107">
        <ele>747.08</ele>
        <time>2013-01-03T14:11:16Z</time>
      </trkpt>
      <trkpt lat="43.30024" lon="5.92107">
        <ele>747.08</ele>
        <time>2013-01-03T14:11:17Z</time>
      </trkpt>
      <trkpt lat="43.30022" lon="5.92106">
        <ele>747.08</ele>
        <time>2013-01-03T14:11:18Z</time>
      </trkpt>
      <trkpt lat="43.30019" lon="5.92105">
        <ele>746.6</ele>
        <time>2013-01-03T14:11:19Z</time>
      </trkpt>
      <trkpt lat="43.30016" lon="5.92104">
        <ele>746.12</ele>
        <time>2013-01-03T14:11:20Z</time>
      </trkpt>
      <trkpt lat="43.3001" lon="5.92103">
        <ele>745.64</ele>
        <time>2013-01-03T14:11:28Z</time>
      </trkpt>
      <trkpt lat="43.3001" lon="5.92103">
        <ele>745.64</ele>
        <time>2013-01-03T14:11:48Z</time>
      </trkpt>
      <trkpt lat="43.3001" lon="5.92102">
        <ele>745.16</ele>
        <time>2013-01-03T14:12:10Z</time>
      </trkpt>
      <trkpt lat="43.30011" lon="5.92105">
        <ele>745.64</ele>
        <time>2013-01-03T14:12:24Z</time>
      </trkpt>
      <trkpt lat="43.30011" lon="5.92105">
        <ele>745.16</ele>
        <time>2013-01-03T14:12:51Z</time>
      </trkpt>
      <trkpt lat="43.3001" lon="5.92104">
        <ele>745.16</ele>
        <time>2013-01-03T14:13:08Z</time>
      </trkpt>
      <trkpt lat="43.3001" lon="5.92104">
        <ele>745.16</ele>
        <time>2013-01-03T14:13:29Z</time>
      </trkpt>
      <trkpt lat="43.30009" lon="5.92103">
        <ele>745.16</ele>
        <time>2013-01-03T14:13:49Z</time>
      </trkpt>
      <trkpt lat="43.30007" lon="5.92101">
        <ele>745.16</ele>
        <time>2013-01-03T14:13:50Z</time>
      </trkpt>
      <trkpt lat="43.30007" lon="5.92099">
        <ele>744.68</ele>
        <time>2013-01-03T14:13:51Z</time>
      </trkpt>
      <trkpt lat="43.30006" lon="5.92096">
        <ele>744.68</ele>
        <time>2013-01-03T14:13:52Z</time>
      </trkpt>
      <trkpt lat="43.30006" lon="5.92091">
        <ele>744.2</ele>
        <time>2013-01-03T14:13:53Z</time>
      </trkpt>
      <trkpt lat="43.30005" lon="5.92086">
        <ele>743.72</ele>
        <time>2013-01-03T14:13:54Z</time>
      </trkpt>
      <trkpt lat="43.30005" lon="5.92082">
        <ele>743.72</ele>
        <time>2013-01-03T14:13:55Z</time>
      </trkpt>
      <trkpt lat="43.30005" lon="5.92077">
        <ele>743.24</ele>
        <time>2013-01-03T14:13:56Z</time>
      </trkpt>
      <trkpt lat="43.30005" lon="5.92073">
        <ele>743.24</ele>
        <time>2013-01-03T14:13:57Z</time>
      </trkpt>
      <trkpt lat="43.30004" lon="5.92068">
        <ele>743.24</ele>
        <time>2013-01-03T14:13:58Z</time>
      </trkpt>
      <trkpt lat="43.30004" lon="5.92064">
        <ele>743.24</ele>
        <time>2013-01-03T14:13:59Z</time>
      </trkpt>
      <trkpt lat="43.30003" lon="5.9206">
        <ele>742.76</ele>
        <time>2013-01-03T14:14:00Z</time>
      </trkpt>
      <trkpt lat="43.30003" lon="5.92056">
        <ele>743.24</ele>
        <time>2013-01-03T14:14:01Z</time>
      </trkpt>
      <trkpt lat="43.30003" lon="5.9203">
        <ele>744.2</ele>
        <time>2013-01-03T14:14:08Z</time>
      </trkpt>
      <trkpt lat="43.30002" lon="5.92027">
        <ele>744.2</ele>
        <time>2013-01-03T14:14:09Z</time>
      </trkpt>
      <trkpt lat="43.29994" lon="5.91975">
        <ele>742.28</ele>
        <time>2013-01-03T14:14:23Z</time>
      </trkpt>
      <trkpt lat="43.29981" lon="5.91931">
        <ele>740.83</ele>
        <time>2013-01-03T14:14:33Z</time>
      </trkpt>
      <trkpt lat="43.29959" lon="5.91895">
        <ele>741.31</ele>
        <time>2013-01-03T14:14:44Z</time>
      </trkpt>
      <trkpt lat="43.29943" lon="5.91863">
        <ele>743.72</ele>
        <time>2013-01-03T14:14:54Z</time>
      </trkpt>
      <trkpt lat="43.29911" lon="5.91843">
        <ele>744.2</ele>
        <time>2013-01-03T14:15:07Z</time>
      </trkpt>
      <trkpt lat="43.29879" lon="5.91842">
        <ele>743.72</ele>
        <time>2013-01-03T14:15:17Z</time>
      </trkpt>
      <trkpt lat="43.29865" lon="5.91842">
        <ele>744.68</ele>
        <time>2013-01-03T14:15:23Z</time>
      </trkpt>
      <trkpt lat="43.29861" lon="5.91842">
        <ele>744.68</ele>
        <time>2013-01-03T14:15:33Z</time>
      </trkpt>
      <trkpt lat="43.29861" lon="5.91842">
        <ele>744.68</ele>
        <time>2013-01-03T14:15:35Z</time>
      </trkpt>
      <trkpt lat="43.2986" lon="5.91843">
        <ele>744.68</ele>
        <time>2013-01-03T14:15:36Z</time>
      </trkpt>
      <trkpt lat="43.29857" lon="5.91845">
        <ele>744.2</ele>
        <time>2013-01-03T14:15:37Z</time>
      </trkpt>
      <trkpt lat="43.29854" lon="5.91846">
        <ele>744.2</ele>
        <time>2013-01-03T14:15:38Z</time>
      </trkpt>
      <trkpt lat="43.29851" lon="5.91847">
        <ele>744.2</ele>
        <time>2013-01-03T14:15:39Z</time>
      </trkpt>
      <trkpt lat="43.29848" lon="5.91847">
        <ele>743.72</ele>
        <time>2013-01-03T14:15:40Z</time>
      </trkpt>
      <trkpt lat="43.29816" lon="5.91873">
        <ele>741.79</ele>
        <time>2013-01-03T14:15:51Z</time>
      </trkpt>
      <trkpt lat="43.29812" lon="5.91876">
        <ele>741.31</ele>
        <time>2013-01-03T14:15:52Z</time>
      </trkpt>
      <trkpt lat="43.29809" lon="5.91879">
        <ele>741.31</ele>
        <time>2013-01-03T14:15:53Z</time>
      </trkpt>
      <trkpt lat="43.29805" lon="5.91882">
        <ele>741.79</ele>
        <time>2013-01-03T14:15:54Z</time>
      </trkpt>
      <trkpt lat="43.29801" lon="5.91885">
        <ele>741.31</ele>
        <time>2013-01-03T14:15:55Z</time>
      </trkpt>
      <trkpt lat="43.29798" lon="5.91888">
        <ele>741.31</ele>
        <time>2013-01-03T14:15:56Z</time>
      </trkpt>
      <trkpt lat="43.29794" lon="5.91891">
        <ele>741.31</ele>
        <time>2013-01-03T14:15:57Z</time>
      </trkpt>
      <trkpt lat="43.29791" lon="5.91894">
        <ele>741.31</ele>
        <time>2013-01-03T14:15:58Z</time>
      </trkpt>
      <trkpt lat="43.29788" lon="5.91896">
        <ele>741.79</ele>
        <time>2013-01-03T14:15:59Z</time>
      </trkpt>
      <trkpt lat="43.29785" lon="5.91898">
        <ele>741.31</ele>
        <time>2013-01-03T14:16:00Z</time>
      </trkpt>
      <trkpt lat="43.29781" lon="5.919">
        <ele>741.31</ele>
        <time>2013-01-03T14:16:01Z</time>
      </trkpt>
      <trkpt lat="43.29778" lon="5.91903">
        <ele>741.31</ele>
        <time>2013-01-03T14:16:02Z</time>
      </trkpt>
      <trkpt lat="43.2977" lon="5.9191">
        <ele>740.35</ele>
        <time>2013-01-03T14:16:04Z</time>
      </trkpt>
      <trkpt lat="43.29765" lon="5.91914">
        <ele>739.87</ele>
        <time>2013-01-03T14:16:05Z</time>
      </trkpt>
      <trkpt lat="43.29761" lon="5.91916">
        <ele>739.39</ele>
        <time>2013-01-03T14:16:06Z</time>
      </trkpt>
      <trkpt lat="43.29741" lon="5.91921">
        <ele>738.43</ele>
        <time>2013-01-03T14:16:13Z</time>
      </trkpt>
      <trkpt lat="43.29739" lon="5.91922">
        <ele>737.95</ele>
        <time>2013-01-03T14:16:14Z</time>
      </trkpt>
      <trkpt lat="43.29736" lon="5.91923">
        <ele>737.95</ele>
        <time>2013-01-03T14:16:15Z</time>
      </trkpt>
      <trkpt lat="43.29734" lon="5.91924">
        <ele>737.47</ele>
        <time>2013-01-03T14:16:16Z</time>
      </trkpt>
      <trkpt lat="43.29731" lon="5.91925">
        <ele>736.99</ele>
        <time>2013-01-03T14:16:17Z</time>
      </trkpt>
      <trkpt lat="43.29728" lon="5.91926">
        <ele>736.51</ele>
        <time>2013-01-03T14:16:18Z</time>
      </trkpt>
      <trkpt lat="43.29725" lon="5.91927">
        <ele>736.03</ele>
        <time>2013-01-03T14:16:19Z</time>
      </trkpt>
      <trkpt lat="43.29722" lon="5.91928">
        <ele>735.55</ele>
        <time>2013-01-03T14:16:20Z</time>
      </trkpt>
      <trkpt lat="43.29719" lon="5.91928">
        <ele>735.55</ele>
        <time>2013-01-03T14:16:21Z</time>
      </trkpt>
      <trkpt lat="43.29715" lon="5.91929">
        <ele>735.07</ele>
        <time>2013-01-03T14:16:22Z</time>
      </trkpt>
      <trkpt lat="43.29711" lon="5.9193">
        <ele>734.58</ele>
        <time>2013-01-03T14:16:23Z</time>
      </trkpt>
      <trkpt lat="43.29707" lon="5.91931">
        <ele>734.1</ele>
        <time>2013-01-03T14:16:24Z</time>
      </trkpt>
      <trkpt lat="43.29698" lon="5.91932">
        <ele>732.66</ele>
        <time>2013-01-03T14:16:26Z</time>
      </trkpt>
      <trkpt lat="43.29693" lon="5.91931">
        <ele>732.18</ele>
        <time>2013-01-03T14:16:27Z</time>
      </trkpt>
      <trkpt lat="43.29688" lon="5.9193">
        <ele>731.7</ele>
        <time>2013-01-03T14:16:28Z</time>
      </trkpt>
      <trkpt lat="43.29683" lon="5.91929">
        <ele>731.22</ele>
        <time>2013-01-03T14:16:29Z</time>
      </trkpt>
      <trkpt lat="43.29674" lon="5.91926">
        <ele>731.22</ele>
        <time>2013-01-03T14:16:31Z</time>
      </trkpt>
      <trkpt lat="43.29649" lon="5.91916">
        <ele>729.78</ele>
        <time>2013-01-03T14:16:37Z</time>
      </trkpt>
      <trkpt lat="43.29639" lon="5.91913">
        <ele>727.86</ele>
        <time>2013-01-03T14:16:39Z</time>
      </trkpt>
      <trkpt lat="43.29634" lon="5.91911">
        <ele>726.89</ele>
        <time>2013-01-03T14:16:40Z</time>
      </trkpt>
      <trkpt lat="43.29629" lon="5.91909">
        <ele>726.89</ele>
        <time>2013-01-03T14:16:41Z</time>
      </trkpt>
      <trkpt lat="43.29625" lon="5.91906">
        <ele>726.41</ele>
        <time>2013-01-03T14:16:42Z</time>
      </trkpt>
      <trkpt lat="43.29591" lon="5.91867">
        <ele>723.53</ele>
        <time>2013-01-03T14:16:53Z</time>
      </trkpt>
      <trkpt lat="43.29589" lon="5.9182">
        <ele>723.05</ele>
        <time>2013-01-03T14:17:04Z</time>
      </trkpt>
      <trkpt lat="43.29592" lon="5.91812">
        <ele>723.53</ele>
        <time>2013-01-03T14:17:21Z</time>
      </trkpt>
      <trkpt lat="43.29599" lon="5.91795">
        <ele>723.05</ele>
        <time>2013-01-03T14:17:28Z</time>
      </trkpt>
      <trkpt lat="43.296" lon="5.91793">
        <ele>723.05</ele>
        <time>2013-01-03T14:17:29Z</time>
      </trkpt>
      <trkpt lat="43.29615" lon="5.91762">
        <ele>724.01</ele>
        <time>2013-01-03T14:17:41Z</time>
      </trkpt>
      <trkpt lat="43.29616" lon="5.91759">
        <ele>724.01</ele>
        <time>2013-01-03T14:17:42Z</time>
      </trkpt>
      <trkpt lat="43.29633" lon="5.91733">
        <ele>725.93</ele>
        <time>2013-01-03T14:17:53Z</time>
      </trkpt>
      <trkpt lat="43.29636" lon="5.9173">
        <ele>725.93</ele>
        <time>2013-01-03T14:17:55Z</time>
      </trkpt>
      <trkpt lat="43.29637" lon="5.91728">
        <ele>725.93</ele>
        <time>2013-01-03T14:17:56Z</time>
      </trkpt>
      <trkpt lat="43.29639" lon="5.91726">
        <ele>726.41</ele>
        <time>2013-01-03T14:17:57Z</time>
      </trkpt>
      <trkpt lat="43.2964" lon="5.91724">
        <ele>726.41</ele>
        <time>2013-01-03T14:17:58Z</time>
      </trkpt>
      <trkpt lat="43.29642" lon="5.91722">
        <ele>726.41</ele>
        <time>2013-01-03T14:17:59Z</time>
      </trkpt>
      <trkpt lat="43.29643" lon="5.91719">
        <ele>726.41</ele>
        <time>2013-01-03T14:18:00Z</time>
      </trkpt>
      <trkpt lat="43.29662" lon="5.91688">
        <ele>727.37</ele>
        <time>2013-01-03T14:18:13Z</time>
      </trkpt>
      <trkpt lat="43.29682" lon="5.91656">
        <ele>728.34</ele>
        <time>2013-01-03T14:18:25Z</time>
      </trkpt>
      <trkpt lat="43.29683" lon="5.91654">
        <ele>728.34</ele>
        <time>2013-01-03T14:18:26Z</time>
      </trkpt>
      <trkpt lat="43.29684" lon="5.91651">
        <ele>728.34</ele>
        <time>2013-01-03T14:18:27Z</time>
      </trkpt>
      <trkpt lat="43.29685" lon="5.91648">
        <ele>728.34</ele>
        <time>2013-01-03T14:18:28Z</time>
      </trkpt>
      <trkpt lat="43.29687" lon="5.91645">
        <ele>728.82</ele>
        <time>2013-01-03T14:18:29Z</time>
      </trkpt>
      <trkpt lat="43.29687" lon="5.91643">
        <ele>728.82</ele>
        <time>2013-01-03T14:18:30Z</time>
      </trkpt>
      <trkpt lat="43.29688" lon="5.91641">
        <ele>728.82</ele>
        <time>2013-01-03T14:18:31Z</time>
      </trkpt>
      <trkpt lat="43.29689" lon="5.91638">
        <ele>728.82</ele>
        <time>2013-01-03T14:18:32Z</time>
      </trkpt>
      <trkpt lat="43.29689" lon="5.91635">
        <ele>729.3</ele>
        <time>2013-01-03T14:18:33Z</time>
      </trkpt>
      <trkpt lat="43.2969" lon="5.91632">
        <ele>729.3</ele>
        <time>2013-01-03T14:18:34Z</time>
      </trkpt>
      <trkpt lat="43.2969" lon="5.91628">
        <ele>729.3</ele>
        <time>2013-01-03T14:18:35Z</time>
      </trkpt>
      <trkpt lat="43.2969" lon="5.91625">
        <ele>729.3</ele>
        <time>2013-01-03T14:18:36Z</time>
      </trkpt>
      <trkpt lat="43.29691" lon="5.91622">
        <ele>729.3</ele>
        <time>2013-01-03T14:18:37Z</time>
      </trkpt>
      <trkpt lat="43.29691" lon="5.91618">
        <ele>729.3</ele>
        <time>2013-01-03T14:18:38Z</time>
      </trkpt>
      <trkpt lat="43.29694" lon="5.91568">
        <ele>730.74</ele>
        <time>2013-01-03T14:18:53Z</time>
      </trkpt>
      <trkpt lat="43.29697" lon="5.9152">
        <ele>733.14</ele>
        <time>2013-01-03T14:19:06Z</time>
      </trkpt>
      <trkpt lat="43.297" lon="5.91483">
        <ele>734.1</ele>
        <time>2013-01-03T14:19:17Z</time>
      </trkpt>
      <trkpt lat="43.29709" lon="5.91452">
        <ele>734.58</ele>
        <time>2013-01-03T14:19:31Z</time>
      </trkpt>
      <trkpt lat="43.29709" lon="5.91452">
        <ele>734.58</ele>
        <time>2013-01-03T14:19:49Z</time>
      </trkpt>
      <trkpt lat="43.29709" lon="5.9145">
        <ele>734.58</ele>
        <time>2013-01-03T14:19:50Z</time>
      </trkpt>
      <trkpt lat="43.2971" lon="5.91448">
        <ele>734.1</ele>
        <time>2013-01-03T14:19:51Z</time>
      </trkpt>
      <trkpt lat="43.29722" lon="5.91434">
        <ele>731.7</ele>
        <time>2013-01-03T14:19:57Z</time>
      </trkpt>
      <trkpt lat="43.29739" lon="5.91418">
        <ele>728.82</ele>
        <time>2013-01-03T14:20:05Z</time>
      </trkpt>
      <trkpt lat="43.29745" lon="5.91412">
        <ele>726.89</ele>
        <time>2013-01-03T14:20:09Z</time>
      </trkpt>
      <trkpt lat="43.29748" lon="5.91409">
        <ele>726.89</ele>
        <time>2013-01-03T14:20:18Z</time>
      </trkpt>
      <trkpt lat="43.29751" lon="5.91407">
        <ele>726.41</ele>
        <time>2013-01-03T14:20:20Z</time>
      </trkpt>
      <trkpt lat="43.29754" lon="5.91405">
        <ele>725.93</ele>
        <time>2013-01-03T14:20:21Z</time>
      </trkpt>
      <trkpt lat="43.2977" lon="5.91388">
        <ele>723.05</ele>
        <time>2013-01-03T14:20:26Z</time>
      </trkpt>
      <trkpt lat="43.29782" lon="5.91374">
        <ele>720.65</ele>
        <time>2013-01-03T14:20:31Z</time>
      </trkpt>
      <trkpt lat="43.29784" lon="5.91372">
        <ele>720.16</ele>
        <time>2013-01-03T14:20:32Z</time>
      </trkpt>
      <trkpt lat="43.29786" lon="5.91369">
        <ele>720.16</ele>
        <time>2013-01-03T14:20:33Z</time>
      </trkpt>
      <trkpt lat="43.29788" lon="5.91367">
        <ele>719.68</ele>
        <time>2013-01-03T14:20:34Z</time>
      </trkpt>
      <trkpt lat="43.29789" lon="5.91365">
        <ele>719.2</ele>
        <time>2013-01-03T14:20:35Z</time>
      </trkpt>
      <trkpt lat="43.29795" lon="5.91358">
        <ele>717.28</ele>
        <time>2013-01-03T14:20:45Z</time>
      </trkpt>
      <trkpt lat="43.29794" lon="5.91357">
        <ele>716.8</ele>
        <time>2013-01-03T14:20:46Z</time>
      </trkpt>
      <trkpt lat="43.2978" lon="5.91355">
        <ele>713.92</ele>
        <time>2013-01-03T14:20:55Z</time>
      </trkpt>
      <trkpt lat="43.29776" lon="5.91356">
        <ele>712.95</ele>
        <time>2013-01-03T14:20:57Z</time>
      </trkpt>
      <trkpt lat="43.29765" lon="5.91352">
        <ele>709.59</ele>
        <time>2013-01-03T14:21:03Z</time>
      </trkpt>
      <trkpt lat="43.29753" lon="5.91347">
        <ele>706.23</ele>
        <time>2013-01-03T14:21:07Z</time>
      </trkpt>
      <trkpt lat="43.29738" lon="5.91342">
        <ele>702.38</ele>
        <time>2013-01-03T14:21:12Z</time>
      </trkpt>
      <trkpt lat="43.29736" lon="5.9134">
        <ele>702.38</ele>
        <time>2013-01-03T14:21:13Z</time>
      </trkpt>
      <trkpt lat="43.2974" lon="5.91332">
        <ele>699.98</ele>
        <time>2013-01-03T14:21:18Z</time>
      </trkpt>
      <trkpt lat="43.29745" lon="5.9133">
        <ele>699.02</ele>
        <time>2013-01-03T14:21:20Z</time>
      </trkpt>
      <trkpt lat="43.29755" lon="5.9132">
        <ele>696.61</ele>
        <time>2013-01-03T14:21:24Z</time>
      </trkpt>
      <trkpt lat="43.2976" lon="5.91316">
        <ele>695.17</ele>
        <time>2013-01-03T14:21:26Z</time>
      </trkpt>
      <trkpt lat="43.29779" lon="5.91293">
        <ele>692.29</ele>
        <time>2013-01-03T14:21:34Z</time>
      </trkpt>
      <trkpt lat="43.29782" lon="5.91289">
        <ele>691.81</ele>
        <time>2013-01-03T14:21:35Z</time>
      </trkpt>
      <trkpt lat="43.29785" lon="5.91285">
        <ele>689.88</ele>
        <time>2013-01-03T14:21:36Z</time>
      </trkpt>
      <trkpt lat="43.29789" lon="5.91281">
        <ele>689.4</ele>
        <time>2013-01-03T14:21:37Z</time>
      </trkpt>
      <trkpt lat="43.29794" lon="5.91276">
        <ele>688.44</ele>
        <time>2013-01-03T14:21:38Z</time>
      </trkpt>
      <trkpt lat="43.29798" lon="5.91272">
        <ele>687.96</ele>
        <time>2013-01-03T14:21:39Z</time>
      </trkpt>
      <trkpt lat="43.29801" lon="5.91268">
        <ele>687.48</ele>
        <time>2013-01-03T14:21:40Z</time>
      </trkpt>
      <trkpt lat="43.29814" lon="5.91251">
        <ele>684.12</ele>
        <time>2013-01-03T14:21:44Z</time>
      </trkpt>
      <trkpt lat="43.29822" lon="5.91242">
        <ele>682.19</ele>
        <time>2013-01-03T14:21:47Z</time>
      </trkpt>
      <trkpt lat="43.29826" lon="5.9124">
        <ele>681.23</ele>
        <time>2013-01-03T14:21:48Z</time>
      </trkpt>
      <trkpt lat="43.2984" lon="5.91234">
        <ele>678.35</ele>
        <time>2013-01-03T14:21:52Z</time>
      </trkpt>
      <trkpt lat="43.29844" lon="5.91232">
        <ele>677.39</ele>
        <time>2013-01-03T14:21:53Z</time>
      </trkpt>
      <trkpt lat="43.29848" lon="5.9123">
        <ele>676.91</ele>
        <time>2013-01-03T14:21:54Z</time>
      </trkpt>
      <trkpt lat="43.29852" lon="5.91228">
        <ele>676.42</ele>
        <time>2013-01-03T14:21:55Z</time>
      </trkpt>
      <trkpt lat="43.29855" lon="5.91225">
        <ele>675.94</ele>
        <time>2013-01-03T14:21:56Z</time>
      </trkpt>
      <trkpt lat="43.29859" lon="5.91222">
        <ele>675.94</ele>
        <time>2013-01-03T14:21:57Z</time>
      </trkpt>
      <trkpt lat="43.29863" lon="5.91219">
        <ele>675.46</ele>
        <time>2013-01-03T14:21:58Z</time>
      </trkpt>
      <trkpt lat="43.29867" lon="5.91217">
        <ele>674.5</ele>
        <time>2013-01-03T14:21:59Z</time>
      </trkpt>
      <trkpt lat="43.2987" lon="5.91215">
        <ele>674.02</ele>
        <time>2013-01-03T14:22:00Z</time>
      </trkpt>
      <trkpt lat="43.29874" lon="5.91213">
        <ele>673.06</ele>
        <time>2013-01-03T14:22:01Z</time>
      </trkpt>
      <trkpt lat="43.29879" lon="5.9121">
        <ele>673.06</ele>
        <time>2013-01-03T14:22:02Z</time>
      </trkpt>
      <trkpt lat="43.29883" lon="5.91207">
        <ele>672.58</ele>
        <time>2013-01-03T14:22:03Z</time>
      </trkpt>
      <trkpt lat="43.29887" lon="5.91204">
        <ele>671.62</ele>
        <time>2013-01-03T14:22:04Z</time>
      </trkpt>
      <trkpt lat="43.29904" lon="5.91186">
        <ele>668.25</ele>
        <time>2013-01-03T14:22:09Z</time>
      </trkpt>
      <trkpt lat="43.2992" lon="5.91171">
        <ele>664.89</ele>
        <time>2013-01-03T14:22:14Z</time>
      </trkpt>
      <trkpt lat="43.29928" lon="5.91161">
        <ele>662.49</ele>
        <time>2013-01-03T14:22:17Z</time>
      </trkpt>
      <trkpt lat="43.29931" lon="5.91158">
        <ele>661.52</ele>
        <time>2013-01-03T14:22:18Z</time>
      </trkpt>
      <trkpt lat="43.29943" lon="5.91143">
        <ele>658.16</ele>
        <time>2013-01-03T14:22:22Z</time>
      </trkpt>
      <trkpt lat="43.29954" lon="5.91132">
        <ele>655.28</ele>
        <time>2013-01-03T14:22:26Z</time>
      </trkpt>
      <trkpt lat="43.29971" lon="5.9112">
        <ele>651.91</ele>
        <time>2013-01-03T14:22:33Z</time>
      </trkpt>
      <trkpt lat="43.29971" lon="5.91118">
        <ele>651.91</ele>
        <time>2013-01-03T14:22:34Z</time>
      </trkpt>
      <trkpt lat="43.2997" lon="5.91117">
        <ele>650.95</ele>
        <time>2013-01-03T14:22:35Z</time>
      </trkpt>
      <trkpt lat="43.29969" lon="5.91115">
        <ele>650.95</ele>
        <time>2013-01-03T14:22:36Z</time>
      </trkpt>
      <trkpt lat="43.29967" lon="5.91114">
        <ele>650.47</ele>
        <time>2013-01-03T14:22:37Z</time>
      </trkpt>
      <trkpt lat="43.29966" lon="5.91113">
        <ele>649.51</ele>
        <time>2013-01-03T14:22:38Z</time>
      </trkpt>
      <trkpt lat="43.29963" lon="5.91111">
        <ele>649.03</ele>
        <time>2013-01-03T14:22:39Z</time>
      </trkpt>
      <trkpt lat="43.29944" lon="5.91105">
        <ele>645.66</ele>
        <time>2013-01-03T14:22:45Z</time>
      </trkpt>
      <trkpt lat="43.29932" lon="5.91101">
        <ele>643.26</ele>
        <time>2013-01-03T14:22:49Z</time>
      </trkpt>
      <trkpt lat="43.29913" lon="5.911">
        <ele>640.38</ele>
        <time>2013-01-03T14:22:55Z</time>
      </trkpt>
      <trkpt lat="43.29909" lon="5.91102">
        <ele>639.89</ele>
        <time>2013-01-03T14:22:56Z</time>
      </trkpt>
      <trkpt lat="43.29899" lon="5.91104">
        <ele>638.93</ele>
        <time>2013-01-03T14:22:58Z</time>
      </trkpt>
      <trkpt lat="43.2989" lon="5.91106">
        <ele>637.97</ele>
        <time>2013-01-03T14:23:00Z</time>
      </trkpt>
      <trkpt lat="43.29886" lon="5.91108">
        <ele>638.45</ele>
        <time>2013-01-03T14:23:01Z</time>
      </trkpt>
      <trkpt lat="43.29882" lon="5.9111">
        <ele>638.45</ele>
        <time>2013-01-03T14:23:02Z</time>
      </trkpt>
      <trkpt lat="43.29878" lon="5.9111">
        <ele>637.97</ele>
        <time>2013-01-03T14:23:03Z</time>
      </trkpt>
      <trkpt lat="43.29874" lon="5.91111">
        <ele>637.97</ele>
        <time>2013-01-03T14:23:04Z</time>
      </trkpt>
      <trkpt lat="43.29827" lon="5.9112">
        <ele>635.57</ele>
        <time>2013-01-03T14:23:16Z</time>
      </trkpt>
      <trkpt lat="43.29775" lon="5.91128">
        <ele>632.68</ele>
        <time>2013-01-03T14:23:28Z</time>
      </trkpt>
      <trkpt lat="43.29769" lon="5.91127">
        <ele>632.68</ele>
        <time>2013-01-03T14:23:29Z</time>
      </trkpt>
      <trkpt lat="43.29759" lon="5.91125">
        <ele>631.72</ele>
        <time>2013-01-03T14:23:31Z</time>
      </trkpt>
      <trkpt lat="43.29754" lon="5.91124">
        <ele>631.24</ele>
        <time>2013-01-03T14:23:32Z</time>
      </trkpt>
      <trkpt lat="43.29744" lon="5.91121">
        <ele>629.8</ele>
        <time>2013-01-03T14:23:34Z</time>
      </trkpt>
      <trkpt lat="43.2974" lon="5.91123">
        <ele>629.8</ele>
        <time>2013-01-03T14:23:35Z</time>
      </trkpt>
      <trkpt lat="43.29738" lon="5.91125">
        <ele>629.32</ele>
        <time>2013-01-03T14:23:36Z</time>
      </trkpt>
      <trkpt lat="43.29736" lon="5.91127">
        <ele>629.32</ele>
        <time>2013-01-03T14:23:37Z</time>
      </trkpt>
      <trkpt lat="43.29734" lon="5.91128">
        <ele>629.32</ele>
        <time>2013-01-03T14:23:38Z</time>
      </trkpt>
      <trkpt lat="43.29731" lon="5.91129">
        <ele>628.84</ele>
        <time>2013-01-03T14:23:39Z</time>
      </trkpt>
      <trkpt lat="43.29722" lon="5.91131">
        <ele>626.44</ele>
        <time>2013-01-03T14:23:42Z</time>
      </trkpt>
      <trkpt lat="43.2972" lon="5.91131">
        <ele>626.44</ele>
        <time>2013-01-03T14:23:43Z</time>
      </trkpt>
      <trkpt lat="43.29715" lon="5.91135">
        <ele>624.99</ele>
        <time>2013-01-03T14:23:46Z</time>
      </trkpt>
      <trkpt lat="43.29712" lon="5.91135">
        <ele>624.51</ele>
        <time>2013-01-03T14:23:47Z</time>
      </trkpt>
      <trkpt lat="43.2971" lon="5.91136">
        <ele>624.03</ele>
        <time>2013-01-03T14:23:48Z</time>
      </trkpt>
      <trkpt lat="43.29708" lon="5.91136">
        <ele>623.55</ele>
        <time>2013-01-03T14:23:49Z</time>
      </trkpt>
      <trkpt lat="43.29706" lon="5.91136">
        <ele>623.07</ele>
        <time>2013-01-03T14:23:50Z</time>
      </trkpt>
      <trkpt lat="43.29704" lon="5.91136">
        <ele>623.07</ele>
        <time>2013-01-03T14:23:51Z</time>
      </trkpt>
      <trkpt lat="43.29701" lon="5.91135">
        <ele>622.59</ele>
        <time>2013-01-03T14:23:52Z</time>
      </trkpt>
      <trkpt lat="43.29697" lon="5.91134">
        <ele>621.63</ele>
        <time>2013-01-03T14:23:54Z</time>
      </trkpt>
      <trkpt lat="43.29691" lon="5.91132">
        <ele>619.71</ele>
        <time>2013-01-03T14:23:58Z</time>
      </trkpt>
      <trkpt lat="43.29686" lon="5.91128">
        <ele>617.78</ele>
        <time>2013-01-03T14:24:02Z</time>
      </trkpt>
      <trkpt lat="43.29681" lon="5.91128">
        <ele>614.9</ele>
        <time>2013-01-03T14:24:10Z</time>
      </trkpt>
      <trkpt lat="43.2968" lon="5.91127">
        <ele>614.42</ele>
        <time>2013-01-03T14:24:12Z</time>
      </trkpt>
      <trkpt lat="43.29673" lon="5.91126">
        <ele>612.5</ele>
        <time>2013-01-03T14:24:20Z</time>
      </trkpt>
      <trkpt lat="43.29671" lon="5.91125">
        <ele>612.5</ele>
        <time>2013-01-03T14:24:21Z</time>
      </trkpt>
      <trkpt lat="43.2967" lon="5.91124">
        <ele>612.5</ele>
        <time>2013-01-03T14:24:22Z</time>
      </trkpt>
      <trkpt lat="43.29668" lon="5.91124">
        <ele>611.54</ele>
        <time>2013-01-03T14:24:23Z</time>
      </trkpt>
      <trkpt lat="43.29666" lon="5.91123">
        <ele>610.57</ele>
        <time>2013-01-03T14:24:24Z</time>
      </trkpt>
      <trkpt lat="43.29664" lon="5.91123">
        <ele>610.09</ele>
        <time>2013-01-03T14:24:25Z</time>
      </trkpt>
      <trkpt lat="43.29656" lon="5.91121">
        <ele>608.17</ele>
        <time>2013-01-03T14:24:29Z</time>
      </trkpt>
      <trkpt lat="43.29655" lon="5.9112">
        <ele>607.69</ele>
        <time>2013-01-03T14:24:30Z</time>
      </trkpt>
      <trkpt lat="43.2965" lon="5.91118">
        <ele>606.25</ele>
        <time>2013-01-03T14:24:33Z</time>
      </trkpt>
      <trkpt lat="43.29645" lon="5.91117">
        <ele>605.29</ele>
        <time>2013-01-03T14:24:39Z</time>
      </trkpt>
      <trkpt lat="43.29643" lon="5.91117">
        <ele>605.29</ele>
        <time>2013-01-03T14:24:40Z</time>
      </trkpt>
      <trkpt lat="43.29641" lon="5.91118">
        <ele>604.81</ele>
        <time>2013-01-03T14:24:41Z</time>
      </trkpt>
      <trkpt lat="43.29639" lon="5.91119">
        <ele>604.81</ele>
        <time>2013-01-03T14:24:42Z</time>
      </trkpt>
      <trkpt lat="43.29637" lon="5.91121">
        <ele>604.81</ele>
        <time>2013-01-03T14:24:43Z</time>
      </trkpt>
      <trkpt lat="43.29635" lon="5.91123">
        <ele>604.33</ele>
        <time>2013-01-03T14:24:44Z</time>
      </trkpt>
      <trkpt lat="43.29634" lon="5.91125">
        <ele>604.33</ele>
        <time>2013-01-03T14:24:45Z</time>
      </trkpt>
      <trkpt lat="43.29632" lon="5.91127">
        <ele>604.81</ele>
        <time>2013-01-03T14:24:46Z</time>
      </trkpt>
      <trkpt lat="43.29628" lon="5.91131">
        <ele>604.81</ele>
        <time>2013-01-03T14:24:57Z</time>
      </trkpt>
      <trkpt lat="43.29621" lon="5.91142">
        <ele>604.81</ele>
        <time>2013-01-03T14:25:09Z</time>
      </trkpt>
      <trkpt lat="43.29615" lon="5.91148">
        <ele>604.81</ele>
        <time>2013-01-03T14:25:13Z</time>
      </trkpt>
      <trkpt lat="43.29612" lon="5.91149">
        <ele>604.81</ele>
        <time>2013-01-03T14:25:14Z</time>
      </trkpt>
      <trkpt lat="43.29593" lon="5.91152">
        <ele>604.33</ele>
        <time>2013-01-03T14:25:22Z</time>
      </trkpt>
      <trkpt lat="43.29582" lon="5.91147">
        <ele>603.85</ele>
        <time>2013-01-03T14:25:25Z</time>
      </trkpt>
      <trkpt lat="43.29579" lon="5.91144">
        <ele>603.36</ele>
        <time>2013-01-03T14:25:26Z</time>
      </trkpt>
      <trkpt lat="43.29566" lon="5.91136">
        <ele>604.33</ele>
        <time>2013-01-03T14:25:31Z</time>
      </trkpt>
      <trkpt lat="43.29564" lon="5.91136">
        <ele>604.33</ele>
        <time>2013-01-03T14:25:32Z</time>
      </trkpt>
      <trkpt lat="43.29561" lon="5.91136">
        <ele>604.33</ele>
        <time>2013-01-03T14:25:33Z</time>
      </trkpt>
      <trkpt lat="43.29559" lon="5.91137">
        <ele>604.33</ele>
        <time>2013-01-03T14:25:34Z</time>
      </trkpt>
      <trkpt lat="43.29556" lon="5.91138">
        <ele>604.81</ele>
        <time>2013-01-03T14:25:35Z</time>
      </trkpt>
      <trkpt lat="43.29554" lon="5.91139">
        <ele>604.81</ele>
        <time>2013-01-03T14:25:36Z</time>
      </trkpt>
      <trkpt lat="43.29552" lon="5.9114">
        <ele>604.81</ele>
        <time>2013-01-03T14:25:37Z</time>
      </trkpt>
      <trkpt lat="43.29549" lon="5.91141">
        <ele>604.81</ele>
        <time>2013-01-03T14:25:38Z</time>
      </trkpt>
      <trkpt lat="43.29547" lon="5.91141">
        <ele>604.81</ele>
        <time>2013-01-03T14:25:39Z</time>
      </trkpt>
      <trkpt lat="43.29513" lon="5.9115">
        <ele>603.85</ele>
        <time>2013-01-03T14:25:50Z</time>
      </trkpt>
      <trkpt lat="43.29483" lon="5.91159">
        <ele>600.48</ele>
        <time>2013-01-03T14:25:58Z</time>
      </trkpt>
      <trkpt lat="43.29463" lon="5.91165">
        <ele>597.6</ele>
        <time>2013-01-03T14:26:02Z</time>
      </trkpt>
      <trkpt lat="43.29458" lon="5.91167">
        <ele>597.6</ele>
        <time>2013-01-03T14:26:03Z</time>
      </trkpt>
      <trkpt lat="43.29429" lon="5.91189">
        <ele>599.52</ele>
        <time>2013-01-03T14:26:13Z</time>
      </trkpt>
      <trkpt lat="43.29392" lon="5.91225">
        <ele>599.52</ele>
        <time>2013-01-03T14:26:26Z</time>
      </trkpt>
      <trkpt lat="43.29365" lon="5.91254">
        <ele>598.08</ele>
        <time>2013-01-03T14:26:35Z</time>
      </trkpt>
      <trkpt lat="43.29361" lon="5.91258">
        <ele>597.6</ele>
        <time>2013-01-03T14:26:36Z</time>
      </trkpt>
      <trkpt lat="43.29357" lon="5.91262">
        <ele>597.12</ele>
        <time>2013-01-03T14:26:37Z</time>
      </trkpt>
      <trkpt lat="43.29353" lon="5.91264">
        <ele>597.6</ele>
        <time>2013-01-03T14:26:38Z</time>
      </trkpt>
      <trkpt lat="43.29349" lon="5.91266">
        <ele>597.12</ele>
        <time>2013-01-03T14:26:39Z</time>
      </trkpt>
      <trkpt lat="43.29345" lon="5.91269">
        <ele>597.6</ele>
        <time>2013-01-03T14:26:40Z</time>
      </trkpt>
      <trkpt lat="43.29343" lon="5.91272">
        <ele>598.08</ele>
        <time>2013-01-03T14:26:41Z</time>
      </trkpt>
      <trkpt lat="43.2934" lon="5.91276">
        <ele>598.56</ele>
        <time>2013-01-03T14:26:42Z</time>
      </trkpt>
      <trkpt lat="43.29338" lon="5.9128">
        <ele>599.04</ele>
        <time>2013-01-03T14:26:43Z</time>
      </trkpt>
      <trkpt lat="43.29335" lon="5.91284">
        <ele>599.04</ele>
        <time>2013-01-03T14:26:44Z</time>
      </trkpt>
      <trkpt lat="43.29333" lon="5.91287">
        <ele>599.04</ele>
        <time>2013-01-03T14:26:45Z</time>
      </trkpt>
      <trkpt lat="43.2933" lon="5.9129">
        <ele>599.04</ele>
        <time>2013-01-03T14:26:46Z</time>
      </trkpt>
      <trkpt lat="43.29318" lon="5.91326">
        <ele>600.48</ele>
        <time>2013-01-03T14:26:55Z</time>
      </trkpt>
      <trkpt lat="43.29312" lon="5.9135">
        <ele>602.4</ele>
        <time>2013-01-03T14:27:01Z</time>
      </trkpt>
      <trkpt lat="43.29304" lon="5.91364">
        <ele>601.92</ele>
        <time>2013-01-03T14:27:10Z</time>
      </trkpt>
      <trkpt lat="43.29304" lon="5.91364">
        <ele>601.92</ele>
        <time>2013-01-03T14:27:31Z</time>
      </trkpt>
      <trkpt lat="43.29304" lon="5.91365">
        <ele>601.92</ele>
        <time>2013-01-03T14:28:02Z</time>
      </trkpt>
      <trkpt lat="43.29304" lon="5.91365">
        <ele>601.92</ele>
        <time>2013-01-03T14:28:30Z</time>
      </trkpt>
      <trkpt lat="43.29304" lon="5.91365">
        <ele>601.92</ele>
        <time>2013-01-03T14:28:40Z</time>
      </trkpt>
      <trkpt lat="43.29301" lon="5.91372">
        <ele>601.44</ele>
        <time>2013-01-03T14:28:43Z</time>
      </trkpt>
      <trkpt lat="43.293" lon="5.91375">
        <ele>600.96</ele>
        <time>2013-01-03T14:28:44Z</time>
      </trkpt>
      <trkpt lat="43.29299" lon="5.91392">
        <ele>600</ele>
        <time>2013-01-03T14:28:55Z</time>
      </trkpt>
      <trkpt lat="43.29298" lon="5.91394">
        <ele>600</ele>
        <time>2013-01-03T14:29:06Z</time>
      </trkpt>
      <trkpt lat="43.29298" lon="5.91395">
        <ele>600</ele>
        <time>2013-01-03T14:29:23Z</time>
      </trkpt>
      <trkpt lat="43.293" lon="5.914">
        <ele>600</ele>
        <time>2013-01-03T14:29:35Z</time>
      </trkpt>
      <trkpt lat="43.293" lon="5.914">
        <ele>600</ele>
        <time>2013-01-03T14:30:08Z</time>
      </trkpt>
      <trkpt lat="43.29299" lon="5.91401">
        <ele>600</ele>
        <time>2013-01-03T14:30:24Z</time>
      </trkpt>
      <trkpt lat="43.29299" lon="5.91402">
        <ele>600</ele>
        <time>2013-01-03T14:30:25Z</time>
      </trkpt>
      <trkpt lat="43.29299" lon="5.91405">
        <ele>599.52</ele>
        <time>2013-01-03T14:30:26Z</time>
      </trkpt>
      <trkpt lat="43.293" lon="5.91407">
        <ele>599.52</ele>
        <time>2013-01-03T14:30:27Z</time>
      </trkpt>
      <trkpt lat="43.293" lon="5.9141">
        <ele>599.04</ele>
        <time>2013-01-03T14:30:28Z</time>
      </trkpt>
      <trkpt lat="43.29301" lon="5.91414">
        <ele>599.04</ele>
        <time>2013-01-03T14:30:29Z</time>
      </trkpt>
      <trkpt lat="43.29302" lon="5.91418">
        <ele>598.56</ele>
        <time>2013-01-03T14:30:30Z</time>
      </trkpt>
      <trkpt lat="43.29325" lon="5.91438">
        <ele>597.12</ele>
        <time>2013-01-03T14:30:39Z</time>
      </trkpt>
      <trkpt lat="43.29349" lon="5.91459">
        <ele>596.64</ele>
        <time>2013-01-03T14:30:50Z</time>
      </trkpt>
      <trkpt lat="43.29358" lon="5.91469">
        <ele>595.67</ele>
        <time>2013-01-03T14:30:54Z</time>
      </trkpt>
      <trkpt lat="43.2936" lon="5.91473">
        <ele>595.19</ele>
        <time>2013-01-03T14:30:55Z</time>
      </trkpt>
      <trkpt lat="43.29377" lon="5.91515">
        <ele>592.31</ele>
        <time>2013-01-03T14:31:05Z</time>
      </trkpt>
      <trkpt lat="43.2938" lon="5.91518">
        <ele>591.83</ele>
        <time>2013-01-03T14:31:06Z</time>
      </trkpt>
      <trkpt lat="43.29398" lon="5.91551">
        <ele>588.46</ele>
        <time>2013-01-03T14:31:15Z</time>
      </trkpt>
      <trkpt lat="43.29399" lon="5.91562">
        <ele>587.02</ele>
        <time>2013-01-03T14:31:17Z</time>
      </trkpt>
      <trkpt lat="43.294" lon="5.91568">
        <ele>586.54</ele>
        <time>2013-01-03T14:31:18Z</time>
      </trkpt>
      <trkpt lat="43.29402" lon="5.9158">
        <ele>585.1</ele>
        <time>2013-01-03T14:31:20Z</time>
      </trkpt>
      <trkpt lat="43.29401" lon="5.91597">
        <ele>583.66</ele>
        <time>2013-01-03T14:31:24Z</time>
      </trkpt>
      <trkpt lat="43.29399" lon="5.91602">
        <ele>583.18</ele>
        <time>2013-01-03T14:31:25Z</time>
      </trkpt>
      <trkpt lat="43.29398" lon="5.91607">
        <ele>582.7</ele>
        <time>2013-01-03T14:31:26Z</time>
      </trkpt>
      <trkpt lat="43.29396" lon="5.91613">
        <ele>582.7</ele>
        <time>2013-01-03T14:31:27Z</time>
      </trkpt>
      <trkpt lat="43.29395" lon="5.91618">
        <ele>582.7</ele>
        <time>2013-01-03T14:31:28Z</time>
      </trkpt>
      <trkpt lat="43.29395" lon="5.91623">
        <ele>582.7</ele>
        <time>2013-01-03T14:31:29Z</time>
      </trkpt>
      <trkpt lat="43.29394" lon="5.91629">
        <ele>582.22</ele>
        <time>2013-01-03T14:31:30Z</time>
      </trkpt>
      <trkpt lat="43.29393" lon="5.91634">
        <ele>581.73</ele>
        <time>2013-01-03T14:31:31Z</time>
      </trkpt>
      <trkpt lat="43.29391" lon="5.91639">
        <ele>581.25</ele>
        <time>2013-01-03T14:31:32Z</time>
      </trkpt>
      <trkpt lat="43.29388" lon="5.91644">
        <ele>579.81</ele>
        <time>2013-01-03T14:31:33Z</time>
      </trkpt>
      <trkpt lat="43.29385" lon="5.91648">
        <ele>579.33</ele>
        <time>2013-01-03T14:31:34Z</time>
      </trkpt>
      <trkpt lat="43.29381" lon="5.91653">
        <ele>578.85</ele>
        <time>2013-01-03T14:31:35Z</time>
      </trkpt>
      <trkpt lat="43.29363" lon="5.91677">
        <ele>575.49</ele>
        <time>2013-01-03T14:31:40Z</time>
      </trkpt>
      <trkpt lat="43.29352" lon="5.91693">
        <ele>573.56</ele>
        <time>2013-01-03T14:31:43Z</time>
      </trkpt>
      <trkpt lat="43.29346" lon="5.91705">
        <ele>572.12</ele>
        <time>2013-01-03T14:31:45Z</time>
      </trkpt>
      <trkpt lat="43.29342" lon="5.91711">
        <ele>571.16</ele>
        <time>2013-01-03T14:31:46Z</time>
      </trkpt>
      <trkpt lat="43.29334" lon="5.91721">
        <ele>570.2</ele>
        <time>2013-01-03T14:31:48Z</time>
      </trkpt>
      <trkpt lat="43.29307" lon="5.91752">
        <ele>567.32</ele>
        <time>2013-01-03T14:31:56Z</time>
      </trkpt>
      <trkpt lat="43.29301" lon="5.9176">
        <ele>564.91</ele>
        <time>2013-01-03T14:31:58Z</time>
      </trkpt>
      <trkpt lat="43.29298" lon="5.91765">
        <ele>563.95</ele>
        <time>2013-01-03T14:31:59Z</time>
      </trkpt>
      <trkpt lat="43.29295" lon="5.91768">
        <ele>563.47</ele>
        <time>2013-01-03T14:32:00Z</time>
      </trkpt>
      <trkpt lat="43.29292" lon="5.91772">
        <ele>562.99</ele>
        <time>2013-01-03T14:32:01Z</time>
      </trkpt>
      <trkpt lat="43.2929" lon="5.91776">
        <ele>562.03</ele>
        <time>2013-01-03T14:32:02Z</time>
      </trkpt>
      <trkpt lat="43.29279" lon="5.91796">
        <ele>558.66</ele>
        <time>2013-01-03T14:32:07Z</time>
      </trkpt>
      <trkpt lat="43.29266" lon="5.9182">
        <ele>554.82</ele>
        <time>2013-01-03T14:32:12Z</time>
      </trkpt>
      <trkpt lat="43.29262" lon="5.91826">
        <ele>553.86</ele>
        <time>2013-01-03T14:32:13Z</time>
      </trkpt>
      <trkpt lat="43.2925" lon="5.91853">
        <ele>550.49</ele>
        <time>2013-01-03T14:32:17Z</time>
      </trkpt>
      <trkpt lat="43.29247" lon="5.91861">
        <ele>549.53</ele>
        <time>2013-01-03T14:32:18Z</time>
      </trkpt>
      <trkpt lat="43.29243" lon="5.91874">
        <ele>548.57</ele>
        <time>2013-01-03T14:32:20Z</time>
      </trkpt>
      <trkpt lat="43.2924" lon="5.91878">
        <ele>548.57</ele>
        <time>2013-01-03T14:32:21Z</time>
      </trkpt>
      <trkpt lat="43.29238" lon="5.91882">
        <ele>548.57</ele>
        <time>2013-01-03T14:32:22Z</time>
      </trkpt>
      <trkpt lat="43.29235" lon="5.91884">
        <ele>548.57</ele>
        <time>2013-01-03T14:32:23Z</time>
      </trkpt>
      <trkpt lat="43.29232" lon="5.91886">
        <ele>547.13</ele>
        <time>2013-01-03T14:32:24Z</time>
      </trkpt>
      <trkpt lat="43.29229" lon="5.91887">
        <ele>545.69</ele>
        <time>2013-01-03T14:32:25Z</time>
      </trkpt>
      <trkpt lat="43.29225" lon="5.91889">
        <ele>545.2</ele>
        <time>2013-01-03T14:32:26Z</time>
      </trkpt>
      <trkpt lat="43.29222" lon="5.91892">
        <ele>544.24</ele>
        <time>2013-01-03T14:32:27Z</time>
      </trkpt>
      <trkpt lat="43.29219" lon="5.91894">
        <ele>543.76</ele>
        <time>2013-01-03T14:32:28Z</time>
      </trkpt>
      <trkpt lat="43.29215" lon="5.91896">
        <ele>543.28</ele>
        <time>2013-01-03T14:32:29Z</time>
      </trkpt>
      <trkpt lat="43.29211" lon="5.91899">
        <ele>542.32</ele>
        <time>2013-01-03T14:32:30Z</time>
      </trkpt>
      <trkpt lat="43.29201" lon="5.91904">
        <ele>540.88</ele>
        <time>2013-01-03T14:32:34Z</time>
      </trkpt>
      <trkpt lat="43.29201" lon="5.91905">
        <ele>540.4</ele>
        <time>2013-01-03T14:32:38Z</time>
      </trkpt>
      <trkpt lat="43.29199" lon="5.91906">
        <ele>540.4</ele>
        <time>2013-01-03T14:32:39Z</time>
      </trkpt>
      <trkpt lat="43.29196" lon="5.91908">
        <ele>539.92</ele>
        <time>2013-01-03T14:32:40Z</time>
      </trkpt>
      <trkpt lat="43.29194" lon="5.91911">
        <ele>539.44</ele>
        <time>2013-01-03T14:32:41Z</time>
      </trkpt>
      <trkpt lat="43.29193" lon="5.91912">
        <ele>538.96</ele>
        <time>2013-01-03T14:32:42Z</time>
      </trkpt>
      <trkpt lat="43.29194" lon="5.91912">
        <ele>538.96</ele>
        <time>2013-01-03T14:32:59Z</time>
      </trkpt>
      <trkpt lat="43.29194" lon="5.91912">
        <ele>538.96</ele>
        <time>2013-01-03T14:33:22Z</time>
      </trkpt>
      <trkpt lat="43.29193" lon="5.91912">
        <ele>538.96</ele>
        <time>2013-01-03T14:33:44Z</time>
      </trkpt>
      <trkpt lat="43.29175" lon="5.91924">
        <ele>535.59</ele>
        <time>2013-01-03T14:33:54Z</time>
      </trkpt>
      <trkpt lat="43.29166" lon="5.91933">
        <ele>533.67</ele>
        <time>2013-01-03T14:33:57Z</time>
      </trkpt>
      <trkpt lat="43.2916" lon="5.91942">
        <ele>531.75</ele>
        <time>2013-01-03T14:33:59Z</time>
      </trkpt>
      <trkpt lat="43.29157" lon="5.91946">
        <ele>531.27</ele>
        <time>2013-01-03T14:34:00Z</time>
      </trkpt>
      <trkpt lat="43.29154" lon="5.91948">
        <ele>531.27</ele>
        <time>2013-01-03T14:34:01Z</time>
      </trkpt>
      <trkpt lat="43.29151" lon="5.9195">
        <ele>530.79</ele>
        <time>2013-01-03T14:34:02Z</time>
      </trkpt>
      <trkpt lat="43.29146" lon="5.91952">
        <ele>530.3</ele>
        <time>2013-01-03T14:34:03Z</time>
      </trkpt>
      <trkpt lat="43.29143" lon="5.91955">
        <ele>529.82</ele>
        <time>2013-01-03T14:34:04Z</time>
      </trkpt>
      <trkpt lat="43.29139" lon="5.9196">
        <ele>529.34</ele>
        <time>2013-01-03T14:34:05Z</time>
      </trkpt>
      <trkpt lat="43.29137" lon="5.91964">
        <ele>528.38</ele>
        <time>2013-01-03T14:34:06Z</time>
      </trkpt>
      <trkpt lat="43.29126" lon="5.91992">
        <ele>525.02</ele>
        <time>2013-01-03T14:34:14Z</time>
      </trkpt>
      <trkpt lat="43.29119" lon="5.92015">
        <ele>521.65</ele>
        <time>2013-01-03T14:34:19Z</time>
      </trkpt>
      <trkpt lat="43.29119" lon="5.92018">
        <ele>521.17</ele>
        <time>2013-01-03T14:34:20Z</time>
      </trkpt>
      <trkpt lat="43.29119" lon="5.92022">
        <ele>520.21</ele>
        <time>2013-01-03T14:34:21Z</time>
      </trkpt>
      <trkpt lat="43.29119" lon="5.92027">
        <ele>519.73</ele>
        <time>2013-01-03T14:34:22Z</time>
      </trkpt>
      <trkpt lat="43.29119" lon="5.92031">
        <ele>519.73</ele>
        <time>2013-01-03T14:34:23Z</time>
      </trkpt>
      <trkpt lat="43.2912" lon="5.92036">
        <ele>518.77</ele>
        <time>2013-01-03T14:34:24Z</time>
      </trkpt>
      <trkpt lat="43.29121" lon="5.92039">
        <ele>517.81</ele>
        <time>2013-01-03T14:34:25Z</time>
      </trkpt>
      <trkpt lat="43.29122" lon="5.92043">
        <ele>516.37</ele>
        <time>2013-01-03T14:34:26Z</time>
      </trkpt>
      <trkpt lat="43.29123" lon="5.92046">
        <ele>516.85</ele>
        <time>2013-01-03T14:34:27Z</time>
      </trkpt>
      <trkpt lat="43.29124" lon="5.92047">
        <ele>517.33</ele>
        <time>2013-01-03T14:34:36Z</time>
      </trkpt>
      <trkpt lat="43.29124" lon="5.92047">
        <ele>515.4</ele>
        <time>2013-01-03T14:34:58Z</time>
      </trkpt>
      <trkpt lat="43.29124" lon="5.92047">
        <ele>521.17</ele>
        <time>2013-01-03T14:35:00Z</time>
      </trkpt>
      <trkpt lat="43.29124" lon="5.92047">
        <ele>517.81</ele>
        <time>2013-01-03T14:35:01Z</time>
      </trkpt>
      <trkpt lat="43.29124" lon="5.92047">
        <ele>517.81</ele>
        <time>2013-01-03T14:35:18Z</time>
      </trkpt>
      <trkpt lat="43.29121" lon="5.92052">
        <ele>517.33</ele>
        <time>2013-01-03T14:35:31Z</time>
      </trkpt>
      <trkpt lat="43.29121" lon="5.92055">
        <ele>516.85</ele>
        <time>2013-01-03T14:35:32Z</time>
      </trkpt>
      <trkpt lat="43.29121" lon="5.92058">
        <ele>516.85</ele>
        <time>2013-01-03T14:35:33Z</time>
      </trkpt>
      <trkpt lat="43.29115" lon="5.92089">
        <ele>513.48</ele>
        <time>2013-01-03T14:35:41Z</time>
      </trkpt>
      <trkpt lat="43.29109" lon="5.92112">
        <ele>510.12</ele>
        <time>2013-01-03T14:35:46Z</time>
      </trkpt>
      <trkpt lat="43.29104" lon="5.9213">
        <ele>507.23</ele>
        <time>2013-01-03T14:35:52Z</time>
      </trkpt>
      <trkpt lat="43.29104" lon="5.9213">
        <ele>506.75</ele>
        <time>2013-01-03T14:36:14Z</time>
      </trkpt>
      <trkpt lat="43.29101" lon="5.92137">
        <ele>506.27</ele>
        <time>2013-01-03T14:36:17Z</time>
      </trkpt>
      <trkpt lat="43.291" lon="5.92142">
        <ele>505.31</ele>
        <time>2013-01-03T14:36:18Z</time>
      </trkpt>
      <trkpt lat="43.29098" lon="5.92147">
        <ele>503.87</ele>
        <time>2013-01-03T14:36:19Z</time>
      </trkpt>
      <trkpt lat="43.29097" lon="5.92152">
        <ele>502.91</ele>
        <time>2013-01-03T14:36:20Z</time>
      </trkpt>
      <trkpt lat="43.29097" lon="5.92157">
        <ele>502.43</ele>
        <time>2013-01-03T14:36:21Z</time>
      </trkpt>
      <trkpt lat="43.29096" lon="5.92162">
        <ele>501.46</ele>
        <time>2013-01-03T14:36:22Z</time>
      </trkpt>
      <trkpt lat="43.29094" lon="5.92184">
        <ele>498.1</ele>
        <time>2013-01-03T14:36:27Z</time>
      </trkpt>
      <trkpt lat="43.29094" lon="5.92205">
        <ele>494.74</ele>
        <time>2013-01-03T14:36:31Z</time>
      </trkpt>
      <trkpt lat="43.29092" lon="5.9222">
        <ele>491.85</ele>
        <time>2013-01-03T14:36:35Z</time>
      </trkpt>
      <trkpt lat="43.29085" lon="5.92237">
        <ele>487.53</ele>
        <time>2013-01-03T14:36:39Z</time>
      </trkpt>
      <trkpt lat="43.29075" lon="5.92258">
        <ele>484.16</ele>
        <time>2013-01-03T14:36:44Z</time>
      </trkpt>
      <trkpt lat="43.29073" lon="5.92263">
        <ele>483.2</ele>
        <time>2013-01-03T14:36:45Z</time>
      </trkpt>
      <trkpt lat="43.2907" lon="5.92267">
        <ele>482.72</ele>
        <time>2013-01-03T14:36:46Z</time>
      </trkpt>
      <trkpt lat="43.29065" lon="5.92276">
        <ele>481.28</ele>
        <time>2013-01-03T14:36:48Z</time>
      </trkpt>
      <trkpt lat="43.29064" lon="5.92282">
        <ele>480.32</ele>
        <time>2013-01-03T14:36:49Z</time>
      </trkpt>
      <trkpt lat="43.29062" lon="5.92288">
        <ele>479.84</ele>
        <time>2013-01-03T14:36:50Z</time>
      </trkpt>
      <trkpt lat="43.29061" lon="5.92295">
        <ele>479.35</ele>
        <time>2013-01-03T14:36:51Z</time>
      </trkpt>
      <trkpt lat="43.29061" lon="5.92302">
        <ele>478.87</ele>
        <time>2013-01-03T14:36:52Z</time>
      </trkpt>
      <trkpt lat="43.29061" lon="5.92308">
        <ele>478.39</ele>
        <time>2013-01-03T14:36:53Z</time>
      </trkpt>
      <trkpt lat="43.29064" lon="5.92334">
        <ele>475.51</ele>
        <time>2013-01-03T14:36:57Z</time>
      </trkpt>
      <trkpt lat="43.29072" lon="5.92359">
        <ele>472.63</ele>
        <time>2013-01-03T14:37:02Z</time>
      </trkpt>
      <trkpt lat="43.2909" lon="5.92381">
        <ele>468.78</ele>
        <time>2013-01-03T14:37:09Z</time>
      </trkpt>
      <trkpt lat="43.29092" lon="5.92394">
        <ele>465.9</ele>
        <time>2013-01-03T14:37:12Z</time>
      </trkpt>
      <trkpt lat="43.29092" lon="5.92396">
        <ele>465.9</ele>
        <time>2013-01-03T14:37:13Z</time>
      </trkpt>
      <trkpt lat="43.29096" lon="5.92414">
        <ele>463.49</ele>
        <time>2013-01-03T14:37:22Z</time>
      </trkpt>
      <trkpt lat="43.29097" lon="5.92411">
        <ele>463.97</ele>
        <time>2013-01-03T14:37:24Z</time>
      </trkpt>
      <trkpt lat="43.29088" lon="5.924">
        <ele>463.97</ele>
        <time>2013-01-03T14:37:33Z</time>
      </trkpt>
      <trkpt lat="43.29085" lon="5.92397">
        <ele>463.49</ele>
        <time>2013-01-03T14:37:35Z</time>
      </trkpt>
      <trkpt lat="43.29071" lon="5.92406">
        <ele>460.61</ele>
        <time>2013-01-03T14:37:40Z</time>
      </trkpt>
      <trkpt lat="43.29065" lon="5.92409">
        <ele>459.65</ele>
        <time>2013-01-03T14:37:41Z</time>
      </trkpt>
      <trkpt lat="43.29058" lon="5.92413">
        <ele>459.17</ele>
        <time>2013-01-03T14:37:43Z</time>
      </trkpt>
      <trkpt lat="43.29056" lon="5.92413">
        <ele>459.17</ele>
        <time>2013-01-03T14:37:53Z</time>
      </trkpt>
      <trkpt lat="43.29055" lon="5.92414">
        <ele>459.17</ele>
        <time>2013-01-03T14:38:16Z</time>
      </trkpt>
      <trkpt lat="43.2904" lon="5.92415">
        <ele>457.72</ele>
        <time>2013-01-03T14:38:21Z</time>
      </trkpt>
      <trkpt lat="43.29035" lon="5.92417">
        <ele>457.24</ele>
        <time>2013-01-03T14:38:22Z</time>
      </trkpt>
      <trkpt lat="43.29031" lon="5.92418">
        <ele>456.76</ele>
        <time>2013-01-03T14:38:23Z</time>
      </trkpt>
      <trkpt lat="43.2902" lon="5.9242">
        <ele>455.32</ele>
        <time>2013-01-03T14:38:25Z</time>
      </trkpt>
      <trkpt lat="43.29014" lon="5.92419">
        <ele>454.84</ele>
        <time>2013-01-03T14:38:26Z</time>
      </trkpt>
      <trkpt lat="43.29003" lon="5.92418">
        <ele>453.88</ele>
        <time>2013-01-03T14:38:28Z</time>
      </trkpt>
      <trkpt lat="43.28997" lon="5.92419">
        <ele>453.4</ele>
        <time>2013-01-03T14:38:29Z</time>
      </trkpt>
      <trkpt lat="43.28991" lon="5.92424">
        <ele>452.44</ele>
        <time>2013-01-03T14:38:30Z</time>
      </trkpt>
      <trkpt lat="43.28968" lon="5.92447">
        <ele>449.07</ele>
        <time>2013-01-03T14:38:34Z</time>
      </trkpt>
      <trkpt lat="43.28957" lon="5.92455">
        <ele>447.15</ele>
        <time>2013-01-03T14:38:36Z</time>
      </trkpt>
      <trkpt lat="43.28952" lon="5.92457">
        <ele>446.67</ele>
        <time>2013-01-03T14:38:37Z</time>
      </trkpt>
      <trkpt lat="43.28948" lon="5.92458">
        <ele>446.67</ele>
        <time>2013-01-03T14:38:38Z</time>
      </trkpt>
      <trkpt lat="43.28944" lon="5.92458">
        <ele>446.19</ele>
        <time>2013-01-03T14:38:39Z</time>
      </trkpt>
      <trkpt lat="43.2894" lon="5.92455">
        <ele>446.19</ele>
        <time>2013-01-03T14:38:40Z</time>
      </trkpt>
      <trkpt lat="43.28936" lon="5.92452">
        <ele>446.19</ele>
        <time>2013-01-03T14:38:41Z</time>
      </trkpt>
      <trkpt lat="43.28932" lon="5.9245">
        <ele>446.19</ele>
        <time>2013-01-03T14:38:42Z</time>
      </trkpt>
      <trkpt lat="43.28927" lon="5.92448">
        <ele>443.79</ele>
        <time>2013-01-03T14:38:43Z</time>
      </trkpt>
      <trkpt lat="43.28923" lon="5.92446">
        <ele>447.63</ele>
        <time>2013-01-03T14:38:44Z</time>
      </trkpt>
      <trkpt lat="43.28917" lon="5.92445">
        <ele>445.71</ele>
        <time>2013-01-03T14:38:45Z</time>
      </trkpt>
      <trkpt lat="43.28912" lon="5.92443">
        <ele>444.75</ele>
        <time>2013-01-03T14:38:46Z</time>
      </trkpt>
      <trkpt lat="43.28907" lon="5.9244">
        <ele>444.75</ele>
        <time>2013-01-03T14:38:47Z</time>
      </trkpt>
      <trkpt lat="43.28901" lon="5.92436">
        <ele>444.27</ele>
        <time>2013-01-03T14:38:48Z</time>
      </trkpt>
      <trkpt lat="43.28897" lon="5.9243">
        <ele>443.79</ele>
        <time>2013-01-03T14:38:49Z</time>
      </trkpt>
      <trkpt lat="43.28893" lon="5.92423">
        <ele>443.31</ele>
        <time>2013-01-03T14:38:50Z</time>
      </trkpt>
      <trkpt lat="43.28889" lon="5.92414">
        <ele>442.82</ele>
        <time>2013-01-03T14:38:51Z</time>
      </trkpt>
      <trkpt lat="43.28885" lon="5.92405">
        <ele>441.38</ele>
        <time>2013-01-03T14:38:52Z</time>
      </trkpt>
      <trkpt lat="43.28883" lon="5.92395">
        <ele>441.38</ele>
        <time>2013-01-03T14:38:53Z</time>
      </trkpt>
      <trkpt lat="43.28881" lon="5.92384">
        <ele>440.42</ele>
        <time>2013-01-03T14:38:54Z</time>
      </trkpt>
      <trkpt lat="43.28879" lon="5.92372">
        <ele>439.46</ele>
        <time>2013-01-03T14:38:55Z</time>
      </trkpt>
      <trkpt lat="43.28873" lon="5.92313">
        <ele>435.61</ele>
        <time>2013-01-03T14:39:00Z</time>
      </trkpt>
      <trkpt lat="43.28871" lon="5.92304">
        <ele>435.13</ele>
        <time>2013-01-03T14:39:01Z</time>
      </trkpt>
      <trkpt lat="43.28867" lon="5.92295">
        <ele>434.17</ele>
        <time>2013-01-03T14:39:02Z</time>
      </trkpt>
      <trkpt lat="43.28863" lon="5.92287">
        <ele>434.17</ele>
        <time>2013-01-03T14:39:03Z</time>
      </trkpt>
      <trkpt lat="43.28858" lon="5.92279">
        <ele>433.69</ele>
        <time>2013-01-03T14:39:04Z</time>
      </trkpt>
      <trkpt lat="43.28853" lon="5.92272">
        <ele>433.21</ele>
        <time>2013-01-03T14:39:05Z</time>
      </trkpt>
      <trkpt lat="43.28848" lon="5.92268">
        <ele>433.21</ele>
        <time>2013-01-03T14:39:06Z</time>
      </trkpt>
      <trkpt lat="43.28845" lon="5.92267">
        <ele>433.21</ele>
        <time>2013-01-03T14:39:07Z</time>
      </trkpt>
      <trkpt lat="43.28842" lon="5.92266">
        <ele>433.21</ele>
        <time>2013-01-03T14:39:08Z</time>
      </trkpt>
      <trkpt lat="43.28841" lon="5.92266">
        <ele>433.69</ele>
        <time>2013-01-03T14:39:15Z</time>
      </trkpt>
    </trkseg>
  </trk>
</gpx>